# Wetter Temperatur Luftdruck Luftfeuchtigkeit Sichtweite Windgeschwindigkeit Windrichtung Zeit
1 Clouds 13 1009 82 10000 2.1 140 19:59 17.10.2019
2 Clouds 13 1009 82 10000 2.1 140 19:39 17.10.2019
3 Rain 13 1008 93 10000 1 130 19:19 17.10.2019
4 Clouds 13 1009 76 10000 2.1 160 18:58 17.10.2019
5 Clouds 14 1009 76 10000 2.1 160 18:38 17.10.2019
6 Clouds 14 1009 82 10000 2.1 0 18:20 17.10.2019
7 Clouds 14 1009 67 10000 2.1 190 17:42 17.10.2019
8 Clouds 15 1009 72 10000 3.1 170 17:23 17.10.2019
9 Clouds 15 1010 67 10000 2.6 200 16:57 17.10.2019
10 Clouds 15 1010 67 10000 2.6 200 16:39 17.10.2019
11 Clouds 15 1009 62 10000 4.1 200 16:18 17.10.2019
12 Clouds 16 1010 72 10000 3.1 230 15:56 17.10.2019
13 Clouds 16 1010 72 10000 3.1 230 15:56 17.10.2019
14 Clouds 16 1010 72 10000 3.1 230 15:38 17.10.2019
15 Clouds 16 1009 67 10000 4.1 220 15:19 17.10.2019
16 -273 0 0 0 0 0 14:55 17.10.2019
17 Clouds 15 1009 67 10000 3.1 260 14:37 17.10.2019
18 Clouds 15 1009 63 10000 4.1 250 14:18 17.10.2019
19 Clouds 15 1009 77 10000 3.1 240 13:39 17.10.2019
20 Rain 15 1009 82 10000 4.6 220 13:20 17.10.2019
21 Clouds 14 1009 82 10000 2.6 220 12:55 17.10.2019
22 Clouds 14 1009 82 10000 2.6 220 12:37 17.10.2019
23 Clouds 14 1009 87 10000 4.1 210 12:18 17.10.2019
24 Clouds 13 1009 93 9000 2.6 230 11:41 17.10.2019
25 Clouds 13 1009 93 9000 2.6 230 11:41 17.10.2019
26 Clouds 13 1008 93 10000 3.1 210 11:22 17.10.2019
27 Clouds 13 1008 93 10000 3.1 210 10:59 17.10.2019
28 Drizzle 13 1008 100 4500 3.6 260 10:41 17.10.2019
29 Drizzle 12 1008 100 8000 3.1 290 10:19 17.10.2019
30 Drizzle 12 1007 93 4500 3.6 270 09:56 17.10.2019
31 Drizzle 12 1007 93 4500 3.6 270 09:37 17.10.2019
32 Clouds 12 1007 93 8000 3.1 290 09:19 17.10.2019
33 Drizzle 12 1006 93 6000 3.1 230 08:48 17.10.2019
34 Mist 12 1006 93 4800 3.1 280 08:27 17.10.2019
35 Drizzle 13 1005 93 7000 3.6 210 07:59 17.10.2019
36 Drizzle 13 1005 93 7000 3.6 210 07:41 17.10.2019
37 Drizzle 13 1006 100 3700 2.6 290 07:21 17.10.2019
38 Drizzle 13 1006 100 3700 2.6 290 07:21 17.10.2019
39 Drizzle 13 1005 93 6000 4.1 200 06:43 17.10.2019
40 Drizzle 13 1005 93 4900 4.1 210 06:24 17.10.2019
41 Drizzle 14 1005 93 4900 4.1 210 05:59 17.10.2019
42 Rain 14 1005 93 5000 5.1 200 05:37 17.10.2019
43 Drizzle 14 1005 93 9000 5.1 200 05:19 17.10.2019
44 Rain 14 1005 93 9000 4.6 210 04:45 17.10.2019
45 Rain 14 1005 93 7000 4.6 200 03:45 17.10.2019
46 Rain 14 1005 93 4000 3.6 190 01:57 17.10.2019
47 Rain 14 1005 93 3800 4.1 190 00:42 17.10.2019
48 Rain 14 1005 93 10000 5.1 190 00:21 17.10.2019
49 Rain 14 1005 93 10000 5.1 190 23:59 16.10.2019
50 Rain 14 1005 93 10000 4.6 190 23:40 16.10.2019
51 Drizzle 14 1006 100 4000 4.1 180 23:18 16.10.2019
52 Drizzle 14 1006 93 4000 4.1 180 22:54 16.10.2019
53 Rain 14 1005 93 8000 4.6 190 22:36 16.10.2019
54 Rain 14 1005 93 8000 4.6 190 22:36 16.10.2019
55 Drizzle 14 1005 93 4400 5.1 190 22:18 16.10.2019
56 Clouds 13 1006 93 6000 4.1 170 21:54 16.10.2019
57 Clouds 13 1006 93 6000 4.1 170 21:36 16.10.2019
58 Rain 13 1005 95 0 2.68 338 21:18 16.10.2019
59 Rain 13 1004 99 0 3.58 168 20:56 16.10.2019
60 Rain 13 1005 94 0 3.13 338 20:37 16.10.2019
61 Drizzle 13 1005 100 3700 4.1 160 20:19 16.10.2019
62 Clouds 13 1006 82 10000 3.6 170 19:41 16.10.2019
63 Mist 13 1005 100 4200 4.1 160 19:21 16.10.2019
64 Mist 13 1005 100 4200 4.1 160 19:21 16.10.2019
65 Mist 13 1006 100 4100 3.6 160 18:58 16.10.2019
66 Mist 14 1006 100 4100 3.6 160 18:39 16.10.2019
67 Clouds 14 1006 93 10000 3.6 150 18:19 16.10.2019
68 Clouds 14 1007 72 10000 3.6 180 17:56 16.10.2019
69 Clouds 14 1007 72 10000 3.6 180 17:37 16.10.2019
70 Clouds 14 1006 82 10000 4.1 180 17:19 16.10.2019
71 Clouds 14 1006 82 10000 4.1 180 16:58 16.10.2019
72 Clouds 15 1007 72 10000 4.1 200 16:38 16.10.2019
73 Clouds 15 1006 77 10000 4.6 170 16:20 16.10.2019
74 Clouds 15 1007 72 10000 4.6 200 15:55 16.10.2019
75 Clouds 15 1006 77 10000 4.6 180 15:36 16.10.2019
76 Clouds 15 1006 77 10000 4.1 180 15:18 16.10.2019
77 Clouds 15 1006 77 10000 4.1 180 15:18 16.10.2019
78 Clouds 15 1006 77 10000 4.1 180 14:55 16.10.2019
79 Clouds 15 1007 76 10000 3.1 220 14:37 16.10.2019
80 Clouds 15 1007 76 10000 3.1 220 14:37 16.10.2019
81 Clouds 15 1007 76 10000 3.6 210 14:18 16.10.2019
82 Clouds 15 1007 77 10000 4.6 190 13:55 16.10.2019
83 Clouds 15 1007 77 10000 4.6 190 13:36 16.10.2019
84 Clouds 14 1007 82 10000 4.1 190 13:18 16.10.2019
85 Clouds 13 1008 82 10000 4.6 230 12:40 16.10.2019
86 Clouds 13 1007 82 10000 3.6 230 12:18 16.10.2019
87 Clouds 12 1008 93 10000 4.1 230 11:43 16.10.2019
88 Clouds 12 1008 93 6000 4.6 210 11:18 16.10.2019
89 Mist 12 1007 93 5000 4.1 220 10:39 16.10.2019
90 Clouds 12 1007 93 6000 4.6 210 10:20 16.10.2019
91 Drizzle 12 1007 93 3700 3.1 220 09:56 16.10.2019
92 Drizzle 12 1007 93 3700 3.1 220 09:38 16.10.2019
93 Mist 12 1007 93 5000 4.1 210 09:19 16.10.2019
94 Drizzle 12 1007 93 6000 3.1 240 08:43 16.10.2019
95 Mist 12 1007 93 4200 4.1 210 08:24 16.10.2019
96 Drizzle 12 1006 93 7000 3.1 240 07:55 16.10.2019
97 Drizzle 12 1006 93 7000 3.1 240 07:37 16.10.2019
98 Drizzle 12 1007 100 3800 3.6 200 07:18 16.10.2019
99 Drizzle 13 1006 93 6000 2.6 240 06:39 16.10.2019
100 Drizzle 13 1006 93 6000 2.6 240 06:39 16.10.2019
101 Drizzle 13 1006 100 5000 2.6 230 05:55 16.10.2019
102 Drizzle 13 1006 100 3500 3.1 230 03:27 16.10.2019
103 Drizzle 13 1006 93 6000 1.5 260 02:50 16.10.2019
104 Rain 13 1006 100 2700 2.6 210 01:20 16.10.2019
105 Rain 13 1006 93 5000 1.5 240 00:54 16.10.2019
106 Drizzle 14 1006 100 3200 3.1 200 00:35 16.10.2019
107 Rain 14 1006 93 6000 1.5 240 23:42 15.10.2019
108 Rain 14 1007 93 2700 2.6 210 23:22 15.10.2019
109 Drizzle 14 1006 93 6000 1.5 170 22:57 15.10.2019
110 Drizzle 14 1006 93 6000 1.5 170 22:38 15.10.2019
111 Rain 14 1006 100 3500 2.1 200 22:20 15.10.2019
112 Drizzle 14 1006 93 9000 1.5 180 21:57 15.10.2019
113 Drizzle 14 1006 93 9000 1.5 180 21:38 15.10.2019
114 Rain 14 1006 100 4200 1 240 21:20 15.10.2019
115 Rain 15 1006 87 10000 1.5 200 20:58 15.10.2019
116 Rain 15 1006 87 10000 1.5 200 20:40 15.10.2019
117 Rain 15 1006 87 10000 1.5 200 20:40 15.10.2019
118 Drizzle 15 1006 93 10000 1.5 140 20:21 15.10.2019
119 Drizzle 15 1006 93 10000 1.5 140 19:59 15.10.2019
120 Clouds 15 1006 87 10000 0.5 0 19:41 15.10.2019
121 Drizzle 15 1005 93 10000 1 0 19:20 15.10.2019
122 Clouds 15 1005 82 10000 1.5 220 18:55 15.10.2019
123 Rain 16 1005 82 10000 2.6 200 18:37 15.10.2019
124 Clouds 16 1005 82 10000 2.6 200 18:19 15.10.2019
125 Clouds 16 1005 77 10000 2.6 240 17:42 15.10.2019
126 Clouds 17 1005 82 10000 4.1 210 17:21 15.10.2019
127 Clouds 17 1005 82 10000 4.1 210 16:59 15.10.2019
128 Clouds 17 1005 72 10000 3.6 240 16:41 15.10.2019
129 Clouds 17 1005 77 10000 3.6 210 16:21 15.10.2019
130 Clouds 17 1005 77 10000 4.1 230 15:55 15.10.2019
131 Clouds 18 1005 68 10000 3.1 220 15:37 15.10.2019
132 Clouds 18 1005 82 10000 4.6 220 15:19 15.10.2019
133 Clouds 18 1005 72 10000 4.1 220 14:55 15.10.2019
134 Clouds 18 1005 72 10000 4.1 220 14:36 15.10.2019
135 Clouds 18 1005 77 10000 4.6 200 14:18 15.10.2019
136 Clouds 18 1005 72 10000 4.1 240 13:43 15.10.2019
137 Clouds 17 1005 82 10000 4.6 210 13:20 15.10.2019
138 Clouds 17 1005 77 10000 3.1 210 12:56 15.10.2019
139 Clouds 17 1005 77 10000 3.1 210 12:37 15.10.2019
140 Clouds 16 1005 87 10000 4.1 200 12:18 15.10.2019
141 Clouds 16 1005 77 10000 4.1 210 11:42 15.10.2019
142 Clouds 16 1005 87 10000 3.6 200 11:20 15.10.2019
143 Clouds 16 1005 82 10000 2.1 180 10:55 15.10.2019
144 Clouds 15 1005 82 10000 2.1 180 10:37 15.10.2019
145 Clouds 15 1004 87 10000 2.6 190 10:18 15.10.2019
146 Clouds 14 1005 93 10000 1 190 09:40 15.10.2019
147 Fog 13 1004 100 10000 2.1 190 09:21 15.10.2019
148 Fog 13 1004 100 10000 2.1 190 09:21 15.10.2019
149 Fog 13 1004 93 10000 2.1 190 08:58 15.10.2019
150 Fog 13 1004 93 10000 2.1 190 08:58 15.10.2019
151 Fog 13 1004 93 10000 2.1 190 08:58 15.10.2019
152 Clouds 13 1004 100 8000 2.1 210 08:40 15.10.2019
153 Clouds 13 1004 100 8000 1.5 200 08:20 15.10.2019
154 Clouds 13 1004 93 10000 1.5 170 07:48 15.10.2019
155 Clouds 13 1004 87 10000 2.6 200 07:23 15.10.2019
156 Clouds 13 1004 93 10000 2.1 140 06:58 15.10.2019
157 Clouds 13 1004 93 10000 2.1 140 06:40 15.10.2019
158 Clouds 13 1004 93 10000 2.1 140 05:58 15.10.2019
159 Clouds 14 1004 93 10000 2.1 140 05:37 15.10.2019
160 Clouds 14 1005 93 10000 2.6 130 04:54 15.10.2019
161 Clouds 14 1004 93 8000 2.1 140 04:20 15.10.2019
162 Clouds 14 1004 93 6000 2.1 120 03:35 15.10.2019
163 Clouds 14 1004 93 6000 2.1 120 03:35 15.10.2019
164 Clouds 14 1005 93 7000 2.6 110 02:22 15.10.2019
165 Clouds 14 1006 93 10000 3.6 120 01:47 15.10.2019
166 Clouds 14 1005 93 9000 2.1 110 01:18 15.10.2019
167 Clouds 14 1007 82 10000 5.1 110 00:46 15.10.2019
168 Rain 14 1006 93 10000 2.6 120 00:20 15.10.2019
169 Clouds 14 1007 87 10000 5.7 110 23:39 14.10.2019
170 Rain 14 1006 93 10000 3.1 100 23:19 14.10.2019
171 Clouds 14 1008 82 10000 6.7 100 22:41 14.10.2019
172 Rain 14 1007 87 10000 3.1 100 22:21 14.10.2019
173 Rain 14 1007 87 10000 3.1 100 22:21 14.10.2019
174 Clouds 14 1009 87 10000 5.7 90 21:59 14.10.2019
175 Clouds 14 1009 87 10000 5.7 90 21:40 14.10.2019
176 Rain 14 1008 87 10000 4.1 90 21:21 14.10.2019
177 Rain 14 1008 87 10000 4.1 90 20:59 14.10.2019
178 Clouds 14 1010 87 10000 5.7 80 20:39 14.10.2019
179 Rain 14 1008 87 10000 4.6 90 20:20 14.10.2019
180 Clouds 14 1010 87 10000 4.1 70 19:58 14.10.2019
181 Clouds 14 1010 87 10000 4.1 70 19:40 14.10.2019
182 Rain 14 1008 87 10000 5.1 80 19:22 14.10.2019
183 Clouds 14 1010 87 10000 6.2 90 18:58 14.10.2019
184 Clouds 14 1010 87 10000 6.2 90 18:38 14.10.2019
185 Rain 14 1009 87 10000 5.1 60 18:19 14.10.2019
186 Rain 14 1012 87 10000 4.1 30 17:44 14.10.2019
187 Clouds 14 1010 87 10000 4.6 60 17:26 14.10.2019
188 Rain 14 1012 77 10000 3.1 70 16:59 14.10.2019
189 Rain 15 1012 77 10000 3.1 70 16:40 14.10.2019
190 Clouds 15 1011 87 10000 4.1 50 16:20 14.10.2019
191 Rain 15 1012 77 10000 3.6 110 15:42 14.10.2019
192 Clouds 15 1012 77 10000 2.6 90 15:22 14.10.2019
193 Clouds 15 1013 77 10000 3.1 100 14:56 14.10.2019
194 Clouds 15 1013 77 10000 3.1 100 14:38 14.10.2019
195 Clouds 15 1012 77 10000 3.1 60 14:19 14.10.2019
196 Clouds 15 1014 77 10000 1.5 120 13:43 14.10.2019
197 Clouds 15 1012 77 10000 4.1 70 13:21 14.10.2019
198 Clouds 15 1014 82 10000 1.5 210 12:55 14.10.2019
199 Clouds 15 1014 82 10000 1.5 210 12:55 14.10.2019
200 Clouds 15 1014 87 10000 1.5 90 12:36 14.10.2019
201 Clouds 14 1014 87 10000 1.5 140 12:18 14.10.2019
202 Clouds 14 1014 87 10000 1.5 140 12:18 14.10.2019
203 Clouds 14 1014 87 10000 1.5 140 12:18 14.10.2019
204 Clouds 14 1014 82 10000 2.1 230 11:44 14.10.2019
205 Clouds 14 1014 93 10000 1.5 190 11:26 14.10.2019
206 Clouds 13 1014 87 10000 2.1 190 10:57 14.10.2019
207 Clouds 13 1014 87 10000 2.1 190 10:57 14.10.2019
208 Clouds 13 1014 87 10000 2.1 190 10:38 14.10.2019
209 Clouds 13 1013 87 10000 1.5 170 10:19 14.10.2019
210 -273 0 0 0 0 0 09:42 14.10.2019
211 Clouds 12 1013 93 10000 2.1 210 09:21 14.10.2019
212 Clouds 12 1013 87 10000 2.6 220 08:51 14.10.2019
213 Clouds 12 1012 93 10000 2.1 210 08:23 14.10.2019
214 Clouds 12 1012 87 10000 3.1 210 07:47 14.10.2019
215 Clouds 12 1012 87 10000 2.6 190 07:26 14.10.2019
216 Clouds 12 1011 87 10000 3.1 230 06:59 14.10.2019
217 Clouds 12 1012 93 10000 3.1 210 06:29 14.10.2019
218 Clouds 12 1011 82 10000 4.6 230 05:57 14.10.2019
219 Clouds 12 1010 82 10000 4.6 250 05:29 14.10.2019
220 Clouds 13 1010 82 10000 4.6 250 04:34 14.10.2019
221 Clouds 13 1010 87 10000 5.1 230 03:27 14.10.2019
222 Clouds 14 1010 93 10000 5.7 230 02:36 14.10.2019
223 Clouds 15 1008 87 10000 6.7 240 01:22 14.10.2019
224 Clouds 15 1007 82 10000 6.7 240 00:53 14.10.2019
225 Clouds 15 1008 82 10000 8.7 240 00:19 14.10.2019
226 Clouds 16 1006 77 10000 6.7 240 23:44 13.10.2019
227 Clouds 16 1006 82 10000 7.7 230 23:20 13.10.2019
228 Rain 16 1006 82 10000 8.7 230 22:58 13.10.2019
229 Rain 16 1006 82 10000 8.7 230 22:40 13.10.2019
230 Drizzle 17 1006 87 10000 8.7 230 22:21 13.10.2019
231 Drizzle 17 1006 87 10000 8.7 230 22:21 13.10.2019
232 Drizzle 17 1006 87 10000 8.7 230 21:58 13.10.2019
233 Drizzle 17 1005 82 10000 10.3 230 21:37 13.10.2019
234 Clouds 17 1005 72 10000 10.8 240 21:19 13.10.2019
235 Rain 18 1003 72 10000 6.7 210 20:57 13.10.2019
236 Rain 19 1003 72 10000 6.7 210 20:38 13.10.2019
237 Clouds 19 1004 82 10000 5.7 210 20:20 13.10.2019
238 Clouds 19 1003 82 10000 6.7 190 19:58 13.10.2019
239 Clouds 19 1003 82 10000 6.7 190 19:39 13.10.2019
240 -273 0 0 0 0 0 19:39 13.10.2019
241 Clouds 19 1003 82 10000 6.7 190 19:39 13.10.2019
242 Clouds 19 1003 77 10000 6.2 200 19:21 13.10.2019
243 -273 0 0 0 0 0 18:57 13.10.2019
244 -273 0 0 0 0 0 18:57 13.10.2019
245 Clouds 19 1003 82 10000 5.7 190 18:37 13.10.2019
246 Clouds 19 1003 77 10000 6.2 190 18:19 13.10.2019
247 Clouds 19 1003 77 10000 6.2 190 18:19 13.10.2019
248 Clouds 19 1004 88 10000 4.1 170 17:57 13.10.2019
249 Clouds 19 1004 88 10000 4.1 170 17:39 13.10.2019
250 Clouds 19 1003 82 10000 5.7 180 17:21 13.10.2019
251 Clouds 19 1004 93 10000 3.1 160 16:43 13.10.2019
252 Clouds 19 1004 93 10000 3.6 160 16:19 13.10.2019
253 -273 0 0 0 0 0 15:57 13.10.2019
254 Clouds 19 1005 88 9000 3.1 160 15:57 13.10.2019
255 Clouds 19 1005 88 9000 3.1 160 15:57 13.10.2019
256 Clouds 18 1005 88 9000 3.1 160 15:38 13.10.2019
257 Clouds 18 1006 93 8000 3.6 170 15:19 13.10.2019
258 Drizzle 18 1006 93 7000 2.6 170 14:57 13.10.2019
259 Drizzle 18 1006 93 7000 2.6 170 14:38 13.10.2019
260 Drizzle 17 1005 93 10000 4.1 160 14:19 13.10.2019
261 Drizzle 17 1007 93 7000 3.6 170 13:42 13.10.2019
262 Drizzle 17 1007 93 7000 3.6 170 13:42 13.10.2019
263 Rain 17 1006 93 7000 3.1 180 13:23 13.10.2019
264 Rain 17 1006 93 7000 3.1 180 12:59 13.10.2019
265 Drizzle 16 1007 87 8000 3.1 170 12:39 13.10.2019
266 Clouds 16 1007 93 7000 3.1 150 12:21 13.10.2019
267 Mist 15 1007 93 4500 2.1 150 11:59 13.10.2019
268 Mist 15 1007 93 4500 2.1 150 11:39 13.10.2019
269 Mist 14 1007 93 3300 2.6 140 11:21 13.10.2019
270 Mist 14 1008 93 2000 1.5 140 10:59 13.10.2019
271 -273 0 0 0 0 0 10:40 13.10.2019
272 Drizzle 13 1007 100 1900 2.1 110 10:22 13.10.2019
273 Drizzle 12 1008 100 1000 2.6 100 09:40 13.10.2019
274 Mist 12 1007 100 1600 2.1 60 09:21 13.10.2019
275 Mist 12 1008 100 1700 1.5 100 08:55 13.10.2019
276 Mist 11 1007 100 1200 2.1 110 08:27 13.10.2019
277 Mist 11 1007 100 1200 2.1 110 08:27 13.10.2019
278 Mist 11 1008 93 7000 2.6 110 07:56 13.10.2019
279 Mist 11 1008 93 7000 2.6 110 07:38 13.10.2019
280 Drizzle 11 1009 93 6000 2.1 100 06:55 13.10.2019
281 Drizzle 11 1008 100 7000 2.6 90 06:26 13.10.2019
282 Drizzle 11 1008 100 3200 2.6 70 05:34 13.10.2019
283 Drizzle 11 1010 93 6000 0.5 0 04:38 13.10.2019
284 Drizzle 11 1010 93 10000 2.6 170 03:37 13.10.2019
285 Drizzle 11 1010 100 8000 1 90 02:35 13.10.2019
286 Drizzle 11 1010 93 10000 2.1 180 01:51 13.10.2019
287 Drizzle 11 1010 100 7000 1.5 150 01:22 13.10.2019
288 Drizzle 11 1010 93 10000 2.1 200 00:44 13.10.2019
289 Drizzle 11 1010 100 6000 0.5 300 00:21 13.10.2019
290 Drizzle 11 1010 100 9000 2.1 210 23:55 12.10.2019
291 Drizzle 11 1010 100 5000 0.5 300 23:36 12.10.2019
292 Drizzle 11 1010 100 7000 1.5 200 23:18 12.10.2019
293 Drizzle 11 1010 93 10000 2.6 200 22:55 12.10.2019
294 Drizzle 11 1010 93 10000 2.6 200 22:36 12.10.2019
295 Drizzle 11 1010 100 6000 2.6 170 22:18 12.10.2019
296 Drizzle 11 1010 100 10000 2.1 200 21:41 12.10.2019
297 Drizzle 11 1009 100 10000 1.5 180 21:23 12.10.2019
298 Drizzle 12 1009 100 10000 1.5 180 20:57 12.10.2019
299 Drizzle 12 1009 93 10000 2.6 200 20:39 12.10.2019
300 Rain 12 1010 93 10000 2.6 200 20:20 12.10.2019
301 Drizzle 12 1010 93 10000 2.1 200 19:37 12.10.2019
302 Rain 12 1009 93 10000 2.6 210 19:19 12.10.2019
303 Rain 12 1009 87 9000 2.6 220 18:56 12.10.2019
304 Rain 12 1009 93 10000 3.1 210 18:36 12.10.2019
305 Rain 12 1009 93 10000 3.1 210 18:18 12.10.2019
306 Rain 13 1009 87 10000 2.6 230 17:42 12.10.2019
307 Drizzle 13 1009 87 10000 4.6 210 17:19 12.10.2019
308 -273 0 0 0 0 0 16:54 12.10.2019
309 Rain 13 1009 87 10000 4.6 220 16:36 12.10.2019
310 Rain 13 1009 87 10000 5.1 210 16:18 12.10.2019
311 Rain 14 1009 82 10000 4.1 240 15:40 12.10.2019
312 Clouds 14 1009 87 10000 4.6 230 15:22 12.10.2019
313 Clouds 14 1008 82 10000 4.1 240 14:41 12.10.2019
314 Clouds 13 1008 87 10000 5.7 230 14:22 12.10.2019
315 Clouds 13 1008 87 10000 4.6 240 13:57 12.10.2019
316 Clouds 13 1008 87 10000 4.6 240 13:38 12.10.2019
317 Clouds 13 1008 93 10000 5.7 220 13:20 12.10.2019
318 Clouds 13 1007 87 10000 4.1 220 12:39 12.10.2019
319 Drizzle 13 1008 93 10000 5.1 220 12:21 12.10.2019
320 Drizzle 12 1007 93 10000 4.1 220 11:58 12.10.2019
321 Drizzle 12 1007 93 10000 4.1 220 11:39 12.10.2019
322 Drizzle 12 1007 93 10000 4.6 220 11:19 12.10.2019
323 Drizzle 12 1007 93 10000 3.1 230 10:43 12.10.2019
324 Drizzle 11 1007 100 10000 3.1 240 10:23 12.10.2019
325 Drizzle 11 1006 93 8000 3.6 230 09:58 12.10.2019
326 Drizzle 11 1006 93 8000 3.6 230 09:39 12.10.2019
327 Drizzle 11 1006 100 2800 2.1 260 09:21 12.10.2019
328 Drizzle 11 1005 93 10000 3.1 230 08:57 12.10.2019
329 Drizzle 11 1005 93 10000 3.1 230 08:38 12.10.2019
330 Drizzle 11 1005 93 5000 3.1 290 08:19 12.10.2019
331 Drizzle 11 1005 100 4200 2.1 270 07:34 12.10.2019
332 Drizzle 11 1004 93 9000 3.1 230 06:56 12.10.2019
333 Drizzle 11 1004 93 9000 5.7 270 05:47 12.10.2019
334 Drizzle 11 1004 93 5000 3.1 230 05:23 12.10.2019
335 Drizzle 12 1004 93 4000 4.6 240 04:24 12.10.2019
336 Drizzle 13 1004 93 9000 4.1 260 03:31 12.10.2019
337 Drizzle 15 1003 87 10000 8.2 230 01:45 12.10.2019
338 Drizzle 15 1003 87 10000 8.7 230 01:21 12.10.2019
339 Drizzle 15 1003 87 10000 8.7 230 01:21 12.10.2019
340 Drizzle 15 1003 87 10000 8.7 230 00:42 12.10.2019
341 Drizzle 15 1003 87 9000 9.3 230 23:59 11.10.2019
342 Drizzle 15 1003 87 9000 9.3 230 23:40 11.10.2019
343 Drizzle 15 1003 87 9000 9.3 230 23:40 11.10.2019
344 Drizzle 15 1003 87 10000 10.3 220 23:20 11.10.2019
345 Drizzle 14 1003 93 8000 9.3 230 22:41 11.10.2019
346 Drizzle 14 1003 87 7000 10.8 220 22:22 11.10.2019
347 Drizzle 14 1003 87 7000 10.8 220 21:59 11.10.2019
348 Drizzle 14 1003 93 6000 8.7 220 21:40 11.10.2019
349 Drizzle 14 1004 93 3700 10.3 220 21:21 11.10.2019
350 Drizzle 14 1003 93 9000 8.2 220 20:45 11.10.2019
351 Drizzle 14 1003 93 6000 8.7 220 20:27 11.10.2019
352 Drizzle 14 1004 93 7000 9.3 210 19:59 11.10.2019
353 Drizzle 14 1004 87 8000 8.7 220 19:39 11.10.2019
354 Drizzle 14 1004 93 3600 9.3 210 19:18 11.10.2019
355 Drizzle 14 1004 93 3600 9.3 210 19:18 11.10.2019
356 Drizzle 14 1004 93 3600 9.3 210 19:18 11.10.2019
357 Drizzle 14 1004 87 5000 8.7 220 18:59 11.10.2019
358 Drizzle 14 1005 93 8000 9.3 210 18:39 11.10.2019
359 Rain 14 1005 93 7000 9.8 210 18:19 11.10.2019
360 Rain 14 1004 87 10000 9.3 220 17:59 11.10.2019
361 Rain 14 1004 87 10000 9.3 220 17:38 11.10.2019
362 Drizzle 14 1005 93 10000 10.3 210 17:19 11.10.2019
363 Drizzle 14 1004 82 10000 9.3 220 16:59 11.10.2019
364 Drizzle 14 1004 82 10000 9.3 220 16:39 11.10.2019
365 Drizzle 14 1004 82 10000 9.3 220 16:39 11.10.2019
366 Drizzle 14 1004 82 10000 9.3 220 16:39 11.10.2019
367 Drizzle 15 1005 87 10000 10.8 210 16:19 11.10.2019
368 Drizzle 15 1005 87 10000 8.2 220 15:55 11.10.2019
369 Drizzle 15 1005 87 10000 8.2 220 15:36 11.10.2019
370 Rain 15 1006 87 10000 10.8 210 15:18 11.10.2019
371 Rain 14 1005 93 10000 8.7 220 14:43 11.10.2019
372 Drizzle 14 1006 87 10000 10.3 210 14:23 11.10.2019
373 Drizzle 14 1006 87 8000 6.7 220 13:47 11.10.2019
374 Drizzle 14 1006 87 6000 6.7 220 13:27 11.10.2019
375 Drizzle 14 1007 93 10000 9.8 210 12:58 11.10.2019
376 Drizzle 14 1006 87 6000 7.2 220 12:40 11.10.2019
377 Rain 14 1007 93 9000 8.7 210 12:21 11.10.2019
378 Rain 14 1007 93 9000 8.7 210 11:59 11.10.2019
379 Rain 14 1007 93 5000 7.7 220 11:39 11.10.2019
380 Rain 13 1007 93 5000 6.7 220 11:21 11.10.2019
381 Rain 14 1007 93 10000 7.2 220 10:56 11.10.2019
382 Rain 13 1007 93 10000 7.2 220 10:38 11.10.2019
383 Rain 13 1007 93 10000 7.2 220 10:19 11.10.2019
384 Drizzle 13 1007 93 10000 6.7 220 09:43 11.10.2019
385 Drizzle 13 1007 93 7000 7.7 210 09:22 11.10.2019
386 Drizzle 13 1007 93 7000 7.7 210 08:59 11.10.2019
387 Clouds 13 1006 87 10000 6.7 230 08:39 11.10.2019
388 Drizzle 13 1007 93 10000 8.7 220 08:21 11.10.2019
389 Drizzle 13 1007 93 10000 8.7 220 07:58 11.10.2019
390 Drizzle 13 1006 87 10000 6.2 220 07:40 11.10.2019
391 Clouds 13 1007 93 10000 9.8 230 07:20 11.10.2019
392 Drizzle 12 1007 93 10000 6.7 230 06:43 11.10.2019
393 Rain 12 1006 87 10000 7.7 220 06:21 11.10.2019
394 Drizzle 13 1007 87 10000 9.8 210 05:32 11.10.2019
395 Clouds 13 1007 82 10000 7.2 210 04:59 11.10.2019
396 Clouds 13 1008 82 10000 8.7 210 04:24 11.10.2019
397 Clouds 12 1009 81 10000 6.7 220 01:58 11.10.2019
398 Clouds 12 1009 81 10000 6.7 220 00:42 11.10.2019
399 Rain 12 1010 87 10000 7.2 210 00:23 11.10.2019
400 Clouds 12 1010 81 10000 5.1 220 23:42 10.10.2019
401 Clouds 12 1010 81 10000 6.7 200 23:21 10.10.2019
402 Clouds 11 1010 81 10000 4.6 220 22:57 10.10.2019
403 Rain 11 1010 87 10000 5.1 200 22:38 10.10.2019
404 Rain 11 1010 87 10000 4.6 200 22:20 10.10.2019
405 Clouds 11 1010 81 10000 4.1 220 21:57 10.10.2019
406 Clouds 11 1010 81 10000 4.1 220 21:38 10.10.2019
407 Rain 11 1011 87 10000 4.1 210 21:20 10.10.2019
408 Clouds 11 1010 81 10000 4.1 230 20:42 10.10.2019
409 Clouds 11 1011 81 10000 3.6 220 20:21 10.10.2019
410 Clouds 11 1011 81 10000 3.6 220 20:21 10.10.2019
411 Clouds 11 1010 76 10000 4.6 240 19:59 10.10.2019
412 Clouds 11 1010 76 10000 4.6 240 19:40 10.10.2019
413 Clouds 12 1010 81 10000 4.1 230 19:20 10.10.2019
414 Clouds 12 1009 71 10000 5.7 250 18:57 10.10.2019
415 Clouds 12 1009 71 10000 5.7 250 18:39 10.10.2019
416 Clouds 12 1010 81 10000 4.6 250 18:20 10.10.2019
417 Clouds 13 1010 76 10000 5.7 250 17:54 10.10.2019
418 Clouds 13 1010 76 10000 5.7 250 17:36 10.10.2019
419 Clouds 13 1010 76 10000 5.7 250 17:36 10.10.2019
420 Clouds 14 1010 67 10000 5.7 260 17:18 10.10.2019
421 Clouds 14 1010 67 10000 5.7 260 17:18 10.10.2019
422 Clouds 14 1010 67 10000 5.7 260 17:18 10.10.2019
423 Clouds 13 1008 67 10000 7.2 260 16:41 10.10.2019
424 Rain 14 1009 67 10000 9.3 250 16:22 10.10.2019
425 Rain 14 1008 76 10000 5.7 260 15:54 10.10.2019
426 Rain 14 1009 71 10000 6.7 250 15:36 10.10.2019
427 Rain 14 1009 67 10000 7.7 250 15:18 10.10.2019
428 Clouds 14 1008 76 10000 6.7 250 14:54 10.10.2019
429 Clouds 13 1008 67 10000 7.7 250 14:36 10.10.2019
430 Rain 13 1008 76 10000 7.2 240 14:18 10.10.2019
431 Clouds 12 1007 87 10000 4.6 250 13:41 10.10.2019
432 Rain 12 1007 71 4000 6.7 240 13:23 10.10.2019
433 Rain 13 1007 71 10000 6.7 240 12:57 10.10.2019
434 Rain 13 1007 71 10000 6.7 240 12:39 10.10.2019
435 Drizzle 13 1007 82 10000 7.2 230 12:20 10.10.2019
436 Clouds 13 1006 81 10000 6.2 230 11:56 10.10.2019
437 Clouds 12 1006 81 10000 6.2 230 11:38 10.10.2019
438 Clouds 12 1007 87 10000 7.7 220 11:19 10.10.2019
439 Clouds 11 1006 87 10000 5.7 230 10:44 10.10.2019
440 Clouds 11 1006 93 10000 5.7 220 10:26 10.10.2019
441 Clouds 10 1005 87 8000 5.1 220 09:56 10.10.2019
442 Rain 10 1006 93 10000 5.7 220 09:38 10.10.2019
443 Rain 10 1006 93 10000 5.7 220 09:38 10.10.2019
444 Clouds 10 1005 100 10000 5.7 210 09:19 10.10.2019
445 Clouds 9 1005 93 7000 4.6 230 08:56 10.10.2019
446 Clouds 9 1005 100 6000 5.1 210 08:37 10.10.2019
447 Clouds 9 1005 100 6000 5.7 210 08:18 10.10.2019
448 Clouds 9 1004 93 10000 4.6 230 07:42 10.10.2019
449 Clouds 9 1004 100 8000 6.2 220 07:20 10.10.2019
450 Clouds 9 1003 93 10000 3.6 230 06:46 10.10.2019
451 Clouds 9 1004 100 10000 5.1 210 06:26 10.10.2019
452 Rain 9 1004 93 10000 5.1 210 05:27 10.10.2019
453 Clouds 9 1003 87 10000 4.6 230 04:39 10.10.2019
454 Clouds 9 1004 93 10000 5.1 210 04:21 10.10.2019
455 Drizzle 9 1002 87 10000 3.6 220 01:43 10.10.2019
456 Rain 9 1003 100 10000 3.6 210 01:24 10.10.2019
457 Clouds 9 1002 93 10000 3.6 230 00:54 10.10.2019
458 Clouds 9 1003 100 10000 3.1 240 00:22 10.10.2019
459 Clouds 9 1002 93 10000 3.1 230 23:40 09.10.2019
460 Rain 9 1002 93 10000 3.6 190 23:21 09.10.2019
461 Rain 10 1002 93 10000 3.1 220 22:56 09.10.2019
462 Rain 9 1002 93 10000 3.1 220 22:38 09.10.2019
463 Rain 10 1003 93 10000 4.6 210 22:20 09.10.2019
464 Rain 10 1002 93 10000 3.1 220 21:41 09.10.2019
465 Clouds 10 1002 100 10000 4.6 210 21:21 09.10.2019
466 Clouds 10 1002 87 10000 2.6 220 20:56 09.10.2019
467 Clouds 9 1002 87 10000 2.6 220 20:38 09.10.2019
468 Rain 10 1002 93 10000 4.1 210 20:19 09.10.2019
469 Rain 10 1002 93 10000 4.1 210 19:58 09.10.2019
470 Clouds 10 1002 87 10000 3.1 220 19:40 09.10.2019
471 Rain 10 1002 93 10000 4.6 230 19:21 09.10.2019
472 Clouds 10 1002 87 10000 3.1 230 18:38 09.10.2019
473 Rain 10 1002 87 10000 3.6 240 18:20 09.10.2019
474 Clouds 11 1001 81 10000 4.1 240 17:57 09.10.2019
475 Clouds 11 1001 81 10000 4.1 240 17:37 09.10.2019
476 Clouds 11 1001 81 10000 4.1 240 17:37 09.10.2019
477 Rain 11 1002 93 10000 5.1 220 17:19 09.10.2019
478 Rain 11 1002 87 9000 5.1 220 16:56 09.10.2019
479 Rain 11 1002 87 9000 5.1 220 16:37 09.10.2019
480 -273 0 0 0 0 0 16:18 09.10.2019
481 Rain 11 1002 81 9000 5.1 240 15:55 09.10.2019
482 Rain 11 1002 81 9000 5.1 240 15:37 09.10.2019
483 Rain 11 1003 93 7000 3.6 240 15:18 09.10.2019
484 Rain 11 1002 82 10000 6.7 220 14:44 09.10.2019
485 Rain 11 1002 82 10000 6.7 220 14:44 09.10.2019
486 Clouds 12 1003 93 10000 3.1 230 14:19 09.10.2019
487 Rain 12 1002 82 10000 6.7 220 13:59 09.10.2019
488 Rain 12 1002 82 10000 6.7 220 13:38 09.10.2019
489 Rain 12 1003 87 7000 7.7 220 13:18 09.10.2019
490 Clouds 13 1003 82 10000 7.2 220 12:44 09.10.2019
491 Clouds 13 1003 82 10000 7.2 210 12:23 09.10.2019
492 Clouds 12 1003 82 10000 7.2 220 11:58 09.10.2019
493 Clouds 12 1003 82 10000 7.2 220 11:40 09.10.2019
494 Clouds 12 1003 87 10000 6.7 220 11:20 09.10.2019
495 Clouds 12 1003 87 10000 6.7 220 10:58 09.10.2019
496 Clouds 12 1003 87 10000 6.7 220 10:40 09.10.2019
497 Clouds 11 1003 93 10000 6.7 210 10:18 09.10.2019
498 Clouds 11 1003 87 10000 5.7 210 09:43 09.10.2019
499 Clouds 11 1003 93 10000 5.7 200 09:20 09.10.2019
500 Clouds 10 1003 93 10000 5.1 220 08:58 09.10.2019
501 Clouds 10 1003 93 10000 5.1 220 08:38 09.10.2019
502 Rain 10 1003 93 10000 5.7 200 08:19 09.10.2019
503 Rain 10 1003 93 10000 5.7 200 08:19 09.10.2019
504 Clouds 10 1003 93 10000 4.6 220 07:47 09.10.2019
505 Clouds 10 1003 93 10000 4.6 220 07:47 09.10.2019
506 Rain 10 1004 93 10000 4.6 200 07:24 09.10.2019
507 Clouds 10 1003 93 10000 3.6 220 06:57 09.10.2019
508 Rain 10 1004 93 10000 4.6 210 06:35 09.10.2019
509 Rain 10 1003 93 10000 4.6 230 05:52 09.10.2019
510 Rain 10 1003 93 10000 4.6 220 04:50 09.10.2019
511 Clouds 11 1002 93 10000 4.1 220 03:47 09.10.2019
512 Rain 11 1003 93 10000 5.1 210 02:27 09.10.2019
513 Rain 11 1002 87 6000 5.7 230 01:39 09.10.2019
514 Rain 12 1002 93 10000 6.2 220 01:18 09.10.2019
515 Clouds 11 1001 87 10000 3.6 230 00:41 09.10.2019
516 Rain 11 1002 93 10000 5.7 210 00:23 09.10.2019
517 Rain 11 1001 87 10000 5.1 210 23:58 08.10.2019
518 Rain 11 1002 87 10000 5.1 200 23:38 08.10.2019
519 Rain 11 1003 87 8000 5.7 250 23:18 08.10.2019
520 Rain 11 1003 87 8000 5.7 250 23:18 08.10.2019
521 Clouds 12 1002 87 10000 4.1 220 22:55 08.10.2019
522 Clouds 12 1002 93 10000 6.2 210 22:36 08.10.2019
523 Rain 12 1002 93 10000 4.6 210 22:18 08.10.2019
524 Clouds 12 1002 87 10000 3.6 210 21:55 08.10.2019
525 Rain 12 1002 93 10000 3.6 200 21:36 08.10.2019
526 Clouds 12 1002 87 10000 4.1 210 21:18 08.10.2019
527 Clouds 12 1002 81 10000 3.6 230 20:54 08.10.2019
528 Clouds 12 1003 93 10000 3.6 210 20:36 08.10.2019
529 Clouds 12 1003 87 10000 4.1 210 20:18 08.10.2019
530 Clouds 13 1002 76 10000 4.1 240 19:42 08.10.2019
531 Clouds 13 1003 82 10000 5.1 220 19:23 08.10.2019
532 Clouds 13 1003 82 10000 5.1 220 18:59 08.10.2019
533 Clouds 14 1002 71 10000 4.6 240 18:41 08.10.2019
534 Clouds 14 1003 82 10000 4.1 230 18:22 08.10.2019
535 Clouds 15 1002 72 10000 5.1 250 17:57 08.10.2019
536 Clouds 14 1002 72 10000 5.1 250 17:39 08.10.2019
537 Clouds 15 1003 72 10000 6.2 250 17:18 08.10.2019
538 Clouds 15 1003 77 10000 5.1 240 16:55 08.10.2019
539 Clouds 15 1003 77 10000 5.1 240 16:37 08.10.2019
540 Clouds 16 1003 72 10000 5.7 240 16:18 08.10.2019
541 Clouds 16 1002 72 10000 4.6 250 15:38 08.10.2019
542 Rain 16 1003 77 10000 5.1 250 15:20 08.10.2019
543 Rain 16 1002 72 10000 4.1 260 14:55 08.10.2019
544 Rain 16 1002 72 10000 4.1 260 14:37 08.10.2019
545 Clouds 16 1003 77 10000 6.7 240 14:19 08.10.2019
546 -273 0 0 0 0 0 13:54 08.10.2019
547 Clouds 16 1003 72 10000 7.2 260 13:54 08.10.2019
548 Clouds 15 1004 77 10000 5.1 240 13:36 08.10.2019
549 Clouds 15 1004 77 10000 5.1 240 13:18 08.10.2019
550 Clouds 15 1004 77 10000 5.1 240 13:18 08.10.2019
551 Clouds 15 1003 82 10000 5.1 250 12:40 08.10.2019
552 Clouds 15 1003 82 10000 5.7 260 12:20 08.10.2019
553 Clouds 15 1003 82 10000 5.1 260 11:57 08.10.2019
554 Clouds 15 1003 82 10000 5.1 260 11:57 08.10.2019
555 Clouds 14 1003 82 10000 5.1 260 11:38 08.10.2019
556 Clouds 14 1004 93 10000 5.7 230 11:20 08.10.2019
557 Clouds 14 1003 87 10000 5.1 250 10:42 08.10.2019
558 Clouds 13 1004 93 10000 4.6 230 10:23 08.10.2019
559 Clouds 13 1004 93 10000 4.6 230 09:59 08.10.2019
560 Clouds 13 1003 93 10000 4.1 230 09:40 08.10.2019
561 Clouds 12 1003 87 10000 4.6 230 09:22 08.10.2019
562 Clouds 12 1003 93 10000 3.6 250 08:45 08.10.2019
563 Drizzle 12 1003 93 10000 5.1 230 08:25 08.10.2019
564 Drizzle 12 1003 93 10000 5.1 230 07:58 08.10.2019
565 Drizzle 12 1003 93 10000 5.1 230 07:40 08.10.2019
566 Clouds 12 1004 100 10000 5.7 220 07:19 08.10.2019
567 Clouds 12 1003 93 8000 5.7 230 06:46 08.10.2019
568 Drizzle 12 1005 100 9000 6.2 220 06:23 08.10.2019
569 Drizzle 12 1004 93 5000 5.1 200 05:43 08.10.2019
570 Drizzle 12 1004 93 5000 5.1 200 05:43 08.10.2019
571 Drizzle 12 1005 93 5000 6.2 200 05:19 08.10.2019
572 Rain 11 1007 100 2600 5.1 190 03:32 08.10.2019
573 Drizzle 11 1008 93 10000 4.1 180 02:44 08.10.2019
574 Drizzle 11 1009 93 4100 5.1 190 02:25 08.10.2019
575 Rain 11 1009 87 10000 4.1 180 01:42 08.10.2019
576 Clouds 11 1010 87 10000 3.6 180 00:57 08.10.2019
577 Clouds 11 1010 87 10000 3.6 180 00:57 08.10.2019
578 Clouds 11 1010 87 9000 4.6 190 00:36 08.10.2019
579 Clouds 11 1011 87 10000 4.6 190 00:18 08.10.2019
580 Clouds 11 1012 81 10000 2.6 170 23:38 07.10.2019
581 Clouds 11 1012 87 10000 4.1 180 23:19 07.10.2019
582 Clouds 11 1013 76 10000 3.6 160 22:55 07.10.2019
583 Clouds 10 1013 76 10000 3.6 160 22:37 07.10.2019
584 Rain 10 1012 87 10000 4.1 170 22:19 07.10.2019
585 Clouds 10 1014 76 10000 3.1 160 21:55 07.10.2019
586 Clouds 10 1014 76 10000 3.1 160 21:37 07.10.2019
587 Clouds 10 1014 81 10000 3.6 180 21:18 07.10.2019
588 Clouds 10 1014 81 10000 3.6 180 21:18 07.10.2019
589 Clouds 10 1015 76 10000 2.6 140 20:57 07.10.2019
590 Clouds 10 1014 81 10000 3.1 180 20:38 07.10.2019
591 Clouds 10 1015 81 10000 3.1 170 20:19 07.10.2019
592 Clouds 10 1016 76 10000 2.6 130 19:56 07.10.2019
593 Clouds 11 1015 76 10000 2.6 180 19:38 07.10.2019
594 Clouds 11 1015 76 10000 2.6 170 19:18 07.10.2019
595 Clouds 11 1016 66 10000 2.1 130 18:55 07.10.2019
596 Clouds 11 1016 66 10000 2.1 130 18:37 07.10.2019
597 Clouds 11 1015 71 10000 2.6 170 18:18 07.10.2019
598 Clouds 12 1016 62 10000 3.6 120 17:41 07.10.2019
599 Clouds 12 1016 66 10000 3.1 170 17:19 07.10.2019
600 Clouds 12 1017 53 10000 3.1 140 16:55 07.10.2019
601 Clouds 12 1017 53 10000 3.1 140 16:37 07.10.2019
602 Clouds 12 1016 62 10000 3.1 140 16:19 07.10.2019
603 Clouds 12 1018 50 10000 3.6 150 15:42 07.10.2019
604 Clouds 12 1017 58 10000 4.6 140 15:24 07.10.2019
605 Clouds 12 1018 50 10000 3.6 130 14:42 07.10.2019
606 Clouds 12 1018 66 10000 4.1 120 14:23 07.10.2019
607 Clouds 11 1020 50 10000 4.6 150 13:59 07.10.2019
608 Clouds 11 1020 50 10000 4.6 150 13:59 07.10.2019
609 Clouds 11 1020 50 10000 4.6 150 13:40 07.10.2019
610 Clouds 11 1018 71 10000 4.6 110 13:19 07.10.2019
611 Clouds 10 1020 53 10000 5.7 140 12:55 07.10.2019
612 Clouds 10 1020 53 10000 5.7 140 12:37 07.10.2019
613 Clouds 10 1019 76 10000 3.1 100 12:18 07.10.2019
614 Clouds 10 1021 66 10000 4.6 140 11:56 07.10.2019
615 Clouds 9 1019 76 10000 3.1 110 11:37 07.10.2019
616 Clouds 9 1019 81 10000 3.6 100 11:18 07.10.2019
617 Clouds 8 1020 70 10000 4.1 130 10:41 07.10.2019
618 Clouds 7 1019 81 10000 3.6 110 10:20 07.10.2019
619 Clouds 7 1019 81 10000 3.6 110 10:20 07.10.2019
620 Clouds 5 1020 80 10000 3.1 100 09:42 07.10.2019
621 Clouds 6 1020 80 10000 3.1 100 09:42 07.10.2019
622 Clouds 5 1019 86 10000 3.6 90 09:23 07.10.2019
623 Clouds 4 1020 86 10000 2.1 100 08:57 07.10.2019
624 Clouds 3 1020 86 10000 2.1 100 08:38 07.10.2019
625 Clear 3 1019 86 10000 4.1 80 08:19 07.10.2019
626 Clouds 3 1020 86 10000 1 90 07:41 07.10.2019
627 Clear 3 1019 86 10000 3.1 70 07:22 07.10.2019
628 Clear 3 1020 86 10000 2.6 80 06:54 07.10.2019
629 Clear 4 1019 86 10000 3.1 80 06:34 07.10.2019
630 Clear 4 1020 86 10000 3.1 90 05:47 07.10.2019
631 Clear 4 1020 86 10000 3.1 80 05:22 07.10.2019
632 Clear 4 1018 93 10000 3.6 60 04:28 07.10.2019
633 Clear 5 1019 80 10000 3.6 80 03:45 07.10.2019
634 Clear 5 1019 80 10000 3.6 80 03:45 07.10.2019
635 Clouds 5 1018 93 10000 3.1 70 03:21 07.10.2019
636 Clouds 6 1017 87 10000 4.1 70 02:22 07.10.2019
637 Clouds 6 1019 86 10000 3.6 70 01:52 07.10.2019
638 Clouds 6 1017 87 10000 4.1 70 01:22 07.10.2019
639 Clouds 7 1018 81 10000 3.6 90 00:41 07.10.2019
640 Clouds 7 1017 87 10000 5.7 70 00:22 07.10.2019
641 Clouds 7 1018 81 10000 4.1 90 23:56 06.10.2019
642 Clouds 8 1018 81 10000 4.1 90 23:38 06.10.2019
643 Clouds 8 1016 81 10000 5.1 70 23:18 06.10.2019
644 Clouds 8 1018 81 10000 5.7 90 22:54 06.10.2019
645 Clouds 8 1016 81 10000 4.6 80 22:36 06.10.2019
646 Clouds 8 1015 81 10000 5.7 80 22:18 06.10.2019
647 -273 0 0 0 0 0 21:54 06.10.2019
648 Clouds 9 1015 81 10000 5.1 80 21:36 06.10.2019
649 Clouds 9 1014 81 10000 5.1 80 21:18 06.10.2019
650 Clouds 9 1016 76 10000 6.2 100 20:54 06.10.2019
651 Clouds 9 1014 81 10000 5.7 80 20:36 06.10.2019
652 Clouds 9 1015 76 10000 5.7 100 20:18 06.10.2019
653 Clouds 9 1015 76 10000 5.7 100 19:54 06.10.2019
654 Clouds 9 1013 76 10000 5.7 90 19:36 06.10.2019
655 Clouds 9 1013 76 10000 6.7 90 19:18 06.10.2019
656 Clouds 10 1015 71 10000 6.7 100 18:54 06.10.2019
657 Clouds 10 1013 76 10000 6.2 90 18:36 06.10.2019
658 Clouds 10 1013 76 10000 5.7 90 18:18 06.10.2019
659 Clouds 10 1015 66 10000 7.7 100 17:42 06.10.2019
660 Clouds 10 1012 76 10000 5.1 100 17:19 06.10.2019
661 Clouds 10 1015 66 10000 7.2 100 16:54 06.10.2019
662 Clouds 10 1012 76 10000 5.1 100 16:36 06.10.2019
663 Clouds 10 1013 71 10000 5.7 100 16:18 06.10.2019
664 Clouds 10 1016 66 10000 7.2 110 15:42 06.10.2019
665 Clouds 10 1013 76 10000 5.7 100 15:19 06.10.2019
666 Clouds 10 1013 76 10000 5.7 100 15:19 06.10.2019
667 Clouds 10 1013 76 10000 5.7 100 15:19 06.10.2019
668 Clouds 10 1013 76 10000 5.7 100 15:19 06.10.2019
669 Clouds 10 1016 71 10000 7.2 110 14:44 06.10.2019
670 Clouds 10 1014 71 10000 6.7 100 14:25 06.10.2019
671 Clouds 10 1017 76 10000 6.2 120 13:59 06.10.2019
672 Clouds 10 1017 76 10000 6.2 120 13:39 06.10.2019
673 Clouds 10 1014 76 10000 6.2 100 13:21 06.10.2019
674 Clouds 10 1017 81 10000 6.7 120 12:58 06.10.2019
675 Clouds 9 1017 81 10000 6.7 120 12:39 06.10.2019
676 Clouds 9 1015 81 10000 5.1 110 12:21 06.10.2019
677 Clouds 9 1018 87 10000 5.7 120 11:58 06.10.2019
678 Clouds 9 1018 87 10000 5.7 120 11:39 06.10.2019
679 Clouds 9 1015 81 10000 5.1 100 11:21 06.10.2019
680 Clouds 8 1018 87 10000 6.2 110 10:54 06.10.2019
681 Clouds 8 1016 87 10000 5.7 100 10:36 06.10.2019
682 Clouds 8 1016 87 10000 5.1 100 10:18 06.10.2019
683 Clouds 8 1018 87 10000 5.7 120 09:41 06.10.2019
684 Clouds 8 1016 87 10000 4.6 100 09:19 06.10.2019
685 Clouds 7 1019 93 10000 4.6 110 08:47 06.10.2019
686 Clouds 7 1017 93 10000 4.1 100 08:21 06.10.2019
687 Clouds 7 1019 93 10000 4.6 110 07:57 06.10.2019
688 Clouds 7 1019 93 10000 4.6 110 07:38 06.10.2019
689 Clouds 7 1017 87 10000 3.1 100 06:39 06.10.2019
690 Clouds 7 1018 93 10000 3.6 100 05:36 06.10.2019
691 Clouds 7 1018 87 10000 3.6 100 04:29 06.10.2019
692 Clouds 8 1020 93 10000 3.6 110 02:52 06.10.2019
693 Clouds 8 1019 87 10000 3.1 100 02:29 06.10.2019
694 Clouds 8 1021 87 10000 3.6 110 01:46 06.10.2019
695 Clouds 8 1019 87 10000 2.6 90 01:28 06.10.2019
696 Clouds 8 1021 87 10000 3.6 100 00:59 06.10.2019
697 Clouds 8 1020 93 10000 2.6 90 00:31 06.10.2019
698 Clouds 9 1021 87 10000 2.1 100 23:55 05.10.2019
699 Clouds 9 1020 87 9000 2.6 80 23:36 05.10.2019
700 Clouds 9 1020 87 6000 2.6 80 23:18 05.10.2019
701 Clouds 9 1021 87 10000 4.1 80 22:54 05.10.2019
702 Clouds 9 1020 93 10000 1.5 70 22:36 05.10.2019
703 Clouds 9 1020 93 10000 1.5 60 22:18 05.10.2019
704 Clouds 9 1020 93 10000 1.5 60 22:18 05.10.2019
705 Clouds 9 1020 81 10000 3.6 90 21:41 05.10.2019
706 Clouds 9 1019 100 10000 1 70 21:22 05.10.2019
707 Clouds 10 1020 81 10000 2.1 80 20:57 05.10.2019
708 Clouds 10 1020 81 10000 2.1 80 20:39 05.10.2019
709 Clouds 10 1019 87 10000 1.5 70 20:19 05.10.2019
710 -273 0 0 0 0 0 19:55 05.10.2019
711 Clouds 11 1019 81 10000 1 0 19:36 05.10.2019
712 Clouds 11 1019 81 10000 1.5 80 19:18 05.10.2019
713 Clouds 11 1019 76 10000 2.6 50 18:54 05.10.2019
714 Clouds 12 1018 76 10000 2.1 80 18:36 05.10.2019
715 Clouds 12 1018 66 10000 1 0 18:18 05.10.2019
716 Clouds 12 1018 66 10000 1 0 18:18 05.10.2019
717 Clouds 13 1019 71 10000 4.6 60 17:41 05.10.2019
718 Clear 13 1018 66 10000 2.1 90 17:21 05.10.2019
719 Clouds 13 1018 62 10000 4.1 70 16:55 05.10.2019
720 Clear 13 1018 66 10000 2.6 90 16:36 05.10.2019
721 Clear 13 1018 66 10000 2.6 70 16:18 05.10.2019
722 Clouds 13 1018 62 10000 3.6 60 15:55 05.10.2019
723 Clouds 13 1018 62 10000 3.6 60 15:37 05.10.2019
724 Clouds 13 1018 62 10000 3.1 110 15:18 05.10.2019
725 Clouds 13 1018 62 10000 4.6 90 14:41 05.10.2019
726 Clouds 13 1017 66 10000 2.6 70 14:22 05.10.2019
727 Clouds 13 1017 71 10000 6.2 70 13:44 05.10.2019
728 Clouds 13 1017 66 10000 4.6 90 13:26 05.10.2019
729 Clouds 13 1017 71 10000 5.7 60 12:59 05.10.2019
730 Clouds 13 1017 71 10000 5.7 60 12:41 05.10.2019
731 Clouds 12 1017 76 10000 4.6 90 12:19 05.10.2019
732 Clouds 11 1017 66 10000 6.2 80 11:41 05.10.2019
733 Clouds 11 1017 66 10000 6.2 80 11:41 05.10.2019
734 Clouds 11 1016 76 10000 4.1 70 11:20 05.10.2019
735 Clouds 11 1016 76 10000 4.6 80 10:57 05.10.2019
736 Clouds 11 1016 76 10000 4.6 80 10:57 05.10.2019
737 Clouds 10 1016 76 10000 4.6 80 10:38 05.10.2019
738 Clear 10 1015 81 10000 2.6 60 10:20 05.10.2019
739 Clouds 8 1015 87 10000 2.1 60 09:41 05.10.2019
740 Fog 7 1015 100 650 2.1 40 09:23 05.10.2019
741 Fog 5 1014 87 10000 2.1 50 08:42 05.10.2019
742 Fog 5 1014 100 300 1 260 08:23 05.10.2019
743 Fog 5 1014 93 10000 2.6 50 07:59 05.10.2019
744 Fog 5 1014 100 500 0.5 0 07:40 05.10.2019
745 Fog 5 1013 100 450 1 340 07:21 05.10.2019
746 Fog 5 1013 93 10000 2.1 40 06:52 05.10.2019
747 Fog 6 1012 93 5000 1 20 06:22 05.10.2019
748 Mist 6 1011 100 5000 2.1 50 05:20 05.10.2019
749 Clouds 6 1010 93 10000 1.5 10 03:32 05.10.2019
750 Clouds 7 1010 93 9000 2.1 40 02:29 05.10.2019
751 Clouds 7 1009 93 10000 2.6 10 01:27 05.10.2019
752 Clouds 7 1009 87 10000 4.6 70 00:49 05.10.2019
753 Clouds 7 1008 93 10000 2.1 20 00:28 05.10.2019
754 Clouds 7 1008 93 10000 3.1 40 23:58 04.10.2019
755 Clouds 8 1008 93 10000 3.1 40 23:40 04.10.2019
756 Clouds 8 1007 93 10000 3.1 30 23:21 04.10.2019
757 Clouds 8 1007 93 10000 3.6 50 22:56 04.10.2019
758 Clouds 8 1007 93 10000 3.6 50 22:37 04.10.2019
759 Clouds 8 1007 93 10000 3.6 50 22:37 04.10.2019
760 Clouds 8 1006 87 10000 3.1 40 22:19 04.10.2019
761 Clouds 9 1006 93 10000 4.1 50 21:40 04.10.2019
762 Rain 9 1005 93 10000 4.1 40 21:22 04.10.2019
763 Rain 9 1006 93 10000 5.1 70 20:59 04.10.2019
764 Rain 9 1006 93 10000 5.1 70 20:41 04.10.2019
765 Rain 9 1005 93 10000 4.6 70 20:22 04.10.2019
766 Rain 9 1005 93 10000 4.6 70 19:56 04.10.2019
767 Rain 9 1005 93 10000 4.6 70 19:38 04.10.2019
768 Rain 9 1003 87 10000 5.1 50 19:20 04.10.2019
769 Rain 9 1004 93 10000 4.6 70 18:55 04.10.2019
770 Rain 10 1003 93 10000 5.1 50 18:36 04.10.2019
771 Rain 10 1002 93 10000 4.6 60 18:18 04.10.2019
772 Rain 10 1004 87 8000 5.1 90 17:40 04.10.2019
773 Rain 10 1002 87 10000 4.6 70 17:22 04.10.2019
774 Rain 10 1002 87 10000 4.6 70 17:22 04.10.2019
775 Rain 10 1004 87 9000 4.1 90 16:58 04.10.2019
776 Rain 10 1004 87 9000 4.1 90 16:39 04.10.2019
777 Rain 10 1004 87 9000 4.1 90 16:39 04.10.2019
778 Rain 10 1002 87 7000 5.1 80 16:19 04.10.2019
779 Rain 10 1002 87 7000 5.1 80 16:19 04.10.2019
780 Rain 10 1004 87 9000 4.1 100 15:56 04.10.2019
781 Rain 10 1004 87 9000 4.1 100 15:38 04.10.2019
782 Rain 10 1004 87 9000 4.1 100 15:38 04.10.2019
783 Clouds 10 1002 87 10000 4.1 80 15:19 04.10.2019
784 Clouds 10 1004 76 10000 4.1 120 14:55 04.10.2019
785 Clouds 10 1004 76 10000 4.1 120 14:37 04.10.2019
786 Rain 10 1002 81 10000 4.1 100 14:19 04.10.2019
787 Rain 10 1005 81 10000 4.1 120 13:44 04.10.2019
788 Drizzle 10 1003 81 10000 4.1 120 13:22 04.10.2019
789 Drizzle 10 1005 87 10000 4.6 110 12:55 04.10.2019
790 Rain 10 1003 87 10000 3.1 130 12:36 04.10.2019
791 Rain 10 1004 87 10000 3.6 120 12:18 04.10.2019
792 Rain 10 1006 87 9000 3.1 140 11:42 04.10.2019
793 Rain 10 1006 87 9000 3.1 140 11:42 04.10.2019
794 Rain 10 1006 87 9000 3.1 140 11:42 04.10.2019
795 Rain 10 1006 87 9000 3.1 140 11:42 04.10.2019
796 Rain 10 1004 81 10000 4.1 110 11:21 04.10.2019
797 Drizzle 10 1007 93 4500 3.1 150 10:42 04.10.2019
798 Drizzle 10 1007 93 4500 3.1 150 10:42 04.10.2019
799 Drizzle 9 1005 93 10000 3.1 140 10:21 04.10.2019
800 Drizzle 9 1007 93 4500 2.6 150 09:58 04.10.2019
801 Drizzle 9 1007 93 4500 2.6 150 09:58 04.10.2019
802 Drizzle 9 1007 93 4500 2.6 150 09:40 04.10.2019
803 Drizzle 9 1005 93 9000 2.6 120 09:22 04.10.2019
804 Drizzle 9 1007 93 6000 2.1 150 08:43 04.10.2019
805 Drizzle 9 1007 93 6000 2.1 150 08:43 04.10.2019
806 Rain 9 1007 93 5000 2.6 120 08:25 04.10.2019
807 Rain 9 1007 93 7000 2.6 110 07:47 04.10.2019
808 Drizzle 9 1007 87 9000 3.1 140 07:24 04.10.2019
809 Clouds 9 1008 100 7000 3.1 140 06:56 04.10.2019
810 Clouds 9 1008 100 7000 3.1 140 06:37 04.10.2019
811 Clouds 9 1008 100 7000 3.1 160 06:18 04.10.2019
812 Clouds 9 1009 93 10000 2.6 150 05:19 04.10.2019
813 Clouds 9 1009 93 10000 2.6 170 04:37 04.10.2019
814 Rain 9 1011 93 10000 2.1 180 03:18 04.10.2019
815 Rain 9 1012 93 10000 2.6 210 02:43 04.10.2019
816 Rain 9 1012 100 10000 2.1 180 01:53 04.10.2019
817 Rain 9 1012 100 10000 2.1 180 01:53 04.10.2019
818 Rain 9 1012 93 10000 2.6 200 01:26 04.10.2019
819 Rain 8 1012 100 10000 1.5 190 00:32 04.10.2019
820 Rain 9 1012 93 250 1.5 170 23:39 03.10.2019
821 Rain 9 1013 100 10000 2.6 210 23:21 03.10.2019
822 Rain 9 1013 93 350 0.5 140 22:57 03.10.2019
823 Rain 9 1013 93 350 0.5 140 22:39 03.10.2019
824 Rain 9 1013 93 350 0.5 140 22:39 03.10.2019
825 Rain 9 1013 93 350 0.5 140 22:39 03.10.2019
826 Rain 9 1014 93 10000 2.6 210 22:21 03.10.2019
827 Rain 10 1014 93 10000 2.6 210 21:58 03.10.2019
828 Rain 10 1014 93 200 0.5 200 21:39 03.10.2019
829 Rain 10 1014 93 10000 2.6 220 21:20 03.10.2019
830 Drizzle 11 1014 87 10000 1 100 20:58 03.10.2019
831 Drizzle 11 1014 87 10000 1 100 20:39 03.10.2019
832 Clouds 11 1014 93 10000 1.5 230 20:20 03.10.2019
833 Clouds 11 1014 81 10000 1.5 110 19:56 03.10.2019
834 Clouds 12 1014 81 10000 1.5 110 19:38 03.10.2019
835 Clouds 12 1014 76 10000 1 0 19:19 03.10.2019
836 Clouds 13 1014 71 10000 1.5 80 18:56 03.10.2019
837 Clouds 13 1014 71 10000 1.5 80 18:37 03.10.2019
838 Clouds 14 1014 67 10000 2.1 250 18:18 03.10.2019
839 Clouds 14 1014 76 10000 2.1 80 17:42 03.10.2019
840 Clouds 14 1014 72 10000 3.1 280 17:22 03.10.2019
841 Clouds 14 1014 76 10000 2.1 80 16:58 03.10.2019
842 Clouds 14 1014 76 10000 2.1 80 16:39 03.10.2019
843 Clouds 14 1015 82 10000 3.1 240 16:21 03.10.2019
844 Clouds 15 1014 67 10000 2.1 70 15:54 03.10.2019
845 Clouds 14 1015 71 10000 2.6 270 15:36 03.10.2019
846 Clouds 15 1015 62 10000 4.1 300 15:18 03.10.2019
847 Rain 15 1015 63 10000 4.6 300 14:39 03.10.2019
848 Rain 15 1015 72 10000 3.1 300 14:20 03.10.2019
849 Rain 14 1015 71 10000 0.5 80 13:55 03.10.2019
850 Rain 14 1015 82 10000 3.6 310 13:36 03.10.2019
851 Drizzle 14 1015 76 10000 3.6 320 13:18 03.10.2019
852 Rain 13 1015 71 10000 1.5 0 12:40 03.10.2019
853 Drizzle 13 1016 71 10000 5.7 340 12:20 03.10.2019
854 Clouds 13 1015 93 10000 1 0 11:59 03.10.2019
855 Clouds 13 1015 93 10000 1 0 11:40 03.10.2019
856 Rain 12 1015 76 10000 3.1 290 11:22 03.10.2019
857 Rain 12 1015 93 8000 2.6 270 10:58 03.10.2019
858 Rain 11 1015 93 8000 2.6 270 10:39 03.10.2019
859 Rain 11 1015 93 10000 3.1 260 10:18 03.10.2019
860 Rain 11 1014 100 8000 0.5 340 09:56 03.10.2019
861 Rain 11 1014 100 8000 0.5 340 09:38 03.10.2019
862 Rain 11 1015 93 10000 3.1 260 09:19 03.10.2019
863 Rain 10 1014 93 6000 2.6 270 08:43 03.10.2019
864 Clouds 10 1014 93 10000 2.1 250 08:25 03.10.2019
865 Clouds 10 1013 93 10000 1.5 350 07:56 03.10.2019
866 Clouds 10 1013 93 10000 1.5 350 07:37 03.10.2019
867 Rain 10 1014 100 10000 2.1 310 07:19 03.10.2019
868 Rain 10 1014 93 10000 3.1 260 06:35 03.10.2019
869 Clouds 10 1013 93 10000 4.1 270 05:55 03.10.2019
870 Clouds 10 1013 93 10000 4.1 270 05:37 03.10.2019
871 Rain 10 1013 87 10000 3.6 270 04:48 03.10.2019
872 Clouds 10 1014 93 10000 3.1 260 04:24 03.10.2019
873 Clouds 11 1014 93 10000 3.6 270 03:20 03.10.2019
874 Clouds 11 1014 93 10000 3.1 270 02:33 03.10.2019
875 Drizzle 11 1012 76 10000 3.6 340 01:50 03.10.2019
876 Drizzle 11 1014 100 6000 3.1 270 01:31 03.10.2019
877 Clouds 11 1012 76 10000 3.6 330 00:45 03.10.2019
878 Clouds 11 1013 87 10000 4.6 290 00:18 03.10.2019
879 Clouds 11 1011 87 10000 3.1 300 23:43 02.10.2019
880 Squall 10 1013 93 10000 4.6 290 23:20 02.10.2019
881 Squall 10 1010 87 10000 5.7 330 22:43 02.10.2019
882 Squall 10 1010 87 10000 5.7 330 22:43 02.10.2019
883 Clouds 11 1012 76 10000 4.1 280 22:21 02.10.2019
884 Clouds 10 1009 87 10000 3.1 310 21:56 02.10.2019
885 Clouds 10 1009 87 10000 3.1 310 21:38 02.10.2019
886 Rain 10 1011 76 10000 3.6 280 21:19 02.10.2019
887 Rain 10 1009 87 7000 6.7 300 20:56 02.10.2019
888 Rain 11 1009 87 7000 6.7 300 20:38 02.10.2019
889 Clouds 11 1011 81 10000 3.1 270 20:20 02.10.2019
890 Clouds 11 1008 87 10000 4.1 260 19:54 02.10.2019
891 Clouds 11 1008 87 10000 4.1 260 19:54 02.10.2019
892 Rain 11 1011 81 10000 4.1 290 19:36 02.10.2019
893 Rain 11 1011 81 10000 4.1 290 19:36 02.10.2019
894 Rain 11 1010 87 10000 3.6 290 19:18 02.10.2019
895 Rain 11 1008 87 9000 4.1 260 18:55 02.10.2019
896 Clouds 12 1010 76 10000 6.7 270 18:36 02.10.2019
897 Rain 12 1010 66 10000 5.1 270 18:18 02.10.2019
898 Rain 13 1008 66 10000 7.2 270 17:42 02.10.2019
899 Clouds 13 1010 71 10000 5.1 260 17:21 02.10.2019
900 Clouds 13 1010 71 10000 5.1 260 17:21 02.10.2019
901 Clouds 13 1008 62 10000 8.7 290 16:58 02.10.2019
902 Clouds 13 1008 62 10000 8.7 290 16:39 02.10.2019
903 Clouds 13 1008 62 10000 9.8 290 16:20 02.10.2019
904 Clouds 13 1008 62 10000 9.8 290 15:57 02.10.2019
905 Rain 12 1008 62 10000 9.8 290 15:38 02.10.2019
906 Rain 13 1010 76 10000 7.2 310 15:18 02.10.2019
907 -273 0 0 0 0 0 14:55 02.10.2019
908 Clouds 13 1007 54 10000 6.7 280 14:36 02.10.2019
909 Clouds 13 1009 62 10000 5.1 270 14:18 02.10.2019
910 Rain 13 1007 62 10000 5.7 270 13:41 02.10.2019
911 Rain 13 1009 58 10000 6.2 300 13:22 02.10.2019
912 Clouds 12 1007 76 10000 5.1 270 12:56 02.10.2019
913 Clouds 12 1007 76 10000 5.1 270 12:37 02.10.2019
914 Rain 12 1009 76 10000 3.1 260 12:37 02.10.2019
915 Rain 12 1009 76 10000 3.1 260 12:18 02.10.2019
916 Rain 11 1007 62 9000 5.1 320 11:42 02.10.2019
917 Clouds 11 1008 66 10000 4.1 280 11:21 02.10.2019
918 Rain 11 1006 66 10000 4.6 300 10:41 02.10.2019
919 Rain 11 1007 71 10000 3.1 290 10:20 02.10.2019
920 Clouds 10 1005 76 10000 3.1 300 09:56 02.10.2019
921 Clouds 10 1005 76 10000 3.1 300 09:36 02.10.2019
922 Clouds 9 1006 81 10000 2.6 260 09:18 02.10.2019
923 Clouds 8 1004 70 10000 3.1 290 08:42 02.10.2019
924 Rain 8 1005 81 10000 2.6 300 08:22 02.10.2019
925 Rain 8 1004 81 10000 2.6 290 07:56 02.10.2019
926 Rain 8 1004 81 10000 2.6 290 07:37 02.10.2019
927 Clouds 8 1005 87 10000 3.6 250 07:19 02.10.2019
928 Rain 8 1004 71 10000 5.7 320 06:31 02.10.2019
929 Drizzle 8 1003 93 10000 0.5 10 05:52 02.10.2019
930 Rain 9 1004 93 10000 2.1 300 05:23 02.10.2019
931 Clouds 9 1002 81 10000 0.5 10 04:47 02.10.2019
932 Clouds 9 1002 87 10000 2.1 340 03:52 02.10.2019
933 Clouds 10 1002 93 10000 1 230 02:40 02.10.2019
934 Clouds 10 1002 93 10000 2.1 330 02:22 02.10.2019
935 Drizzle 10 1002 93 8000 2.1 350 01:21 02.10.2019
936 Drizzle 10 1001 87 10000 1 170 00:49 02.10.2019
937 Drizzle 10 1001 87 10000 1 0 00:25 02.10.2019
938 Drizzle 10 1001 93 10000 1 290 23:43 01.10.2019
939 Drizzle 10 1001 93 10000 1.5 10 23:24 01.10.2019
940 Drizzle 10 1001 93 10000 0.5 320 22:59 01.10.2019
941 Drizzle 11 1001 93 10000 0.5 320 22:39 01.10.2019
942 Drizzle 11 1001 87 10000 2.1 20 22:19 01.10.2019
943 Clouds 11 1000 87 10000 0.5 170 21:56 01.10.2019
944 Drizzle 11 1000 87 10000 0.5 170 21:37 01.10.2019
945 Drizzle 11 1000 93 10000 3.1 40 21:19 01.10.2019
946 Rain 11 1000 87 10000 0.5 80 20:55 01.10.2019
947 Drizzle 11 1000 87 10000 0.5 80 20:36 01.10.2019
948 Drizzle 11 1000 87 10000 4.1 40 20:18 01.10.2019
949 Drizzle 11 1000 87 10000 2.1 50 19:45 01.10.2019
950 Clouds 11 999 81 10000 3.1 40 19:27 01.10.2019
951 Clouds 11 999 87 10000 3.6 40 18:59 01.10.2019
952 Clouds 11 999 87 10000 3.6 40 18:40 01.10.2019
953 Clouds 11 999 81 10000 4.6 40 18:21 01.10.2019
954 Clouds 11 999 87 10000 3.1 30 17:58 01.10.2019
955 Clouds 12 999 87 10000 3.1 30 17:39 01.10.2019
956 Drizzle 12 998 93 10000 6.2 30 17:19 01.10.2019
957 Drizzle 12 999 87 10000 4.6 30 16:57 01.10.2019
958 Drizzle 13 999 87 10000 4.6 30 16:39 01.10.2019
959 Drizzle 13 998 93 5000 4.1 20 16:21 01.10.2019
960 Drizzle 14 998 93 4500 3.6 20 15:42 01.10.2019
961 Drizzle 14 997 87 10000 2.6 360 15:23 01.10.2019
962 Drizzle 15 997 93 8000 4.1 50 14:41 01.10.2019
963 Drizzle 15 997 93 7000 4.1 40 14:20 01.10.2019
964 Drizzle 15 997 93 3200 4.6 40 13:58 01.10.2019
965 Drizzle 15 997 93 3200 4.6 40 13:39 01.10.2019
966 Drizzle 15 996 82 10000 8.7 240 13:21 01.10.2019
967 Drizzle 15 996 93 7000 3.1 40 12:59 01.10.2019
968 Drizzle 15 996 93 7000 3.1 40 12:40 01.10.2019
969 Drizzle 15 996 77 10000 7.2 250 12:19 01.10.2019
970 Drizzle 15 996 93 3000 3.6 350 11:58 01.10.2019
971 Drizzle 15 996 93 3000 3.6 350 11:38 01.10.2019
972 Drizzle 15 996 93 5000 3.1 60 11:19 01.10.2019
973 Drizzle 15 996 93 4000 3.6 50 10:58 01.10.2019
974 Drizzle 15 996 93 4000 3.6 50 10:40 01.10.2019
975 Drizzle 14 996 100 4000 3.6 40 10:21 01.10.2019
976 Drizzle 14 996 100 3000 3.1 50 09:40 01.10.2019
977 Drizzle 13 997 100 1600 4.1 80 09:21 01.10.2019
978 Drizzle 13 997 93 4500 4.1 70 08:42 01.10.2019
979 Drizzle 13 996 100 6000 4.1 170 08:24 01.10.2019
980 Drizzle 12 998 93 3000 4.6 90 07:49 01.10.2019
981 Rain 12 999 93 4500 3.6 90 07:25 01.10.2019
982 Rain 12 1000 93 3500 3.1 90 06:48 01.10.2019
983 Rain 12 998 93 4200 4.1 140 06:22 01.10.2019
984 Rain 12 1001 100 4000 2.6 130 05:46 01.10.2019
985 Rain 12 1001 100 4000 2.6 130 05:46 01.10.2019
986 Rain 12 1001 100 2800 1.5 110 05:18 01.10.2019
987 Rain 12 1002 100 3100 1.5 150 04:34 01.10.2019
988 Rain 12 1005 93 7000 2.1 160 02:30 01.10.2019
989 Rain 12 1006 93 10000 2.1 230 01:59 01.10.2019
990 Rain 12 1006 93 10000 1.5 180 01:28 01.10.2019
991 Drizzle 12 1006 87 10000 2.1 230 00:40 01.10.2019
992 Drizzle 12 1007 93 10000 3.6 210 00:22 01.10.2019
993 Clouds 12 1007 93 10000 2.1 220 23:41 30.09.2019
994 Rain 12 1007 87 10000 3.1 210 23:22 30.09.2019
995 Clouds 12 1007 93 10000 1.5 250 22:46 30.09.2019
996 Rain 12 1008 87 10000 3.1 210 22:26 30.09.2019
997 Rain 13 1008 87 8000 2.1 250 21:58 30.09.2019
998 Rain 13 1008 87 8000 2.1 250 21:40 30.09.2019
999 Rain 13 1009 87 10000 2.6 220 21:20 30.09.2019
1000 Rain 13 1008 87 10000 4.1 270 20:58 30.09.2019
1001 Rain 13 1008 87 10000 4.1 270 20:39 30.09.2019
1002 Clouds 13 1008 87 8000 6.7 270 20:21 30.09.2019
1003 Rain 13 1008 87 6000 6.2 260 19:58 30.09.2019
1004 Rain 13 1008 87 6000 6.2 260 19:40 30.09.2019
1005 Rain 14 1009 76 10000 3.6 250 19:20 30.09.2019
1006 Rain 14 1007 82 10000 4.6 270 18:58 30.09.2019
1007 Rain 14 1007 82 10000 4.6 270 18:40 30.09.2019
1008 Rain 15 1009 77 10000 4.6 260 18:20 30.09.2019
1009 Rain 15 1007 72 10000 7.2 290 17:56 30.09.2019
1010 Drizzle 15 1009 82 7000 4.1 280 17:38 30.09.2019
1011 Drizzle 15 1009 82 7000 4.1 280 17:19 30.09.2019
1012 Clouds 15 1007 67 10000 10.3 290 16:42 30.09.2019
1013 Clouds 16 1008 72 10000 5.1 260 16:20 30.09.2019
1014 Clouds 16 1008 72 10000 5.1 260 16:20 30.09.2019
1015 Rain 16 1006 72 10000 10.8 280 15:59 30.09.2019
1016 Clouds 16 1006 72 10000 10.8 280 15:39 30.09.2019
1017 Rain 16 1008 67 10000 4.1 280 15:39 30.09.2019
1018 Rain 16 1008 67 10000 4.1 280 15:19 30.09.2019
1019 Clouds 16 1006 67 10000 9.8 280 14:58 30.09.2019
1020 Clouds 16 1006 67 10000 9.8 280 14:38 30.09.2019
1021 Clouds 16 1007 59 10000 6.2 280 14:19 30.09.2019
1022 Clouds 16 1005 67 10000 11.8 290 13:59 30.09.2019
1023 Clouds 16 1005 67 10000 11.8 290 13:41 30.09.2019
1024 Clouds 16 1007 67 10000 5.7 280 13:22 30.09.2019
1025 Clouds 16 1004 72 10000 9.8 280 12:55 30.09.2019
1026 Clouds 16 1004 72 10000 9.8 280 12:55 30.09.2019
1027 Clouds 16 1004 72 10000 9.8 280 12:55 30.09.2019
1028 Clouds 15 1004 72 10000 9.8 280 12:36 30.09.2019
1029 Rain 15 1006 72 10000 6.2 270 12:18 30.09.2019
1030 Clouds 14 1003 72 10000 9.8 290 11:43 30.09.2019
1031 Rain 14 1005 77 10000 7.2 280 11:21 30.09.2019
1032 Clouds 14 1002 87 10000 9.8 290 10:58 30.09.2019
1033 Clouds 14 1002 87 10000 9.8 290 10:38 30.09.2019
1034 Clouds 13 1004 82 10000 6.2 280 10:18 30.09.2019
1035 Rain 13 1001 87 5000 8.2 300 09:57 30.09.2019
1036 Rain 13 1001 87 5000 8.2 300 09:38 30.09.2019
1037 Clouds 13 1003 82 10000 5.1 270 09:18 30.09.2019
1038 Clouds 13 999 82 10000 7.7 300 08:46 30.09.2019
1039 Drizzle 13 1001 82 10000 5.1 270 08:27 30.09.2019
1040 Drizzle 12 998 82 10000 8.2 310 07:40 30.09.2019
1041 Rain 13 1000 87 10000 5.1 280 07:20 30.09.2019
1042 Rain 13 996 87 5000 9.8 310 06:50 30.09.2019
1043 Rain 13 999 87 10000 6.7 300 06:31 30.09.2019
1044 Rain 13 994 93 6000 10.3 320 05:45 30.09.2019
1045 Rain 15 989 93 3000 3.1 240 02:55 30.09.2019
1046 Rain 15 989 93 3000 3.1 240 02:37 30.09.2019
1047 Rain 15 990 93 10000 3.1 220 01:33 30.09.2019
1048 Rain 16 990 93 10000 3.1 220 00:42 30.09.2019
1049 Rain 16 990 93 10000 4.1 250 00:21 30.09.2019
1050 Rain 16 990 93 10000 3.1 230 23:44 29.09.2019
1051 Drizzle 16 990 100 10000 5.1 240 23:22 29.09.2019
1052 Drizzle 16 990 93 10000 4.1 230 22:55 29.09.2019
1053 Rain 16 990 93 10000 4.1 230 22:37 29.09.2019
1054 Rain 16 990 100 10000 5.1 230 22:19 29.09.2019
1055 Rain 16 990 87 10000 4.1 240 21:56 29.09.2019
1056 Rain 16 990 87 10000 4.1 240 21:37 29.09.2019
1057 Rain 15 990 93 10000 5.7 220 21:19 29.09.2019
1058 Rain 16 990 93 10000 6.2 220 20:44 29.09.2019
1059 Clouds 15 991 93 10000 6.2 220 20:20 29.09.2019
1060 Clouds 15 991 93 10000 6.2 220 19:59 29.09.2019
1061 Clouds 15 991 93 10000 6.2 220 19:37 29.09.2019
1062 Clouds 15 991 93 10000 6.2 220 19:37 29.09.2019
1063 Drizzle 15 991 100 10000 6.2 210 19:19 29.09.2019
1064 Drizzle 15 991 93 8000 6.7 220 18:56 29.09.2019
1065 Drizzle 15 992 100 10000 7.2 220 18:38 29.09.2019
1066 Drizzle 15 992 100 10000 7.2 220 18:19 29.09.2019
1067 Drizzle 15 992 87 4000 6.2 200 17:58 29.09.2019
1068 Drizzle 15 992 87 4000 6.2 200 17:40 29.09.2019
1069 Drizzle 15 992 87 10000 7.2 200 17:19 29.09.2019
1070 Drizzle 15 993 93 7000 6.7 210 16:58 29.09.2019
1071 Drizzle 14 993 93 7000 6.7 210 16:40 29.09.2019
1072 Drizzle 14 993 93 10000 7.7 200 16:19 29.09.2019
1073 Drizzle 14 994 93 8000 5.1 200 15:57 29.09.2019
1074 Drizzle 14 994 93 8000 5.1 200 15:36 29.09.2019
1075 Drizzle 14 995 93 3500 5.1 200 15:18 29.09.2019
1076 Drizzle 14 995 93 10000 6.2 200 14:55 29.09.2019
1077 Drizzle 14 996 93 9000 6.7 210 14:36 29.09.2019
1078 Drizzle 14 996 93 9000 6.7 210 14:18 29.09.2019
1079 Drizzle 14 996 87 3500 5.1 200 13:42 29.09.2019
1080 Drizzle 14 997 93 4500 5.1 200 13:19 29.09.2019
1081 Drizzle 14 998 93 4500 4.6 190 12:58 29.09.2019
1082 Drizzle 13 998 93 4500 4.6 190 12:40 29.09.2019
1083 Drizzle 13 999 93 4000 4.6 200 12:21 29.09.2019
1084 Drizzle 13 999 93 4000 4.6 200 11:59 29.09.2019
1085 Drizzle 13 999 93 4000 4.6 200 11:40 29.09.2019
1086 Drizzle 13 998 93 7000 6.2 200 11:19 29.09.2019
1087 Drizzle 13 1000 93 4000 5.7 190 10:57 29.09.2019
1088 Drizzle 13 1000 93 4000 5.7 190 10:38 29.09.2019
1089 Drizzle 13 999 93 6000 6.2 190 10:19 29.09.2019
1090 Drizzle 13 1000 93 5000 4.6 180 09:56 29.09.2019
1091 Drizzle 13 1000 93 5000 4.6 180 09:56 29.09.2019
1092 Drizzle 13 1000 93 5000 4.6 180 09:38 29.09.2019
1093 Rain 13 1000 93 4000 5.1 200 09:18 29.09.2019
1094 Rain 13 1001 93 9000 4.1 190 08:42 29.09.2019
1095 Rain 13 1001 93 10000 5.1 180 08:21 29.09.2019
1096 Rain 13 1002 93 8000 5.1 220 07:43 29.09.2019
1097 Drizzle 13 1002 93 7000 5.1 190 07:25 29.09.2019
1098 Rain 13 1003 93 9000 5.1 220 06:49 29.09.2019
1099 Rain 13 1003 93 10000 5.7 220 05:58 29.09.2019
1100 Drizzle 13 1004 87 10000 6.2 220 04:45 29.09.2019
1101 Drizzle 13 1004 87 10000 6.2 220 04:45 29.09.2019
1102 Clouds 13 1005 93 10000 6.2 210 04:23 29.09.2019
1103 Drizzle 14 1005 93 8000 4.1 220 02:58 29.09.2019
1104 Clouds 14 1006 93 10000 4.6 210 02:19 29.09.2019
1105 Clouds 14 1005 93 10000 3.6 220 01:42 29.09.2019
1106 Rain 14 1006 87 10000 3.6 230 00:59 29.09.2019
1107 Rain 14 1006 87 10000 3.6 230 00:59 29.09.2019
1108 Clouds 14 1006 87 10000 3.6 230 00:40 29.09.2019
1109 Clouds 14 1006 93 10000 4.6 220 00:19 29.09.2019
1110 Clouds 14 1006 87 10000 4.1 240 23:38 28.09.2019
1111 Rain 14 1006 93 10000 4.1 240 23:19 28.09.2019
1112 Rain 14 1005 87 8000 4.6 240 22:41 28.09.2019
1113 Clouds 14 1006 93 10000 5.7 240 22:23 28.09.2019
1114 Clouds 14 1005 87 10000 6.2 240 21:58 28.09.2019
1115 Clouds 14 1005 87 10000 6.2 240 21:58 28.09.2019
1116 Clouds 14 1005 87 10000 6.2 240 21:40 28.09.2019
1117 Clouds 14 1006 87 10000 6.2 240 21:21 28.09.2019
1118 Rain 14 1006 93 10000 4.6 240 20:58 28.09.2019
1119 Rain 14 1005 77 10000 6.7 240 20:40 28.09.2019
1120 Rain 14 1006 93 9000 4.6 250 20:20 28.09.2019
1121 Rain 15 1004 87 10000 6.7 230 19:57 28.09.2019
1122 Clouds 15 1004 87 10000 6.7 230 19:39 28.09.2019
1123 Clouds 15 1005 82 10000 7.2 240 19:20 28.09.2019
1124 Clouds 15 1004 87 10000 5.1 230 18:57 28.09.2019
1125 Clouds 15 1004 87 10000 5.1 230 18:39 28.09.2019
1126 Clouds 16 1005 87 10000 8.2 240 18:20 28.09.2019
1127 Rain 16 1004 77 10000 8.7 210 17:56 28.09.2019
1128 Rain 16 1004 77 10000 8.7 210 17:38 28.09.2019
1129 Rain 16 1005 87 10000 8.2 220 17:19 28.09.2019
1130 Clouds 17 1005 77 10000 7.2 210 16:44 28.09.2019
1131 Clouds 17 1005 82 10000 9.3 210 16:25 28.09.2019
1132 Clouds 17 1005 67 10000 8.7 220 15:42 28.09.2019
1133 Clouds 17 1006 87 10000 9.8 210 15:23 28.09.2019
1134 Clouds 17 1006 63 10000 8.7 220 14:58 28.09.2019
1135 Clouds 17 1006 63 10000 8.7 220 14:40 28.09.2019
1136 Clouds 17 1006 72 10000 10.3 220 14:21 28.09.2019
1137 Clouds 17 1006 67 10000 9.3 220 13:58 28.09.2019
1138 Clouds 17 1006 67 10000 9.3 220 13:40 28.09.2019
1139 Clouds 17 1006 72 10000 10.3 220 13:20 28.09.2019
1140 Clouds 17 1006 72 10000 7.7 230 12:46 28.09.2019
1141 Clouds 16 1006 77 10000 8.7 220 12:20 28.09.2019
1142 Clouds 16 1006 77 10000 5.7 230 11:59 28.09.2019
1143 Clouds 16 1006 77 10000 5.7 230 11:40 28.09.2019
1144 Clouds 16 1006 77 10000 5.7 230 11:40 28.09.2019
1145 Clouds 15 1006 87 10000 8.2 210 11:19 28.09.2019
1146 Clouds 15 1006 82 10000 6.7 220 10:44 28.09.2019
1147 Clouds 15 1006 93 10000 6.7 210 10:21 28.09.2019
1148 Clouds 14 1006 87 10000 6.2 220 09:58 28.09.2019
1149 Clouds 14 1006 87 10000 6.2 220 09:40 28.09.2019
1150 Clouds 14 1006 93 10000 6.2 210 09:18 28.09.2019
1151 Clouds 13 1005 93 10000 6.2 220 08:47 28.09.2019
1152 Clouds 13 1006 93 10000 5.7 210 08:29 28.09.2019
1153 Clouds 13 1005 93 10000 5.1 220 07:57 28.09.2019
1154 Clouds 13 1005 93 10000 5.1 220 07:38 28.09.2019
1155 Clouds 13 1005 93 10000 4.6 210 07:19 28.09.2019
1156 Clouds 13 1005 93 10000 5.1 210 06:38 28.09.2019
1157 Clouds 13 1005 93 10000 5.1 210 06:20 28.09.2019
1158 Clouds 13 1004 93 10000 5.7 210 05:25 28.09.2019
1159 Clouds 13 1004 93 10000 5.7 210 04:56 28.09.2019
1160 Clouds 13 1004 87 10000 4.1 200 04:30 28.09.2019
1161 Clouds 13 1004 87 10000 4.1 200 03:41 28.09.2019
1162 Drizzle 13 1004 82 10000 4.6 200 02:59 28.09.2019
1163 Clouds 13 1004 82 10000 4.6 200 02:40 28.09.2019
1164 Rain 13 1004 93 10000 5.1 190 02:22 28.09.2019
1165 Rain 13 1004 93 10000 4.1 200 01:43 28.09.2019
1166 Rain 13 1004 93 10000 5.1 210 01:19 28.09.2019
1167 Rain 13 1004 82 10000 5.1 200 00:46 28.09.2019
1168 Rain 13 1005 87 10000 7.7 240 00:28 28.09.2019
1169 Clouds 14 1004 82 10000 4.1 190 23:39 27.09.2019
1170 Clouds 15 1004 82 10000 6.2 200 23:21 27.09.2019
1171 Clouds 15 1005 82 10000 4.1 200 22:57 27.09.2019
1172 Rain 15 1005 82 10000 4.1 200 22:38 27.09.2019
1173 Rain 15 1004 82 10000 5.1 190 22:18 27.09.2019
1174 Clouds 15 1005 87 10000 3.6 190 21:54 27.09.2019
1175 Clouds 15 1005 82 10000 4.6 190 21:36 27.09.2019
1176 Clouds 15 1005 82 10000 4.6 190 21:18 27.09.2019
1177 Clouds 15 1005 93 10000 3.1 180 20:41 27.09.2019
1178 Rain 15 1004 87 10000 4.1 190 20:20 27.09.2019
1179 Rain 15 1005 87 10000 2.6 190 19:59 27.09.2019
1180 Rain 15 1005 87 10000 2.6 190 19:39 27.09.2019
1181 Rain 16 1004 77 10000 5.1 210 19:21 27.09.2019
1182 Clouds 16 1005 93 8000 3.6 200 18:55 27.09.2019
1183 Clouds 16 1005 93 8000 3.6 200 18:37 27.09.2019
1184 Clouds 16 1005 82 10000 4.1 220 18:19 27.09.2019
1185 Clouds 17 1005 82 10000 2.6 200 17:40 27.09.2019
1186 Clouds 17 1005 82 10000 2.6 200 17:40 27.09.2019
1187 Rain 17 1005 82 10000 3.6 220 17:20 27.09.2019
1188 Rain 17 1005 68 10000 5.1 220 16:59 27.09.2019
1189 Clouds 17 1005 68 10000 5.1 220 16:41 27.09.2019
1190 Rain 17 1005 77 10000 5.1 210 16:19 27.09.2019
1191 Clouds 18 1005 68 10000 5.1 220 15:55 27.09.2019
1192 Drizzle 18 1005 68 10000 5.1 220 15:37 27.09.2019
1193 Drizzle 17 1005 82 6000 8.2 230 15:19 27.09.2019
1194 Clouds 18 1005 68 10000 4.6 230 14:56 27.09.2019
1195 Clouds 18 1005 68 10000 4.6 230 14:37 27.09.2019
1196 Clouds 18 1005 68 10000 7.7 210 14:18 27.09.2019
1197 Clouds 18 1005 68 10000 6.2 220 13:42 27.09.2019
1198 Clouds 18 1005 72 10000 6.7 210 13:22 27.09.2019
1199 Clouds 18 1005 72 10000 6.7 210 13:22 27.09.2019
1200 Clouds 17 1005 77 10000 6.2 210 12:59 27.09.2019
1201 Clouds 17 1005 82 10000 5.7 210 12:41 27.09.2019
1202 Clouds 17 1006 77 10000 6.7 220 12:20 27.09.2019
1203 Clouds 17 1006 77 10000 6.7 220 12:20 27.09.2019
1204 Clouds 16 1005 82 10000 4.6 220 11:40 27.09.2019
1205 Clouds 15 1005 87 10000 6.7 210 11:22 27.09.2019
1206 Clouds 15 1006 82 10000 5.1 210 10:57 27.09.2019
1207 Clouds 15 1006 82 10000 5.1 210 10:39 27.09.2019
1208 Clouds 15 1006 87 10000 5.7 210 10:20 27.09.2019
1209 Clouds 14 1005 87 10000 4.6 210 09:43 27.09.2019
1210 Clouds 14 1005 93 9000 5.7 210 09:22 27.09.2019
1211 Clouds 14 1005 93 10000 4.1 210 08:58 27.09.2019
1212 Clouds 14 1005 93 10000 4.1 210 08:39 27.09.2019
1213 Clouds 14 1005 93 8000 4.6 200 08:20 27.09.2019
1214 Clouds 14 1005 93 8000 4.1 210 07:46 27.09.2019
1215 Clouds 14 1005 93 9000 5.1 200 07:24 27.09.2019
1216 Clouds 14 1005 93 6000 4.6 210 06:43 27.09.2019
1217 Clouds 14 1005 93 8000 4.6 200 06:25 27.09.2019
1218 Clouds 14 1005 93 6000 4.6 210 05:51 27.09.2019
1219 Clouds 14 1005 93 7000 5.1 200 05:33 27.09.2019
1220 Clouds 14 1005 93 8000 4.1 230 03:56 27.09.2019
1221 Clouds 14 1005 93 8000 4.1 230 03:36 27.09.2019
1222 Clouds 14 1005 93 8000 3.1 230 01:53 27.09.2019
1223 Drizzle 14 1005 93 10000 5.7 210 01:28 27.09.2019
1224 Drizzle 16 1005 87 10000 5.7 220 00:30 27.09.2019
1225 Drizzle 16 1005 93 10000 5.7 170 23:57 26.09.2019
1226 Drizzle 16 1005 93 10000 5.7 170 23:38 26.09.2019
1227 Clouds 16 1005 88 10000 6.2 230 23:19 26.09.2019
1228 Rain 17 1005 93 10000 4.6 180 22:57 26.09.2019
1229 Rain 17 1005 93 10000 4.6 180 22:39 26.09.2019
1230 Drizzle 17 1005 93 4500 3.6 190 22:18 26.09.2019
1231 Drizzle 17 1005 93 8000 4.6 180 21:57 26.09.2019
1232 Drizzle 17 1004 93 10000 4.6 180 21:37 26.09.2019
1233 Drizzle 17 1004 93 10000 4.6 180 21:19 26.09.2019
1234 Drizzle 17 1004 93 10000 4.6 180 21:19 26.09.2019
1235 Drizzle 17 1005 93 8000 5.1 180 20:58 26.09.2019
1236 Drizzle 17 1005 93 8000 5.1 180 20:39 26.09.2019
1237 Clouds 17 1004 93 9000 4.6 180 20:21 26.09.2019
1238 Drizzle 17 1005 93 5000 4.6 180 19:56 26.09.2019
1239 Drizzle 16 1005 93 5000 4.6 180 19:38 26.09.2019
1240 Drizzle 16 1006 93 3500 4.6 190 19:18 26.09.2019
1241 Drizzle 16 1006 93 4000 4.6 180 18:43 26.09.2019
1242 Drizzle 16 1006 93 4000 5.1 180 18:22 26.09.2019
1243 Drizzle 16 1006 93 3500 5.1 180 17:59 26.09.2019
1244 Drizzle 16 1006 93 3500 5.1 180 17:38 26.09.2019
1245 Drizzle 16 1005 93 5000 5.1 180 17:19 26.09.2019
1246 Drizzle 16 1005 93 5000 5.1 180 17:19 26.09.2019
1247 Rain 16 1006 88 8000 5.1 170 16:56 26.09.2019
1248 Rain 16 1006 88 8000 5.1 170 16:37 26.09.2019
1249 Rain 16 1005 100 6000 5.1 170 16:19 26.09.2019
1250 Rain 16 1006 93 10000 4.6 180 15:55 26.09.2019
1251 Rain 17 1006 93 10000 4.6 180 15:36 26.09.2019
1252 Rain 17 1005 93 9000 5.1 180 15:18 26.09.2019
1253 Rain 16 1006 82 10000 5.7 190 14:41 26.09.2019
1254 Drizzle 16 1006 93 9000 5.1 170 14:22 26.09.2019
1255 Drizzle 16 1007 82 10000 4.6 190 13:58 26.09.2019
1256 Drizzle 16 1007 82 10000 4.6 190 13:39 26.09.2019
1257 Drizzle 16 1006 93 10000 4.6 180 13:19 26.09.2019
1258 Clouds 16 1007 82 10000 4.1 190 12:55 26.09.2019
1259 Rain 16 1007 82 10000 4.1 190 12:36 26.09.2019
1260 Rain 16 1007 87 10000 3.6 190 12:18 26.09.2019
1261 Clouds 16 1007 87 10000 3.6 200 11:42 26.09.2019
1262 Clouds 16 1006 87 10000 5.7 190 11:21 26.09.2019
1263 Mist 16 1006 93 5000 3.6 200 10:43 26.09.2019
1264 Drizzle 16 1006 93 3200 3.6 190 10:25 26.09.2019
1265 Mist 15 1006 93 5000 3.1 180 09:59 26.09.2019
1266 Mist 15 1006 93 5000 3.1 180 09:41 26.09.2019
1267 Mist 15 1005 93 8000 4.1 190 09:23 26.09.2019
1268 Mist 15 1006 93 4000 3.1 170 08:54 26.09.2019
1269 Rain 15 1005 93 5000 4.1 190 08:32 26.09.2019
1270 Mist 15 1006 93 3000 3.1 160 07:59 26.09.2019
1271 Mist 15 1006 93 3000 3.1 160 07:41 26.09.2019
1272 Drizzle 15 1005 93 8000 4.1 190 07:20 26.09.2019
1273 Mist 15 1005 93 4500 2.6 150 06:43 26.09.2019
1274 Clouds 15 1005 93 8000 3.6 190 06:24 26.09.2019
1275 Drizzle 15 1004 93 7000 3.6 190 05:40 26.09.2019
1276 Drizzle 14 1004 93 7000 3.6 190 05:21 26.09.2019
1277 Clouds 14 1004 100 7000 2.6 140 02:47 26.09.2019
1278 Fog 14 1005 93 4000 1.5 130 01:49 26.09.2019
1279 Fog 14 1004 93 10000 2.1 130 01:28 26.09.2019
1280 Fog 14 1005 93 5000 1.5 120 00:55 26.09.2019
1281 Fog 14 1005 93 5000 1.5 120 00:37 26.09.2019
1282 Fog 14 1005 100 5000 1.5 100 23:47 25.09.2019
1283 Fog 14 1004 82 10000 2.1 130 23:28 25.09.2019
1284 Fog 14 1005 93 10000 1.5 120 22:58 25.09.2019
1285 Fog 14 1005 93 10000 1.5 120 22:40 25.09.2019
1286 Fog 14 1004 87 10000 2.1 140 22:20 25.09.2019
1287 Fog 15 1005 93 10000 1.5 100 21:57 25.09.2019
1288 Fog 15 1005 93 10000 1.5 100 21:38 25.09.2019
1289 Clouds 15 1005 82 10000 2.1 120 21:19 25.09.2019
1290 Clouds 15 1005 87 10000 1 100 20:57 25.09.2019
1291 Clouds 15 1005 87 10000 1 100 20:39 25.09.2019
1292 Clouds 15 1004 87 10000 1.5 120 20:20 25.09.2019
1293 Clouds 16 1005 87 10000 2.6 200 19:54 25.09.2019
1294 Clouds 16 1005 87 10000 2.6 200 19:36 25.09.2019
1295 Rain 16 1004 77 10000 3.6 210 19:18 25.09.2019
1296 Rain 16 1004 77 10000 3.6 210 18:55 25.09.2019
1297 Clouds 16 1004 82 10000 2.6 200 18:36 25.09.2019
1298 Clouds 17 1004 82 10000 2.6 200 18:18 25.09.2019
1299 Clouds 17 1004 82 10000 2.6 200 18:18 25.09.2019
1300 Clouds 17 1004 77 10000 2.1 240 17:38 25.09.2019
1301 Clouds 17 1004 82 10000 4.6 210 17:19 25.09.2019
1302 Clouds 17 1004 82 10000 1 0 16:55 25.09.2019
1303 Rain 17 1004 82 10000 1 0 16:36 25.09.2019
1304 Rain 17 1004 87 10000 2.6 220 16:18 25.09.2019
1305 Clouds 17 1004 77 10000 2.1 190 15:41 25.09.2019
1306 Clouds 17 1004 77 10000 2.1 190 15:41 25.09.2019
1307 Clouds 17 1004 82 10000 3.1 180 15:23 25.09.2019
1308 Drizzle 17 1005 87 3800 2.1 130 14:57 25.09.2019
1309 Drizzle 17 1005 87 3800 2.1 130 14:39 25.09.2019
1310 Drizzle 17 1005 87 3800 2.1 130 14:39 25.09.2019
1311 Clouds 16 1004 77 10000 3.6 190 14:21 25.09.2019
1312 Clouds 16 1005 93 8000 1 0 13:56 25.09.2019
1313 Clouds 16 1005 93 8000 1 0 13:37 25.09.2019
1314 Clouds 16 1004 82 10000 5.1 210 13:19 25.09.2019
1315 Drizzle 15 1005 93 4000 2.1 150 12:41 25.09.2019
1316 Clouds 15 1004 93 8000 4.1 200 12:23 25.09.2019
1317 Clouds 15 1005 93 7000 2.6 140 11:58 25.09.2019
1318 Mist 15 1005 93 7000 2.6 140 11:40 25.09.2019
1319 Mist 14 1004 93 5000 3.6 200 11:19 25.09.2019
1320 Mist 14 1004 93 3800 3.1 200 10:45 25.09.2019
1321 Mist 14 1004 100 2900 2.6 190 10:25 25.09.2019
1322 Mist 14 1004 100 2900 2.6 190 10:25 25.09.2019
1323 Drizzle 14 1003 100 2900 2.6 190 09:58 25.09.2019
1324 Mist 14 1003 100 2400 2.1 180 09:37 25.09.2019
1325 Mist 14 1003 100 2400 2.1 180 09:19 25.09.2019
1326 Drizzle 14 1004 100 4500 2.1 120 08:44 25.09.2019
1327 Drizzle 14 1004 100 3700 2.6 110 08:21 25.09.2019
1328 Drizzle 14 1004 100 4000 2.1 110 07:59 25.09.2019
1329 Drizzle 14 1004 100 4000 2.1 110 07:39 25.09.2019
1330 Drizzle 13 1004 100 7000 2.6 110 07:21 25.09.2019
1331 Drizzle 13 1004 100 6000 2.1 110 06:45 25.09.2019
1332 Drizzle 13 1003 93 3500 2.1 150 06:23 25.09.2019
1333 Rain 13 1004 100 5000 1.5 130 05:37 25.09.2019
1334 Rain 13 1004 100 6000 1.5 130 04:55 25.09.2019
1335 Rain 14 1004 100 3800 2.1 140 02:31 25.09.2019
1336 Rain 14 1004 93 3800 2.6 160 01:19 25.09.2019
1337 Rain 14 1006 93 10000 1.5 220 00:37 25.09.2019
1338 Rain 14 1005 93 10000 3.1 150 00:18 25.09.2019
1339 Rain 14 1005 93 10000 3.1 150 23:41 24.09.2019
1340 Rain 14 1005 93 10000 3.1 150 23:21 24.09.2019
1341 Rain 15 1006 77 10000 2.1 170 22:56 24.09.2019
1342 Rain 15 1006 77 10000 2.1 170 22:36 24.09.2019
1343 Rain 15 1006 77 10000 2.1 170 22:36 24.09.2019
1344 Rain 15 1005 93 10000 3.1 160 22:18 24.09.2019
1345 Rain 15 1005 93 10000 3.1 160 22:18 24.09.2019
1346 Rain 15 1006 72 10000 1.5 140 21:54 24.09.2019
1347 Rain 16 1006 72 10000 1.5 140 21:36 24.09.2019
1348 Rain 16 1006 87 10000 4.6 170 21:18 24.09.2019
1349 Rain 16 1006 87 10000 4.6 170 21:18 24.09.2019
1350 Drizzle 16 1006 72 10000 2.1 170 20:55 24.09.2019
1351 Drizzle 16 1006 72 10000 2.1 170 20:55 24.09.2019
1352 Drizzle 16 1006 82 10000 2.6 150 20:37 24.09.2019
1353 Drizzle 17 1006 82 10000 2.6 150 20:18 24.09.2019
1354 Clouds 17 1007 63 10000 2.1 210 19:41 24.09.2019
1355 Clouds 17 1005 77 10000 2.1 140 19:19 24.09.2019
1356 Drizzle 18 1006 59 10000 2.6 150 18:57 24.09.2019
1357 Clouds 18 1006 59 10000 2.6 150 18:39 24.09.2019
1358 Clouds 18 1006 77 10000 4.6 160 18:20 24.09.2019
1359 Clouds 18 1007 52 10000 4.1 150 17:56 24.09.2019
1360 Clouds 18 1007 52 10000 4.1 150 17:37 24.09.2019
1361 Clouds 18 1006 82 10000 2.6 140 17:19 24.09.2019
1362 Clouds 19 1007 56 10000 4.1 160 16:42 24.09.2019
1363 Clouds 19 1007 82 10000 4.1 150 16:21 24.09.2019
1364 Rain 19 1008 56 10000 4.6 160 15:58 24.09.2019
1365 Clouds 19 1008 56 10000 4.6 160 15:40 24.09.2019
1366 Clouds 19 1007 63 10000 3.6 170 15:21 24.09.2019
1367 Clouds 19 1008 56 10000 4.6 170 14:40 24.09.2019
1368 Clouds 20 1008 63 10000 5.7 150 14:19 24.09.2019
1369 Clouds 19 1009 60 10000 5.1 170 13:45 24.09.2019
1370 Clouds 19 1008 63 10000 5.1 150 13:24 24.09.2019
1371 Clouds 19 1010 63 10000 5.1 160 12:59 24.09.2019
1372 Clouds 19 1010 63 10000 5.1 160 12:39 24.09.2019
1373 Clouds 18 1009 63 10000 4.6 150 12:18 24.09.2019
1374 Clouds 18 1011 72 10000 4.1 160 11:43 24.09.2019
1375 Clouds 17 1010 77 10000 3.6 140 11:22 24.09.2019
1376 Clouds 16 1011 82 10000 3.1 160 10:57 24.09.2019
1377 Clouds 15 1010 82 10000 3.6 150 10:37 24.09.2019
1378 Clouds 15 1010 82 10000 3.6 150 10:19 24.09.2019
1379 Clouds 14 1012 100 10000 2.6 160 09:46 24.09.2019
1380 Clouds 14 1011 87 10000 2.6 160 09:27 24.09.2019
1381 Clouds 13 1011 93 10000 3.1 160 08:57 24.09.2019
1382 Clouds 12 1012 93 8000 0.5 0 08:39 24.09.2019
1383 Clouds 12 1011 87 10000 3.6 160 08:20 24.09.2019
1384 Clouds 12 1011 93 6000 2.1 130 07:57 24.09.2019
1385 Fog 11 1012 100 600 1.5 120 07:37 24.09.2019
1386 Fog 11 1011 93 6000 2.6 140 07:18 24.09.2019
1387 Clouds 12 1012 93 6000 2.6 140 06:37 24.09.2019
1388 Fog 12 1012 93 6000 2.6 140 06:18 24.09.2019
1389 Fog 12 1012 100 6000 2.1 130 05:21 24.09.2019
1390 Fog 12 1013 93 500 0.5 150 03:46 24.09.2019
1391 Fog 12 1013 100 5000 1.5 140 03:22 24.09.2019
1392 Fog 12 1014 100 500 0.5 150 02:43 24.09.2019
1393 Fog 13 1014 93 500 1.5 230 01:41 24.09.2019
1394 Mist 14 1014 93 3500 0.5 210 00:41 24.09.2019
1395 Mist 14 1014 100 6000 1 160 00:22 24.09.2019
1396 Mist 14 1014 100 4500 1 210 23:42 23.09.2019
1397 Mist 14 1014 100 8000 0.5 160 23:23 23.09.2019
1398 Mist 15 1014 93 4500 1 180 22:41 23.09.2019
1399 Rain 15 1014 93 4500 1.5 140 22:22 23.09.2019
1400 Rain 15 1014 93 4500 1.5 140 21:59 23.09.2019
1401 Rain 15 1014 93 4500 1.5 140 21:41 23.09.2019
1402 Rain 15 1014 100 4000 1.5 150 21:22 23.09.2019
1403 Rain 16 1014 100 4000 1.5 150 20:59 23.09.2019
1404 Rain 16 1014 100 4000 1.5 150 20:59 23.09.2019
1405 Rain 16 1014 100 4000 1.5 150 20:40 23.09.2019
1406 Mist 16 1014 87 10000 2.1 230 20:19 23.09.2019
1407 Mist 16 1014 100 4000 1.5 110 19:55 23.09.2019
1408 Mist 17 1014 100 4000 1.5 110 19:36 23.09.2019
1409 Clouds 17 1014 93 7000 1 110 19:18 23.09.2019
1410 Clouds 18 1014 93 7000 1 110 18:42 23.09.2019
1411 Clouds 18 1014 93 7000 1 110 18:42 23.09.2019
1412 Rain 18 1013 82 10000 2.1 190 18:20 23.09.2019
1413 Rain 18 1014 93 9000 0.5 200 17:58 23.09.2019
1414 Rain 18 1014 93 9000 0.5 200 17:39 23.09.2019
1415 Rain 18 1014 93 9000 0.5 200 17:39 23.09.2019
1416 Drizzle 18 1013 77 10000 2.6 190 17:20 23.09.2019
1417 Drizzle 18 1013 88 9000 1 220 16:57 23.09.2019
1418 Drizzle 18 1013 88 9000 1 220 16:37 23.09.2019
1419 Drizzle 18 1013 82 8000 3.1 200 16:18 23.09.2019
1420 Drizzle 18 1013 88 9000 2.1 240 15:56 23.09.2019
1421 Drizzle 18 1013 88 9000 2.1 240 15:38 23.09.2019
1422 Clouds 18 1013 82 10000 3.1 180 15:19 23.09.2019
1423 Clouds 18 1013 93 10000 1 0 14:40 23.09.2019
1424 Clouds 18 1013 93 10000 1 0 14:40 23.09.2019
1425 Drizzle 17 1013 82 8000 2.6 200 14:21 23.09.2019
1426 Drizzle 17 1013 93 9000 1.5 280 13:59 23.09.2019
1427 Drizzle 17 1013 93 9000 1.5 280 13:39 23.09.2019
1428 Clouds 17 1013 82 8000 3.6 200 13:18 23.09.2019
1429 Drizzle 17 1013 93 4000 2.1 250 12:56 23.09.2019
1430 Drizzle 17 1013 93 4000 2.1 250 12:37 23.09.2019
1431 Drizzle 17 1013 93 3200 2.6 250 12:19 23.09.2019
1432 Drizzle 16 1013 93 4000 2.6 250 11:44 23.09.2019
1433 Drizzle 16 1013 93 4400 3.1 210 11:26 23.09.2019
1434 Mist 16 1012 87 10000 2.6 270 10:55 23.09.2019
1435 Mist 16 1012 87 10000 2.6 270 10:37 23.09.2019
1436 Mist 16 1012 93 3600 3.1 220 10:19 23.09.2019
1437 Mist 16 1012 87 10000 2.1 280 09:40 23.09.2019
1438 Mist 16 1011 93 4200 2.1 210 09:21 23.09.2019
1439 Mist 16 1011 93 10000 4.6 260 08:57 23.09.2019
1440 Rain 16 1011 93 10000 4.6 260 08:38 23.09.2019
1441 Rain 16 1011 93 5000 2.1 220 08:18 23.09.2019
1442 Drizzle 16 1010 100 9000 2.1 220 07:33 23.09.2019
1443 Rain 16 1010 88 10000 2.6 260 06:52 23.09.2019
1444 Rain 16 1009 88 10000 3.6 280 06:19 23.09.2019
1445 Drizzle 16 1010 93 10000 2.6 250 05:22 23.09.2019
1446 Clouds 17 1010 88 10000 3.1 260 04:55 23.09.2019
1447 Clouds 17 1009 63 10000 1 130 03:56 23.09.2019
1448 Rain 18 1008 64 10000 4.1 210 01:25 23.09.2019
1449 Rain 18 1007 63 10000 1.5 120 00:24 23.09.2019
1450 Clouds 18 1008 63 10000 3.1 110 23:58 22.09.2019
1451 Clouds 18 1008 63 10000 3.1 110 23:58 22.09.2019
1452 Rain 18 1008 63 10000 3.1 110 23:39 22.09.2019
1453 Rain 19 1007 68 10000 2.6 110 23:21 22.09.2019
1454 Clouds 19 1008 59 10000 3.6 110 22:54 22.09.2019
1455 Clouds 19 1008 59 10000 3.6 110 22:36 22.09.2019
1456 Clouds 19 1007 64 10000 2.1 110 22:18 22.09.2019
1457 Clouds 19 1008 59 10000 3.1 110 21:42 22.09.2019
1458 Rain 19 1007 72 10000 2.1 100 21:20 22.09.2019
1459 Clouds 20 1008 55 10000 2.6 110 20:45 22.09.2019
1460 Clouds 20 1006 68 10000 2.1 100 20:27 22.09.2019
1461 Clouds 21 1007 52 10000 3.1 110 19:59 22.09.2019
1462 Clouds 21 1007 52 10000 3.1 110 19:40 22.09.2019
1463 Clouds 22 1006 53 10000 1.5 130 19:20 22.09.2019
1464 Clouds 23 1007 44 10000 3.6 120 18:57 22.09.2019
1465 Clouds 24 1007 44 10000 3.6 120 18:38 22.09.2019
1466 Clouds 24 1006 44 10000 2.1 140 18:18 22.09.2019
1467 Clouds 25 1008 41 10000 5.1 130 17:46 22.09.2019
1468 Clouds 25 1007 41 10000 3.1 120 17:27 22.09.2019
1469 Clouds 25 1008 38 10000 4.6 120 16:58 22.09.2019
1470 Clouds 25 1008 38 10000 4.6 120 16:40 22.09.2019
1471 Clouds 25 1007 38 10000 4.6 140 16:20 22.09.2019
1472 Clouds 25 1008 36 10000 5.1 150 15:46 22.09.2019
1473 Clouds 25 1007 41 10000 4.1 120 15:26 22.09.2019
1474 Clouds 25 1009 38 10000 4.1 140 14:55 22.09.2019
1475 Clouds 24 1009 38 10000 4.1 140 14:37 22.09.2019
1476 Clouds 24 1009 38 10000 4.1 140 14:37 22.09.2019
1477 Clouds 24 1008 43 10000 4.1 140 14:19 22.09.2019
1478 Clouds 23 1009 40 10000 5.1 120 13:43 22.09.2019
1479 Clouds 23 1009 40 10000 5.1 120 13:43 22.09.2019
1480 Clouds 22 1008 46 10000 3.1 130 13:25 22.09.2019
1481 Clouds 22 1010 46 10000 4.6 130 12:57 22.09.2019
1482 Clouds 21 1010 46 10000 4.6 130 12:39 22.09.2019
1483 Clear 21 1009 52 10000 3.6 120 12:21 22.09.2019
1484 Clear 21 1009 52 10000 3.6 120 12:21 22.09.2019
1485 Clouds 20 1011 55 10000 3.6 130 11:56 22.09.2019
1486 Clouds 19 1011 55 10000 3.6 130 11:38 22.09.2019
1487 Clear 18 1010 59 10000 2.6 110 11:19 22.09.2019
1488 Clouds 17 1011 63 10000 3.1 140 10:43 22.09.2019
1489 Clear 16 1010 71 10000 3.1 110 10:20 22.09.2019
1490 Clouds 15 1012 67 10000 3.6 120 09:55 22.09.2019
1491 Clouds 15 1012 67 10000 3.6 120 09:55 22.09.2019
1492 Clouds 14 1012 67 10000 3.6 120 09:37 22.09.2019
1493 Clear 13 1011 76 10000 3.1 110 09:19 22.09.2019
1494 Clouds 11 1012 76 10000 3.1 110 08:42 22.09.2019
1495 Clear 10 1011 81 10000 3.1 110 08:22 22.09.2019
1496 Clear 9 1012 76 10000 3.1 110 07:49 22.09.2019
1497 Clear 10 1011 81 10000 3.1 100 07:31 22.09.2019
1498 Clear 9 1012 81 10000 2.6 100 06:59 22.09.2019
1499 Clear 9 1012 81 10000 2.6 100 06:37 22.09.2019
1500 Clear 10 1012 76 10000 2.6 110 05:19 22.09.2019
1501 Clear 11 1014 87 10000 3.6 110 02:45 22.09.2019
1502 Clear 12 1013 76 10000 2.6 100 02:25 22.09.2019
1503 Clear 12 1015 87 10000 3.1 100 01:45 22.09.2019
1504 Clear 13 1015 87 10000 3.6 110 00:54 22.09.2019
1505 Clear 13 1014 71 10000 3.1 100 00:32 22.09.2019
1506 Clear 13 1016 87 10000 3.1 110 23:56 21.09.2019
1507 Clear 13 1016 87 10000 3.1 110 23:38 21.09.2019
1508 Clear 13 1016 87 10000 3.1 100 22:57 21.09.2019
1509 Clear 14 1016 87 10000 3.1 100 22:36 21.09.2019
1510 Clear 14 1015 71 10000 3.1 80 22:18 21.09.2019
1511 Clouds 15 1017 87 10000 2.6 90 21:41 21.09.2019
1512 Clear 15 1015 67 10000 2.1 90 21:19 21.09.2019
1513 Clouds 15 1017 82 10000 2.6 90 20:56 21.09.2019
1514 Clouds 16 1017 82 10000 2.6 90 20:37 21.09.2019
1515 Clear 16 1016 63 10000 2.6 90 20:18 21.09.2019
1516 Clouds 17 1017 77 10000 3.6 90 19:46 21.09.2019
1517 Clear 18 1016 49 10000 3.1 100 19:21 21.09.2019
1518 Clouds 19 1018 68 10000 5.1 80 18:42 21.09.2019
1519 Clear 21 1016 40 10000 4.1 100 18:22 21.09.2019
1520 Clouds 21 1018 49 10000 5.1 100 17:56 21.09.2019
1521 Clouds 21 1018 49 10000 5.1 100 17:38 21.09.2019
1522 Clear 22 1017 37 10000 4.6 100 17:19 21.09.2019
1523 Clouds 22 1019 46 10000 4.1 100 16:42 21.09.2019
1524 Clouds 22 1019 46 10000 4.1 100 16:42 21.09.2019
1525 Clear 22 1018 40 10000 4.1 110 16:24 21.09.2019
1526 Clouds 22 1020 49 10000 4.6 100 15:48 21.09.2019
1527 Clear 21 1019 43 10000 4.1 110 15:25 21.09.2019
1528 Clouds 21 1020 45 10000 3.6 100 14:50 21.09.2019
1529 Clear 21 1020 45 10000 3.6 110 14:32 21.09.2019
1530 Clouds 20 1021 48 10000 2.6 130 13:58 21.09.2019
1531 Clouds 20 1021 48 10000 2.6 130 13:40 21.09.2019
1532 Clouds 20 1021 48 10000 2.6 130 13:40 21.09.2019
1533 Clear 20 1020 48 10000 3.6 110 13:22 21.09.2019
1534 Clouds 19 1022 55 10000 2.6 110 12:57 21.09.2019
1535 Clouds 19 1022 55 10000 2.6 110 12:38 21.09.2019
1536 Clear 18 1021 52 10000 3.1 120 12:20 21.09.2019
1537 Clear 17 1022 59 10000 2.1 140 11:47 21.09.2019
1538 Clear 16 1022 63 10000 2.6 120 11:24 21.09.2019
1539 Clear 16 1023 72 10000 2.1 140 10:55 21.09.2019
1540 Clear 15 1023 72 10000 2.1 140 10:37 21.09.2019
1541 Clear 13 1022 81 10000 2.6 110 10:19 21.09.2019
1542 Clear 12 1023 93 10000 1 0 09:40 21.09.2019
1543 Clouds 11 1022 93 10000 2.6 100 09:21 21.09.2019
1544 Mist 9 1023 100 1600 1 90 08:59 21.09.2019
1545 Mist 8 1023 100 1600 1 90 08:40 21.09.2019
1546 Fog 7 1023 100 400 3.73 135.011 07:58 21.09.2019
1547 Fog 7 1023 100 400 3.73 135.011 07:39 21.09.2019
1548 Fog 7 1022 100 5000 1.5 100 07:18 21.09.2019
1549 Fog 8 1023 100 6000 2.1 100 06:35 21.09.2019
1550 Fog 8 1023 100 600 0.5 140 05:51 21.09.2019
1551 Fog 8 1024 100 600 3.17 143.181 04:39 21.09.2019
1552 Fog 8 1024 100 350 1 110 03:31 21.09.2019
1553 Fog 9 1024 93 550 1.5 60 02:25 21.09.2019
1554 Fog 9 1025 93 4000 2.84 146.768 01:48 21.09.2019
1555 Mist 9 1025 100 4100 1 70 01:25 21.09.2019
1556 Mist 10 1025 100 1800 1 70 00:23 21.09.2019
1557 Clouds 10 1025 87 10000 0.5 350 23:56 20.09.2019
1558 Mist 10 1025 100 5000 0.5 70 23:30 20.09.2019
1559 Clouds 11 1026 87 10000 2.1 220 22:56 20.09.2019
1560 Clouds 11 1026 87 10000 2.1 220 22:56 20.09.2019
1561 Clouds 11 1026 87 10000 2.1 220 22:37 20.09.2019
1562 Clear 11 1026 100 10000 1 60 22:19 20.09.2019
1563 Clear 11 1026 100 10000 1 60 22:19 20.09.2019
1564 Clouds 12 1026 82 10000 1 0 21:55 20.09.2019
1565 Clouds 12 1026 82 10000 1 0 21:36 20.09.2019
1566 Clear 13 1026 93 10000 0.5 40 21:18 20.09.2019
1567 Clouds 14 1026 77 10000 1 270 20:41 20.09.2019
1568 Clouds 14 1026 77 10000 1 0 20:21 20.09.2019
1569 Clouds 14 1026 77 10000 1.5 260 19:57 20.09.2019
1570 Clouds 15 1026 77 10000 1.5 260 19:38 20.09.2019
1571 Clouds 15 1027 72 10000 0.5 10 19:19 20.09.2019
1572 Clouds 16 1027 77 10000 2.1 270 18:39 20.09.2019
1573 Clouds 16 1027 72 10000 1 0 18:20 20.09.2019
1574 Clouds 16 1027 72 10000 3.6 270 17:58 20.09.2019
1575 Clouds 16 1027 72 10000 3.6 270 17:39 20.09.2019
1576 Clouds 16 1027 67 10000 1 0 17:21 20.09.2019
1577 Clouds 16 1028 72 10000 3.1 260 16:41 20.09.2019
1578 Clouds 16 1028 72 10000 3.1 260 16:41 20.09.2019
1579 Clouds 16 1028 67 10000 2.1 260 16:19 20.09.2019
1580 Clouds 16 1028 67 10000 3.1 250 15:43 20.09.2019
1581 Clouds 16 1028 67 10000 2.1 240 15:24 20.09.2019
1582 Clouds 16 1028 67 10000 3.6 250 14:59 20.09.2019
1583 Clouds 16 1028 67 10000 3.6 250 14:41 20.09.2019
1584 Clouds 16 1028 67 10000 3.6 250 14:41 20.09.2019
1585 Clouds 16 1029 72 10000 4.6 250 14:18 20.09.2019
1586 Clouds 16 1029 72 10000 4.6 250 14:18 20.09.2019
1587 Clouds 16 1029 72 10000 4.6 250 13:47 20.09.2019
1588 Clouds 16 1029 76 10000 4.6 260 13:28 20.09.2019
1589 Clouds 15 1029 76 10000 4.6 260 12:57 20.09.2019
1590 Clouds 15 1029 76 10000 4.6 260 12:37 20.09.2019
1591 Clouds 15 1030 71 10000 1.5 270 12:18 20.09.2019
1592 Clouds 14 1029 71 10000 3.1 250 11:48 20.09.2019
1593 Clouds 14 1030 71 10000 2.6 210 11:21 20.09.2019
1594 Clouds 12 1029 81 10000 2.6 220 10:43 20.09.2019
1595 Clouds 12 1030 81 10000 2.6 230 10:24 20.09.2019
1596 Clouds 11 1029 87 10000 2.1 230 09:59 20.09.2019
1597 Clouds 10 1029 87 10000 2.1 230 09:37 20.09.2019
1598 Clouds 10 1029 87 10000 2.1 230 09:37 20.09.2019
1599 Clouds 9 1029 93 10000 1.5 200 09:18 20.09.2019
1600 Clouds 8 1029 93 10000 2.1 220 08:42 20.09.2019
1601 Fog 7 1029 93 10000 0.5 230 08:23 20.09.2019
1602 Fog 6 1029 93 10000 2.1 220 07:47 20.09.2019
1603 Fog 6 1029 93 10000 1 230 07:28 20.09.2019
1604 Fog 6 1029 93 10000 1.5 230 06:45 20.09.2019
1605 Fog 6 1029 93 10000 1.5 230 06:45 20.09.2019
1606 Fog 6 1029 100 10000 1 230 06:27 20.09.2019
1607 Fog 6 1029 93 10000 1.5 220 05:57 20.09.2019
1608 Clouds 6 1030 87 10000 1.5 240 03:51 20.09.2019
1609 Clouds 6 1030 93 10000 0.5 230 03:25 20.09.2019
1610 Clouds 7 1030 87 10000 1 250 01:45 20.09.2019
1611 Clouds 7 1030 93 10000 1 230 01:27 20.09.2019
1612 Clouds 7 1031 93 10000 0.5 230 00:32 20.09.2019
1613 Clouds 8 1030 87 10000 1 230 23:46 19.09.2019
1614 Clouds 8 1031 100 10000 0.5 230 23:24 19.09.2019
1615 Clouds 8 1030 87 10000 1.5 260 22:57 19.09.2019
1616 Clouds 8 1030 87 10000 1.5 260 22:38 19.09.2019
1617 Clouds 9 1031 93 10000 0.5 200 22:20 19.09.2019
1618 Clouds 9 1030 81 10000 1 240 21:56 19.09.2019
1619 Clouds 10 1030 81 10000 1 240 21:38 19.09.2019
1620 Clouds 10 1030 81 10000 0.5 310 21:19 19.09.2019
1621 Clouds 11 1030 76 10000 1 320 20:43 19.09.2019
1622 Clouds 11 1030 76 10000 1 320 20:43 19.09.2019
1623 Clouds 12 1030 71 10000 1.5 340 20:23 19.09.2019
1624 Clouds 12 1030 66 10000 2.1 300 19:57 19.09.2019
1625 Clouds 13 1030 66 10000 2.1 300 19:39 19.09.2019
1626 Clouds 14 1030 58 10000 2.6 340 19:21 19.09.2019
1627 Clouds 14 1030 58 10000 3.6 310 18:56 19.09.2019
1628 Clouds 14 1030 58 10000 3.6 310 18:38 19.09.2019
1629 Clouds 15 1030 51 10000 3.6 310 18:19 19.09.2019
1630 Clouds 15 1030 54 10000 4.1 340 17:42 19.09.2019
1631 Clouds 16 1030 51 10000 2.6 20 17:23 19.09.2019
1632 Clouds 16 1030 51 10000 4.6 300 16:59 19.09.2019
1633 Clouds 16 1030 51 10000 4.6 300 16:39 19.09.2019
1634 Clouds 16 1030 48 10000 3.1 340 16:19 19.09.2019
1635 Clouds 16 1030 51 10000 4.1 330 15:39 19.09.2019
1636 Clouds 16 1030 45 10000 3.6 310 15:21 19.09.2019
1637 Clouds 16 1030 45 10000 3.6 310 15:21 19.09.2019
1638 Clouds 16 1030 47 10000 5.1 320 14:57 19.09.2019
1639 Clouds 16 1031 44 10000 3.6 340 14:38 19.09.2019
1640 Clouds 16 1031 44 10000 3.6 340 14:18 19.09.2019
1641 Clouds 16 1031 44 10000 3.6 340 14:18 19.09.2019
1642 Clouds 16 1031 44 10000 3.1 320 13:40 19.09.2019
1643 Clouds 15 1031 44 10000 3.1 320 13:20 19.09.2019
1644 Clouds 15 1030 51 10000 5.1 330 12:58 19.09.2019
1645 Clouds 15 1030 51 10000 5.1 330 12:36 19.09.2019
1646 Clouds 15 1031 48 10000 3.1 340 12:18 19.09.2019
1647 Clouds 15 1030 58 10000 5.7 320 11:41 19.09.2019
1648 Clouds 14 1030 58 10000 2.6 320 11:21 19.09.2019
1649 Clouds 14 1029 50 10000 5.1 350 10:57 19.09.2019
1650 Clouds 14 1029 50 10000 5.1 350 10:37 19.09.2019
1651 Clouds 13 1030 76 10000 1.5 290 10:18 19.09.2019
1652 Clouds 12 1029 66 10000 2.6 280 09:42 19.09.2019
1653 Clouds 10 1029 87 10000 1 0 09:23 19.09.2019
1654 Clouds 9 1029 71 10000 3.1 280 08:57 19.09.2019
1655 Clouds 8 1029 71 10000 3.1 280 08:38 19.09.2019
1656 Clouds 8 1029 93 10000 1.5 230 08:19 19.09.2019
1657 Clouds 7 1028 70 10000 2.1 290 07:43 19.09.2019
1658 Clouds 7 1029 93 10000 1 260 07:22 19.09.2019
1659 Clouds 7 1028 76 10000 1.5 290 06:48 19.09.2019
1660 Clouds 7 1029 93 10000 1 260 06:28 19.09.2019
1661 Clouds 7 1028 70 10000 1.5 310 05:52 19.09.2019
1662 Clouds 8 1028 100 10000 0.5 260 05:31 19.09.2019
1663 Clouds 8 1027 71 10000 2.1 290 03:54 19.09.2019
1664 Clouds 8 1027 81 10000 1.5 290 02:47 19.09.2019
1665 Clouds 8 1028 87 10000 0.5 260 01:32 19.09.2019
1666 Clouds 9 1027 66 10000 3.1 300 00:51 19.09.2019
1667 Clouds 9 1028 93 10000 1.5 270 00:26 19.09.2019
1668 Clouds 9 1028 93 10000 1.5 270 00:26 19.09.2019
1669 Clouds 9 1027 62 10000 3.1 320 23:43 18.09.2019
1670 Clouds 9 1028 93 10000 1.5 250 23:23 18.09.2019
1671 Clouds 9 1028 93 10000 1.5 250 23:23 18.09.2019
1672 Clouds 10 1027 62 10000 3.1 330 22:55 18.09.2019
1673 Clouds 10 1027 62 10000 3.1 330 22:37 18.09.2019
1674 Clouds 10 1028 87 10000 1.5 280 22:18 18.09.2019
1675 Clouds 10 1026 66 10000 1.5 340 21:56 18.09.2019
1676 Clouds 10 1026 66 10000 1.5 340 21:37 18.09.2019
1677 Clouds 11 1027 81 10000 1.5 300 21:18 18.09.2019
1678 Clouds 11 1026 62 10000 2.1 330 20:56 18.09.2019
1679 Clouds 11 1026 62 10000 2.1 330 20:37 18.09.2019
1680 Clouds 12 1027 62 10000 3.1 330 20:19 18.09.2019
1681 Clouds 12 1026 58 10000 2.6 310 19:55 18.09.2019
1682 Clouds 13 1026 58 10000 2.6 310 19:37 18.09.2019
1683 Clouds 13 1027 62 10000 4.1 340 19:18 18.09.2019
1684 Clouds 13 1026 54 10000 4.6 320 18:54 18.09.2019
1685 Clouds 13 1026 54 10000 4.6 320 18:54 18.09.2019
1686 Clouds 14 1026 54 10000 4.6 320 18:36 18.09.2019
1687 Rain 14 1027 58 10000 5.1 330 18:18 18.09.2019
1688 Clouds 15 1026 54 10000 6.2 330 17:41 18.09.2019
1689 Rain 14 1026 54 10000 6.2 320 17:19 18.09.2019
1690 Clouds 15 1026 54 10000 6.2 330 16:59 18.09.2019
1691 Clouds 15 1026 54 10000 6.2 330 16:41 18.09.2019
1692 Clouds 15 1026 55 10000 4.6 330 16:22 18.09.2019
1693 Clouds 15 1025 58 10000 6.2 320 15:56 18.09.2019
1694 Clouds 15 1025 58 10000 6.2 320 15:56 18.09.2019
1695 Clouds 15 1025 58 10000 6.2 320 15:38 18.09.2019
1696 Clouds 15 1026 55 10000 6.2 320 15:20 18.09.2019
1697 Clouds 15 1025 58 10000 5.7 330 14:58 18.09.2019
1698 Rain 15 1026 55 10000 5.1 330 14:40 18.09.2019
1699 Rain 16 1026 55 10000 5.1 330 14:21 18.09.2019
1700 Clouds 15 1025 58 10000 7.2 330 13:58 18.09.2019
1701 Clouds 15 1025 58 10000 7.2 330 13:38 18.09.2019
1702 Clouds 15 1026 51 10000 5.1 340 13:18 18.09.2019
1703 Clouds 15 1026 54 10000 5.7 350 12:44 18.09.2019
1704 Rain 14 1026 54 10000 5.7 350 12:26 18.09.2019
1705 Rain 14 1025 66 10000 6.2 320 11:40 18.09.2019
1706 Rain 14 1026 71 10000 3.1 260 11:20 18.09.2019
1707 Clouds 14 1025 54 10000 6.7 340 10:58 18.09.2019
1708 Clouds 13 1025 54 10000 6.7 340 10:40 18.09.2019
1709 Clouds 13 1026 81 10000 3.1 280 10:20 18.09.2019
1710 Clouds 13 1026 81 10000 3.1 280 10:20 18.09.2019
1711 Clouds 13 1024 62 10000 4.1 320 09:58 18.09.2019
1712 Clouds 12 1024 62 10000 4.1 320 09:37 18.09.2019
1713 Clouds 12 1025 81 10000 2.6 270 09:19 18.09.2019
1714 Clouds 11 1024 58 10000 3.6 310 08:41 18.09.2019
1715 Rain 10 1025 93 10000 2.1 220 08:23 18.09.2019
1716 Drizzle 10 1023 66 10000 3.1 290 07:53 18.09.2019
1717 Clouds 9 1024 93 10000 1 0 07:35 18.09.2019
1718 Clouds 9 1023 58 10000 3.1 320 06:59 18.09.2019
1719 Clouds 10 1023 58 10000 3.1 320 06:38 18.09.2019
1720 Clouds 10 1023 62 10000 5.1 320 05:46 18.09.2019
1721 Clouds 10 1023 54 10000 5.1 320 04:43 18.09.2019
1722 Clouds 11 1022 62 10000 5.1 320 02:54 18.09.2019
1723 Clouds 11 1023 81 10000 2.1 300 02:28 18.09.2019
1724 Clouds 11 1023 81 10000 2.6 300 01:21 18.09.2019
1725 Rain 12 1021 66 10000 5.7 330 00:48 18.09.2019
1726 Rain 12 1023 71 10000 4.6 310 00:20 18.09.2019
1727 Clouds 12 1021 66 10000 5.1 320 23:44 17.09.2019
1728 Rain 12 1023 76 10000 3.1 280 23:22 17.09.2019
1729 Clouds 12 1020 76 10000 5.7 320 22:43 17.09.2019
1730 Clouds 12 1022 76 10000 2.1 310 22:24 17.09.2019
1731 Clouds 12 1019 62 10000 5.7 310 21:55 17.09.2019
1732 Clouds 12 1019 62 10000 5.7 310 21:37 17.09.2019
1733 Clouds 12 1021 66 10000 3.1 290 21:37 17.09.2019
1734 Clouds 12 1021 66 10000 3.1 290 21:19 17.09.2019
1735 Clouds 12 1019 66 10000 6.7 320 20:58 17.09.2019
1736 Clouds 12 1019 66 10000 6.7 320 20:58 17.09.2019
1737 Clouds 12 1019 66 10000 6.7 320 20:40 17.09.2019
1738 Clouds 12 1021 62 10000 4.6 300 20:22 17.09.2019
1739 Clouds 13 1019 62 10000 6.2 310 19:58 17.09.2019
1740 Clouds 13 1019 62 10000 6.2 310 19:39 17.09.2019
1741 Rain 13 1021 54 10000 6.7 310 19:19 17.09.2019
1742 Rain 13 1018 62 10000 6.7 310 18:57 17.09.2019
1743 Rain 14 1020 54 10000 7.7 320 18:38 17.09.2019
1744 Rain 14 1020 54 10000 7.7 320 18:20 17.09.2019
1745 Rain 14 1020 54 10000 7.7 320 18:20 17.09.2019
1746 Clouds 14 1018 58 10000 8.2 320 17:46 17.09.2019
1747 Clouds 14 1018 58 10000 8.2 320 17:46 17.09.2019
1748 Rain 14 1020 58 10000 7.7 310 17:20 17.09.2019
1749 Clouds 14 1018 54 10000 11.3 310 16:58 17.09.2019
1750 Clouds 14 1018 54 10000 11.3 310 16:40 17.09.2019
1751 Rain 14 1020 62 10000 8.2 310 16:21 17.09.2019
1752 Rain 15 1018 62 10000 10.8 310 15:40 17.09.2019
1753 Clouds 15 1020 42 10000 9.3 310 15:21 17.09.2019
1754 Rain 14 1019 58 10000 9.3 300 14:57 17.09.2019
1755 Clouds 15 1019 51 10000 9.3 310 14:39 17.09.2019
1756 Clouds 15 1019 51 10000 9.3 310 14:19 17.09.2019
1757 Clouds 15 1017 71 10000 8.2 310 13:57 17.09.2019
1758 Clouds 15 1017 71 10000 8.2 310 13:39 17.09.2019
1759 Clouds 15 1019 59 10000 7.7 290 13:21 17.09.2019
1760 Clouds 15 1017 47 10000 10.8 310 12:43 17.09.2019
1761 Clouds 15 1017 51 10000 11.3 300 12:20 17.09.2019
1762 Clouds 15 1016 54 10000 10.3 310 11:57 17.09.2019
1763 Clouds 15 1016 54 10000 10.3 310 11:38 17.09.2019
1764 Rain 14 1018 82 10000 5.1 280 11:18 17.09.2019
1765 Rain 14 1018 82 10000 5.1 280 11:18 17.09.2019
1766 Rain 13 1016 82 9000 5.7 300 10:42 17.09.2019
1767 Clouds 14 1018 72 10000 4.6 270 10:22 17.09.2019
1768 Clouds 13 1016 87 10000 3.1 260 09:58 17.09.2019
1769 Clouds 13 1016 87 10000 3.1 260 09:40 17.09.2019
1770 Rain 13 1016 87 10000 3.1 270 09:20 17.09.2019
1771 Rain 12 1016 87 10000 5.1 280 08:44 17.09.2019
1772 Rain 11 1016 81 5000 6.2 300 08:25 17.09.2019
1773 Rain 11 1016 81 5000 6.2 300 08:25 17.09.2019
1774 Rain 11 1016 71 10000 3.6 280 07:55 17.09.2019
1775 Rain 11 1016 71 10000 3.6 280 07:36 17.09.2019
1776 Rain 10 1018 93 10000 3.1 240 07:18 17.09.2019
1777 Clouds 11 1016 76 10000 2.6 250 06:44 17.09.2019
1778 Clouds 11 1018 87 10000 3.1 240 06:19 17.09.2019
1779 Clouds 11 1018 87 10000 2.6 250 05:33 17.09.2019
1780 Clouds 11 1019 87 10000 2.6 250 04:26 17.09.2019
1781 Clouds 11 1018 76 10000 2.6 260 02:53 17.09.2019
1782 Clouds 11 1019 87 10000 2.6 250 02:33 17.09.2019
1783 Clouds 11 1019 87 10000 3.1 260 01:19 17.09.2019
1784 Clouds 11 1019 93 10000 2.6 250 00:28 17.09.2019
1785 Clouds 11 1018 76 10000 1.5 260 23:37 16.09.2019
1786 Clouds 11 1019 93 10000 3.1 250 23:18 16.09.2019
1787 Clouds 11 1018 76 10000 1.5 260 22:42 16.09.2019
1788 Clouds 11 1019 93 10000 2.1 240 22:24 16.09.2019
1789 Clouds 11 1018 71 10000 2.6 270 21:59 16.09.2019
1790 Clouds 12 1018 71 10000 2.6 270 21:40 16.09.2019
1791 Clouds 12 1019 93 10000 1.5 240 21:21 16.09.2019
1792 Clouds 12 1019 71 10000 2.1 250 20:58 16.09.2019
1793 Clouds 13 1019 71 10000 2.1 250 20:39 16.09.2019
1794 Clouds 13 1019 76 10000 1.5 280 20:19 16.09.2019
1795 Clouds 14 1018 62 10000 3.1 290 19:56 16.09.2019
1796 Clouds 14 1018 62 10000 3.1 290 19:38 16.09.2019
1797 Clouds 15 1019 62 10000 2.6 300 19:18 16.09.2019
1798 Clouds 15 1018 62 10000 4.6 300 18:44 16.09.2019
1799 Clouds 16 1019 59 10000 4.1 320 18:25 16.09.2019
1800 Clouds 16 1019 59 10000 5.1 300 17:56 16.09.2019
1801 Clouds 16 1019 59 10000 5.1 300 17:37 16.09.2019
1802 Clouds 16 1020 55 10000 4.6 310 17:19 16.09.2019
1803 Clouds 17 1019 59 10000 6.2 300 16:43 16.09.2019
1804 Clouds 16 1019 59 10000 4.1 300 16:21 16.09.2019
1805 Clouds 16 1019 67 10000 3.1 310 15:57 16.09.2019
1806 Clouds 16 1019 67 10000 3.6 310 15:39 16.09.2019
1807 Clouds 16 1019 67 10000 3.6 310 15:20 16.09.2019
1808 Clouds 16 1019 55 10000 3.1 310 14:58 16.09.2019
1809 Clouds 16 1019 55 10000 3.1 310 14:39 16.09.2019
1810 Clouds 16 1019 55 10000 3.1 310 14:39 16.09.2019
1811 Clouds 16 1019 72 10000 2.6 270 14:20 16.09.2019
1812 Clouds 15 1019 55 10000 3.1 310 13:43 16.09.2019
1813 Clouds 15 1020 82 10000 2.6 250 13:22 16.09.2019
1814 Clouds 15 1019 67 10000 3.6 340 12:59 16.09.2019
1815 Clouds 15 1019 67 10000 3.6 340 12:59 16.09.2019
1816 Clouds 14 1019 67 10000 3.6 340 12:39 16.09.2019
1817 Clouds 15 1020 93 10000 3.6 240 12:21 16.09.2019
1818 Clouds 14 1019 62 10000 2.6 310 11:46 16.09.2019
1819 Clouds 14 1020 87 10000 3.6 250 11:23 16.09.2019
1820 Clouds 14 1019 67 10000 2.1 290 10:56 16.09.2019
1821 Clouds 14 1019 67 10000 2.1 290 10:37 16.09.2019
1822 Clouds 13 1020 87 10000 3.6 240 10:18 16.09.2019
1823 Rain 13 1019 82 10000 1.5 260 09:55 16.09.2019
1824 Drizzle 13 1019 82 10000 1.5 260 09:36 16.09.2019
1825 Drizzle 13 1020 93 9000 2.6 260 09:18 16.09.2019
1826 Drizzle 13 1020 100 6000 2.1 240 08:41 16.09.2019
1827 Drizzle 13 1020 100 6000 2.1 240 08:22 16.09.2019
1828 Rain 12 1019 87 10000 0.5 0 07:43 16.09.2019
1829 Rain 12 1019 100 6000 1.5 230 07:24 16.09.2019
1830 Drizzle 12 1019 87 10000 1 230 06:58 16.09.2019
1831 Drizzle 12 1019 87 10000 1 230 06:39 16.09.2019
1832 Drizzle 13 1020 100 8000 2.1 230 06:21 16.09.2019
1833 Drizzle 13 1020 87 10000 1.5 240 05:43 16.09.2019
1834 Drizzle 13 1020 93 9000 1 250 05:23 16.09.2019
1835 Clouds 13 1020 87 10000 1.5 250 03:51 16.09.2019
1836 Clouds 13 1020 87 10000 1.5 240 01:40 16.09.2019
1837 Clouds 13 1020 87 10000 2.1 260 00:39 16.09.2019
1838 Clouds 13 1021 87 10000 2.1 240 00:21 16.09.2019
1839 Clouds 13 1020 87 10000 2.1 270 23:39 15.09.2019
1840 Clouds 13 1021 87 10000 2.1 240 23:20 15.09.2019
1841 Clouds 13 1020 82 10000 2.6 250 22:42 15.09.2019
1842 Clouds 14 1021 82 10000 2.1 250 22:21 15.09.2019
1843 Clouds 14 1020 76 10000 3.1 280 21:58 15.09.2019
1844 Clouds 14 1020 76 10000 3.1 280 21:58 15.09.2019
1845 Clouds 14 1020 76 10000 3.1 280 21:40 15.09.2019
1846 Clouds 14 1020 76 10000 3.1 280 21:40 15.09.2019
1847 Clouds 14 1021 76 10000 2.1 260 21:21 15.09.2019
1848 Clouds 15 1020 72 10000 2.6 270 20:59 15.09.2019
1849 Clouds 15 1020 72 10000 2.6 270 20:41 15.09.2019
1850 Clouds 15 1021 72 10000 2.6 290 20:23 15.09.2019
1851 Clouds 15 1021 72 10000 2.6 290 20:23 15.09.2019
1852 Clouds 16 1020 72 10000 4.1 300 19:45 15.09.2019
1853 Clouds 16 1021 72 10000 3.1 290 19:23 15.09.2019
1854 Clouds 16 1020 67 10000 4.6 290 18:55 15.09.2019
1855 Clouds 16 1020 67 10000 4.6 290 18:36 15.09.2019
1856 Clouds 16 1021 77 10000 4.1 310 18:18 15.09.2019
1857 Clouds 16 1021 77 10000 4.1 310 18:18 15.09.2019
1858 Clouds 17 1020 77 10000 5.1 300 17:40 15.09.2019
1859 Clouds 17 1021 72 10000 4.6 290 17:21 15.09.2019
1860 Clouds 17 1020 87 8000 5.7 300 16:55 15.09.2019
1861 Clouds 17 1020 87 8000 5.7 300 16:36 15.09.2019
1862 Clouds 18 1021 72 10000 4.1 280 16:18 15.09.2019
1863 Drizzle 18 1019 82 10000 7.7 270 15:41 15.09.2019
1864 Clouds 18 1021 72 10000 4.1 270 15:21 15.09.2019
1865 Clouds 18 1019 77 10000 7.2 280 14:58 15.09.2019
1866 Clouds 19 1019 77 10000 7.2 280 14:40 15.09.2019
1867 Clouds 19 1021 72 10000 5.1 270 14:21 15.09.2019
1868 Clouds 19 1019 77 10000 7.2 270 13:47 15.09.2019
1869 Clouds 18 1021 72 10000 5.1 270 13:25 15.09.2019
1870 Clouds 19 1019 77 10000 8.2 270 12:58 15.09.2019
1871 Clouds 19 1019 77 10000 8.2 270 12:39 15.09.2019
1872 Clouds 19 1019 72 10000 9.3 270 12:19 15.09.2019
1873 Clouds 18 1019 72 10000 7.2 270 11:42 15.09.2019
1874 Clouds 17 1020 77 10000 6.2 250 11:22 15.09.2019
1875 Clouds 17 1019 77 10000 6.2 260 10:59 15.09.2019
1876 Clouds 16 1019 77 10000 6.2 260 10:40 15.09.2019
1877 Clouds 16 1020 82 10000 5.7 220 10:21 15.09.2019
1878 Clouds 14 1019 76 10000 5.1 240 09:43 15.09.2019
1879 Clouds 14 1021 82 10000 4.1 220 09:21 15.09.2019
1880 Clouds 13 1020 76 10000 4.1 240 08:58 15.09.2019
1881 Clouds 12 1020 76 10000 4.1 240 08:39 15.09.2019
1882 Clouds 12 1021 87 10000 4.6 210 08:19 15.09.2019
1883 Clouds 12 1020 76 10000 4.6 230 07:41 15.09.2019
1884 Clouds 12 1020 71 10000 4.1 240 06:44 15.09.2019
1885 Clouds 11 1021 76 10000 3.1 230 05:58 15.09.2019
1886 Clouds 11 1024 87 10000 3.1 210 03:20 15.09.2019
1887 Clouds 11 1025 93 10000 2.1 210 02:20 15.09.2019
1888 Clouds 11 1025 87 10000 2.1 200 01:37 15.09.2019
1889 Clouds 11 1025 87 10000 2.1 200 01:37 15.09.2019
1890 Clouds 11 1026 81 10000 2.6 210 00:57 15.09.2019
1891 Clouds 11 1026 81 10000 2.6 210 00:57 15.09.2019
1892 Clouds 11 1026 81 10000 2.6 210 00:37 15.09.2019
1893 Clouds 11 1026 93 10000 1 210 00:19 15.09.2019
1894 Clouds 11 1027 81 10000 2.6 200 23:56 14.09.2019
1895 Clouds 11 1027 81 10000 2.6 200 23:38 14.09.2019
1896 Clouds 11 1027 100 10000 0.5 210 23:19 14.09.2019
1897 Clouds 11 1028 87 10000 0.5 240 22:58 14.09.2019
1898 Clouds 12 1028 87 10000 0.5 240 22:38 14.09.2019
1899 Clouds 12 1028 93 10000 1 170 22:19 14.09.2019
1900 Clouds 13 1028 82 10000 1.5 180 21:40 14.09.2019
1901 Clouds 13 1028 82 10000 1.5 180 21:40 14.09.2019
1902 Clouds 13 1029 87 10000 0.5 200 21:21 14.09.2019
1903 Clouds 14 1029 76 10000 0.5 110 20:59 14.09.2019
1904 Clouds 14 1029 76 10000 0.5 110 20:40 14.09.2019
1905 Clouds 15 1029 82 10000 1 220 20:22 14.09.2019
1906 Clouds 16 1029 63 10000 1 270 19:51 14.09.2019
1907 Clouds 17 1029 55 10000 1 0 19:23 14.09.2019
1908 Clouds 17 1029 52 10000 1.5 230 18:59 14.09.2019
1909 Clouds 18 1029 52 10000 1.5 230 18:40 14.09.2019
1910 Clouds 18 1030 52 10000 2.1 240 18:21 14.09.2019
1911 Clouds 18 1030 48 10000 2.6 270 17:57 14.09.2019
1912 Clouds 19 1030 48 10000 2.6 270 17:39 14.09.2019
1913 Clouds 19 1031 48 10000 2.6 290 17:21 14.09.2019
1914 Clouds 19 1031 52 10000 2.1 260 16:43 14.09.2019
1915 Clouds 19 1031 48 10000 2.1 0 16:21 14.09.2019
1916 Clouds 19 1032 52 10000 3.6 250 15:43 14.09.2019
1917 Clouds 19 1032 52 10000 2.6 270 15:24 14.09.2019
1918 Clouds 18 1033 52 10000 3.6 220 14:59 14.09.2019
1919 Clouds 18 1033 52 10000 3.6 220 14:40 14.09.2019
1920 Clouds 18 1034 55 10000 2.1 230 14:19 14.09.2019
1921 Clouds 18 1034 55 10000 2.1 230 14:19 14.09.2019
1922 Clouds 18 1033 51 10000 3.1 220 13:47 14.09.2019
1923 Clouds 18 1034 55 10000 2.6 0 13:22 14.09.2019
1924 Clouds 18 1034 59 10000 3.1 210 12:48 14.09.2019
1925 Clouds 17 1034 59 10000 2.6 0 12:26 14.09.2019
1926 Clouds 17 1034 63 10000 2.6 230 11:43 14.09.2019
1927 Clouds 16 1034 72 10000 2.1 210 11:22 14.09.2019
1928 Clouds 16 1035 72 10000 2.1 210 10:59 14.09.2019
1929 Clouds 15 1035 72 10000 2.1 210 10:37 14.09.2019
1930 Clouds 14 1035 87 10000 1 0 10:19 14.09.2019
1931 Clouds 14 1035 82 10000 1.5 230 09:56 14.09.2019
1932 Clouds 12 1035 93 10000 1 220 09:38 14.09.2019
1933 Clouds 12 1035 93 10000 1 220 09:38 14.09.2019
1934 Clouds 12 1035 93 10000 1 220 09:18 14.09.2019
1935 Clouds 10 1034 93 10000 0.5 230 08:45 14.09.2019
1936 Fog 8 1034 93 10000 1 230 08:23 14.09.2019
1937 Fog 7 1034 93 600 1 230 07:46 14.09.2019
1938 Fog 8 1034 93 10000 1 0 07:28 14.09.2019
1939 Fog 8 1034 93 500 0.5 240 06:44 14.09.2019
1940 Fog 8 1035 100 10000 0.5 240 06:25 14.09.2019
1941 Fog 8 1035 93 50 1.5 250 05:25 14.09.2019
1942 Clear 9 1035 93 700 1 260 03:45 14.09.2019
1943 Clouds 9 1035 93 300 1 260 02:54 14.09.2019
1944 Clouds 10 1035 87 3600 1 220 01:51 14.09.2019
1945 Clouds 10 1035 93 10000 1 330 01:23 14.09.2019
1946 Clouds 10 1035 87 10000 1.5 270 00:58 14.09.2019
1947 Clouds 10 1035 87 10000 1.5 270 00:38 14.09.2019
1948 Clouds 10 1035 93 10000 0.5 30 00:20 14.09.2019
1949 Clouds 10 1035 87 10000 1.5 260 23:38 13.09.2019
1950 Clouds 10 1035 93 10000 0.5 30 23:19 13.09.2019
1951 Clouds 11 1034 87 10000 1 250 22:59 13.09.2019
1952 Clouds 11 1034 87 10000 1 250 22:38 13.09.2019
1953 Clouds 11 1035 93 10000 0.5 30 22:20 13.09.2019
1954 Clouds 12 1034 81 10000 0.5 300 21:54 13.09.2019
1955 Clouds 12 1034 81 10000 0.5 300 21:36 13.09.2019
1956 Clouds 13 1035 76 10000 4.5 338.875 21:18 13.09.2019
1957 Clouds 14 1034 71 10000 1.5 310 20:55 13.09.2019
1958 Clouds 14 1034 71 10000 1.5 310 20:36 13.09.2019
1959 Clouds 15 1034 67 10000 2.1 20 20:18 13.09.2019
1960 Clouds 16 1034 62 10000 2.6 310 19:42 13.09.2019
1961 Clouds 16 1034 55 10000 3.6 10 19:20 13.09.2019
1962 Clouds 17 1033 59 10000 4.6 330 18:57 13.09.2019
1963 Clouds 17 1033 59 10000 4.6 330 18:37 13.09.2019
1964 Clouds 18 1034 55 10000 3.6 360 18:19 13.09.2019
1965 Clouds 18 1033 55 10000 5.1 350 17:43 13.09.2019
1966 Clouds 18 1033 52 10000 4.6 10 17:19 13.09.2019
1967 -273 0 0 0 0 0 16:55 13.09.2019
1968 Clouds 18 1033 55 10000 5.7 340 16:37 13.09.2019
1969 Clouds 19 1033 45 10000 4.1 320 16:18 13.09.2019
1970 Clouds 18 1033 48 10000 6.2 320 15:40 13.09.2019
1971 Clouds 18 1033 48 10000 3.6 350 15:21 13.09.2019
1972 Clouds 18 1033 48 10000 3.6 350 15:21 13.09.2019
1973 Clouds 19 1033 48 10000 4.1 350 14:44 13.09.2019
1974 Clouds 19 1033 55 10000 4.1 350 14:23 13.09.2019
1975 Clouds 19 1032 48 10000 6.7 320 13:59 13.09.2019
1976 Clouds 19 1032 48 10000 6.7 320 13:40 13.09.2019
1977 Clouds 19 1032 48 10000 6.7 320 13:40 13.09.2019
1978 Clouds 19 1032 55 10000 5.1 360 13:21 13.09.2019
1979 Clouds 18 1032 52 10000 7.2 340 12:45 13.09.2019
1980 Clouds 18 1031 59 10000 5.1 340 12:24 13.09.2019
1981 Clouds 18 1031 59 10000 6.2 350 11:57 13.09.2019
1982 Clouds 18 1031 63 10000 5.7 320 11:20 13.09.2019
1983 Clouds 18 1029 67 10000 6.2 340 10:54 13.09.2019
1984 Clouds 18 1029 67 10000 6.2 340 10:36 13.09.2019
1985 Clouds 17 1030 72 10000 4.6 330 10:18 13.09.2019
1986 Clouds 17 1028 77 10000 4.1 330 09:42 13.09.2019
1987 Clouds 17 1029 82 10000 3.6 320 09:19 13.09.2019
1988 Clouds 16 1027 87 10000 4.1 330 08:55 13.09.2019
1989 Clouds 16 1027 87 10000 4.1 330 08:37 13.09.2019
1990 Clouds 16 1027 87 10000 4.1 330 08:19 13.09.2019
1991 Drizzle 16 1026 93 10000 4.6 310 07:41 13.09.2019
1992 Clouds 17 1027 88 10000 5.1 300 07:21 13.09.2019
1993 Clouds 17 1025 93 10000 5.7 270 06:38 13.09.2019
1994 Drizzle 18 1024 88 6000 5.7 260 05:36 13.09.2019
1995 Clouds 18 1024 88 10000 5.1 240 03:53 13.09.2019
1996 Rain 18 1025 88 5000 6.2 240 03:33 13.09.2019
1997 Clouds 18 1025 82 10000 6.2 230 02:20 13.09.2019
1998 Clouds 18 1024 82 10000 4.6 230 01:38 13.09.2019
1999 Clouds 18 1025 82 10000 7.2 230 00:59 13.09.2019
2000 Clouds 18 1024 82 10000 4.1 220 00:36 13.09.2019
2001 Clouds 18 1025 72 10000 4.1 220 23:54 12.09.2019
2002 Clouds 17 1025 82 10000 4.1 210 23:30 12.09.2019
2003 Clouds 17 1025 77 10000 3.6 230 22:59 12.09.2019
2004 Clouds 17 1025 77 10000 3.6 230 22:40 12.09.2019
2005 Clouds 17 1025 77 10000 5.1 220 22:22 12.09.2019
2006 Clouds 17 1025 68 10000 3.1 250 21:56 12.09.2019
2007 Clouds 17 1025 68 10000 3.1 250 21:56 12.09.2019
2008 Clouds 17 1025 68 10000 3.1 250 21:37 12.09.2019
2009 Clouds 17 1026 82 10000 4.1 230 21:19 12.09.2019
2010 Clouds 18 1025 72 10000 3.6 260 20:54 12.09.2019
2011 Clouds 18 1025 72 10000 3.6 260 20:36 12.09.2019
2012 Clouds 18 1026 72 10000 4.6 240 20:18 12.09.2019
2013 Clouds 19 1025 63 10000 2.6 250 19:41 12.09.2019
2014 Clouds 19 1026 68 10000 5.1 260 19:20 12.09.2019
2015 Clouds 20 1025 60 10000 4.6 250 18:58 12.09.2019
2016 Clouds 20 1025 60 10000 4.6 250 18:36 12.09.2019
2017 Clouds 21 1025 64 10000 7.2 250 18:18 12.09.2019
2018 Clouds 21 1025 60 10000 4.6 270 17:41 12.09.2019
2019 Clouds 21 1025 56 10000 6.2 250 17:22 12.09.2019
2020 Clouds 21 1025 56 10000 5.7 260 16:58 12.09.2019
2021 Clouds 21 1025 56 10000 5.7 260 16:40 12.09.2019
2022 Clouds 21 1026 56 10000 6.7 250 16:20 12.09.2019
2023 Clouds 21 1026 52 10000 6.2 260 15:42 12.09.2019
2024 Clouds 21 1026 52 10000 6.2 260 15:42 12.09.2019
2025 Clouds 21 1026 60 10000 4.6 260 15:24 12.09.2019
2026 Clouds 21 1026 52 10000 6.7 270 14:55 12.09.2019
2027 Clouds 21 1026 52 10000 6.7 270 14:37 12.09.2019
2028 Clouds 20 1026 56 10000 6.7 260 14:19 12.09.2019
2029 Clouds 20 1025 56 10000 6.2 250 13:39 12.09.2019
2030 Clouds 20 1026 52 10000 5.1 260 13:20 12.09.2019
2031 Clouds 20 1025 55 10000 5.7 260 12:49 12.09.2019
2032 Clouds 20 1025 55 10000 5.7 260 12:49 12.09.2019
2033 Clouds 19 1026 60 10000 5.7 260 12:20 12.09.2019
2034 Clouds 19 1025 63 10000 4.6 260 11:58 12.09.2019
2035 Clouds 19 1025 63 10000 4.6 260 11:58 12.09.2019
2036 Clouds 19 1025 63 10000 4.6 260 11:40 12.09.2019
2037 Clouds 18 1025 77 10000 4.1 230 11:21 12.09.2019
2038 -273 0 0 0 0 0 10:50 12.09.2019
2039 Clouds 17 1025 87 10000 3.1 240 10:28 12.09.2019
2040 Clouds 16 1024 93 10000 3.6 230 09:57 12.09.2019
2041 Clouds 15 1024 93 10000 3.6 230 09:39 12.09.2019
2042 Clouds 15 1024 93 10000 2.6 230 09:20 12.09.2019
2043 Clouds 14 1023 100 6000 2.1 210 08:44 12.09.2019
2044 Mist 14 1023 100 5000 2.1 210 08:23 12.09.2019
2045 Mist 14 1023 100 3700 2.1 220 07:55 12.09.2019
2046 Mist 14 1023 100 3700 3.1 220 07:36 12.09.2019
2047 Mist 14 1023 100 3700 3.1 220 07:18 12.09.2019
2048 Fog 14 1022 100 800 1.5 220 06:45 12.09.2019
2049 Fog 14 1022 100 2800 3.1 210 06:18 12.09.2019
2050 Fog 14 1022 93 800 1.5 210 05:42 12.09.2019
2051 Mist 14 1022 100 700 2.1 210 05:19 12.09.2019
2052 Fog 14 1021 100 800 2.1 230 03:58 12.09.2019
2053 Fog 15 1020 93 1200 2.6 230 01:44 12.09.2019
2054 Fog 15 1020 100 5000 2.6 220 01:26 12.09.2019
2055 Clouds 15 1020 93 8000 3.1 230 00:50 12.09.2019
2056 Clouds 15 1019 93 8000 3.6 220 00:31 12.09.2019
2057 Clouds 16 1019 93 8000 3.1 220 23:47 11.09.2019
2058 Clouds 16 1019 93 8000 3.6 220 23:27 11.09.2019
2059 Rain 16 1019 93 7000 3.1 220 22:58 11.09.2019
2060 Rain 16 1019 93 7000 3.1 220 22:38 11.09.2019
2061 Rain 16 1019 93 7000 3.6 220 22:20 11.09.2019
2062 Rain 16 1019 93 7000 3.6 220 22:20 11.09.2019
2063 Rain 16 1019 93 7000 3.6 220 22:20 11.09.2019
2064 Clouds 16 1018 93 6000 4.1 230 21:59 11.09.2019
2065 Clouds 15 1018 93 6000 4.1 230 21:41 11.09.2019
2066 Drizzle 15 1019 93 10000 4.1 210 21:22 11.09.2019
2067 Drizzle 15 1018 93 4000 4.6 230 20:56 11.09.2019
2068 Drizzle 15 1018 93 4000 4.6 230 20:38 11.09.2019
2069 Drizzle 15 1018 93 10000 5.1 220 20:19 11.09.2019
2070 Drizzle 15 1017 93 2800 6.2 220 19:56 11.09.2019
2071 Drizzle 15 1017 93 2800 6.2 220 19:38 11.09.2019
2072 Drizzle 15 1017 93 4500 6.2 220 19:19 11.09.2019
2073 Drizzle 14 1017 93 6000 6.2 220 18:55 11.09.2019
2074 Drizzle 14 1017 93 6000 6.2 220 18:37 11.09.2019
2075 Drizzle 14 1017 100 3500 6.2 210 18:18 11.09.2019
2076 Drizzle 14 1017 93 5000 6.7 210 17:41 11.09.2019
2077 Drizzle 14 1017 93 7000 7.2 210 17:22 11.09.2019
2078 Drizzle 14 1017 87 5000 7.2 210 16:57 11.09.2019
2079 Drizzle 14 1017 87 5000 7.2 210 16:39 11.09.2019
2080 Rain 14 1017 87 5000 8.2 200 16:20 11.09.2019
2081 Rain 14 1017 87 7000 6.7 210 15:47 11.09.2019
2082 Rain 14 1017 93 9000 8.2 200 15:24 11.09.2019
2083 Rain 15 1018 82 7000 6.7 220 14:59 11.09.2019
2084 Rain 15 1018 82 7000 6.7 220 14:40 11.09.2019
2085 Rain 15 1018 87 10000 7.2 210 14:20 11.09.2019
2086 Rain 15 1018 87 7000 6.2 220 13:59 11.09.2019
2087 Rain 15 1018 87 7000 6.2 220 13:37 11.09.2019
2088 Rain 15 1018 87 8000 7.2 210 13:19 11.09.2019
2089 Rain 15 1017 72 10000 7.7 220 12:42 11.09.2019
2090 Rain 15 1018 93 6000 5.1 210 12:22 11.09.2019
2091 Rain 16 1017 72 10000 6.7 210 11:58 11.09.2019
2092 Clouds 16 1017 72 10000 6.7 210 11:38 11.09.2019
2093 Clouds 15 1018 82 10000 6.2 200 11:20 11.09.2019
2094 Clouds 16 1017 82 10000 6.7 210 10:55 11.09.2019
2095 Clouds 15 1018 87 8000 5.1 190 10:37 11.09.2019
2096 Clouds 15 1018 87 8000 5.1 190 10:18 11.09.2019
2097 Clouds 14 1018 82 10000 5.1 210 09:37 11.09.2019
2098 Clouds 14 1018 87 7000 5.7 200 09:19 11.09.2019
2099 Clouds 12 1018 93 8000 3.1 190 08:42 11.09.2019
2100 Clouds 12 1018 87 8000 3.1 190 08:22 11.09.2019
2101 Mist 12 1018 93 5000 3.6 190 07:57 11.09.2019
2102 Mist 12 1018 93 5000 3.6 190 07:39 11.09.2019
2103 Mist 11 1018 87 4500 3.6 200 07:20 11.09.2019
2104 Mist 11 1018 87 4500 3.6 200 07:20 11.09.2019
2105 Fog 11 1018 93 5000 3.1 190 06:40 11.09.2019
2106 Fog 11 1018 93 5000 3.1 180 06:21 11.09.2019
2107 Fog 11 1018 93 5000 2.6 210 05:34 11.09.2019
2108 Fog 11 1018 100 10000 1.5 200 04:53 11.09.2019
2109 Fog 11 1019 93 10000 2.1 210 04:18 11.09.2019
2110 Fog 10 1019 100 5000 1.5 210 03:27 11.09.2019
2111 Fog 10 1019 93 5000 1.5 180 02:32 11.09.2019
2112 Fog 10 1019 100 3700 1.5 200 01:33 11.09.2019
2113 Fog 11 1019 93 4300 1.5 200 00:37 11.09.2019
2114 Fog 11 1019 93 4300 1.5 200 00:19 11.09.2019
2115 Fog 11 1019 87 10000 1.5 210 23:40 10.09.2019
2116 Clear 11 1019 100 7000 1.5 220 23:22 10.09.2019
2117 Clear 12 1018 81 10000 1.5 250 22:57 10.09.2019
2118 Clear 12 1019 93 10000 1.5 200 22:37 10.09.2019
2119 Clear 12 1019 93 10000 1.5 200 22:18 10.09.2019
2120 Clouds 13 1018 76 10000 1.5 240 21:55 10.09.2019
2121 Clouds 13 1018 76 10000 1.5 240 21:36 10.09.2019
2122 Clouds 13 1018 87 10000 1 210 21:18 10.09.2019
2123 Clouds 14 1018 71 10000 2.1 230 20:56 10.09.2019
2124 Clouds 14 1018 71 10000 2.1 230 20:38 10.09.2019
2125 Clear 15 1018 77 10000 1 310 20:19 10.09.2019
2126 Clouds 16 1018 63 10000 3.6 290 19:55 10.09.2019
2127 Clouds 15 1018 63 10000 3.6 290 19:36 10.09.2019
2128 Clouds 16 1018 72 10000 3.1 300 19:18 10.09.2019
2129 Clouds 16 1017 59 10000 5.7 290 18:45 10.09.2019
2130 Clouds 17 1018 67 10000 3.6 250 18:23 10.09.2019
2131 Clouds 17 1018 67 10000 3.6 250 18:23 10.09.2019
2132 Clouds 17 1017 59 10000 6.2 290 17:59 10.09.2019
2133 Clouds 17 1017 59 10000 6.2 290 17:41 10.09.2019
2134 Clear 18 1017 63 10000 3.6 240 17:21 10.09.2019
2135 Clouds 18 1016 55 10000 7.2 290 16:57 10.09.2019
2136 Clouds 18 1016 55 10000 7.2 290 16:38 10.09.2019
2137 Clouds 18 1017 63 10000 5.7 230 16:19 10.09.2019
2138 Clouds 18 1016 63 10000 6.2 300 15:44 10.09.2019
2139 Clouds 18 1017 59 10000 5.1 260 15:23 10.09.2019
2140 Clouds 18 1016 52 10000 6.7 290 14:59 10.09.2019
2141 Clouds 18 1016 52 10000 6.7 290 14:59 10.09.2019
2142 Clouds 18 1016 52 10000 6.7 290 14:40 10.09.2019
2143 Clouds 18 1017 55 10000 4.1 260 14:22 10.09.2019
2144 Clouds 18 1016 55 10000 7.7 280 13:49 10.09.2019
2145 Clouds 18 1017 59 10000 4.6 270 13:24 10.09.2019
2146 Clouds 18 1016 59 10000 6.2 290 12:56 10.09.2019
2147 Clouds 17 1016 59 10000 6.2 290 12:38 10.09.2019
2148 Clouds 17 1017 63 10000 4.1 260 12:19 10.09.2019
2149 Clouds 16 1015 63 10000 7.7 270 11:43 10.09.2019
2150 Clear 16 1016 67 10000 4.1 250 11:23 10.09.2019
2151 Clouds 15 1015 72 10000 6.2 260 10:59 10.09.2019
2152 Clear 15 1016 82 10000 4.1 230 10:38 10.09.2019
2153 Clear 15 1016 82 10000 4.1 230 10:18 10.09.2019
2154 Clouds 14 1015 82 10000 4.1 260 09:47 10.09.2019
2155 Clouds 12 1016 93 10000 2.1 240 09:20 10.09.2019
2156 Clouds 11 1015 87 10000 2.6 260 08:59 10.09.2019
2157 Clouds 11 1015 87 10000 2.6 260 08:41 10.09.2019
2158 Clouds 9 1015 100 6000 1.5 230 08:22 10.09.2019
2159 Clouds 8 1014 87 10000 2.1 250 07:44 10.09.2019
2160 Clouds 8 1015 100 9000 1 230 07:25 10.09.2019
2161 Clouds 8 1015 100 9000 1 230 07:25 10.09.2019
2162 Mist 8 1014 87 10000 3.1 270 06:51 10.09.2019
2163 Clouds 8 1015 93 10000 0.5 230 06:31 10.09.2019
2164 Clear 8 1014 81 10000 2.6 270 04:57 10.09.2019
2165 Mist 9 1014 81 10000 2.1 260 02:46 10.09.2019
2166 Mist 9 1015 100 5000 1 230 02:23 10.09.2019
2167 Mist 9 1015 100 5000 1 230 02:23 10.09.2019
2168 Clouds 9 1014 87 10000 2.6 270 01:55 10.09.2019
2169 Clouds 9 1014 87 10000 2.6 270 01:55 10.09.2019
2170 Clear 9 1015 93 10000 1 220 01:37 10.09.2019
2171 Clouds 10 1014 81 10000 2.6 270 00:46 10.09.2019
2172 Clear 10 1015 100 10000 0.5 230 00:25 10.09.2019
2173 Clouds 10 1014 81 10000 2.6 280 23:47 09.09.2019
2174 Clear 11 1015 93 10000 0.5 260 23:20 09.09.2019
2175 Clouds 11 1014 87 10000 2.6 280 22:56 09.09.2019
2176 Clear 12 1014 87 10000 0.5 260 22:38 09.09.2019
2177 Clear 12 1014 87 10000 0.5 260 22:20 09.09.2019
2178 Clouds 12 1014 82 10000 1.5 260 21:57 09.09.2019
2179 Clear 13 1014 71 10000 1.5 330 21:38 09.09.2019
2180 Clear 13 1014 71 10000 1.5 330 21:20 09.09.2019
2181 Clouds 14 1014 76 10000 1.5 320 20:56 09.09.2019
2182 Clouds 15 1014 67 10000 1.5 350 20:37 09.09.2019
2183 Clouds 15 1014 67 10000 1.5 350 20:19 09.09.2019
2184 Clouds 16 1013 67 10000 3.1 320 19:58 09.09.2019
2185 Clear 16 1013 59 10000 2.6 320 19:39 09.09.2019
2186 Clear 16 1013 59 10000 2.6 320 19:19 09.09.2019
2187 Clear 17 1013 59 10000 2.6 320 18:57 09.09.2019
2188 Clear 17 1013 55 10000 3.1 300 18:39 09.09.2019
2189 Clouds 17 1013 63 10000 5.7 290 18:21 09.09.2019
2190 Clouds 17 1013 63 10000 5.7 290 17:58 09.09.2019
2191 Clear 17 1013 59 10000 3.1 270 17:40 09.09.2019
2192 Clear 18 1013 59 10000 3.1 270 17:21 09.09.2019
2193 Clouds 18 1013 55 10000 4.6 310 16:55 09.09.2019
2194 Clouds 18 1013 59 10000 1.5 270 16:37 09.09.2019
2195 Clouds 18 1013 59 10000 1.5 270 16:19 09.09.2019
2196 Clouds 18 1013 52 10000 3.6 260 15:55 09.09.2019
2197 Clouds 18 1013 52 10000 3.6 260 15:55 09.09.2019
2198 Clouds 18 1014 59 10000 3.1 290 15:36 09.09.2019
2199 Clouds 18 1014 59 10000 3.1 290 15:18 09.09.2019
2200 Clouds 18 1013 52 10000 3.1 240 14:55 09.09.2019
2201 Clear 18 1014 67 10000 3.6 270 14:37 09.09.2019
2202 Clear 18 1014 67 10000 3.6 270 14:37 09.09.2019
2203 Clouds 18 1014 59 10000 3.6 280 14:18 09.09.2019
2204 Clouds 17 1014 59 10000 3.6 280 13:44 09.09.2019
2205 Clouds 17 1014 63 10000 3.1 250 13:20 09.09.2019
2206 Clouds 17 1014 63 10000 3.1 250 12:58 09.09.2019
2207 Clouds 17 1014 72 10000 2.6 260 12:38 09.09.2019
2208 Clouds 17 1014 72 10000 2.6 260 12:19 09.09.2019
2209 Clouds 17 1014 72 10000 2.6 260 12:19 09.09.2019
2210 Clouds 16 1014 72 10000 3.1 290 11:47 09.09.2019
2211 Clouds 15 1015 77 10000 3.6 240 11:23 09.09.2019
2212 Clouds 15 1014 82 10000 3.6 290 10:59 09.09.2019
2213 Clouds 14 1014 82 10000 3.6 290 10:41 09.09.2019
2214 Clear 14 1015 87 10000 3.1 250 10:20 09.09.2019
2215 Clouds 13 1015 93 10000 2.1 270 09:57 09.09.2019
2216 Clouds 12 1015 100 10000 0.5 0 09:38 09.09.2019
2217 Clouds 12 1015 100 10000 0.5 0 09:19 09.09.2019
2218 Fog 10 1015 93 10000 1.5 220 08:39 09.09.2019
2219 Fog 10 1015 93 10000 1.5 220 08:39 09.09.2019
2220 Fog 9 1015 93 10000 1.5 220 08:20 09.09.2019
2221 Fog 9 1015 93 10000 1.5 220 08:20 09.09.2019
2222 Fog 8 1015 93 350 1 230 07:46 09.09.2019
2223 Fog 8 1015 93 350 1 210 07:23 09.09.2019
2224 Clear 8 1015 93 150 3.1 220.962 06:57 09.09.2019
2225 Mist 8 1015 100 2800 1 230 06:36 09.09.2019
2226 Fog 9 1016 100 350 0.5 290 04:56 09.09.2019
2227 Mist 10 1016 100 250 2.58 150.368 02:59 09.09.2019
2228 Clouds 10 1017 100 6000 1 230 02:38 09.09.2019
2229 Clouds 11 1017 100 200 0.5 300 00:46 09.09.2019
2230 Clouds 11 1017 100 10000 1.5 250 00:22 09.09.2019
2231 Clouds 11 1017 93 150 0.5 290 23:46 08.09.2019
2232 Clouds 11 1017 100 10000 0.5 340 23:24 08.09.2019
2233 Clouds 12 1018 100 200 2.25 95.738 22:57 08.09.2019
2234 Clouds 12 1018 87 10000 1.5 320 22:38 08.09.2019
2235 Clouds 12 1018 87 10000 1.5 320 22:19 08.09.2019
2236 Rain 13 1018 82 10000 3.6 360 21:42 08.09.2019
2237 Rain 13 1018 82 10000 3.6 360 21:23 08.09.2019
2238 Rain 14 1018 93 10000 1.5 140 20:59 08.09.2019
2239 Rain 14 1018 82 10000 1 250 20:40 08.09.2019
2240 Rain 14 1018 82 10000 1 250 20:22 08.09.2019
2241 Rain 15 1018 87 10000 0.5 0 19:59 08.09.2019
2242 Clouds 15 1017 72 10000 2.1 340 19:38 08.09.2019
2243 Clouds 16 1018 82 10000 2.1 330 19:20 08.09.2019
2244 Clouds 16 1018 82 10000 2.1 330 18:57 08.09.2019
2245 Rain 16 1017 67 10000 1 0 18:38 08.09.2019
2246 Rain 16 1018 77 10000 3.6 20 18:19 08.09.2019
2247 Rain 17 1018 77 10000 3.6 20 17:56 08.09.2019
2248 Rain 17 1017 55 10000 0.5 30 17:37 08.09.2019
2249 Rain 17 1017 55 10000 0.5 30 17:18 08.09.2019
2250 Clouds 18 1018 67 10000 1.5 20 16:45 08.09.2019
2251 Rain 18 1018 55 10000 1 0 16:22 08.09.2019
2252 Clouds 18 1017 67 10000 1.5 50 15:59 08.09.2019
2253 Clouds 18 1017 67 10000 1.5 50 15:41 08.09.2019
2254 Clouds 18 1018 55 10000 2.6 20 15:21 08.09.2019
2255 Clouds 18 1018 63 10000 1.5 350 14:58 08.09.2019
2256 Clouds 17 1018 59 10000 2.1 10 14:39 08.09.2019
2257 Clouds 17 1018 59 10000 2.1 10 14:20 08.09.2019
2258 Clouds 17 1018 59 10000 1 360 13:57 08.09.2019
2259 Clouds 17 1018 59 10000 2.1 340 13:38 08.09.2019
2260 Clear 17 1018 59 10000 2.1 340 13:19 08.09.2019
2261 Clouds 17 1018 67 10000 1.5 360 12:43 08.09.2019
2262 Clouds 16 1018 72 10000 2.1 90 12:24 08.09.2019
2263 Clouds 16 1018 72 10000 2.1 90 11:59 08.09.2019
2264 Clouds 15 1019 87 10000 1 0 11:40 08.09.2019
2265 Clouds 15 1019 87 10000 1 0 11:20 08.09.2019
2266 Clouds 15 1018 87 10000 1 10 10:58 08.09.2019
2267 Clouds 14 1018 93 10000 1 0 10:40 08.09.2019
2268 Clouds 14 1018 93 10000 1 0 10:22 08.09.2019
2269 Clouds 13 1019 93 10000 1 240 09:39 08.09.2019
2270 Clouds 13 1019 93 10000 1 240 09:21 08.09.2019
2271 Clouds 12 1018 100 10000 2.6 310 08:57 08.09.2019
2272 Clouds 12 1019 100 10000 1 220 08:39 08.09.2019
2273 Clouds 12 1019 100 10000 1 220 08:39 08.09.2019
2274 Clouds 12 1019 100 10000 1 220 08:18 08.09.2019
2275 Clouds 11 1019 93 10000 0.5 0 07:40 08.09.2019
2276 Clouds 11 1019 93 10000 0.5 0 07:21 08.09.2019
2277 Clouds 12 1018 93 10000 3.1 280 06:54 08.09.2019
2278 Rain 12 1019 100 10000 2.1 230 06:34 08.09.2019
2279 Clouds 11 1018 93 10000 1 320 05:39 08.09.2019
2280 Clouds 12 1019 93 10000 0.5 300 04:27 08.09.2019
2281 Rain 12 1019 93 7000 1.5 350 03:19 08.09.2019
2282 Rain 12 1019 93 7000 1.5 350 03:19 08.09.2019
2283 Rain 12 1019 93 10000 2.1 320 02:36 08.09.2019
2284 Rain 12 1018 87 6000 2.1 300 01:53 08.09.2019
2285 Rain 12 1019 93 8000 2.1 310 01:25 08.09.2019
2286 Rain 12 1018 93 8000 2.1 30 00:47 08.09.2019
2287 Rain 12 1019 93 6000 3.6 360 00:28 08.09.2019
2288 Rain 12 1018 87 9000 0.5 320 23:55 07.09.2019
2289 Rain 12 1019 93 4600 4.6 10 23:36 07.09.2019
2290 Rain 12 1019 93 4600 4.6 10 23:36 07.09.2019
2291 Rain 13 1018 87 3400 2.6 350 23:18 07.09.2019
2292 Rain 13 1018 87 3400 2.6 350 22:42 07.09.2019
2293 Clouds 13 1019 87 10000 4.1 360 22:23 07.09.2019
2294 Rain 13 1018 87 9000 2.1 300 21:55 07.09.2019
2295 Clouds 13 1018 87 10000 4.1 320 21:37 07.09.2019
2296 Clouds 14 1018 87 10000 4.1 320 21:19 07.09.2019
2297 Rain 14 1018 87 10000 3.1 310 20:39 07.09.2019
2298 Rain 15 1018 87 10000 3.1 310 20:21 07.09.2019
2299 Rain 15 1017 72 10000 1 0 19:56 07.09.2019
2300 Rain 16 1017 72 10000 2.6 330 19:38 07.09.2019
2301 Clouds 16 1017 63 10000 3.6 340 19:19 07.09.2019
2302 Clouds 17 1017 63 10000 3.6 340 18:58 07.09.2019
2303 Clouds 17 1017 67 10000 2.6 340 18:39 07.09.2019
2304 Clouds 17 1017 67 10000 2.6 340 18:20 07.09.2019
2305 Clouds 17 1017 67 10000 2.6 60 17:58 07.09.2019
2306 Clouds 17 1017 67 10000 2.6 60 17:58 07.09.2019
2307 Clouds 17 1017 67 10000 2.6 60 17:58 07.09.2019
2308 Clouds 17 1017 63 10000 2.6 270 17:39 07.09.2019
2309 Clouds 18 1017 63 10000 2.6 270 17:18 07.09.2019
2310 Thunderstorm 17 1016 55 10000 3.1 270 16:56 07.09.2019
2311 Clouds 17 1017 82 10000 3.1 210 16:37 07.09.2019
2312 Clouds 17 1017 82 10000 3.1 210 16:18 07.09.2019
2313 Rain 17 1017 63 10000 4.1 280 15:44 07.09.2019
2314 Rain 17 1017 77 10000 2.6 300 15:25 07.09.2019
2315 Clouds 16 1017 72 10000 2.1 220 14:56 07.09.2019
2316 Rain 16 1017 77 10000 1.5 220 14:36 07.09.2019
2317 Rain 16 1017 77 10000 1.5 220 14:36 07.09.2019
2318 Rain 17 1016 76 9000 4.1 260 14:18 07.09.2019
2319 Rain 16 1016 76 9000 4.1 260 13:55 07.09.2019
2320 Rain 16 1016 76 9000 4.1 260 13:55 07.09.2019
2321 Rain 17 1016 63 7000 5.7 260 13:37 07.09.2019
2322 Rain 17 1016 63 7000 5.7 260 13:18 07.09.2019
2323 Clouds 17 1016 72 10000 3.1 260 12:43 07.09.2019
2324 Clear 17 1017 67 10000 3.1 250 12:24 07.09.2019
2325 Clouds 16 1017 82 10000 3.6 230 11:41 07.09.2019
2326 Clouds 15 1017 82 10000 4.1 230 11:22 07.09.2019
2327 Clouds 15 1016 82 10000 3.1 220 10:59 07.09.2019
2328 Clear 14 1017 87 10000 4.1 240 10:38 07.09.2019
2329 Clear 14 1017 87 10000 4.1 240 10:19 07.09.2019
2330 Clouds 13 1016 87 10000 3.1 210 09:43 07.09.2019
2331 Rain 12 1016 93 10000 2.6 220 09:24 07.09.2019
2332 Rain 12 1016 93 10000 3.1 210 08:57 07.09.2019
2333 Clouds 11 1016 100 10000 3.1 200 08:37 07.09.2019
2334 Clouds 11 1016 100 10000 3.1 200 08:19 07.09.2019
2335 Clouds 11 1016 100 10000 1 250 07:45 07.09.2019
2336 Fog 10 1016 93 10000 1.5 210 07:24 07.09.2019
2337 Fog 10 1016 93 10000 1.5 210 06:45 07.09.2019
2338 Clouds 10 1016 93 10000 2.1 210 06:19 07.09.2019
2339 Clouds 10 1016 93 10000 2.6 240 04:38 07.09.2019
2340 Clouds 11 1016 93 10000 2.6 240 04:19 07.09.2019
2341 Clouds 11 1016 93 10000 2.6 220 02:44 07.09.2019
2342 Clouds 12 1016 93 10000 2.6 230 01:44 07.09.2019
2343 Clouds 13 1016 82 10000 3.1 220 00:57 07.09.2019
2344 Rain 13 1016 93 8000 2.6 220 00:38 07.09.2019
2345 Rain 13 1016 93 10000 3.6 200 00:19 07.09.2019
2346 Rain 13 1017 93 5000 3.6 300 23:40 06.09.2019
2347 Rain 13 1017 93 5000 3.6 300 23:21 06.09.2019
2348 Rain 13 1016 87 8000 4.1 220 22:57 06.09.2019
2349 Rain 13 1016 87 10000 5.7 210 22:37 06.09.2019
2350 Rain 13 1016 87 10000 5.7 210 22:37 06.09.2019
2351 Rain 13 1016 87 10000 5.7 210 22:19 06.09.2019
2352 Clouds 13 1016 82 10000 4.1 200 21:57 06.09.2019
2353 Rain 13 1016 87 10000 4.6 200 21:38 06.09.2019
2354 Rain 13 1016 87 10000 4.6 200 21:20 06.09.2019
2355 Rain 13 1016 82 9000 3.6 200 20:57 06.09.2019
2356 Rain 13 1017 93 10000 6.2 200 20:38 06.09.2019
2357 Rain 13 1017 93 10000 6.2 200 20:18 06.09.2019
2358 Rain 14 1017 76 9000 2.6 220 19:54 06.09.2019
2359 Rain 14 1017 93 9000 6.2 230 19:36 06.09.2019
2360 Rain 14 1017 76 8000 5.7 240 19:18 06.09.2019
2361 Drizzle 15 1017 67 10000 6.7 220 18:41 06.09.2019
2362 Clouds 16 1017 63 10000 5.1 200 18:23 06.09.2019
2363 Clouds 16 1017 63 10000 5.1 200 17:57 06.09.2019
2364 Drizzle 16 1018 63 10000 7.7 220 17:37 06.09.2019
2365 Clouds 16 1018 63 10000 6.7 210 17:19 06.09.2019
2366 Clouds 16 1018 59 10000 8.2 210 16:39 06.09.2019
2367 Clouds 17 1018 59 10000 8.2 210 16:19 06.09.2019
2368 Clouds 17 1019 67 10000 5.7 220 15:42 06.09.2019
2369 Clouds 17 1019 67 10000 5.7 220 15:42 06.09.2019
2370 Clouds 17 1019 63 10000 8.2 210 15:23 06.09.2019
2371 Clouds 17 1019 63 10000 8.2 220 14:55 06.09.2019
2372 Clouds 17 1019 63 10000 8.2 220 14:55 06.09.2019
2373 Clouds 17 1019 63 10000 8.7 220 14:37 06.09.2019
2374 Clouds 17 1019 63 10000 8.7 220 14:18 06.09.2019
2375 Rain 17 1020 63 10000 7.2 210 13:41 06.09.2019
2376 Rain 16 1020 63 10000 7.2 210 13:20 06.09.2019
2377 Rain 16 1020 72 10000 6.2 210 12:38 06.09.2019
2378 Clouds 16 1021 72 10000 6.2 210 12:20 06.09.2019
2379 Clouds 15 1021 72 10000 6.2 210 11:55 06.09.2019
2380 Clouds 15 1021 76 10000 5.7 210 11:36 06.09.2019
2381 Clouds 14 1020 76 10000 5.1 220 11:18 06.09.2019
2382 Clouds 14 1020 76 10000 5.1 220 10:41 06.09.2019
2383 Clouds 13 1021 82 10000 5.1 210 10:22 06.09.2019
2384 Clouds 13 1021 81 10000 4.6 230 09:58 06.09.2019
2385 Clouds 12 1021 76 10000 5.1 230 09:37 06.09.2019
2386 Clouds 12 1021 76 10000 5.1 230 09:18 06.09.2019
2387 Clouds 11 1022 81 10000 4.6 210 08:44 06.09.2019
2388 Clouds 11 1022 81 10000 4.6 210 08:26 06.09.2019
2389 Clouds 11 1022 81 10000 4.6 210 08:26 06.09.2019
2390 Rain 11 1021 76 10000 5.1 220 07:50 06.09.2019
2391 Rain 11 1022 81 10000 5.1 210 07:28 06.09.2019
2392 Clouds 11 1021 81 10000 5.1 220 06:58 06.09.2019
2393 Clouds 11 1022 81 10000 4.6 210 06:31 06.09.2019
2394 Drizzle 11 1022 76 10000 4.6 220 05:44 06.09.2019
2395 Clouds 11 1022 81 10000 3.1 220 04:54 06.09.2019
2396 Clouds 10 1023 87 10000 4.1 210 04:24 06.09.2019
2397 Clouds 10 1022 87 10000 4.1 230 02:44 06.09.2019
2398 Clouds 10 1022 81 10000 2.1 250 00:57 06.09.2019
2399 Clouds 11 1022 76 10000 2.6 240 00:22 06.09.2019
2400 Clouds 11 1022 76 10000 2.6 240 23:41 05.09.2019
2401 Clouds 11 1022 76 10000 2.6 250 23:22 05.09.2019
2402 Clouds 11 1022 71 10000 3.6 280 22:46 05.09.2019
2403 Rain 11 1023 76 10000 3.6 260 22:26 05.09.2019
2404 Clouds 11 1022 71 10000 2.6 260 21:57 05.09.2019
2405 Rain 12 1023 71 10000 2.6 270 21:39 05.09.2019
2406 Rain 12 1023 71 10000 2.6 270 21:39 05.09.2019
2407 Rain 12 1023 71 10000 2.6 270 21:20 05.09.2019
2408 Rain 13 1021 66 10000 5.1 300 20:58 05.09.2019
2409 Rain 13 1022 67 10000 2.6 280 20:39 05.09.2019
2410 Rain 13 1022 67 10000 2.6 280 20:20 05.09.2019
2411 Clouds 14 1020 58 10000 6.7 300 19:57 05.09.2019
2412 Rain 14 1021 54 10000 6.2 310 19:39 05.09.2019
2413 Clouds 15 1019 54 10000 8.7 310 19:20 05.09.2019
2414 Clouds 15 1019 54 10000 8.7 310 18:45 05.09.2019
2415 Clouds 15 1021 59 10000 5.7 290 18:27 05.09.2019
2416 Clouds 15 1019 62 10000 6.2 300 17:59 05.09.2019
2417 Rain 15 1020 59 10000 6.2 300 17:40 05.09.2019
2418 Rain 15 1020 59 10000 6.2 300 17:40 05.09.2019
2419 Rain 15 1020 59 10000 6.2 300 17:22 05.09.2019
2420 Rain 15 1018 82 10000 5.7 320 16:57 05.09.2019
2421 Clouds 15 1020 76 10000 7.2 310 16:39 05.09.2019
2422 Clouds 15 1020 76 10000 7.2 310 16:19 05.09.2019
2423 Clouds 16 1019 55 10000 8.2 300 15:41 05.09.2019
2424 Clouds 16 1019 55 10000 8.2 300 15:20 05.09.2019
2425 Clouds 16 1016 55 10000 10.3 300 14:59 05.09.2019
2426 Clouds 16 1016 55 10000 10.3 300 14:40 05.09.2019
2427 Clouds 16 1018 63 10000 7.2 300 14:20 05.09.2019
2428 Clouds 17 1015 55 10000 7.2 300 13:44 05.09.2019
2429 Clouds 16 1014 63 10000 9.8 300 13:23 05.09.2019
2430 Clouds 16 1014 63 10000 9.8 300 12:58 05.09.2019
2431 Clouds 16 1016 63 10000 7.7 310 12:38 05.09.2019
2432 Clouds 16 1016 63 10000 7.7 310 12:20 05.09.2019
2433 Clouds 16 1013 67 10000 9.8 300 11:43 05.09.2019
2434 Clouds 15 1015 87 10000 5.1 310 11:20 05.09.2019
2435 Rain 15 1012 77 10000 4.6 300 10:43 05.09.2019
2436 Rain 15 1013 82 10000 5.1 300 10:23 05.09.2019
2437 Rain 15 1013 82 10000 5.1 300 10:23 05.09.2019
2438 Rain 15 1013 77 10000 5.1 260 09:59 05.09.2019
2439 Clouds 14 1010 87 10000 7.2 300 09:40 05.09.2019
2440 Clouds 14 1010 87 10000 7.2 300 09:40 05.09.2019
2441 Clouds 14 1010 87 10000 7.2 300 09:19 05.09.2019
2442 Rain 13 1009 87 10000 5.7 240 08:46 05.09.2019
2443 Rain 13 1008 87 10000 5.1 240 08:27 05.09.2019
2444 Clouds 13 1008 87 10000 6.7 220 07:48 05.09.2019
2445 Clouds 13 1008 87 10000 6.2 210 07:29 05.09.2019
2446 Clouds 13 1008 93 10000 5.1 200 06:58 05.09.2019
2447 Rain 12 1009 93 10000 5.7 210 06:39 05.09.2019
2448 Clouds 12 1009 87 10000 4.1 200 06:18 05.09.2019
2449 Clear 12 1009 93 10000 6.2 210 05:40 05.09.2019
2450 Clear 12 1009 93 10000 6.2 210 05:22 05.09.2019
2451 Clouds 12 1010 93 10000 4.6 200 04:29 05.09.2019
2452 Clouds 12 1010 93 10000 5.1 210 03:41 05.09.2019
2453 Clouds 12 1010 87 10000 4.1 210 02:56 05.09.2019
2454 Rain 12 1010 87 10000 4.6 190 02:28 05.09.2019
2455 Clouds 12 1010 87 10000 2.6 220 01:48 05.09.2019
2456 Clouds 12 1011 82 10000 4.1 230 00:52 05.09.2019
2457 Clouds 12 1011 93 10000 2.6 200 00:27 05.09.2019
2458 Clouds 12 1011 82 10000 3.1 240 23:59 04.09.2019
2459 Rain 13 1012 93 10000 3.1 220 23:39 04.09.2019
2460 Rain 13 1012 93 10000 3.1 220 23:21 04.09.2019
2461 Clouds 14 1010 82 10000 4.6 280 22:47 04.09.2019
2462 Rain 14 1012 87 10000 3.1 240 22:20 04.09.2019
2463 Clouds 14 1010 87 10000 7.2 280 21:56 04.09.2019
2464 Clouds 15 1011 87 10000 4.1 250 21:38 04.09.2019
2465 Clouds 15 1009 87 10000 5.7 220 21:19 04.09.2019
2466 Clouds 16 1009 87 10000 5.7 220 20:55 04.09.2019
2467 Clouds 16 1009 87 10000 6.2 210 20:36 04.09.2019
2468 Clouds 16 1009 87 10000 6.2 210 20:36 04.09.2019
2469 Clouds 16 1009 87 10000 6.2 210 20:18 04.09.2019
2470 Clouds 16 1010 88 10000 6.7 210 19:40 04.09.2019
2471 Clouds 16 1010 88 10000 6.7 210 19:40 04.09.2019
2472 Clouds 16 1010 88 10000 6.7 210 19:21 04.09.2019
2473 -273 0 0 0 0 0 18:55 04.09.2019
2474 Drizzle 16 1010 93 10000 6.2 210 18:36 04.09.2019
2475 Drizzle 16 1010 93 7000 6.2 210 18:18 04.09.2019
2476 Drizzle 16 1010 87 6000 6.7 210 17:41 04.09.2019
2477 Drizzle 16 1010 87 6000 6.7 210 17:22 04.09.2019
2478 Drizzle 16 1010 93 4000 6.2 210 16:56 04.09.2019
2479 Drizzle 16 1010 93 3500 4.6 200 16:38 04.09.2019
2480 Drizzle 16 1010 93 3500 4.6 200 16:19 04.09.2019
2481 Drizzle 16 1010 93 3000 5.1 210 15:41 04.09.2019
2482 Drizzle 17 1011 93 4000 6.7 210 15:22 04.09.2019
2483 Drizzle 17 1011 82 3700 7.7 220 14:58 04.09.2019
2484 Mist 18 1011 93 3500 7.2 200 14:39 04.09.2019
2485 Mist 18 1011 93 3500 7.2 200 14:21 04.09.2019
2486 Drizzle 18 1011 60 10000 6.7 220 13:59 04.09.2019
2487 Clouds 19 1012 68 10000 7.7 200 13:39 04.09.2019
2488 Clouds 19 1012 68 10000 7.7 200 13:21 04.09.2019
2489 Clouds 19 1012 63 10000 7.7 210 12:44 04.09.2019
2490 Clouds 19 1012 60 10000 8.7 210 12:26 04.09.2019
2491 Clouds 19 1012 63 10000 6.2 210 11:58 04.09.2019
2492 Clouds 19 1013 72 10000 7.7 200 11:39 04.09.2019
2493 Clouds 19 1013 72 10000 7.7 200 11:20 04.09.2019
2494 Clouds 18 1013 72 10000 5.7 210 10:56 04.09.2019
2495 Clouds 18 1014 77 10000 6.2 200 10:38 04.09.2019
2496 Clouds 18 1014 77 10000 6.2 200 10:38 04.09.2019
2497 Clouds 18 1014 77 10000 6.2 200 10:19 04.09.2019
2498 Clouds 16 1014 77 10000 4.6 190 09:45 04.09.2019
2499 Clouds 16 1014 82 10000 6.2 200 09:21 04.09.2019
2500 Clouds 15 1015 82 10000 3.1 190 08:43 04.09.2019
2501 Clouds 15 1014 82 10000 5.1 190 08:24 04.09.2019
2502 Clouds 14 1015 87 10000 2.6 190 07:59 04.09.2019
2503 Clouds 14 1015 87 10000 4.1 190 07:37 04.09.2019
2504 Clouds 14 1016 87 10000 2.6 200 06:59 04.09.2019
2505 Clouds 14 1015 82 10000 4.1 190 06:39 04.09.2019
2506 Clouds 14 1015 82 10000 4.1 190 06:39 04.09.2019
2507 Clouds 13 1017 87 10000 2.6 190 04:55 04.09.2019
2508 Clouds 13 1017 87 10000 3.1 180 04:24 04.09.2019
2509 Clouds 14 1018 87 10000 2.6 190 03:21 04.09.2019
2510 Clouds 16 1019 82 10000 3.6 200 01:21 04.09.2019
2511 Clouds 16 1019 82 10000 2.6 210 00:45 04.09.2019
2512 Clouds 16 1020 82 10000 3.1 200 00:27 04.09.2019
2513 Clouds 16 1020 77 10000 2.6 230 23:53 03.09.2019
2514 Clouds 16 1020 82 10000 2.1 210 23:27 03.09.2019
2515 Clouds 16 1020 77 10000 3.1 230 22:57 03.09.2019
2516 Clouds 16 1020 77 10000 3.1 230 22:57 03.09.2019
2517 Clouds 17 1020 82 10000 2.6 220 22:38 03.09.2019
2518 Clouds 17 1020 82 10000 2.6 220 22:20 03.09.2019
2519 Clouds 17 1020 77 10000 3.6 230 21:55 03.09.2019
2520 Clouds 17 1020 77 10000 3.6 230 21:55 03.09.2019
2521 Clouds 17 1021 72 10000 2.6 240 21:36 03.09.2019
2522 Clouds 17 1021 72 10000 2.6 240 21:36 03.09.2019
2523 Clouds 17 1020 77 10000 2.6 230 21:18 03.09.2019
2524 Clouds 17 1020 77 10000 2.6 230 20:42 03.09.2019
2525 Clouds 18 1020 68 10000 3.6 250 20:24 03.09.2019
2526 Clouds 18 1020 77 10000 3.6 250 19:55 03.09.2019
2527 Clouds 18 1020 68 10000 3.6 250 19:37 03.09.2019
2528 Clouds 18 1021 72 10000 3.1 260 19:18 03.09.2019
2529 Clouds 18 1020 72 10000 4.6 260 18:44 03.09.2019
2530 Clouds 19 1021 68 10000 4.6 260 18:26 03.09.2019
2531 Clouds 19 1020 77 10000 4.6 250 17:58 03.09.2019
2532 Clouds 19 1021 63 10000 5.7 260 17:40 03.09.2019
2533 Clouds 18 1021 63 10000 5.7 260 17:19 03.09.2019
2534 Clouds 18 1020 82 10000 6.2 260 16:56 03.09.2019
2535 Clouds 19 1021 63 10000 4.6 260 16:37 03.09.2019
2536 Clouds 19 1021 63 10000 4.6 260 16:19 03.09.2019
2537 Clouds 19 1021 63 10000 5.1 270 15:40 03.09.2019
2538 Clouds 19 1021 63 10000 5.1 260 15:21 03.09.2019
2539 Clouds 19 1021 63 10000 5.1 260 14:58 03.09.2019
2540 Drizzle 19 1021 68 10000 4.1 270 14:40 03.09.2019
2541 Drizzle 19 1021 68 10000 4.1 270 14:20 03.09.2019
2542 Drizzle 18 1020 72 8000 7.7 270 13:56 03.09.2019
2543 Clouds 18 1020 72 10000 7.2 250 13:37 03.09.2019
2544 Clouds 18 1020 82 10000 8.2 270 13:19 03.09.2019
2545 Clouds 18 1020 82 10000 8.2 270 12:50 03.09.2019
2546 Clouds 18 1020 82 10000 8.7 270 12:31 03.09.2019
2547 Drizzle 18 1019 77 10000 6.2 260 11:59 03.09.2019
2548 Clouds 18 1020 82 10000 4.6 250 11:39 03.09.2019
2549 Clouds 18 1020 82 10000 4.6 250 11:20 03.09.2019
2550 Clouds 18 1019 82 10000 5.7 240 10:56 03.09.2019
2551 Rain 17 1020 88 10000 5.7 230 10:38 03.09.2019
2552 Rain 17 1020 88 10000 5.7 230 10:19 03.09.2019
2553 Clouds 16 1019 93 10000 3.6 230 09:43 03.09.2019
2554 Clouds 16 1019 93 10000 4.6 220 09:25 03.09.2019
2555 Rain 15 1019 93 10000 3.6 220 08:54 03.09.2019
2556 Drizzle 15 1019 93 9000 5.1 210 08:36 03.09.2019
2557 Clouds 15 1018 93 9000 5.1 220 08:18 03.09.2019
2558 Rain 15 1018 93 6000 4.1 220 07:40 03.09.2019
2559 Rain 15 1018 93 6000 4.1 220 07:21 03.09.2019
2560 Clouds 14 1018 93 9000 5.1 210 06:44 03.09.2019
2561 Drizzle 14 1019 87 5000 4.1 240 05:52 03.09.2019
2562 Rain 15 1019 67 10000 5.7 210 03:35 03.09.2019
2563 Rain 14 1019 71 10000 4.1 210 02:43 03.09.2019
2564 Rain 14 1020 71 10000 4.6 200 02:23 03.09.2019
2565 Rain 15 1020 76 10000 3.6 210 01:48 03.09.2019
2566 Clouds 15 1021 76 10000 4.6 210 01:29 03.09.2019
2567 Clouds 15 1021 76 10000 3.1 200 00:40 03.09.2019
2568 Clouds 15 1021 76 10000 2.1 200 00:20 03.09.2019
2569 Clouds 15 1021 71 10000 2.6 200 23:40 02.09.2019
2570 Clouds 15 1021 71 10000 2.6 200 23:40 02.09.2019
2571 Clouds 15 1021 71 10000 2.6 200 23:20 02.09.2019
2572 Clouds 15 1021 76 10000 3.1 240 22:56 02.09.2019
2573 Clouds 15 1022 76 10000 2.1 210 22:38 02.09.2019
2574 Clouds 15 1022 76 10000 2.1 210 22:19 02.09.2019
2575 Clouds 15 1021 71 10000 3.1 220 21:56 02.09.2019
2576 Clouds 15 1022 76 10000 2.1 230 21:38 02.09.2019
2577 Clouds 15 1021 63 10000 2.1 240 21:20 02.09.2019
2578 Clouds 15 1021 63 10000 2.1 240 21:20 02.09.2019
2579 Clouds 15 1021 63 10000 2.1 240 20:57 02.09.2019
2580 Rain 16 1021 55 10000 3.1 260 20:39 02.09.2019
2581 Clouds 16 1021 63 10000 3.6 260 20:18 02.09.2019
2582 Clouds 17 1021 63 10000 3.6 260 19:55 02.09.2019
2583 Clouds 17 1021 63 10000 3.6 260 19:55 02.09.2019
2584 Rain 17 1021 55 10000 3.6 260 19:37 02.09.2019
2585 Rain 18 1021 52 10000 5.1 250 19:19 02.09.2019
2586 Clouds 18 1022 55 10000 5.7 250 18:39 02.09.2019
2587 Clouds 18 1021 52 10000 7.7 270 18:21 02.09.2019
2588 Clouds 19 1021 52 10000 7.7 270 17:57 02.09.2019
2589 Clouds 19 1022 55 10000 5.1 270 17:39 02.09.2019
2590 Clouds 19 1022 55 10000 5.1 270 17:19 02.09.2019
2591 Clouds 19 1021 55 10000 5.1 300 16:42 02.09.2019
2592 Clouds 19 1022 48 10000 6.2 260 16:23 02.09.2019
2593 Clouds 19 1021 52 10000 5.7 300 15:59 02.09.2019
2594 Clouds 19 1021 52 10000 5.7 300 15:41 02.09.2019
2595 Clouds 18 1022 48 10000 5.1 260 15:21 02.09.2019
2596 Clouds 18 1021 55 10000 5.1 280 14:56 02.09.2019
2597 Rain 18 1022 48 10000 4.6 260 14:37 02.09.2019
2598 Rain 18 1022 48 10000 4.6 260 14:19 02.09.2019
2599 Clouds 18 1021 55 10000 6.2 290 13:45 02.09.2019
2600 Clouds 18 1021 52 10000 3.6 270 13:25 02.09.2019
2601 Clouds 18 1021 52 10000 3.6 270 13:25 02.09.2019
2602 Clouds 18 1021 55 10000 5.7 300 12:58 02.09.2019
2603 Clouds 17 1021 63 10000 3.6 270 12:40 02.09.2019
2604 Clouds 17 1021 63 10000 3.6 270 12:22 02.09.2019
2605 Clouds 17 1021 72 10000 3.1 240 11:55 02.09.2019
2606 Rain 17 1021 63 10000 4.6 260 11:37 02.09.2019
2607 Rain 17 1021 63 10000 4.6 260 11:19 02.09.2019
2608 Clouds 16 1020 72 10000 3.6 250 10:42 02.09.2019
2609 Rain 16 1021 77 10000 3.6 250 10:22 02.09.2019
2610 Clouds 15 1020 87 10000 3.1 230 09:59 02.09.2019
2611 Rain 14 1020 87 10000 3.6 230 09:39 02.09.2019
2612 Rain 13 1020 87 10000 3.6 230 09:20 02.09.2019
2613 Clouds 12 1019 87 10000 1 0 08:43 02.09.2019
2614 Rain 12 1020 93 10000 2.1 220 08:22 02.09.2019
2615 Rain 12 1020 93 10000 2.1 220 08:22 02.09.2019
2616 Clouds 11 1018 93 10000 1.5 200 07:57 02.09.2019
2617 Clouds 11 1018 87 10000 2.1 40 07:38 02.09.2019
2618 Clouds 10 1018 87 10000 2.1 40 07:20 02.09.2019
2619 Clouds 10 1018 87 10000 2.1 40 06:43 02.09.2019
2620 Clouds 11 1018 87 10000 3.1 240 05:54 02.09.2019
2621 Clouds 11 1018 87 10000 3.1 240 05:54 02.09.2019
2622 Rain 10 1018 100 10000 2.1 210 05:26 02.09.2019
2623 Clouds 10 1017 81 10000 4.1 260 04:48 02.09.2019
2624 Rain 12 1018 87 10000 3.1 240 02:29 02.09.2019
2625 Clouds 12 1017 81 10000 2.1 210 01:41 02.09.2019
2626 Clouds 12 1017 81 10000 2.1 210 01:41 02.09.2019
2627 Clouds 12 1017 81 10000 2.6 230 00:42 02.09.2019
2628 Clouds 11 1017 76 10000 2.1 250 00:20 02.09.2019
2629 Clear 12 1017 93 10000 2.1 210 23:39 01.09.2019
2630 Clear 12 1017 93 10000 2.1 210 23:19 01.09.2019
2631 Clear 12 1017 93 10000 2.1 210 23:19 01.09.2019
2632 Clouds 12 1016 76 10000 2.6 260 22:57 01.09.2019
2633 Clear 12 1017 100 10000 2.1 220 22:39 01.09.2019
2634 Clouds 12 1016 71 10000 2.6 250 22:18 01.09.2019
2635 Clouds 12 1016 71 10000 2.6 250 22:18 01.09.2019
2636 Clouds 13 1016 71 10000 2.6 250 21:54 01.09.2019
2637 Rain 13 1016 93 10000 2.1 190 21:36 01.09.2019
2638 Clouds 13 1015 67 10000 2.6 260 21:18 01.09.2019
2639 Clouds 14 1015 67 10000 2.6 260 20:55 01.09.2019
2640 Clouds 14 1016 87 10000 2.6 220 20:36 01.09.2019
2641 Rain 15 1015 63 10000 4.1 300 20:18 01.09.2019
2642 Rain 16 1015 63 10000 4.1 300 19:41 01.09.2019
2643 Rain 17 1015 77 10000 3.6 310 19:21 01.09.2019
2644 Rain 18 1015 77 10000 3.6 310 18:57 01.09.2019
2645 Clouds 18 1015 52 10000 3.6 290 18:38 01.09.2019
2646 Clouds 18 1014 55 10000 6.2 300 18:20 01.09.2019
2647 Clouds 19 1014 55 10000 6.2 300 17:55 01.09.2019
2648 Clouds 19 1015 52 10000 4.1 290 17:36 01.09.2019
2649 Clouds 19 1015 52 10000 4.1 290 17:36 01.09.2019
2650 Rain 19 1015 55 10000 5.7 300 17:18 01.09.2019
2651 Rain 19 1014 48 10000 4.1 290 16:39 01.09.2019
2652 Rain 19 1014 48 10000 4.1 290 16:18 01.09.2019
2653 Clouds 19 1014 52 10000 5.1 290 15:46 01.09.2019
2654 Clouds 19 1014 52 10000 5.1 290 15:26 01.09.2019
2655 Clouds 19 1014 52 10000 5.1 280 14:56 01.09.2019
2656 Clouds 19 1014 55 10000 4.6 270 14:37 01.09.2019
2657 Clouds 19 1014 55 10000 4.6 270 14:19 01.09.2019
2658 Clouds 19 1013 48 10000 4.1 290 13:42 01.09.2019
2659 Clouds 19 1014 59 10000 2.6 250 13:23 01.09.2019
2660 Clouds 19 1013 63 10000 5.7 290 12:56 01.09.2019
2661 Clouds 18 1013 59 10000 3.1 0 12:37 01.09.2019
2662 Clouds 18 1013 59 10000 3.1 0 12:19 01.09.2019
2663 Clouds 18 1013 67 10000 3.1 280 11:40 01.09.2019
2664 Clouds 18 1013 67 10000 3.1 280 11:20 01.09.2019
2665 Clouds 18 1011 77 10000 3.1 300 10:58 01.09.2019
2666 Clouds 17 1012 67 10000 2.6 290 10:39 01.09.2019
2667 Clouds 17 1012 67 10000 2.6 290 10:20 01.09.2019
2668 Rain 17 1011 77 10000 3.1 280 09:42 01.09.2019
2669 Rain 17 1011 77 10000 3.1 280 09:24 01.09.2019
2670 Clouds 16 1010 88 10000 2.6 280 08:44 01.09.2019
2671 Rain 16 1011 82 10000 3.1 280 08:23 01.09.2019
2672 Clouds 16 1009 93 10000 3.1 280 07:51 01.09.2019
2673 Clouds 16 1009 93 10000 3.1 280 07:51 01.09.2019
2674 Clouds 16 1010 87 10000 2.6 270 07:33 01.09.2019
2675 Mist 16 1008 93 4000 3.1 270 06:42 01.09.2019
2676 Mist 16 1009 87 10000 3.1 280 06:23 01.09.2019
2677 Fog 17 1008 93 1000 1 240 05:39 01.09.2019
2678 Mist 17 1009 93 4100 2.6 260 04:31 01.09.2019
2679 Mist 17 1007 93 200 1.5 240 03:42 01.09.2019
2680 Mist 17 1007 100 50 1 260 02:57 01.09.2019
2681 Mist 17 1008 100 2500 2.6 240 02:26 01.09.2019
2682 Mist 17 1007 100 2600 1.5 40 01:50 01.09.2019
2683 Mist 17 1007 100 2600 1.5 40 01:50 01.09.2019
2684 Rain 18 1008 93 3400 2.6 350 01:23 01.09.2019
2685 Mist 18 1008 93 3400 2.6 350 00:46 01.09.2019
2686 Mist 18 1007 93 4200 1.5 30 00:22 01.09.2019
2687 Rain 19 1007 64 10000 5.1 320 23:54 31.08.2019
2688 Thunderstorm 19 1008 93 3200 1 0 23:36 31.08.2019
2689 Thunderstorm 20 1008 93 3200 1 0 23:18 31.08.2019
2690 Thunderstorm 20 1008 93 3200 1 0 23:18 31.08.2019
2691 Thunderstorm 20 1007 68 10000 3.6 290 22:43 31.08.2019
2692 Thunderstorm 20 1007 68 10000 3.6 290 22:25 31.08.2019
2693 Rain 21 1007 60 10000 1.5 60 21:57 31.08.2019
2694 Clouds 22 1007 53 10000 2.1 340 21:38 31.08.2019
2695 Clouds 23 1007 53 10000 2.1 340 21:19 31.08.2019
2696 Clouds 24 1008 50 10000 0.5 260 20:47 31.08.2019
2697 Clear 25 1008 39 10000 0.5 0 20:29 31.08.2019
2698 Clouds 26 1008 39 10000 2.1 230 19:57 31.08.2019
2699 Clear 27 1008 30 10000 3.6 210 19:39 31.08.2019
2700 Clear 27 1008 30 10000 3.6 210 19:20 31.08.2019
2701 Clear 28 1009 30 10000 5.7 210 18:40 31.08.2019
2702 Clouds 28 1009 33 10000 6.7 210 18:21 31.08.2019
2703 Clouds 29 1009 33 10000 6.7 210 17:58 31.08.2019
2704 Clear 29 1009 28 10000 7.7 220 17:37 31.08.2019
2705 Clear 29 1009 28 10000 7.7 220 17:19 31.08.2019
2706 Clear 29 1009 28 10000 7.7 220 17:19 31.08.2019
2707 Clouds 29 1010 33 10000 7.2 200 16:59 31.08.2019
2708 Clear 29 1010 25 10000 6.7 210 16:40 31.08.2019
2709 Clear 29 1010 25 10000 6.7 210 16:21 31.08.2019
2710 Clouds 29 1010 33 10000 6.7 190 15:58 31.08.2019
2711 Clear 29 1011 30 10000 7.2 200 15:37 31.08.2019
2712 Clouds 29 1011 30 10000 7.2 200 15:18 31.08.2019
2713 Clouds 29 1011 34 10000 5.1 190 14:41 31.08.2019
2714 Clouds 28 1011 34 10000 5.1 190 14:22 31.08.2019
2715 Clouds 28 1012 45 10000 3.6 170 13:42 31.08.2019
2716 Clouds 27 1012 44 10000 2.6 160 13:23 31.08.2019
2717 Clouds 27 1013 50 10000 3.1 160 12:59 31.08.2019
2718 Clouds 26 1013 50 10000 2.1 0 12:40 31.08.2019
2719 Clouds 25 1014 53 10000 3.1 160 12:21 31.08.2019
2720 Clouds 25 1014 53 10000 3.1 160 11:56 31.08.2019
2721 Clear 24 1014 56 10000 2.1 130 11:38 31.08.2019
2722 Clear 23 1014 56 10000 2.1 130 11:20 31.08.2019
2723 Clouds 22 1015 64 10000 2.6 170 10:43 31.08.2019
2724 Clouds 21 1016 72 10000 1.5 140 10:19 31.08.2019
2725 Clouds 20 1016 72 10000 1.5 140 09:59 31.08.2019
2726 Clouds 18 1015 77 10000 1.5 130 09:39 31.08.2019
2727 Clouds 17 1015 77 10000 1.5 130 09:21 31.08.2019
2728 Fog 15 1016 82 10000 1 100 08:44 31.08.2019
2729 Fog 14 1016 93 4000 1 100 08:26 31.08.2019
2730 Fog 13 1016 100 6000 0.5 0 07:42 31.08.2019
2731 Fog 12 1016 100 6000 0.5 0 07:23 31.08.2019
2732 Fog 12 1017 87 10000 1 90 06:56 31.08.2019
2733 Fog 12 1017 100 6000 0.5 110 06:21 31.08.2019
2734 Fog 12 1017 100 1700 1.5 110 05:34 31.08.2019
2735 Fog 13 1018 87 10000 1 120 04:45 31.08.2019
2736 Fog 13 1018 100 3300 0.5 110 04:27 31.08.2019
2737 Fog 13 1019 93 10000 1 100 03:42 31.08.2019
2738 Fog 13 1019 100 1800 0.5 260 02:20 31.08.2019
2739 Fog 14 1020 100 8000 4.08 151.699 01:42 31.08.2019
2740 Fog 14 1020 100 8000 4.44 154.024 01:23 31.08.2019
2741 Fog 14 1020 93 10000 0.5 120 00:44 31.08.2019
2742 Clouds 14 1020 93 7000 4.44 154.024 00:25 31.08.2019
2743 Clouds 15 1020 93 10000 0.5 290 23:48 30.08.2019
2744 Clouds 15 1021 87 10000 2.61 200.299 23:19 30.08.2019
2745 Clouds 15 1021 87 10000 2.61 200.299 23:19 30.08.2019
2746 Clouds 16 1021 87 10000 2.61 200.299 22:57 30.08.2019
2747 Clouds 17 1021 87 10000 0.5 260 22:37 30.08.2019
2748 Clouds 17 1021 82 10000 1 80 22:19 30.08.2019
2749 Clouds 18 1021 82 10000 1 80 21:56 30.08.2019
2750 Clouds 18 1020 72 10000 1.5 270 21:36 30.08.2019
2751 Clouds 18 1020 72 10000 1.5 270 21:36 30.08.2019
2752 Clouds 19 1021 72 10000 2.1 350 21:18 30.08.2019
2753 Clouds 19 1021 72 10000 2.1 350 21:18 30.08.2019
2754 Clouds 19 1021 72 10000 2.1 350 21:18 30.08.2019
2755 Clouds 19 1021 72 10000 2.1 350 20:55 30.08.2019
2756 Clouds 20 1020 60 10000 2.6 260 20:37 30.08.2019
2757 Clouds 21 1020 38 10000 1.5 240 20:18 30.08.2019
2758 Clouds 22 1020 38 10000 1.5 240 19:41 30.08.2019
2759 Clouds 22 1020 49 10000 3.1 260 19:22 30.08.2019
2760 Clouds 22 1020 49 10000 3.1 260 18:59 30.08.2019
2761 Clouds 23 1020 49 10000 4.1 240 18:41 30.08.2019
2762 Clouds 23 1020 49 10000 4.1 240 18:23 30.08.2019
2763 Clouds 24 1021 33 10000 3.6 220 17:56 30.08.2019
2764 Clouds 24 1021 44 10000 4.6 240 17:38 30.08.2019
2765 Clouds 24 1021 44 10000 4.6 240 17:18 30.08.2019
2766 Clouds 24 1021 41 10000 3.6 210 16:48 30.08.2019
2767 Clouds 24 1021 41 10000 5.1 240 16:29 30.08.2019
2768 Clouds 24 1021 43 10000 4.1 220 15:58 30.08.2019
2769 Clouds 24 1021 38 10000 4.6 230 15:38 30.08.2019
2770 Clouds 24 1021 38 10000 4.6 230 15:19 30.08.2019
2771 Clouds 24 1021 38 10000 4.6 230 15:19 30.08.2019
2772 Clouds 24 1022 43 10000 4.6 210 14:44 30.08.2019
2773 Clouds 24 1022 33 10000 4.6 220 14:25 30.08.2019
2774 Clouds 23 1022 46 10000 4.1 230 13:56 30.08.2019
2775 Clouds 23 1022 40 10000 5.7 210 13:37 30.08.2019
2776 Clouds 23 1022 53 10000 3.6 210 13:19 30.08.2019
2777 Clouds 23 1022 53 10000 3.6 210 13:19 30.08.2019
2778 Clouds 22 1022 56 10000 5.1 190 12:42 30.08.2019
2779 Clouds 22 1022 56 10000 5.1 190 12:23 30.08.2019
2780 Clouds 21 1022 64 10000 4.6 230 11:55 30.08.2019
2781 Clouds 20 1022 72 10000 4.6 210 11:37 30.08.2019
2782 Clouds 20 1022 72 10000 4.6 210 11:18 30.08.2019
2783 Clouds 19 1022 77 10000 4.1 210 10:37 30.08.2019
2784 Clouds 18 1022 77 10000 4.1 210 10:19 30.08.2019
2785 Clouds 17 1022 88 9000 2.6 210 09:42 30.08.2019
2786 Clouds 16 1022 87 8000 3.6 200 09:20 30.08.2019
2787 Clouds 16 1022 100 9000 2.1 210 08:59 30.08.2019
2788 Clouds 15 1022 100 9000 2.1 210 08:41 30.08.2019
2789 Fog 14 1022 100 400 0.5 200 08:22 30.08.2019
2790 Fog 13 1022 100 200 0.5 170 07:45 30.08.2019
2791 Fog 13 1022 100 1900 2.1 180 07:25 30.08.2019
2792 Fog 13 1021 100 100 1.5 160 06:49 30.08.2019
2793 Fog 13 1021 93 200 1 190 06:30 30.08.2019
2794 Fog 13 1021 93 700 0.5 0 05:59 30.08.2019
2795 Mist 14 1021 93 150 1.5 200 04:59 30.08.2019
2796 Clouds 14 1021 93 1500 1.5 240 03:56 30.08.2019
2797 Clouds 14 1021 93 1500 1.5 240 03:56 30.08.2019
2798 Fog 14 1021 93 400 1.5 320 03:37 30.08.2019
2799 Mist 15 1022 93 3200 1.5 320 02:37 30.08.2019
2800 Mist 15 1021 93 3800 2.1 320 01:40 30.08.2019
2801 Mist 16 1021 93 700 1 200 00:47 30.08.2019
2802 Fog 16 1021 87 10000 1 260 00:19 30.08.2019
2803 Fog 16 1021 87 10000 1 260 23:47 29.08.2019
2804 Clouds 17 1021 93 10000 0.5 330 23:22 29.08.2019
2805 Clouds 17 1021 93 10000 0.5 330 23:22 29.08.2019
2806 Clouds 17 1021 82 10000 0.5 260 22:45 29.08.2019
2807 Clouds 17 1021 88 10000 1.5 300 22:27 29.08.2019
2808 Clouds 18 1020 82 10000 1.5 330 21:59 29.08.2019
2809 Clear 19 1020 77 10000 3.1 320 21:41 29.08.2019
2810 Clouds 19 1020 77 10000 3.1 320 21:21 29.08.2019
2811 Clouds 19 1020 77 10000 2.1 340 20:58 29.08.2019
2812 Clouds 19 1020 82 10000 3.6 330 20:39 29.08.2019
2813 Clouds 20 1019 77 10000 3.6 320 20:19 29.08.2019
2814 Clouds 21 1019 72 10000 2.6 340 19:47 29.08.2019
2815 Clouds 21 1019 68 10000 3.1 300 19:27 29.08.2019
2816 Clouds 22 1019 68 10000 3.6 330 18:59 29.08.2019
2817 Clouds 22 1019 68 10000 2.6 310 18:41 29.08.2019
2818 Clouds 23 1019 60 10000 4.6 310 18:20 29.08.2019
2819 -273 0 0 0 0 0 17:56 29.08.2019
2820 Clouds 23 1018 56 10000 4.6 280 17:36 29.08.2019
2821 Clouds 23 1018 53 10000 5.1 260 17:18 29.08.2019
2822 Clouds 24 1018 68 10000 4.1 320 16:43 29.08.2019
2823 Clouds 24 1018 64 10000 5.1 310 16:24 29.08.2019
2824 Clouds 24 1018 64 10000 5.1 310 15:58 29.08.2019
2825 Clouds 24 1018 56 10000 4.6 270 15:37 29.08.2019
2826 Clouds 24 1018 53 10000 6.2 230 15:19 29.08.2019
2827 Clouds 24 1018 56 10000 4.6 270 15:19 29.08.2019
2828 Clouds 24 1018 53 10000 6.2 230 14:45 29.08.2019
2829 Clouds 24 1018 57 10000 5.1 260 14:22 29.08.2019
2830 Clouds 24 1017 50 10000 5.1 240 13:58 29.08.2019
2831 Clouds 23 1017 56 10000 6.2 240 13:39 29.08.2019
2832 Clouds 23 1017 53 10000 5.7 250 13:20 29.08.2019
2833 Clouds 23 1017 53 10000 5.7 250 12:58 29.08.2019
2834 Clouds 23 1017 64 10000 5.7 240 12:39 29.08.2019
2835 Clouds 22 1017 64 10000 5.7 240 12:21 29.08.2019
2836 Clouds 22 1016 68 10000 6.2 250 11:58 29.08.2019
2837 Clouds 21 1017 73 10000 5.1 250 11:37 29.08.2019
2838 Clouds 21 1017 73 10000 5.1 250 11:18 29.08.2019
2839 Clouds 20 1016 77 10000 5.7 250 10:44 29.08.2019
2840 Clouds 20 1016 82 8000 4.6 250 10:24 29.08.2019
2841 Mist 20 1016 93 4500 4.6 230 09:42 29.08.2019
2842 Mist 19 1016 93 4000 3.1 230 09:22 29.08.2019
2843 Mist 19 1015 93 4000 2.6 220 08:59 29.08.2019
2844 Mist 19 1015 93 4000 3.1 240 08:40 29.08.2019
2845 Mist 18 1015 93 4000 3.1 240 08:22 29.08.2019
2846 Mist 18 1015 93 2000 3.1 210 07:50 29.08.2019
2847 Mist 19 1015 93 2300 2.6 210 07:27 29.08.2019
2848 Rain 19 1014 93 1200 2.6 190 06:53 29.08.2019
2849 Mist 19 1014 93 2700 2.6 230 06:32 29.08.2019
2850 Mist 19 1014 93 2500 1.5 180 05:43 29.08.2019
2851 Rain 19 1015 88 2000 4.1 260 04:51 29.08.2019
2852 Mist 19 1014 88 5000 2.1 230 04:30 29.08.2019
2853 Mist 20 1014 94 1900 3.1 210 03:35 29.08.2019
2854 Mist 20 1014 88 3000 1 260 01:52 29.08.2019
2855 Mist 20 1014 94 2500 1 230 01:32 29.08.2019
2856 Mist 21 1014 88 3000 1 50 00:45 29.08.2019
2857 Mist 21 1014 94 3800 3.1 280 00:21 29.08.2019
2858 Mist 21 1014 94 3800 3.1 280 23:56 28.08.2019
2859 Mist 21 1014 88 4000 0.5 110 23:38 28.08.2019
2860 Mist 22 1014 88 4000 0.5 110 23:19 28.08.2019
2861 Haze 22 1014 83 5000 1.5 260 22:39 28.08.2019
2862 Haze 22 1014 83 5000 1.5 260 22:19 28.08.2019
2863 Haze 22 1013 78 6000 1 260 21:59 28.08.2019
2864 Clouds 22 1013 78 6000 1 260 21:41 28.08.2019
2865 Rain 23 1013 78 7000 1.5 240 21:21 28.08.2019
2866 Clouds 24 1013 78 6000 2.6 310 20:56 28.08.2019
2867 Rain 24 1013 69 9000 3.6 250 20:37 28.08.2019
2868 Clouds 25 1012 61 10000 3.1 320 20:19 28.08.2019
2869 Rain 25 1013 54 10000 4.1 260 19:40 28.08.2019
2870 Rain 25 1013 54 10000 4.1 260 19:21 28.08.2019
2871 Rain 26 1013 54 10000 4.1 260 18:57 28.08.2019
2872 Rain 27 1012 47 10000 4.1 260 18:37 28.08.2019
2873 Clouds 29 1012 48 10000 5.1 310 18:18 28.08.2019
2874 Rain 30 1012 42 10000 6.2 240 17:38 28.08.2019
2875 Rain 30 1012 42 10000 6.2 240 17:19 28.08.2019
2876 Clouds 30 1011 43 10000 4.1 310 16:45 28.08.2019
2877 Rain 30 1012 42 10000 4.6 260 16:23 28.08.2019
2878 Rain 30 1012 48 10000 4.1 270 15:59 28.08.2019
2879 Rain 31 1012 40 10000 3.6 270 15:38 28.08.2019
2880 Clouds 31 1012 40 10000 3.6 270 15:19 28.08.2019
2881 Clouds 32 1011 33 10000 4.6 230 14:57 28.08.2019
2882 Clouds 31 1012 43 10000 5.1 240 14:38 28.08.2019
2883 Clouds 31 1012 43 10000 5.1 240 14:20 28.08.2019
2884 Clouds 31 1011 40 10000 4.1 200 13:58 28.08.2019
2885 Clouds 31 1011 35 10000 4.6 220 13:38 28.08.2019
2886 Clouds 30 1012 42 10000 2.6 210 13:19 28.08.2019
2887 Clouds 30 1012 42 10000 2.6 210 12:42 28.08.2019
2888 Clouds 29 1012 48 10000 2.6 200 12:24 28.08.2019
2889 Clouds 29 1012 54 10000 2.6 230 11:57 28.08.2019
2890 Clouds 28 1012 48 10000 2.6 230 11:38 28.08.2019
2891 Clouds 27 1012 48 10000 2.6 230 11:20 28.08.2019
2892 Clouds 26 1012 57 10000 3.1 200 10:55 28.08.2019
2893 Clouds 26 1012 61 10000 3.1 220 10:37 28.08.2019
2894 Clouds 24 1012 69 10000 2.6 210 10:18 28.08.2019
2895 Clouds 23 1012 73 9000 1.5 190 09:41 28.08.2019
2896 Clouds 23 1012 73 9000 1.5 190 09:41 28.08.2019
2897 Clouds 22 1012 73 9000 1.5 190 09:20 28.08.2019
2898 Mist 20 1012 93 5000 0.5 0 08:40 28.08.2019
2899 Mist 20 1012 93 5000 0.5 0 08:21 28.08.2019
2900 Clouds 20 1012 82 10000 1 160 07:57 28.08.2019
2901 Fog 19 1012 82 10000 1 170 07:36 28.08.2019
2902 Fog 19 1012 82 10000 1 170 07:18 28.08.2019
2903 Fog 19 1012 100 7000 1 210 06:40 28.08.2019
2904 Fog 19 1012 88 10000 0.5 160 05:47 28.08.2019
2905 Clouds 20 1012 88 10000 1 140 03:55 28.08.2019
2906 Clouds 21 1013 83 10000 2.1 90 01:53 28.08.2019
2907 Clouds 21 1012 88 10000 1.5 80 01:30 28.08.2019
2908 Clouds 22 1013 83 10000 2.6 90 00:42 28.08.2019
2909 Clouds 22 1013 78 10000 2.6 80 00:21 28.08.2019
2910 Clouds 23 1013 73 10000 2.1 80 23:40 27.08.2019
2911 Clouds 23 1013 73 10000 2.1 80 23:22 27.08.2019
2912 Clouds 23 1014 78 10000 1.5 60 22:57 27.08.2019
2913 Clouds 23 1013 69 10000 3.1 60 22:38 27.08.2019
2914 Clouds 24 1014 73 10000 1.5 40 22:20 27.08.2019
2915 Clouds 24 1014 73 10000 1.5 40 21:55 27.08.2019
2916 Clouds 25 1013 61 10000 2.6 50 21:37 27.08.2019
2917 Clouds 26 1014 65 10000 3.1 50 21:18 27.08.2019
2918 Clouds 27 1014 65 10000 3.1 50 20:42 27.08.2019
2919 Clouds 28 1013 51 10000 2.6 40 20:22 27.08.2019
2920 Clouds 29 1014 58 10000 3.6 50 19:59 27.08.2019
2921 Clouds 30 1013 35 10000 2.6 60 19:40 27.08.2019
2922 Clouds 30 1013 35 10000 2.6 60 19:22 27.08.2019
2923 Clouds 31 1014 48 10000 4.6 70 18:55 27.08.2019
2924 Clouds 31 1013 35 10000 2.6 100 18:36 27.08.2019
2925 Clouds 32 1014 45 10000 4.6 90 18:18 27.08.2019
2926 Clouds 32 1014 45 10000 4.6 90 17:42 27.08.2019
2927 Clouds 32 1014 35 10000 3.6 50 17:22 27.08.2019
2928 Clouds 32 1015 40 10000 3.6 110 16:48 27.08.2019
2929 Clouds 32 1014 31 10000 3.1 60 16:28 27.08.2019
2930 Clouds 32 1015 43 10000 4.1 100 15:58 27.08.2019
2931 Clouds 32 1015 31 10000 3.6 90 15:40 27.08.2019
2932 Clear 32 1015 31 10000 3.6 90 15:22 27.08.2019
2933 Clouds 32 1016 43 10000 3.6 110 14:58 27.08.2019
2934 Clear 32 1015 35 10000 3.6 100 14:40 27.08.2019
2935 Clear 32 1015 35 10000 3.6 100 14:20 27.08.2019
2936 Clouds 31 1016 45 10000 3.1 130 13:43 27.08.2019
2937 Clouds 31 1016 45 10000 3.1 130 13:43 27.08.2019
2938 Clouds 31 1016 40 10000 3.6 110 13:24 27.08.2019
2939 Clouds 30 1017 45 10000 3.1 120 12:55 27.08.2019
2940 Clouds 30 1016 42 10000 4.1 120 12:37 27.08.2019
2941 Clouds 30 1017 51 10000 2.6 110 12:18 27.08.2019
2942 Clouds 29 1017 51 10000 2.6 110 11:43 27.08.2019
2943 Clear 28 1016 51 10000 3.1 100 11:25 27.08.2019
2944 Clouds 27 1017 57 10000 2.6 120 10:44 27.08.2019
2945 Clear 25 1016 61 10000 2.6 100 10:22 27.08.2019
2946 Clouds 25 1017 64 10000 2.6 110 09:58 27.08.2019
2947 Clear 23 1016 73 10000 2.1 110 09:39 27.08.2019
2948 Clouds 23 1016 73 10000 2.1 110 09:20 27.08.2019
2949 Clouds 21 1017 68 10000 2.6 90 08:55 27.08.2019
2950 Clouds 20 1016 82 8000 1.5 100 08:37 27.08.2019
2951 Clouds 20 1016 82 8000 1.5 100 08:18 27.08.2019
2952 Mist 18 1016 93 5000 2.1 90 07:40 27.08.2019
2953 Mist 18 1017 77 10000 2.6 80 07:19 27.08.2019
2954 Mist 18 1017 77 10000 2.6 80 06:54 27.08.2019
2955 Mist 18 1016 93 4300 1.5 80 06:25 27.08.2019
2956 Mist 19 1016 93 2700 2.1 50 05:42 27.08.2019
2957 Mist 19 1017 72 10000 2.6 90 04:43 27.08.2019
2958 Mist 19 1017 93 5000 2.1 60 03:35 27.08.2019
2959 Rain 19 1017 93 6000 2.1 50 02:23 27.08.2019
2960 Rain 20 1017 82 10000 2.1 40 01:40 27.08.2019
2961 Rain 20 1017 82 10000 2.1 40 01:21 27.08.2019
2962 Rain 20 1017 77 10000 2.6 40 00:43 27.08.2019
2963 Rain 20 1017 77 10000 2.6 40 00:23 27.08.2019
2964 Rain 21 1017 77 10000 2.6 40 23:39 26.08.2019
2965 Rain 21 1018 83 10000 2.1 30 23:20 26.08.2019
2966 Rain 21 1018 83 10000 2.1 30 22:41 26.08.2019
2967 Rain 22 1017 73 10000 3.6 40 22:20 26.08.2019
2968 Rain 22 1018 83 10000 2.6 40 21:59 26.08.2019
2969 Rain 22 1017 64 10000 3.6 30 21:38 26.08.2019
2970 Rain 23 1017 64 10000 3.6 30 21:20 26.08.2019
2971 Rain 24 1018 73 10000 2.6 10 20:57 26.08.2019
2972 Rain 25 1017 60 10000 3.6 20 20:38 26.08.2019
2973 Rain 25 1017 53 10000 4.6 20 20:19 26.08.2019
2974 Rain 25 1018 65 10000 4.1 20 19:44 26.08.2019
2975 Rain 27 1017 44 10000 4.6 20 19:20 26.08.2019
2976 Rain 29 1018 57 10000 4.1 20 18:59 26.08.2019
2977 Rain 29 1017 42 10000 4.6 20 18:38 26.08.2019
2978 Clear 29 1017 35 10000 4.6 10 18:19 26.08.2019
2979 Clear 30 1018 54 10000 3.6 20 17:55 26.08.2019
2980 Clear 30 1018 35 10000 4.1 30 17:36 26.08.2019
2981 Clear 30 1018 37 10000 3.6 30 17:18 26.08.2019
2982 Clear 30 1018 51 10000 4.1 30 16:55 26.08.2019
2983 Clear 31 1018 35 10000 3.6 50 16:37 26.08.2019
2984 Clear 31 1018 35 10000 3.6 30 16:18 26.08.2019
2985 Clear 31 1018 35 10000 3.1 30 15:41 26.08.2019
2986 Clear 31 1018 35 10000 3.1 40 15:21 26.08.2019
2987 Clear 30 1019 42 10000 2.6 90 14:45 26.08.2019
2988 Clear 30 1019 37 10000 3.6 50 14:23 26.08.2019
2989 Clear 30 1019 42 10000 2.6 100 13:59 26.08.2019
2990 Clear 30 1019 37 10000 3.6 50 13:38 26.08.2019
2991 Clear 29 1019 37 10000 3.1 60 13:19 26.08.2019
2992 Clear 29 1020 48 10000 2.6 80 12:43 26.08.2019
2993 Clear 28 1020 39 10000 3.6 70 12:24 26.08.2019
2994 Clear 28 1020 57 10000 3.6 90 11:56 26.08.2019
2995 Clear 27 1020 47 10000 3.6 50 11:36 26.08.2019
2996 Clear 27 1020 54 10000 3.1 60 11:18 26.08.2019
2997 Clear 25 1020 65 10000 2.6 20 10:42 26.08.2019
2998 Clear 24 1020 69 10000 2.1 80 10:21 26.08.2019
2999 Clear 23 1020 78 10000 1.5 20 09:57 26.08.2019
3000 Clear 22 1019 73 10000 1.5 70 09:38 26.08.2019
3001 Clear 21 1019 77 10000 1.5 20 09:19 26.08.2019
3002 Fog 18 1019 93 6000 0.5 50 08:42 26.08.2019
3003 Fog 17 1020 93 800 1.5 20 08:23 26.08.2019
3004 Fog 17 1020 93 200 1 300 07:59 26.08.2019
3005 Fog 16 1019 93 8000 0.5 50 07:40 26.08.2019
3006 Fog 16 1019 93 800 1 360 07:21 26.08.2019
3007 Fog 16 1019 93 800 0.5 350 06:42 26.08.2019
3008 Fog 16 1019 93 800 0.5 350 06:22 26.08.2019
3009 Fog 16 1019 100 50 1 330 05:49 26.08.2019
3010 Fog 16 1019 100 8000 1 60 04:28 26.08.2019
3011 Fog 17 1020 93 10000 0.5 350 02:55 26.08.2019
3012 Fog 18 1020 93 10000 1 60 01:39 26.08.2019
3013 Fog 18 1020 88 10000 1 60 01:18 26.08.2019
3014 Clear 19 1020 82 10000 1.5 70 00:38 26.08.2019
3015 Clear 19 1020 82 10000 1.5 70 00:19 26.08.2019
3016 Clear 20 1020 72 10000 1.5 70 23:42 25.08.2019
3017 Clear 21 1020 68 10000 1.5 70 23:19 25.08.2019
3018 Clouds 21 1020 77 10000 1 70 22:56 25.08.2019
3019 Clear 21 1020 72 10000 2.6 60 22:38 25.08.2019
3020 Clear 21 1020 73 10000 2.6 70 22:19 25.08.2019
3021 Clouds 22 1020 60 10000 2.6 70 21:56 25.08.2019
3022 Clear 23 1019 68 10000 2.6 50 21:37 25.08.2019
3023 Clear 23 1019 68 10000 2.6 50 21:18 25.08.2019
3024 Clear 25 1019 57 10000 2.6 40 20:40 25.08.2019
3025 Clear 26 1019 50 10000 3.6 50 20:20 25.08.2019
3026 Clouds 27 1020 50 10000 4.1 50 19:58 25.08.2019
3027 Clear 28 1019 33 10000 2.1 60 19:38 25.08.2019
3028 Clear 29 1019 33 10000 2.1 60 19:19 25.08.2019
3029 Clouds 29 1020 42 10000 4.6 50 18:57 25.08.2019
3030 Clear 30 1019 33 10000 2.1 70 18:39 25.08.2019
3031 Clear 30 1019 33 10000 2.1 70 18:21 25.08.2019
3032 Clouds 30 1020 39 10000 3.6 60 17:43 25.08.2019
3033 Clear 30 1019 33 10000 1.5 90 17:25 25.08.2019
3034 Clouds 30 1019 37 10000 1.5 70 16:59 25.08.2019
3035 Clear 30 1019 33 10000 1.5 0 16:37 25.08.2019
3036 Clear 30 1019 33 10000 2.1 70 16:18 25.08.2019
3037 Clear 30 1019 33 10000 3.1 110 15:43 25.08.2019
3038 Clouds 30 1019 35 10000 3.1 140 15:25 25.08.2019
3039 Clouds 30 1020 35 10000 2.6 150 14:43 25.08.2019
3040 Clouds 30 1020 35 10000 2.6 150 14:43 25.08.2019
3041 Clouds 30 1019 33 10000 3.1 140 14:24 25.08.2019
3042 Clouds 30 1020 37 10000 3.6 110 13:57 25.08.2019
3043 Clouds 29 1019 35 10000 2.6 150 13:37 25.08.2019
3044 Clear 29 1019 42 10000 3.1 120 13:19 25.08.2019
3045 Clear 29 1020 47 10000 3.6 120 12:48 25.08.2019
3046 Clear 28 1020 47 10000 2.1 90 12:26 25.08.2019
3047 Clear 27 1020 54 10000 2.6 110 11:59 25.08.2019
3048 Clear 26 1020 50 10000 1.5 120 11:40 25.08.2019
3049 Clear 25 1020 57 10000 2.1 80 11:21 25.08.2019
3050 Clouds 25 1021 57 10000 2.6 100 10:58 25.08.2019
3051 Clear 23 1020 60 10000 2.6 90 10:39 25.08.2019
3052 Clear 23 1020 64 10000 2.1 90 10:19 25.08.2019
3053 Clouds 22 1020 64 10000 3.1 120 09:44 25.08.2019
3054 Clear 20 1019 72 10000 2.1 100 09:25 25.08.2019
3055 Clouds 19 1020 77 10000 1.5 100 08:56 25.08.2019
3056 Fog 18 1019 77 10000 2.1 90 08:38 25.08.2019
3057 Fog 17 1019 82 10000 1.5 90 08:20 25.08.2019
3058 Fog 16 1019 93 10000 1.5 90 07:35 25.08.2019
3059 Fog 15 1020 87 10000 2.1 90 06:46 25.08.2019
3060 Fog 15 1020 87 10000 2.1 90 06:46 25.08.2019
3061 Clear 15 1019 87 10000 2.1 90 05:43 25.08.2019
3062 Clear 16 1019 87 10000 2.1 80 04:35 25.08.2019
3063 Clear 16 1019 87 10000 2.6 80 03:31 25.08.2019
3064 Clear 17 1019 87 10000 2.6 80 02:39 25.08.2019
3065 Clear 18 1020 77 10000 2.6 60 01:24 25.08.2019
3066 Clear 19 1020 82 10000 2.6 60 00:39 25.08.2019
3067 Clear 19 1020 77 10000 2.1 60 00:20 25.08.2019
3068 Clouds 19 1021 68 10000 4.1 80 23:50 24.08.2019
3069 Clear 20 1020 72 10000 2.6 60 23:22 24.08.2019
3070 Clouds 20 1021 60 10000 3.6 80 22:55 24.08.2019
3071 Clear 20 1020 68 10000 2.6 60 22:37 24.08.2019
3072 Clear 20 1020 60 10000 2.1 60 22:19 24.08.2019
3073 Clouds 21 1021 60 10000 3.1 60 21:55 24.08.2019
3074 Clear 22 1019 56 10000 2.1 60 21:37 24.08.2019
3075 Clear 21 1020 64 10000 2.6 60 21:37 24.08.2019
3076 Clear 23 1019 56 10000 2.1 60 21:18 24.08.2019
3077 Clouds 24 1020 47 10000 2.1 70 20:54 24.08.2019
3078 Clear 24 1019 44 10000 1.5 90 20:36 24.08.2019
3079 Clear 26 1019 41 10000 1.5 100 20:18 24.08.2019
3080 Clear 26 1020 39 10000 2.6 90 19:55 24.08.2019
3081 Clear 27 1019 36 10000 2.6 110 19:37 24.08.2019
3082 Clear 27 1020 37 10000 3.1 100 19:18 24.08.2019
3083 Clear 28 1020 34 10000 3.1 100 18:41 24.08.2019
3084 Clear 29 1020 32 10000 3.1 110 18:21 24.08.2019
3085 Clear 29 1020 32 10000 3.1 110 18:21 24.08.2019
3086 Clear 29 1021 34 10000 5.7 100 17:44 24.08.2019
3087 Clear 29 1020 30 10000 3.6 110 17:24 24.08.2019
3088 Clear 29 1022 34 10000 4.6 120 16:51 24.08.2019
3089 Clear 29 1021 30 10000 3.6 110 16:21 24.08.2019
3090 Clear 29 1022 32 10000 5.1 100 15:59 24.08.2019
3091 Clear 29 1022 32 10000 5.1 100 15:59 24.08.2019
3092 Clear 29 1021 28 10000 4.1 140 15:40 24.08.2019
3093 Clear 29 1021 30 10000 4.1 110 15:22 24.08.2019
3094 Clear 28 1021 30 10000 4.1 120 14:43 24.08.2019
3095 Clear 28 1021 30 10000 4.1 120 14:23 24.08.2019
3096 Clear 28 1023 47 10000 4.1 110 13:59 24.08.2019
3097 Clear 28 1023 47 10000 4.1 110 13:59 24.08.2019
3098 Clear 28 1022 37 10000 3.6 100 13:40 24.08.2019
3099 Clear 27 1022 42 10000 3.1 100 13:21 24.08.2019
3100 Clear 27 1023 50 10000 4.1 110 12:58 24.08.2019
3101 Clear 26 1022 47 10000 2.6 90 12:39 24.08.2019
3102 Clear 25 1022 50 10000 3.1 100 12:20 24.08.2019
3103 Clear 24 1024 50 10000 4.1 110 11:45 24.08.2019
3104 Clear 23 1023 60 10000 3.6 110 11:23 24.08.2019
3105 Clear 22 1024 60 10000 4.1 100 10:53 24.08.2019
3106 Clear 21 1023 68 10000 2.6 90 10:24 24.08.2019
3107 Clear 20 1024 72 10000 3.6 90 09:58 24.08.2019
3108 Clear 19 1023 72 10000 3.6 90 09:38 24.08.2019
3109 Clouds 18 1023 77 10000 3.6 90 09:18 24.08.2019
3110 Fog 17 1023 82 10000 3.6 80 08:41 24.08.2019
3111 Fog 16 1023 87 9000 2.6 70 08:23 24.08.2019
3112 Fog 15 1024 93 8000 2.1 70 07:50 24.08.2019
3113 Fog 14 1023 93 9000 2.6 80 07:28 24.08.2019
3114 Fog 14 1023 93 9000 2.6 80 06:31 24.08.2019
3115 Fog 14 1024 93 6000 2.1 70 05:47 24.08.2019
3116 Fog 14 1023 93 7000 2.6 80 05:29 24.08.2019
3117 Fog 15 1024 93 9000 3.1 80 03:39 24.08.2019
3118 Fog 15 1024 93 10000 2.6 80 02:33 24.08.2019
3119 Fog 15 1025 93 10000 1 90 01:52 24.08.2019
3120 Clouds 16 1024 93 10000 2.6 80 01:22 24.08.2019
3121 Clouds 16 1025 88 10000 2.1 90 00:44 24.08.2019
3122 Clouds 16 1024 93 10000 2.6 60 00:21 24.08.2019
3123 Clouds 17 1024 93 10000 2.6 70 23:43 23.08.2019
3124 Clouds 17 1024 93 10000 2.1 50 23:19 23.08.2019
3125 Clouds 18 1024 93 10000 2.6 40 22:44 23.08.2019
3126 Clouds 18 1024 88 10000 3.1 40 22:24 23.08.2019
3127 Clouds 19 1025 82 10000 2.6 50 21:54 23.08.2019
3128 Clouds 19 1025 82 10000 3.1 40 21:36 23.08.2019
3129 Clouds 19 1025 82 10000 3.1 40 21:36 23.08.2019
3130 Clouds 20 1025 77 10000 3.1 40 21:18 23.08.2019
3131 Clouds 21 1025 72 10000 2.1 30 20:45 23.08.2019
3132 Clouds 21 1024 68 10000 3.6 20 20:27 23.08.2019
3133 Clouds 22 1025 68 10000 3.1 20 19:46 23.08.2019
3134 Clouds 22 1025 68 10000 3.1 20 19:45 23.08.2019
3135 Clouds 23 1024 64 10000 2.1 30 19:19 23.08.2019
3136 Clouds 23 1024 64 10000 2.1 30 19:19 23.08.2019
3137 Clouds 24 1025 64 10000 4.1 10 18:55 23.08.2019
3138 Clouds 24 1025 60 10000 2.6 10 18:36 23.08.2019
3139 Clouds 24 1025 64 10000 2.6 40 18:18 23.08.2019
3140 Clouds 25 1025 60 10000 2.1 50 17:41 23.08.2019
3141 Clouds 25 1025 53 10000 2.1 50 17:23 23.08.2019
3142 Clouds 25 1025 60 10000 2.1 340 16:49 23.08.2019
3143 Clouds 25 1025 50 10000 1.5 280 16:30 23.08.2019
3144 Clouds 25 1025 53 10000 2.1 310 15:59 23.08.2019
3145 Clouds 25 1025 50 10000 1.5 0 15:40 23.08.2019
3146 Clouds 25 1025 50 10000 2.1 160 15:21 23.08.2019
3147 Clouds 25 1026 53 10000 3.1 230 14:56 23.08.2019
3148 Clouds 24 1025 50 10000 2.1 250 14:38 23.08.2019
3149 Clouds 24 1026 53 10000 2.1 240 14:20 23.08.2019
3150 Clouds 24 1026 53 10000 2.6 250 13:42 23.08.2019
3151 Clouds 24 1026 53 10000 2.6 260 13:23 23.08.2019
3152 Clouds 24 1026 56 10000 3.1 230 12:59 23.08.2019
3153 Clouds 23 1026 60 10000 2.1 230 12:41 23.08.2019
3154 Clouds 23 1026 60 10000 2.6 200 12:22 23.08.2019
3155 Clouds 22 1026 60 10000 3.1 230 11:58 23.08.2019
3156 Clouds 21 1026 64 10000 2.1 180 11:39 23.08.2019
3157 Clouds 21 1026 68 10000 2.6 220 11:19 23.08.2019
3158 Clouds 20 1026 63 10000 3.1 220 10:57 23.08.2019
3159 Clouds 20 1026 72 10000 2.1 240 10:39 23.08.2019
3160 Clouds 19 1026 72 10000 2.6 230 10:19 23.08.2019
3161 Clouds 18 1026 72 10000 2.1 230 09:44 23.08.2019
3162 Clouds 17 1026 77 10000 3.1 210 09:25 23.08.2019
3163 Clouds 15 1025 77 10000 1.5 210 08:46 23.08.2019
3164 Clouds 14 1025 87 10000 2.6 200 08:22 23.08.2019
3165 Clouds 13 1025 81 10000 1 220 07:59 23.08.2019
3166 Fog 13 1025 93 10000 2.1 210 07:41 23.08.2019
3167 Fog 12 1025 93 10000 2.1 200 07:23 23.08.2019
3168 Fog 12 1025 81 10000 2.1 200 06:43 23.08.2019
3169 Fog 12 1025 93 10000 2.1 190 06:22 23.08.2019
3170 Fog 12 1025 81 10000 1.5 210 05:45 23.08.2019
3171 Fog 12 1025 87 10000 1 210 05:25 23.08.2019
3172 Fog 12 1025 87 10000 1.5 180 03:59 23.08.2019
3173 Clouds 13 1025 93 10000 1 190 02:39 23.08.2019
3174 Clouds 13 1025 87 10000 0.5 180 02:21 23.08.2019
3175 Clouds 13 1025 93 10000 0.5 190 01:36 23.08.2019
3176 Clear 14 1025 81 10000 1.5 210 00:43 23.08.2019
3177 Clear 14 1025 81 10000 1.5 190 00:18 23.08.2019
3178 Clouds 15 1025 87 10000 1 160 23:43 22.08.2019
3179 Clear 15 1025 82 10000 1.5 210 23:22 22.08.2019
3180 Clouds 16 1025 82 10000 0.5 0 22:54 22.08.2019
3181 Clear 16 1025 82 10000 1.5 210 22:36 22.08.2019
3182 Clear 17 1025 77 10000 1 210 22:18 22.08.2019
3183 Clear 17 1025 72 10000 2.1 220 21:41 22.08.2019
3184 Clear 18 1024 67 10000 1.5 230 21:23 22.08.2019
3185 Clouds 20 1024 64 10000 1.5 270 20:59 22.08.2019
3186 Clear 20 1024 59 10000 2.6 240 20:41 22.08.2019
3187 Clear 21 1024 56 10000 2.6 250 20:20 22.08.2019
3188 Clouds 21 1024 64 10000 3.6 320 19:59 22.08.2019
3189 Clear 21 1024 49 10000 3.6 270 19:40 22.08.2019
3190 Clear 23 1024 49 10000 3.6 270 19:21 22.08.2019
3191 Clouds 23 1024 60 10000 4.6 310 18:59 22.08.2019
3192 Clear 23 1024 49 10000 5.1 250 18:40 22.08.2019
3193 Clear 24 1024 47 10000 4.6 260 18:20 22.08.2019
3194 Clouds 24 1023 33 10000 4.1 240 17:57 22.08.2019
3195 Clouds 24 1023 33 10000 4.1 240 17:57 22.08.2019
3196 Clear 24 1024 41 10000 5.1 250 17:39 22.08.2019
3197 Clouds 25 1023 36 10000 5.1 240 17:19 22.08.2019
3198 Clouds 25 1023 36 10000 5.1 240 16:56 22.08.2019
3199 Clear 25 1024 38 10000 5.7 250 16:37 22.08.2019
3200 Clear 25 1024 38 10000 6.2 240 16:19 22.08.2019
3201 Clear 25 1024 38 10000 6.2 240 16:19 22.08.2019
3202 Clouds 25 1024 36 10000 5.1 240 15:42 22.08.2019
3203 Clouds 25 1024 44 10000 5.1 260 15:24 22.08.2019
3204 Clouds 25 1024 44 10000 5.1 260 15:24 22.08.2019
3205 Clouds 25 1024 44 10000 5.1 260 15:24 22.08.2019
3206 Clouds 25 1024 36 10000 5.7 220 14:59 22.08.2019
3207 Clouds 25 1024 36 10000 5.7 220 14:59 22.08.2019
3208 Clouds 25 1024 36 10000 5.7 220 14:59 22.08.2019
3209 Clouds 25 1024 36 10000 5.7 220 14:59 22.08.2019
3210 Clouds 25 1024 44 10000 5.7 230 14:41 22.08.2019
3211 Clouds 24 1024 41 10000 6.7 230 14:22 22.08.2019
3212 Clouds 24 1024 38 10000 4.6 220 13:58 22.08.2019
3213 Clouds 24 1024 41 10000 7.2 220 13:40 22.08.2019
3214 Clouds 24 1024 44 10000 5.1 200 13:20 22.08.2019
3215 Clouds 24 1024 44 10000 5.1 200 13:20 22.08.2019
3216 Clouds 24 1024 43 10000 4.1 210 12:56 22.08.2019
3217 Clouds 23 1024 44 10000 4.6 200 12:38 22.08.2019
3218 Clouds 22 1024 46 10000 4.1 190 12:19 22.08.2019
3219 Clouds 22 1024 46 10000 4.6 200 11:42 22.08.2019
3220 Clouds 21 1025 52 10000 3.6 200 11:21 22.08.2019
3221 Clouds 20 1025 55 10000 2.6 190 10:58 22.08.2019
3222 Clouds 19 1025 56 10000 4.1 210 10:40 22.08.2019
3223 Clouds 19 1025 55 10000 2.6 200 10:22 22.08.2019
3224 Clouds 18 1025 63 10000 3.1 180 09:57 22.08.2019
3225 Clouds 16 1025 63 10000 3.1 180 09:39 22.08.2019
3226 Clouds 16 1025 67 10000 2.1 180 09:20 22.08.2019
3227 Clouds 15 1025 71 10000 2.1 170 08:56 22.08.2019
3228 Clouds 13 1025 76 10000 2.6 150 08:37 22.08.2019
3229 Clouds 13 1025 82 10000 2.6 160 08:19 22.08.2019
3230 Clouds 11 1025 93 10000 0.5 0 07:39 22.08.2019
3231 Clouds 11 1025 93 10000 0.5 0 07:19 22.08.2019
3232 Clouds 11 1025 93 10000 0.5 0 06:52 22.08.2019
3233 Fog 10 1025 100 10000 1 0 06:24 22.08.2019
3234 Fog 10 1025 100 10000 0.5 130 05:40 22.08.2019
3235 Fog 11 1026 93 9000 0.5 120 04:29 22.08.2019
3236 Fog 12 1026 87 10000 1 140 02:47 22.08.2019
3237 Fog 12 1026 93 10000 4.53 168.298 02:29 22.08.2019
3238 Fog 13 1026 100 10000 4.79 176.675 01:23 22.08.2019
3239 Fog 13 1027 93 10000 1 120 00:44 22.08.2019
3240 Clouds 13 1027 93 10000 0.5 210 00:26 22.08.2019
3241 Clear 13 1027 87 10000 1.5 90 23:51 21.08.2019
3242 Clear 14 1027 93 10000 2.92 143.488 23:32 21.08.2019
3243 Clouds 14 1027 82 10000 2.1 90 22:59 21.08.2019
3244 Clear 14 1027 93 10000 2.92 143.488 22:41 21.08.2019
3245 Clear 15 1027 87 10000 0.5 210 22:22 21.08.2019
3246 Clear 15 1027 87 10000 0.5 210 22:22 21.08.2019
3247 Clouds 16 1027 72 10000 2.1 110 21:58 21.08.2019
3248 Clouds 16 1027 82 10000 0.5 210 21:39 21.08.2019
3249 Clouds 17 1027 72 10000 1.4 48.54 21:20 21.08.2019
3250 Clouds 18 1027 68 10000 2.6 90 20:59 21.08.2019
3251 Clouds 19 1026 59 10000 1 210 20:41 21.08.2019
3252 Clouds 19 1026 56 10000 1.5 240 20:23 21.08.2019
3253 Clouds 20 1027 63 10000 3.1 90 19:56 21.08.2019
3254 Clouds 20 1026 49 10000 3.6 240 19:38 21.08.2019
3255 Clouds 21 1026 49 10000 3.6 240 19:19 21.08.2019
3256 Clouds 21 1027 52 10000 2.1 200 18:43 21.08.2019
3257 Clear 21 1027 43 10000 2.6 280 18:23 21.08.2019
3258 Clear 21 1027 43 10000 2.6 280 18:23 21.08.2019
3259 Clouds 21 1027 49 10000 1.5 0 17:56 21.08.2019
3260 Clear 21 1027 46 10000 2.6 280 17:37 21.08.2019
3261 Clear 21 1027 46 10000 3.1 280 17:19 21.08.2019
3262 Clouds 21 1027 49 10000 4.6 270 16:44 21.08.2019
3263 Clouds 21 1027 49 10000 4.6 270 16:44 21.08.2019
3264 Clear 21 1027 46 10000 3.6 240 16:24 21.08.2019
3265 Clouds 21 1027 43 10000 3.6 260 15:59 21.08.2019
3266 Clear 21 1027 46 10000 4.1 250 15:41 21.08.2019
3267 Clouds 21 1027 43 10000 5.1 240 15:21 21.08.2019
3268 Clouds 21 1027 43 10000 4.1 240 14:57 21.08.2019
3269 Clouds 21 1027 49 10000 2.6 0 14:39 21.08.2019
3270 Clear 21 1027 52 10000 4.1 230 14:20 21.08.2019
3271 Clouds 21 1027 40 10000 4.1 240 13:56 21.08.2019
3272 Clear 21 1027 60 10000 4.1 240 13:38 21.08.2019
3273 Clouds 20 1027 49 10000 4.1 240 13:19 21.08.2019
3274 Clouds 20 1027 45 10000 4.1 250 12:43 21.08.2019
3275 Clouds 20 1027 56 10000 4.6 240 12:25 21.08.2019
3276 Clouds 20 1027 55 10000 4.1 250 11:59 21.08.2019
3277 Clouds 20 1027 60 10000 4.6 200 11:41 21.08.2019
3278 Clear 19 1028 63 10000 3.6 210 11:22 21.08.2019
3279 Clouds 19 1027 72 10000 3.6 220 10:57 21.08.2019
3280 Clear 18 1028 68 10000 3.6 210 10:38 21.08.2019
3281 Clear 17 1027 77 10000 2.6 210 10:20 21.08.2019
3282 Clouds 17 1027 77 10000 3.1 230 09:57 21.08.2019
3283 Clear 15 1027 87 10000 2.6 190 09:37 21.08.2019
3284 Clear 15 1027 93 10000 2.1 210 09:19 21.08.2019
3285 Clouds 13 1027 87 10000 1.5 230 08:46 21.08.2019
3286 Clear 12 1027 100 8000 1.5 210 08:24 21.08.2019
3287 Fog 11 1026 93 10000 1.5 220 07:44 21.08.2019
3288 -273 0 0 0 0 0 07:25 21.08.2019
3289 Fog 10 1026 93 10000 1.5 220 06:51 21.08.2019
3290 Mist 11 1026 93 4300 1.5 210 06:32 21.08.2019
3291 Clear 10 1026 87 10000 2.1 220 05:57 21.08.2019
3292 Clear 11 1026 100 10000 1.5 200 05:28 21.08.2019
3293 Clear 11 1026 100 10000 1.5 190 04:35 21.08.2019
3294 Clear 12 1025 87 10000 1.5 210 01:56 21.08.2019
3295 Clear 12 1025 93 10000 1.5 210 01:30 21.08.2019
3296 Clear 13 1025 100 10000 2.1 210 00:41 21.08.2019
3297 Clear 13 1025 93 10000 1.5 220 00:20 21.08.2019
3298 Clouds 13 1024 87 10000 2.1 220 23:45 20.08.2019
3299 Clear 14 1024 87 10000 2.1 230 23:20 20.08.2019
3300 Clouds 14 1024 77 10000 1.5 240 22:59 20.08.2019
3301 Clouds 14 1024 77 10000 1.5 240 22:59 20.08.2019
3302 Clear 14 1024 87 10000 2.1 240 22:40 20.08.2019
3303 Clear 14 1024 87 10000 2.1 240 22:40 20.08.2019
3304 Clear 15 1024 82 10000 2.6 240 22:21 20.08.2019
3305 Clouds 15 1023 72 10000 1.5 240 21:58 20.08.2019
3306 Clear 16 1024 82 10000 2.1 250 21:39 20.08.2019
3307 Clear 16 1024 72 10000 2.1 260 21:19 20.08.2019
3308 Clouds 17 1023 67 10000 2.6 280 20:59 20.08.2019
3309 Clear 17 1023 67 10000 2.6 260 20:41 20.08.2019
3310 Clear 18 1023 63 10000 2.6 270 20:22 20.08.2019
3311 Clear 19 1023 55 10000 3.6 280 19:40 20.08.2019
3312 Clear 19 1022 55 10000 4.6 270 19:22 20.08.2019
3313 Clear 19 1022 55 10000 4.6 270 19:22 20.08.2019
3314 Clouds 19 1022 55 10000 4.6 300 18:58 20.08.2019
3315 Rain 19 1022 56 10000 4.1 270 18:40 20.08.2019
3316 Rain 20 1021 49 10000 6.2 280 18:19 20.08.2019
3317 Rain 20 1021 49 10000 6.2 280 17:57 20.08.2019
3318 Rain 20 1022 49 10000 5.1 270 17:38 20.08.2019
3319 Rain 20 1021 49 10000 4.6 290 17:19 20.08.2019
3320 Rain 20 1021 49 10000 4.6 290 16:46 20.08.2019
3321 Rain 20 1021 52 10000 5.1 270 16:26 20.08.2019
3322 Clouds 20 1021 52 10000 3.6 250 15:57 20.08.2019
3323 Clouds 20 1021 52 10000 6.2 260 15:38 20.08.2019
3324 Clouds 20 1021 52 10000 6.2 260 15:18 20.08.2019
3325 Rain 20 1021 56 10000 6.2 260 14:43 20.08.2019
3326 Rain 19 1021 56 10000 6.2 260 14:22 20.08.2019
3327 Rain 20 1021 56 10000 6.2 260 14:22 20.08.2019
3328 Clouds 20 1020 49 10000 4.6 260 13:58 20.08.2019
3329 Clouds 20 1020 53 10000 6.2 240 13:39 20.08.2019
3330 Clouds 20 1020 49 10000 5.1 250 13:20 20.08.2019
3331 Clouds 20 1020 49 10000 5.1 250 12:54 20.08.2019
3332 Clouds 20 1020 60 10000 5.7 240 12:36 20.08.2019
3333 Clouds 20 1020 63 10000 4.1 240 12:18 20.08.2019
3334 Rain 19 1020 63 10000 4.1 240 11:42 20.08.2019
3335 Rain 19 1020 68 10000 5.1 240 11:21 20.08.2019
3336 Clouds 19 1019 72 10000 4.6 230 10:57 20.08.2019
3337 Clear 18 1019 72 10000 4.6 230 10:39 20.08.2019
3338 Clear 18 1019 72 10000 4.6 230 10:39 20.08.2019
3339 Clear 17 1019 72 10000 4.6 230 10:20 20.08.2019
3340 Clouds 17 1019 77 10000 4.6 220 09:58 20.08.2019
3341 Clear 16 1019 87 10000 4.6 210 09:40 20.08.2019
3342 Clear 16 1019 87 10000 4.6 210 09:40 20.08.2019
3343 Clear 16 1019 87 10000 4.6 210 09:21 20.08.2019
3344 Clear 16 1019 87 10000 4.6 210 09:21 20.08.2019
3345 Clouds 14 1019 87 10000 3.6 220 08:42 20.08.2019
3346 Clear 14 1019 93 10000 3.6 210 08:23 20.08.2019
3347 Clouds 13 1018 87 10000 3.6 220 07:57 20.08.2019
3348 Clouds 13 1018 93 10000 2.6 220 07:38 20.08.2019
3349 Clouds 13 1018 93 10000 2.6 220 07:20 20.08.2019
3350 Clouds 13 1018 93 10000 3.6 200 06:43 20.08.2019
3351 Clear 13 1017 93 10000 3.6 210 06:20 20.08.2019
3352 Clouds 13 1017 87 10000 3.1 210 05:42 20.08.2019
3353 Clear 13 1017 87 10000 3.1 190 04:26 20.08.2019
3354 Clouds 14 1017 87 10000 2.1 170 02:50 20.08.2019
3355 Clouds 14 1017 87 10000 2.6 220 01:53 20.08.2019
3356 Clear 14 1016 87 10000 4.6 190 01:21 20.08.2019
3357 Clouds 14 1017 82 10000 3.1 210 00:45 20.08.2019
3358 Clouds 15 1016 87 10000 3.6 190 00:24 20.08.2019
3359 Clouds 15 1016 82 10000 2.6 200 23:45 19.08.2019
3360 Clear 15 1016 82 10000 2.6 200 23:19 19.08.2019
3361 Clouds 15 1016 82 10000 2.1 190 22:58 19.08.2019
3362 Clear 15 1016 82 10000 2.1 210 22:40 19.08.2019
3363 Clear 16 1016 82 10000 2.1 210 22:21 19.08.2019
3364 Clouds 16 1016 82 10000 1.5 200 21:57 19.08.2019
3365 Clouds 16 1016 82 10000 1.5 200 21:57 19.08.2019
3366 Clear 17 1016 67 10000 3.6 240 21:38 19.08.2019
3367 Clouds 18 1015 72 10000 1 270 21:19 19.08.2019
3368 Clouds 17 1015 72 10000 1 270 20:56 19.08.2019
3369 Rain 18 1015 59 10000 4.6 240 20:37 19.08.2019
3370 Rain 19 1015 59 10000 4.6 240 20:19 19.08.2019
3371 Rain 19 1015 68 10000 5.1 290 19:55 19.08.2019
3372 Rain 19 1015 68 10000 5.1 290 19:55 19.08.2019
3373 Rain 20 1015 56 10000 5.7 240 19:36 19.08.2019
3374 Rain 20 1015 52 10000 6.7 240 19:18 19.08.2019
3375 Rain 20 1015 52 10000 8.2 240 18:41 19.08.2019
3376 Rain 20 1015 52 10000 8.2 240 18:23 19.08.2019
3377 Clouds 21 1014 52 10000 4.1 250 17:57 19.08.2019
3378 Clouds 21 1014 49 10000 7.7 240 17:38 19.08.2019
3379 Clouds 21 1014 49 10000 7.7 240 17:19 19.08.2019
3380 Clouds 21 1014 49 10000 6.7 230 16:54 19.08.2019
3381 Rain 21 1014 49 10000 8.7 250 16:36 19.08.2019
3382 Rain 21 1014 49 10000 9.8 230 16:18 19.08.2019
3383 Rain 20 1014 56 10000 6.2 230 15:45 19.08.2019
3384 Rain 20 1014 52 10000 7.2 250 15:20 19.08.2019
3385 Rain 20 1013 68 10000 5.7 230 14:56 19.08.2019
3386 Clouds 21 1013 56 10000 7.2 210 14:37 19.08.2019
3387 Clouds 21 1013 52 10000 8.2 240 14:19 19.08.2019
3388 Clouds 20 1012 52 10000 7.2 230 13:56 19.08.2019
3389 Clouds 20 1013 52 10000 9.8 230 13:36 19.08.2019
3390 Clouds 20 1012 56 10000 9.3 230 13:18 19.08.2019
3391 Clouds 20 1012 60 10000 7.7 230 12:43 19.08.2019
3392 Clouds 20 1012 60 10000 7.7 230 12:43 19.08.2019
3393 Clouds 20 1012 63 10000 8.7 230 12:23 19.08.2019
3394 Clouds 19 1012 72 10000 6.2 230 11:57 19.08.2019
3395 Clouds 19 1012 60 10000 9.3 230 11:37 19.08.2019
3396 Clouds 19 1012 68 10000 7.7 220 11:18 19.08.2019
3397 Clouds 18 1011 72 10000 7.2 230 10:40 19.08.2019
3398 Clouds 18 1011 72 10000 7.2 230 10:40 19.08.2019
3399 Clouds 17 1011 77 10000 7.2 220 10:19 19.08.2019
3400 Clouds 17 1011 77 10000 5.7 210 09:57 19.08.2019
3401 Clouds 17 1011 82 10000 6.2 210 09:39 19.08.2019
3402 Clouds 17 1011 82 10000 6.2 210 09:39 19.08.2019
3403 Clouds 16 1011 82 10000 6.2 210 09:21 19.08.2019
3404 Clouds 15 1010 87 10000 5.7 210 08:54 19.08.2019
3405 Clouds 15 1011 87 10000 5.7 210 08:36 19.08.2019
3406 Clouds 14 1010 87 10000 5.7 210 08:18 19.08.2019
3407 Rain 14 1010 93 10000 5.1 210 07:42 19.08.2019
3408 Rain 14 1010 93 10000 5.7 200 07:23 19.08.2019
3409 Rain 13 1009 93 10000 5.7 200 06:42 19.08.2019
3410 Clouds 13 1009 93 10000 5.1 200 06:18 19.08.2019
3411 Clouds 14 1009 87 10000 4.1 210 04:46 19.08.2019
3412 Clouds 14 1009 87 10000 4.6 200 04:22 19.08.2019
3413 Clear 14 1008 87 10000 3.6 210 03:20 19.08.2019
3414 Clouds 14 1008 93 10000 2.1 210 01:47 19.08.2019
3415 Clear 15 1008 93 10000 2.1 220 01:21 19.08.2019
3416 Clouds 15 1008 87 10000 2.6 210 00:43 19.08.2019
3417 Clear 15 1008 93 10000 3.1 200 00:20 19.08.2019
3418 Clouds 15 1008 93 10000 2.1 200 23:41 18.08.2019
3419 Clouds 16 1007 87 10000 1.5 210 23:21 18.08.2019
3420 Clear 16 1007 87 10000 2.1 200 22:40 18.08.2019
3421 Clear 16 1007 82 10000 2.6 240 22:22 18.08.2019
3422 Clouds 16 1007 82 10000 2.1 210 21:59 18.08.2019
3423 Clouds 17 1007 87 10000 2.6 210 21:41 18.08.2019
3424 Clouds 17 1006 82 10000 2.6 210 21:22 18.08.2019
3425 Clouds 18 1006 72 10000 2.1 230 20:59 18.08.2019
3426 Rain 19 1006 72 10000 3.6 230 20:41 18.08.2019
3427 Clouds 19 1006 72 10000 4.1 240 20:23 18.08.2019
3428 Clouds 19 1005 63 10000 3.6 250 19:54 18.08.2019
3429 Rain 18 1006 68 10000 5.7 240 19:36 18.08.2019
3430 Clouds 19 1005 64 10000 5.7 230 19:18 18.08.2019
3431 Clouds 19 1005 68 10000 4.6 240 18:41 18.08.2019
3432 Clouds 19 1005 72 10000 6.2 230 18:23 18.08.2019
3433 Clouds 19 1005 68 10000 4.1 240 17:57 18.08.2019
3434 Clouds 19 1005 72 10000 5.7 240 17:39 18.08.2019
3435 Clouds 19 1005 72 10000 4.6 230 17:19 18.08.2019
3436 Clouds 19 1004 63 10000 4.6 240 16:56 18.08.2019
3437 Clouds 18 1004 68 10000 4.6 220 16:38 18.08.2019
3438 Rain 18 1005 82 6000 5.7 240 16:19 18.08.2019
3439 Clouds 19 1004 68 10000 4.6 220 15:55 18.08.2019
3440 Clouds 19 1004 68 10000 5.1 230 15:37 18.08.2019
3441 Clouds 19 1004 68 10000 6.2 200 15:19 18.08.2019
3442 Clouds 18 1003 72 10000 4.6 200 14:40 18.08.2019
3443 Clouds 18 1003 72 10000 5.7 190 14:20 18.08.2019
3444 Clouds 18 1003 82 10000 4.6 200 13:59 18.08.2019
3445 Rain 18 1003 82 10000 4.6 200 13:41 18.08.2019
3446 Rain 17 1003 88 10000 4.6 200 13:22 18.08.2019
3447 Rain 17 1004 77 10000 5.1 200 12:57 18.08.2019
3448 Drizzle 16 1004 88 10000 4.1 200 12:38 18.08.2019
3449 Drizzle 16 1004 88 10000 4.1 200 12:38 18.08.2019
3450 Drizzle 16 1004 88 10000 4.1 200 12:20 18.08.2019
3451 Drizzle 16 1004 88 10000 4.1 200 12:20 18.08.2019
3452 Rain 16 1003 88 10000 4.6 200 11:42 18.08.2019
3453 Rain 16 1003 88 10000 4.6 210 11:23 18.08.2019
3454 Rain 17 1004 93 8000 4.6 180 10:57 18.08.2019
3455 Rain 16 1003 88 9000 4.6 190 10:39 18.08.2019
3456 Rain 16 1003 88 8000 4.1 190 10:19 18.08.2019
3457 Rain 15 1003 93 8000 4.6 180 09:43 18.08.2019
3458 Rain 15 1004 93 9000 4.6 180 09:20 18.08.2019
3459 Rain 16 1004 100 8000 2.6 190 08:44 18.08.2019
3460 Rain 15 1004 93 10000 4.1 180 08:25 18.08.2019
3461 Rain 15 1004 93 8000 2.1 180 07:58 18.08.2019
3462 Drizzle 15 1004 93 8000 2.6 190 07:30 18.08.2019
3463 Drizzle 15 1004 93 8000 2.6 190 06:47 18.08.2019
3464 Clouds 15 1005 93 8000 2.6 190 05:43 18.08.2019
3465 Clouds 15 1005 93 10000 3.1 190 04:18 18.08.2019
3466 Clouds 15 1005 93 10000 3.1 200 03:20 18.08.2019
3467 Clouds 16 1005 93 10000 3.1 210 02:42 18.08.2019
3468 Clouds 16 1005 93 10000 3.1 200 02:18 18.08.2019
3469 Clouds 16 1006 93 10000 2.6 210 01:28 18.08.2019
3470 Clouds 16 1005 100 10000 2.6 210 00:43 18.08.2019
3471 Rain 16 1006 93 10000 2.6 210 00:24 18.08.2019
3472 Clouds 16 1005 93 10000 2.1 210 23:58 17.08.2019
3473 Rain 17 1006 93 10000 3.1 200 23:38 17.08.2019
3474 Rain 17 1006 93 10000 3.1 210 23:20 17.08.2019
3475 Clouds 17 1005 88 10000 3.6 200 22:58 17.08.2019
3476 Rain 17 1005 93 10000 3.6 210 22:40 17.08.2019
3477 Rain 17 1005 93 10000 4.6 210 22:21 17.08.2019
3478 -273 0 0 0 0 0 21:55 17.08.2019
3479 Rain 18 1005 93 10000 4.1 200 21:37 17.08.2019
3480 Rain 18 1005 88 10000 3.6 190 21:19 17.08.2019
3481 Rain 19 1005 88 10000 4.6 200 20:39 17.08.2019
3482 Clouds 20 1005 88 10000 5.7 210 20:20 17.08.2019
3483 Rain 19 1005 77 10000 6.2 200 19:56 17.08.2019
3484 Rain 20 1005 82 10000 4.6 200 19:38 17.08.2019
3485 Clouds 20 1005 77 10000 5.7 210 19:19 17.08.2019
3486 Clouds 20 1005 88 10000 5.1 200 18:41 17.08.2019
3487 Rain 20 1005 82 10000 6.2 190 18:19 17.08.2019
3488 Clouds 20 1005 68 10000 6.2 210 17:56 17.08.2019
3489 Clouds 21 1005 77 10000 6.7 200 17:38 17.08.2019
3490 Clouds 21 1005 73 10000 7.2 200 17:20 17.08.2019
3491 Clouds 21 1005 73 10000 7.2 200 16:44 17.08.2019
3492 Clouds 21 1005 77 10000 7.2 200 16:26 17.08.2019
3493 Clouds 21 1005 77 10000 6.2 210 15:59 17.08.2019
3494 Clouds 21 1005 73 10000 6.7 200 15:40 17.08.2019
3495 Clouds 21 1005 77 10000 6.7 200 15:21 17.08.2019
3496 Clouds 21 1005 77 10000 8.2 210 14:43 17.08.2019
3497 Clouds 20 1005 77 10000 7.2 210 14:23 17.08.2019
3498 Clouds 20 1005 82 10000 7.2 210 13:56 17.08.2019
3499 Drizzle 19 1005 82 10000 7.2 210 13:37 17.08.2019
3500 Drizzle 19 1005 88 10000 7.2 200 13:18 17.08.2019
3501 Clouds 19 1005 88 10000 6.2 210 12:42 17.08.2019
3502 Clouds 18 1005 93 6000 6.2 210 12:19 17.08.2019
3503 Mist 18 1005 93 3600 5.7 210 11:57 17.08.2019
3504 Drizzle 18 1005 93 3600 5.7 210 11:36 17.08.2019
3505 Drizzle 17 1005 93 8000 4.6 200 11:18 17.08.2019
3506 Clouds 17 1005 93 10000 6.2 200 10:39 17.08.2019
3507 Drizzle 17 1005 93 10000 5.1 200 10:20 17.08.2019
3508 Drizzle 17 1005 88 10000 5.1 190 09:52 17.08.2019
3509 Drizzle 17 1005 93 3400 5.7 200 09:32 17.08.2019
3510 Mist 17 1005 93 10000 4.6 190 08:57 17.08.2019
3511 Drizzle 16 1004 88 10000 5.1 200 08:27 17.08.2019
3512 Drizzle 16 1005 87 9000 4.6 190 07:55 17.08.2019
3513 Drizzle 16 1004 87 10000 5.1 190 07:36 17.08.2019
3514 Drizzle 16 1004 87 10000 5.1 190 07:18 17.08.2019
3515 Drizzle 16 1006 87 10000 4.1 170 05:57 17.08.2019
3516 Drizzle 16 1006 87 10000 4.6 170 04:31 17.08.2019
3517 Drizzle 16 1006 87 10000 4.1 170 03:36 17.08.2019
3518 Drizzle 17 1009 77 10000 3.1 170 01:59 17.08.2019
3519 Drizzle 17 1008 82 10000 4.6 180 01:36 17.08.2019
3520 Drizzle 17 1008 82 10000 4.6 180 01:18 17.08.2019
3521 Drizzle 17 1009 82 10000 3.6 160 00:39 17.08.2019
3522 Drizzle 17 1010 72 10000 3.1 170 23:57 16.08.2019
3523 Drizzle 17 1010 82 10000 3.1 170 23:38 16.08.2019
3524 Drizzle 18 1010 77 10000 3.1 170 23:19 16.08.2019
3525 Drizzle 18 1010 77 10000 3.1 160 22:40 16.08.2019
3526 Drizzle 18 1010 77 10000 2.6 160 22:19 16.08.2019
3527 Drizzle 18 1011 63 10000 2.1 180 21:43 16.08.2019
3528 Rain 19 1011 68 10000 2.1 170 21:22 16.08.2019
3529 Clouds 19 1011 60 10000 3.1 200 20:59 16.08.2019
3530 Rain 19 1011 64 10000 3.1 180 20:41 16.08.2019
3531 Clouds 20 1011 64 10000 3.6 200 20:19 16.08.2019
3532 Clouds 20 1012 60 10000 3.6 210 19:55 16.08.2019
3533 Clouds 20 1011 64 10000 4.1 190 19:37 16.08.2019
3534 Rain 20 1011 64 10000 3.6 200 19:19 16.08.2019
3535 Clouds 21 1012 64 10000 5.1 210 18:41 16.08.2019
3536 Clouds 21 1012 56 10000 5.7 210 18:22 16.08.2019
3537 Clouds 21 1012 52 10000 5.1 220 17:46 16.08.2019
3538 Clouds 21 1012 60 10000 6.2 210 17:27 16.08.2019
3539 Clouds 21 1013 49 10000 5.1 220 16:58 16.08.2019
3540 Clouds 21 1013 56 10000 6.2 220 16:38 16.08.2019
3541 Clouds 21 1013 49 10000 6.7 200 16:18 16.08.2019
3542 Clouds 22 1014 49 10000 5.1 230 15:55 16.08.2019
3543 Clouds 21 1013 49 10000 6.7 190 15:37 16.08.2019
3544 Rain 21 1014 53 10000 6.7 230 15:19 16.08.2019
3545 Clouds 21 1014 46 10000 5.1 230 14:56 16.08.2019
3546 Clouds 21 1014 56 10000 6.2 220 14:37 16.08.2019
3547 Clouds 21 1014 56 10000 7.2 210 14:18 16.08.2019
3548 Clouds 21 1014 52 10000 5.7 230 13:39 16.08.2019
3549 Clouds 20 1014 59 10000 6.2 240 13:21 16.08.2019
3550 Clouds 20 1015 59 10000 5.1 240 12:41 16.08.2019
3551 Clouds 20 1015 59 10000 5.7 230 12:22 16.08.2019
3552 Clouds 19 1015 68 10000 4.6 290 11:55 16.08.2019
3553 Clouds 19 1015 56 10000 5.1 230 11:37 16.08.2019
3554 Clouds 19 1015 63 10000 5.1 240 11:19 16.08.2019
3555 Clouds 18 1015 68 10000 4.6 220 10:42 16.08.2019
3556 Clouds 18 1015 77 10000 3.1 220 10:21 16.08.2019
3557 Clouds 17 1015 77 10000 2.6 230 09:39 16.08.2019
3558 Clouds 17 1015 88 10000 3.1 230 09:20 16.08.2019
3559 Clouds 16 1015 82 10000 3.1 280 08:59 16.08.2019
3560 Clouds 16 1015 87 10000 3.1 230 08:39 16.08.2019
3561 Clouds 15 1015 93 10000 2.6 230 08:20 16.08.2019
3562 Clouds 15 1014 93 10000 2.1 230 07:49 16.08.2019
3563 Clouds 15 1015 93 10000 3.1 240 07:28 16.08.2019
3564 -273 0 0 0 0 0 06:55 16.08.2019
3565 Clouds 15 1014 93 10000 3.1 230 06:19 16.08.2019
3566 Clouds 15 1013 93 10000 2.1 290 05:34 16.08.2019
3567 Clouds 15 1013 87 10000 3.6 240 03:21 16.08.2019
3568 Clouds 16 1012 87 10000 3.6 250 01:54 16.08.2019
3569 Clouds 16 1013 87 10000 3.6 240 01:28 16.08.2019
3570 Clouds 16 1012 93 10000 2.6 240 00:57 16.08.2019
3571 Rain 16 1013 82 10000 4.1 250 00:38 16.08.2019
3572 Rain 16 1013 87 10000 4.1 250 00:18 16.08.2019
3573 Clouds 16 1012 87 10000 4.1 240 23:42 15.08.2019
3574 Clouds 17 1012 87 10000 4.1 250 23:20 15.08.2019
3575 Clouds 17 1011 82 10000 3.1 250 22:57 15.08.2019
3576 Clouds 17 1012 82 10000 4.1 260 22:38 15.08.2019
3577 Rain 17 1011 82 10000 3.6 260 22:20 15.08.2019
3578 Clouds 17 1011 82 10000 3.6 250 21:40 15.08.2019
3579 Clouds 17 1011 82 10000 3.6 250 21:40 15.08.2019
3580 Rain 17 1011 82 10000 3.1 250 21:20 15.08.2019
3581 Clouds 17 1009 82 10000 3.6 250 20:59 15.08.2019
3582 Clouds 17 1010 82 10000 4.1 260 20:41 15.08.2019
3583 Rain 18 1010 77 10000 5.7 260 20:21 15.08.2019
3584 Clouds 18 1009 77 10000 8.2 270 19:56 15.08.2019
3585 Clouds 18 1010 77 10000 5.1 260 19:38 15.08.2019
3586 Rain 18 1009 72 10000 6.7 280 19:19 15.08.2019
3587 Clouds 19 1008 64 10000 9.8 270 18:46 15.08.2019
3588 Clouds 19 1009 72 10000 7.2 270 18:22 15.08.2019
3589 Clouds 20 1007 68 10000 8.7 280 17:56 15.08.2019
3590 Clouds 20 1008 68 10000 6.2 270 17:37 15.08.2019
3591 Clouds 20 1008 68 10000 6.2 270 17:19 15.08.2019
3592 Clouds 20 1007 68 10000 8.2 270 16:48 15.08.2019
3593 Rain 20 1008 68 10000 6.2 260 16:27 15.08.2019
3594 Clouds 20 1006 72 10000 10.3 270 15:59 15.08.2019
3595 Clouds 20 1007 68 10000 5.7 270 15:38 15.08.2019
3596 Clouds 20 1007 68 10000 5.7 270 15:38 15.08.2019
3597 Clouds 20 1007 72 10000 5.1 260 15:19 15.08.2019
3598 Clouds 19 1006 88 10000 6.2 270 14:43 15.08.2019
3599 Rain 19 1006 93 10000 4.1 230 14:23 15.08.2019
3600 Rain 19 1005 82 7000 5.1 230 13:59 15.08.2019
3601 Clouds 19 1006 77 10000 5.1 280 13:40 15.08.2019
3602 Clouds 18 1005 88 10000 5.7 220 13:21 15.08.2019
3603 Drizzle 18 1005 93 9000 4.6 210 12:59 15.08.2019
3604 Rain 18 1005 93 10000 6.2 240 12:39 15.08.2019
3605 Rain 18 1005 93 6000 4.1 210 12:20 15.08.2019
3606 Clouds 18 1005 93 8000 4.6 210 11:57 15.08.2019
3607 Drizzle 18 1005 93 10000 5.7 210 11:37 15.08.2019
3608 Drizzle 17 1005 93 3700 5.1 200 11:18 15.08.2019
3609 Drizzle 17 1005 93 6000 4.6 200 10:57 15.08.2019
3610 Rain 17 1005 93 9000 5.7 200 10:36 15.08.2019
3611 Clouds 17 1005 88 10000 4.1 200 10:18 15.08.2019
3612 Rain 17 1005 93 8000 4.6 190 09:42 15.08.2019
3613 Drizzle 16 1005 93 7000 4.1 190 09:22 15.08.2019
3614 Mist 16 1006 93 5000 4.6 180 08:39 15.08.2019
3615 Mist 16 1006 93 5000 4.6 180 08:21 15.08.2019
3616 Drizzle 16 1006 93 4000 4.6 180 07:58 15.08.2019
3617 Clouds 16 1005 93 9000 5.1 200 07:39 15.08.2019
3618 Clouds 15 1006 93 7000 4.6 190 07:20 15.08.2019
3619 Drizzle 15 1006 100 4000 4.1 170 06:48 15.08.2019
3620 Drizzle 15 1007 93 4000 4.6 170 06:25 15.08.2019
3621 Drizzle 15 1007 93 7000 4.1 170 05:30 15.08.2019
3622 Rain 15 1008 93 8000 4.1 160 04:57 15.08.2019
3623 Drizzle 14 1009 87 8000 4.1 160 03:57 15.08.2019
3624 Drizzle 14 1008 100 6000 4.6 150 03:21 15.08.2019
3625 Drizzle 14 1009 100 7000 4.6 150 02:34 15.08.2019
3626 Drizzle 14 1011 87 10000 2.1 170 01:44 15.08.2019
3627 Rain 14 1012 82 10000 3.1 200 00:59 15.08.2019
3628 Rain 15 1011 93 7000 3.1 150 00:37 15.08.2019
3629 Rain 15 1012 93 10000 4.1 180 00:19 15.08.2019
3630 Drizzle 15 1012 72 10000 3.6 200 23:56 14.08.2019
3631 Drizzle 15 1012 87 10000 3.1 170 23:37 14.08.2019
3632 Drizzle 15 1012 87 10000 3.1 180 23:18 14.08.2019
3633 Drizzle 15 1013 87 10000 3.6 190 22:42 14.08.2019
3634 Rain 16 1013 82 10000 4.6 210 22:23 14.08.2019
3635 Rain 16 1013 87 10000 2.6 120 21:57 14.08.2019
3636 Rain 16 1013 72 10000 4.1 220 21:39 14.08.2019
3637 Rain 17 1012 59 10000 2.6 180 21:21 14.08.2019
3638 Clouds 18 1013 87 10000 2.6 110 20:59 14.08.2019
3639 Rain 18 1013 55 10000 2.6 190 20:41 14.08.2019
3640 Rain 18 1013 55 10000 3.1 180 20:19 14.08.2019
3641 Clouds 19 1014 82 10000 2.6 80 19:55 14.08.2019
3642 Clouds 17 1013 56 10000 1.5 170 19:36 14.08.2019
3643 Clouds 17 1013 56 10000 1.5 170 19:18 14.08.2019
3644 Clouds 18 1014 87 10000 2.1 70 18:55 14.08.2019
3645 Rain 17 1013 56 10000 2.1 190 18:37 14.08.2019
3646 Rain 17 1014 56 10000 2.6 200 18:18 14.08.2019
3647 Clouds 17 1015 87 10000 2.1 60 17:54 14.08.2019
3648 Rain 16 1014 55 10000 2.1 210 17:36 14.08.2019
3649 Rain 16 1015 55 10000 3.1 240 17:18 14.08.2019
3650 Rain 17 1014 49 10000 5.1 230 16:39 14.08.2019
3651 Rain 18 1016 82 10000 5.1 310 16:20 14.08.2019
3652 Rain 18 1016 82 10000 5.1 310 16:20 14.08.2019
3653 Clouds 20 1015 42 10000 2.6 230 15:44 14.08.2019
3654 Clouds 20 1015 49 10000 5.7 220 15:20 14.08.2019
3655 Clouds 21 1015 42 10000 5.1 230 14:59 14.08.2019
3656 Clouds 20 1015 46 10000 5.1 210 14:39 14.08.2019
3657 Clouds 20 1015 52 10000 6.2 210 14:19 14.08.2019
3658 Clouds 20 1015 48 10000 5.1 210 13:55 14.08.2019
3659 Clouds 19 1015 56 10000 5.1 210 13:37 14.08.2019
3660 Clouds 19 1015 52 10000 5.7 220 13:18 14.08.2019
3661 Clouds 19 1016 59 10000 3.6 220 12:55 14.08.2019
3662 Clouds 17 1016 56 10000 5.1 200 12:36 14.08.2019
3663 Rain 17 1016 59 10000 5.7 210 12:18 14.08.2019
3664 Rain 17 1016 63 10000 5.1 220 11:45 14.08.2019
3665 Rain 17 1016 63 10000 5.1 220 11:23 14.08.2019
3666 Clouds 17 1016 63 10000 2.6 270 10:54 14.08.2019
3667 Rain 15 1016 72 10000 4.1 220 10:36 14.08.2019
3668 Rain 15 1016 77 10000 4.1 220 10:18 14.08.2019
3669 Rain 13 1016 87 10000 3.6 210 09:42 14.08.2019
3670 Rain 12 1016 93 10000 2.6 200 09:21 14.08.2019
3671 Clouds 12 1016 87 10000 2.6 220 08:43 14.08.2019
3672 Rain 10 1016 93 10000 3.6 200 08:25 14.08.2019
3673 Clouds 10 1016 93 10000 1.5 200 07:56 14.08.2019
3674 Fog 10 1016 100 10000 2.6 200 07:37 14.08.2019
3675 Fog 9 1015 93 10000 2.1 230 06:51 14.08.2019
3676 Mist 9 1016 100 2900 2.1 200 06:28 14.08.2019
3677 Mist 10 1016 93 5000 2.1 200 05:33 14.08.2019
3678 Clouds 9 1015 93 10000 2.1 200 03:52 14.08.2019
3679 Rain 10 1016 93 6000 2.6 220 02:39 14.08.2019
3680 Rain 10 1016 93 8000 2.1 220 02:18 14.08.2019
3681 Rain 10 1016 100 10000 2.6 240 01:30 14.08.2019
3682 Rain 11 1016 100 10000 2.6 220 00:31 14.08.2019
3683 Clouds 12 1015 93 10000 2.1 210 23:43 13.08.2019
3684 Clouds 12 1016 100 10000 1.5 210 23:20 13.08.2019
3685 Clouds 12 1015 93 10000 2.6 200 22:56 13.08.2019
3686 Rain 12 1016 93 10000 2.1 200 22:38 13.08.2019
3687 Rain 12 1016 93 10000 2.1 200 22:38 13.08.2019
3688 Rain 12 1016 93 10000 2.6 190 22:19 13.08.2019
3689 Clouds 12 1015 93 10000 2.6 170 21:55 13.08.2019
3690 Rain 13 1016 93 10000 2.1 200 21:36 13.08.2019
3691 Rain 13 1016 93 10000 1.5 200 21:18 13.08.2019
3692 Clouds 14 1016 87 10000 1.5 320 20:43 13.08.2019
3693 Rain 14 1016 87 6000 1 0 20:20 13.08.2019
3694 Clouds 14 1015 82 10000 3.6 200 19:56 13.08.2019
3695 Rain 14 1016 87 10000 1.5 260 19:38 13.08.2019
3696 Clouds 14 1015 87 10000 2.1 150 19:20 13.08.2019
3697 Clouds 15 1016 87 10000 2.6 160 18:42 13.08.2019
3698 Clouds 15 1016 77 10000 1.5 250 18:22 13.08.2019
3699 Thunderstorm 15 1016 93 7000 2.6 250 17:57 13.08.2019
3700 Thunderstorm 16 1016 93 7000 2.6 250 17:39 13.08.2019
3701 Thunderstorm 16 1015 63 10000 2.1 340 17:19 13.08.2019
3702 Thunderstorm 17 1015 63 10000 4.1 230 16:55 13.08.2019
3703 Thunderstorm 17 1015 63 10000 4.1 230 16:55 13.08.2019
3704 Thunderstorm 17 1015 63 10000 4.6 300 16:37 13.08.2019
3705 Clouds 18 1015 55 10000 2.1 280 16:18 13.08.2019
3706 Clouds 18 1015 55 10000 4.1 250 15:38 13.08.2019
3707 Rain 18 1015 59 10000 4.1 270 15:20 13.08.2019
3708 Rain 16 1015 87 8000 2.6 230 14:55 13.08.2019
3709 Clouds 16 1015 72 10000 4.1 280 14:37 13.08.2019
3710 Rain 16 1016 82 10000 3.6 270 14:18 13.08.2019
3711 Clouds 16 1016 82 10000 1.5 340 13:41 13.08.2019
3712 Clouds 16 1016 81 3800 6.2 290 13:21 13.08.2019
3713 Clouds 17 1014 72 10000 5.7 270 12:58 13.08.2019
3714 Clouds 17 1015 59 10000 4.1 250 12:40 13.08.2019
3715 Rain 17 1015 67 10000 4.1 260 12:21 13.08.2019
3716 Rain 16 1015 72 10000 4.6 250 11:57 13.08.2019
3717 Rain 16 1015 72 10000 4.6 250 11:37 13.08.2019
3718 Rain 15 1015 82 10000 4.1 260 11:18 13.08.2019
3719 Rain 14 1014 93 8000 4.6 280 10:55 13.08.2019
3720 Rain 14 1015 77 10000 4.6 280 10:36 13.08.2019
3721 Rain 14 1014 87 10000 3.6 270 10:18 13.08.2019
3722 Rain 14 1014 87 10000 3.1 240 09:42 13.08.2019
3723 Rain 14 1014 93 10000 3.1 250 09:23 13.08.2019
3724 Rain 13 1013 87 10000 2.6 260 08:43 13.08.2019
3725 Clouds 13 1014 93 10000 3.1 230 08:22 13.08.2019
3726 Clouds 13 1012 87 10000 3.6 230 07:56 13.08.2019
3727 Drizzle 13 1013 93 10000 2.1 250 07:34 13.08.2019
3728 Rain 13 1012 93 10000 2.6 210 06:56 13.08.2019
3729 Drizzle 13 1013 87 10000 4.1 240 06:36 13.08.2019
3730 Clouds 13 1013 87 10000 3.1 230 05:35 13.08.2019
3731 Clouds 14 1012 93 10000 2.6 230 02:52 13.08.2019
3732 Clouds 14 1013 82 10000 3.1 250 02:19 13.08.2019
3733 Rain 14 1013 82 10000 2.6 230 01:18 13.08.2019
3734 Rain 15 1013 82 10000 2.1 220 00:42 13.08.2019
3735 Rain 15 1013 82 10000 1.5 220 23:57 12.08.2019
3736 Rain 15 1013 82 10000 2.6 220 23:38 12.08.2019
3737 Rain 15 1013 82 10000 2.1 240 23:19 12.08.2019
3738 Clouds 16 1013 77 10000 2.1 270 22:40 12.08.2019
3739 Clouds 16 1014 77 10000 1.5 240 22:20 12.08.2019
3740 Clouds 16 1013 67 10000 2.1 250 21:56 12.08.2019
3741 Clouds 16 1013 72 10000 2.6 270 21:37 12.08.2019
3742 Rain 17 1013 67 10000 2.1 290 21:19 12.08.2019
3743 Clouds 17 1012 77 10000 3.6 270 20:57 12.08.2019
3744 Rain 17 1012 59 10000 3.6 290 20:38 12.08.2019
3745 Rain 18 1012 67 10000 2.6 260 20:20 12.08.2019
3746 Clouds 18 1012 63 10000 3.6 280 19:56 12.08.2019
3747 Clouds 18 1012 68 10000 3.6 280 19:37 12.08.2019
3748 Clouds 19 1012 63 10000 4.1 280 19:19 12.08.2019
3749 Clouds 19 1012 72 10000 3.6 270 18:55 12.08.2019
3750 Clouds 19 1012 63 10000 3.6 260 18:37 12.08.2019
3751 Clouds 20 1012 60 10000 5.1 270 18:19 12.08.2019
3752 Clouds 20 1012 60 10000 4.6 230 17:47 12.08.2019
3753 Clouds 20 1012 60 10000 4.1 280 17:28 12.08.2019
3754 Clouds 20 1013 72 10000 3.1 240 16:58 12.08.2019
3755 Clouds 20 1013 56 10000 4.1 260 16:39 12.08.2019
3756 Rain 19 1012 56 10000 6.7 250 16:20 12.08.2019
3757 Rain 19 1013 82 10000 5.1 220 15:59 12.08.2019
3758 Thunderstorm 20 1012 68 10000 4.1 250 15:41 12.08.2019
3759 Thunderstorm 20 1012 68 10000 4.1 250 15:40 12.08.2019
3760 Thunderstorm 20 1012 60 8000 5.7 240 15:21 12.08.2019
3761 -273 0 0 0 0 0 14:56 12.08.2019
3762 Clouds 19 1013 88 10000 3.6 230 14:56 12.08.2019
3763 Clouds 20 1013 88 10000 3.6 230 14:38 12.08.2019
3764 Clouds 19 1012 52 10000 5.7 260 14:18 12.08.2019
3765 Clouds 20 1012 52 10000 5.7 260 13:43 12.08.2019
3766 Rain 20 1012 53 10000 6.2 240 13:24 12.08.2019
3767 Clouds 20 1012 52 10000 6.7 250 12:58 12.08.2019
3768 Clouds 21 1012 60 10000 5.1 250 12:39 12.08.2019
3769 Clouds 20 1013 56 10000 8.2 230 12:18 12.08.2019
3770 Clouds 20 1013 64 10000 5.1 240 11:41 12.08.2019
3771 Clouds 20 1013 64 10000 5.1 240 11:41 12.08.2019
3772 -273 0 0 0 0 0 11:23 12.08.2019
3773 Clouds 19 1012 68 10000 6.7 230 10:43 12.08.2019
3774 Clouds 19 1012 72 10000 5.7 230 10:23 12.08.2019
3775 Clouds 18 1012 77 10000 5.7 220 09:56 12.08.2019
3776 Clouds 18 1012 77 10000 6.2 210 09:38 12.08.2019
3777 Clouds 17 1012 77 10000 5.7 210 09:19 12.08.2019
3778 Clouds 17 1012 77 10000 5.7 210 09:19 12.08.2019
3779 Clouds 17 1012 82 10000 6.2 210 08:58 12.08.2019
3780 Clear 16 1012 82 10000 5.1 210 08:39 12.08.2019
3781 Clear 16 1012 82 10000 4.6 210 08:20 12.08.2019
3782 Clear 16 1012 82 10000 4.6 210 08:20 12.08.2019
3783 Clear 15 1012 82 10000 4.6 210 07:52 12.08.2019
3784 Clear 14 1012 82 10000 4.6 200 07:28 12.08.2019
3785 Clouds 14 1011 82 10000 4.1 200 06:52 12.08.2019
3786 Clouds 14 1011 82 10000 5.1 200 05:41 12.08.2019
3787 Clouds 16 1011 77 10000 3.1 220 02:45 12.08.2019
3788 Clouds 16 1012 72 10000 3.6 230 01:55 12.08.2019
3789 Clouds 17 1012 82 10000 4.6 210 01:22 12.08.2019
3790 Clouds 17 1012 68 10000 3.1 230 00:58 12.08.2019
3791 Clouds 17 1012 77 10000 5.1 220 00:39 12.08.2019
3792 Clouds 18 1012 77 10000 5.1 220 00:20 12.08.2019
3793 Clouds 18 1012 63 10000 2.6 240 23:56 11.08.2019
3794 Rain 18 1012 72 10000 5.1 220 23:38 11.08.2019
3795 Rain 18 1012 72 10000 4.6 210 23:19 11.08.2019
3796 Clouds 18 1012 59 10000 2.6 240 22:55 11.08.2019
3797 Rain 19 1012 72 10000 3.1 230 22:36 11.08.2019
3798 Rain 19 1012 72 10000 3.1 230 22:18 11.08.2019
3799 Clouds 19 1012 52 10000 2.6 250 21:54 11.08.2019
3800 Clouds 19 1012 63 10000 5.1 230 21:36 11.08.2019
3801 Clouds 19 1012 63 10000 5.1 230 21:36 11.08.2019
3802 Clouds 19 1012 63 10000 5.1 230 21:18 11.08.2019
3803 Rain 20 1011 63 10000 4.1 230 20:41 11.08.2019
3804 Rain 20 1011 64 10000 3.6 240 20:22 11.08.2019
3805 Clouds 21 1011 46 10000 4.6 230 19:54 11.08.2019
3806 Clouds 21 1011 52 10000 5.7 240 19:36 11.08.2019
3807 Clouds 22 1011 52 10000 5.7 240 19:18 11.08.2019
3808 Clouds 22 1011 49 10000 6.2 220 18:38 11.08.2019
3809 Clouds 22 1011 46 10000 6.2 240 18:19 11.08.2019
3810 Clouds 22 1011 46 10000 6.7 230 17:54 11.08.2019
3811 Clouds 22 1011 49 10000 6.7 230 17:36 11.08.2019
3812 Clouds 22 1011 49 10000 6.7 230 17:18 11.08.2019
3813 Rain 22 1011 49 10000 8.2 230 16:40 11.08.2019
3814 Rain 22 1012 46 10000 7.7 230 16:22 11.08.2019
3815 Clouds 22 1012 49 10000 6.2 230 15:57 11.08.2019
3816 Rain 22 1012 52 10000 8.2 240 15:39 11.08.2019
3817 Clouds 22 1012 49 10000 8.2 220 15:21 11.08.2019
3818 Clouds 22 1012 49 10000 7.7 220 14:55 11.08.2019
3819 Clouds 22 1012 49 10000 8.7 220 14:37 11.08.2019
3820 Clouds 21 1012 56 10000 8.2 220 14:19 11.08.2019
3821 Clouds 21 1012 56 10000 8.2 220 13:42 11.08.2019
3822 Clouds 21 1012 52 10000 6.7 220 13:23 11.08.2019
3823 Clouds 21 1012 52 10000 6.7 220 12:44 11.08.2019
3824 Rain 21 1012 64 10000 7.7 230 12:22 11.08.2019
3825 Clouds 20 1012 60 10000 8.7 220 11:41 11.08.2019
3826 Clouds 20 1012 60 10000 9.3 220 11:23 11.08.2019
3827 Clouds 20 1012 63 10000 7.7 220 10:59 11.08.2019
3828 Clouds 20 1012 64 10000 7.7 210 10:40 11.08.2019
3829 Clouds 19 1012 68 10000 8.7 210 10:21 11.08.2019
3830 Rain 19 1011 72 10000 7.7 210 09:56 11.08.2019
3831 Rain 18 1011 72 10000 7.7 210 09:37 11.08.2019
3832 Clouds 18 1011 72 10000 7.2 220 09:19 11.08.2019
3833 Clouds 18 1011 72 10000 7.2 220 09:19 11.08.2019
3834 Clouds 17 1011 67 10000 5.1 220 08:43 11.08.2019
3835 Clouds 17 1011 72 10000 6.2 210 08:25 11.08.2019
3836 Clouds 16 1011 72 10000 6.2 210 07:54 11.08.2019
3837 Clouds 15 1011 82 10000 5.1 200 07:22 11.08.2019
3838 Clouds 15 1011 82 10000 5.1 200 06:41 11.08.2019
3839 Clouds 16 1010 77 10000 4.6 200 05:34 11.08.2019
3840 Clouds 17 1010 77 10000 5.1 210 03:36 11.08.2019
3841 Clouds 17 1010 67 10000 5.1 210 02:46 11.08.2019
3842 Clear 18 1010 67 10000 6.7 220 01:38 11.08.2019
3843 Clear 18 1010 67 10000 7.7 220 01:19 11.08.2019
3844 Clouds 18 1010 59 10000 6.2 230 00:43 11.08.2019
3845 Clear 19 1010 63 10000 8.7 220 00:23 11.08.2019
3846 Clouds 19 1009 59 10000 5.7 230 23:43 10.08.2019
3847 Clear 19 1009 59 10000 10.3 220 23:24 10.08.2019
3848 Clouds 19 1009 56 10000 6.2 230 22:43 10.08.2019
3849 Clear 20 1009 60 10000 11.8 220 22:25 10.08.2019
3850 Clouds 20 1009 52 10000 8.2 230 21:58 10.08.2019
3851 Clouds 20 1009 52 10000 8.2 230 21:58 10.08.2019
3852 Clear 20 1009 56 10000 13.4 230 21:38 10.08.2019
3853 Clear 21 1008 52 10000 12.3 230 21:19 10.08.2019
3854 Clouds 21 1008 53 10000 6.2 240 20:56 10.08.2019
3855 Clouds 21 1008 52 10000 12.9 230 20:37 10.08.2019
3856 Clear 22 1008 46 10000 13.9 230 20:18 10.08.2019
3857 Squall 22 1008 53 10000 11.3 240 19:39 10.08.2019
3858 Squall 22 1007 49 10000 11.8 230 19:21 10.08.2019
3859 Squall 23 1007 46 10000 12.9 240 18:41 10.08.2019
3860 Squall 23 1007 53 10000 11.3 230 18:22 10.08.2019
3861 Squall 23 1007 53 10000 8.2 240 17:46 10.08.2019
3862 Squall 23 1007 49 10000 11.8 230 17:25 10.08.2019
3863 Squall 23 1006 49 10000 10.3 230 16:47 10.08.2019
3864 Clouds 23 1007 49 10000 13.4 230 16:29 10.08.2019
3865 Clouds 23 1006 49 10000 9.8 240 15:58 10.08.2019
3866 Rain 23 1006 50 10000 12.3 230 15:40 10.08.2019
3867 Rain 23 1006 49 10000 11.8 220 15:21 10.08.2019
3868 Rain 23 1006 49 10000 11.8 220 15:21 10.08.2019
3869 Rain 22 1006 68 10000 10.3 230 14:43 10.08.2019
3870 Rain 22 1006 60 10000 11.8 220 14:18 10.08.2019
3871 Squall 21 1006 77 10000 8.7 210 13:39 10.08.2019
3872 Squall 20 1006 77 10000 10.3 230 13:19 10.08.2019
3873 Rain 20 1006 77 10000 11.8 220 12:42 10.08.2019
3874 Rain 21 1006 68 1000 8.7 210 12:23 10.08.2019
3875 Clouds 21 1005 68 10000 7.7 210 11:57 10.08.2019
3876 Clouds 21 1005 68 10000 11.8 230 11:39 10.08.2019
3877 Clouds 21 1004 64 10000 10.3 210 11:20 10.08.2019
3878 Clouds 21 1004 68 10000 9.3 220 10:39 10.08.2019
3879 Clouds 21 1004 72 10000 8.7 210 10:20 10.08.2019
3880 Clouds 21 1004 72 10000 8.7 210 10:20 10.08.2019
3881 Clouds 21 1005 72 10000 7.2 220 09:59 10.08.2019
3882 Clouds 20 1004 72 10000 8.7 210 09:39 10.08.2019
3883 Clouds 20 1004 77 10000 8.2 210 09:21 10.08.2019
3884 Clear 19 1004 77 10000 7.2 200 08:39 10.08.2019
3885 Clear 19 1004 82 10000 6.2 190 08:20 10.08.2019
3886 Clouds 19 1004 82 10000 5.1 210 07:53 10.08.2019
3887 Clear 18 1004 88 10000 5.1 190 07:27 10.08.2019
3888 Clouds 18 1004 88 10000 4.6 190 06:48 10.08.2019
3889 Clear 18 1003 88 10000 5.7 190 06:21 10.08.2019
3890 Clouds 18 1004 93 10000 3.6 190 05:24 10.08.2019
3891 Clear 19 1003 93 10000 4.1 190 04:26 10.08.2019
3892 Clouds 19 1004 88 10000 3.1 210 02:54 10.08.2019
3893 Rain 19 1003 94 10000 3.6 190 02:24 10.08.2019
3894 Rain 20 1004 94 10000 3.6 200 01:42 10.08.2019
3895 Clouds 20 1004 93 10000 2.6 170 01:21 10.08.2019
3896 Clouds 20 1004 93 10000 2.6 170 00:48 10.08.2019
3897 Rain 20 1004 94 9000 4.1 190 00:22 10.08.2019
3898 Clouds 20 1004 88 10000 3.1 150 23:44 09.08.2019
3899 Rain 20 1004 94 6000 2.6 160 23:24 09.08.2019
3900 Clouds 20 1005 88 10000 2.6 140 22:58 09.08.2019
3901 Rain 20 1004 94 8000 3.1 150 22:39 09.08.2019
3902 Rain 20 1004 94 9000 3.1 140 22:20 09.08.2019
3903 Clouds 20 1004 88 9000 2.6 150 21:55 09.08.2019
3904 Rain 20 1004 94 10000 2.6 150 21:36 09.08.2019
3905 Rain 20 1004 88 10000 2.6 140 21:18 09.08.2019
3906 Clouds 20 1004 88 10000 3.1 130 20:54 09.08.2019
3907 Clouds 20 1004 88 10000 3.6 150 20:36 09.08.2019
3908 Clouds 20 1004 88 10000 3.6 150 20:18 09.08.2019
3909 Rain 20 1004 94 10000 3.6 130 19:41 09.08.2019
3910 Rain 20 1004 94 9000 3.6 130 19:19 09.08.2019
3911 Rain 20 1004 94 9000 3.6 130 19:19 09.08.2019
3912 Rain 20 1005 94 10000 3.1 150 18:42 09.08.2019
3913 Rain 20 1005 94 10000 3.6 150 18:22 09.08.2019
3914 Rain 20 1007 88 10000 4.6 120 17:58 09.08.2019
3915 Rain 19 1005 94 8000 3.1 160 17:40 09.08.2019
3916 Rain 19 1005 88 9000 4.6 140 17:22 09.08.2019
3917 Rain 19 1006 93 9000 3.6 130 16:42 09.08.2019
3918 Rain 19 1006 93 9000 3.6 130 16:42 09.08.2019
3919 Rain 19 1006 93 9000 3.1 120 16:23 09.08.2019
3920 Rain 19 1008 88 10000 2.1 160 15:58 09.08.2019
3921 Clouds 19 1006 88 8000 3.6 110 15:39 09.08.2019
3922 Clouds 19 1007 93 9000 3.6 110 15:20 09.08.2019
3923 Rain 19 1008 82 10000 3.6 110 14:56 09.08.2019
3924 Rain 19 1007 88 10000 4.1 110 14:37 09.08.2019
3925 Rain 19 1007 88 4600 3.1 130 14:19 09.08.2019
3926 Rain 19 1008 64 10000 4.1 110 13:43 09.08.2019
3927 Rain 20 1007 82 10000 3.6 100 13:20 09.08.2019
3928 Clouds 20 1009 68 10000 4.6 120 12:47 09.08.2019
3929 Clouds 19 1007 82 10000 4.6 80 12:24 09.08.2019
3930 Rain 19 1009 72 10000 4.1 110 11:59 09.08.2019
3931 Rain 18 1008 88 10000 3.6 90 11:38 09.08.2019
3932 Clouds 18 1008 88 10000 3.6 90 11:19 09.08.2019
3933 Drizzle 18 1009 87 10000 2.6 100 10:41 09.08.2019
3934 Rain 17 1009 82 10000 2.1 100 10:22 09.08.2019
3935 Clouds 17 1010 82 10000 2.6 120 09:57 09.08.2019
3936 Clouds 17 1009 87 10000 3.1 100 09:37 09.08.2019
3937 Clouds 16 1009 87 10000 3.1 100 09:18 09.08.2019
3938 Clouds 16 1010 87 9000 1.5 130 08:44 09.08.2019
3939 Clouds 15 1010 93 10000 4.1 100 08:24 09.08.2019
3940 Clouds 14 1010 93 10000 3.1 100 07:55 09.08.2019
3941 Clouds 14 1010 93 10000 3.1 100 07:55 09.08.2019
3942 Clouds 13 1010 93 10000 2.1 110 07:24 09.08.2019
3943 Fog 12 1011 100 100 1 160 06:59 09.08.2019
3944 Fog 12 1010 100 7000 1.5 100 06:38 09.08.2019
3945 Clear 12 1011 93 8000 1.5 100 06:20 09.08.2019
3946 Fog 12 1011 93 750 1 0 05:30 09.08.2019
3947 Mist 13 1011 100 3300 0.5 250 02:26 09.08.2019
3948 Clouds 14 1012 100 9000 0.5 250 01:23 09.08.2019
3949 Clouds 15 1012 93 10000 3.65 268.43 00:41 09.08.2019
3950 Clear 15 1012 93 10000 0.5 250 00:22 09.08.2019
3951 Clouds 15 1011 82 10000 1.5 250 23:56 08.08.2019
3952 Clear 16 1012 93 10000 0.5 250 23:37 08.08.2019
3953 Clear 16 1011 87 10000 1.5 250 23:18 08.08.2019
3954 Clouds 16 1011 77 10000 2.1 260 22:54 08.08.2019
3955 Clear 17 1011 82 10000 1.5 270 22:36 08.08.2019
3956 Clear 18 1011 82 10000 1.5 270 22:18 08.08.2019
3957 Clear 18 1011 82 10000 1.5 270 22:18 08.08.2019
3958 Clear 18 1011 77 10000 2.1 260 21:42 08.08.2019
3959 Clear 19 1011 68 10000 2.6 260 21:23 08.08.2019
3960 Clouds 19 1011 68 10000 6.7 280 20:57 08.08.2019
3961 Clouds 20 1011 64 10000 4.1 260 20:39 08.08.2019
3962 Clouds 20 1011 64 10000 4.1 270 20:19 08.08.2019
3963 Clouds 21 1010 64 10000 8.7 280 19:48 08.08.2019
3964 Clouds 21 1011 53 10000 5.7 260 19:29 08.08.2019
3965 Clouds 21 1010 56 10000 7.7 280 18:59 08.08.2019
3966 Clouds 22 1011 53 10000 5.1 280 18:40 08.08.2019
3967 Clouds 22 1010 53 10000 6.2 270 18:19 08.08.2019
3968 Clear 23 1010 46 10000 6.7 270 17:42 08.08.2019
3969 Clouds 23 1010 46 10000 7.2 270 17:24 08.08.2019
3970 Clouds 23 1009 56 10000 9.8 290 16:58 08.08.2019
3971 Clouds 23 1010 49 10000 7.2 270 16:40 08.08.2019
3972 Clouds 23 1010 49 10000 6.7 270 16:22 08.08.2019
3973 Clouds 23 1009 53 10000 10.3 270 15:57 08.08.2019
3974 Clouds 23 1010 49 10000 6.7 270 15:38 08.08.2019
3975 Clouds 23 1010 46 10000 7.7 260 15:20 08.08.2019
3976 Clouds 23 1009 46 10000 8.2 260 14:38 08.08.2019
3977 Clouds 23 1009 44 10000 8.2 250 14:19 08.08.2019
3978 Clouds 22 1008 60 10000 7.7 270 13:43 08.08.2019
3979 Clouds 22 1009 46 10000 6.2 270 13:24 08.08.2019
3980 Clouds 22 1008 60 10000 8.2 260 12:58 08.08.2019
3981 Clouds 22 1009 49 10000 7.7 250 12:38 08.08.2019
3982 Rain 22 1009 49 10000 6.2 260 12:18 08.08.2019
3983 Clouds 21 1007 60 10000 7.2 250 11:43 08.08.2019
3984 Rain 21 1008 56 10000 6.2 260 11:25 08.08.2019
3985 Clouds 21 1007 72 10000 4.6 230 10:56 08.08.2019
3986 Clouds 20 1008 68 10000 6.2 240 10:38 08.08.2019
3987 Clouds 20 1008 68 10000 7.2 240 10:19 08.08.2019
3988 Clouds 19 1008 72 10000 5.7 230 09:41 08.08.2019
3989 Rain 18 1007 77 10000 5.1 220 09:22 08.08.2019
3990 Clouds 17 1007 82 10000 5.7 220 08:44 08.08.2019
3991 Clear 17 1007 82 10000 5.1 220 08:22 08.08.2019
3992 Clouds 16 1006 82 10000 5.1 220 07:58 08.08.2019
3993 Clear 16 1007 87 10000 4.6 210 07:39 08.08.2019
3994 Clear 16 1007 87 10000 5.1 210 07:19 08.08.2019
3995 Clouds 16 1006 87 10000 4.6 220 06:45 08.08.2019
3996 Clear 16 1006 87 10000 5.1 200 06:18 08.08.2019
3997 Clear 16 1006 87 10000 5.1 200 05:42 08.08.2019
3998 Clear 16 1006 87 10000 4.1 200 04:39 08.08.2019
3999 Clouds 17 1006 77 10000 3.6 210 03:48 08.08.2019
4000 Clouds 16 1006 87 10000 2.6 200 01:59 08.08.2019
4001 Rain 17 1007 77 10000 3.6 200 01:24 08.08.2019
4002 Rain 16 1007 82 10000 2.1 190 00:25 08.08.2019
4003 Clouds 17 1006 82 10000 2.1 230 23:46 07.08.2019
4004 Rain 17 1007 87 10000 2.1 200 23:19 07.08.2019
4005 Clouds 17 1006 72 10000 2.6 260 22:55 07.08.2019
4006 Rain 18 1007 82 10000 2.1 190 22:36 07.08.2019
4007 Rain 18 1006 82 10000 1.5 190 22:18 07.08.2019
4008 Clouds 18 1006 72 10000 2.6 240 21:54 07.08.2019
4009 Rain 19 1006 77 10000 2.1 220 21:36 07.08.2019
4010 Rain 19 1006 68 10000 2.6 250 21:18 07.08.2019
4011 Rain 20 1006 64 10000 5.1 240 20:41 07.08.2019
4012 Clouds 21 1006 60 10000 5.7 240 20:23 07.08.2019
4013 Clouds 21 1006 60 10000 5.7 240 20:23 07.08.2019
4014 Clouds 21 1005 64 10000 6.2 280 19:57 07.08.2019
4015 Clouds 21 1006 64 10000 5.7 240 19:38 07.08.2019
4016 Rain 21 1005 60 10000 5.7 250 19:20 07.08.2019
4017 Rain 22 1005 53 10000 6.7 250 18:43 07.08.2019
4018 Clouds 22 1005 53 10000 6.7 260 18:21 07.08.2019
4019 Clouds 22 1005 53 10000 6.7 260 18:21 07.08.2019
4020 Clouds 22 1005 68 10000 7.7 290 17:58 07.08.2019
4021 Clouds 22 1005 53 10000 6.7 240 17:39 07.08.2019
4022 Clouds 22 1005 53 10000 7.7 250 17:21 07.08.2019
4023 Thunderstorm 22 1005 77 10000 7.7 280 16:57 07.08.2019
4024 Thunderstorm 22 1005 53 10000 7.2 250 16:39 07.08.2019
4025 Clouds 23 1005 49 10000 7.7 250 16:20 07.08.2019
4026 Clouds 22 1005 73 10000 2.1 230 15:56 07.08.2019
4027 Clouds 22 1005 46 10000 7.2 250 15:37 07.08.2019
4028 Clouds 22 1005 46 10000 8.2 240 15:19 07.08.2019
4029 Rain 21 1005 64 10000 6.7 250 14:46 07.08.2019
4030 Clouds 21 1005 56 10000 7.2 250 14:27 07.08.2019
4031 Clouds 21 1005 60 10000 7.2 250 13:55 07.08.2019
4032 Clouds 21 1005 60 10000 7.2 250 13:36 07.08.2019
4033 Thunderstorm 20 1005 82 10000 5.1 250 13:18 07.08.2019
4034 Thunderstorm 21 1004 56 10000 6.7 230 12:55 07.08.2019
4035 Thunderstorm 21 1005 82 10000 5.7 240 12:36 07.08.2019
4036 Rain 20 1005 88 10000 4.6 250 12:18 07.08.2019
4037 Clouds 21 1004 64 10000 7.7 220 11:42 07.08.2019
4038 Clouds 21 1004 64 10000 7.2 220 11:20 07.08.2019
4039 Clouds 21 1004 64 10000 6.2 230 10:56 07.08.2019
4040 Clouds 20 1004 72 10000 6.7 220 10:38 07.08.2019
4041 Clouds 20 1004 72 10000 7.2 220 10:18 07.08.2019
4042 Clouds 20 1004 72 10000 7.2 220 10:18 07.08.2019
4043 Clouds 19 1004 72 10000 4.6 210 09:44 07.08.2019
4044 Clouds 19 1004 82 10000 5.7 210 09:22 07.08.2019
4045 Clouds 18 1004 77 10000 2.6 210 08:57 07.08.2019
4046 Rain 17 1004 88 10000 5.1 210 08:38 07.08.2019
4047 Rain 17 1004 82 10000 4.6 200 08:20 07.08.2019
4048 Clouds 16 1004 87 10000 4.1 200 07:41 07.08.2019
4049 Clouds 16 1004 87 10000 3.1 200 07:20 07.08.2019
4050 Rain 16 1005 93 10000 2.1 180 06:31 07.08.2019
4051 Clouds 16 1004 87 10000 0.5 140 05:56 07.08.2019
4052 Clouds 15 1005 93 10000 0.5 140 04:57 07.08.2019
4053 Clouds 16 1006 87 10000 1 160 03:21 07.08.2019
4054 Clouds 17 1006 82 10000 2.1 160 02:50 07.08.2019
4055 Clouds 17 1006 87 10000 0.5 160 02:22 07.08.2019
4056 Clouds 17 1006 87 10000 3.93 162.114 01:42 07.08.2019
4057 Clouds 17 1007 88 10000 1.5 140 00:52 07.08.2019
4058 Clouds 17 1007 87 10000 0.5 160 00:22 07.08.2019
4059 Clouds 17 1007 88 10000 1.5 130 23:44 06.08.2019
4060 Clouds 17 1007 82 10000 1 160 23:23 06.08.2019
4061 Clouds 17 1007 82 10000 1 140 22:59 06.08.2019
4062 Clouds 18 1007 82 10000 0.5 160 22:38 06.08.2019
4063 Clouds 18 1007 82 10000 1.5 210 22:20 06.08.2019
4064 Clouds 19 1007 82 10000 0.5 110 21:44 06.08.2019
4065 Clouds 20 1007 64 10000 2.1 240 21:26 06.08.2019
4066 Clouds 21 1007 68 10000 1.5 320 20:59 06.08.2019
4067 Clouds 21 1007 60 10000 3.6 240 20:41 06.08.2019
4068 Clouds 21 1007 60 10000 4.1 240 20:23 06.08.2019
4069 Clouds 22 1007 64 10000 2.6 300 19:48 06.08.2019
4070 Clouds 22 1007 53 10000 6.2 230 19:29 06.08.2019
4071 Clouds 22 1007 73 10000 2.1 250 18:57 06.08.2019
4072 Rain 22 1007 49 10000 6.2 250 18:38 06.08.2019
4073 Rain 23 1007 68 10000 1 240 18:19 06.08.2019
4074 Rain 23 1007 68 10000 1 240 18:19 06.08.2019
4075 Rain 23 1008 68 10000 4.6 260 17:56 06.08.2019
4076 Rain 23 1008 43 10000 6.7 240 17:37 06.08.2019
4077 Rain 23 1008 44 10000 5.1 250 17:18 06.08.2019
4078 Clouds 23 1008 44 10000 6.2 240 16:43 06.08.2019
4079 Clouds 23 1008 60 10000 5.1 260 16:24 06.08.2019
4080 Clouds 23 1008 60 10000 4.1 280 15:58 06.08.2019
4081 Clouds 23 1008 56 10000 6.2 270 15:39 06.08.2019
4082 Rain 23 1008 53 10000 6.7 250 15:21 06.08.2019
4083 Clouds 23 1008 56 10000 5.7 270 14:54 06.08.2019
4084 Clouds 23 1008 49 10000 4.6 250 14:36 06.08.2019
4085 Clouds 23 1008 49 10000 4.6 250 14:18 06.08.2019
4086 Clouds 23 1008 56 10000 5.1 240 13:45 06.08.2019
4087 Rain 23 1008 49 10000 5.1 260 13:26 06.08.2019
4088 Clouds 23 1008 60 10000 5.1 230 12:59 06.08.2019
4089 Clouds 22 1008 60 10000 3.6 250 12:39 06.08.2019
4090 Clouds 22 1008 57 10000 5.1 230 12:21 06.08.2019
4091 Clouds 22 1008 64 10000 4.6 220 11:45 06.08.2019
4092 Clouds 22 1008 68 10000 6.7 230 11:20 06.08.2019
4093 Clouds 21 1008 72 10000 4.1 220 10:58 06.08.2019
4094 Clouds 21 1008 73 10000 6.7 220 10:39 06.08.2019
4095 Clouds 20 1008 77 10000 5.7 230 10:21 06.08.2019
4096 Clouds 19 1008 77 10000 4.1 230 09:43 06.08.2019
4097 Clouds 19 1008 82 10000 4.6 210 09:21 06.08.2019
4098 Clouds 18 1008 88 10000 2.6 210 08:51 06.08.2019
4099 Clouds 18 1008 88 10000 4.1 210 08:29 06.08.2019
4100 Clouds 17 1008 93 10000 2.6 200 07:59 06.08.2019
4101 Fog 16 1008 93 8000 2.6 200 07:30 06.08.2019
4102 Fog 15 1008 93 10000 1.5 210 06:45 06.08.2019
4103 Fog 15 1008 93 8000 2.1 210 06:23 06.08.2019
4104 Fog 16 1008 93 10000 1 230 05:46 06.08.2019
4105 Clouds 17 1008 87 10000 2.6 210 02:50 06.08.2019
4106 Clouds 18 1009 87 10000 1.5 200 01:26 06.08.2019
4107 Clouds 18 1009 82 10000 2.1 210 00:52 06.08.2019
4108 Clouds 18 1009 82 10000 3.6 240 00:23 06.08.2019
4109 Rain 19 1009 77 10000 2.6 210 23:21 05.08.2019
4110 Clouds 19 1009 82 10000 2.1 240 22:58 05.08.2019
4111 Clouds 20 1009 72 10000 2.6 200 22:39 05.08.2019
4112 Clouds 20 1009 72 10000 2.1 220 22:20 05.08.2019
4113 Clouds 20 1009 72 10000 2.1 250 21:42 05.08.2019
4114 Clear 20 1009 64 10000 2.6 250 21:21 05.08.2019
4115 Clouds 21 1009 68 10000 3.6 270 20:58 05.08.2019
4116 Clouds 21 1009 60 10000 4.1 240 20:39 05.08.2019
4117 Clouds 21 1009 64 10000 4.6 250 20:21 05.08.2019
4118 Clouds 22 1009 77 10000 5.1 270 19:57 05.08.2019
4119 Clouds 22 1009 60 10000 5.1 250 19:38 05.08.2019
4120 Clouds 23 1009 56 10000 6.2 250 19:19 05.08.2019
4121 Clouds 23 1009 53 10000 5.7 260 18:42 05.08.2019
4122 Rain 24 1009 50 10000 7.7 260 18:21 05.08.2019
4123 Clouds 24 1009 53 10000 6.7 270 17:56 05.08.2019
4124 Thunderstorm 23 1009 53 10000 6.7 270 17:38 05.08.2019
4125 Thunderstorm 24 1009 77 4000 3.6 160 17:20 05.08.2019
4126 Rain 24 1009 50 10000 6.7 260 16:41 05.08.2019
4127 Clouds 24 1008 57 10000 7.2 260 16:23 05.08.2019
4128 Clouds 25 1008 60 10000 3.1 70 15:43 05.08.2019
4129 Clouds 24 1008 57 10000 6.7 250 15:20 05.08.2019
4130 Clouds 25 1008 68 10000 3.1 90 14:43 05.08.2019
4131 Clouds 24 1008 54 10000 4.1 240 14:23 05.08.2019
4132 Rain 24 1008 53 10000 4.1 220 13:57 05.08.2019
4133 Rain 24 1008 53 10000 4.1 220 13:39 05.08.2019
4134 Rain 23 1008 57 10000 3.1 220 13:18 05.08.2019
4135 Rain 22 1008 64 10000 2.1 140 12:42 05.08.2019
4136 Clouds 22 1009 68 10000 2.6 130 12:19 05.08.2019
4137 Clouds 21 1009 60 10000 2.6 160 11:44 05.08.2019
4138 Rain 20 1009 82 10000 1.5 110 11:25 05.08.2019
4139 Rain 20 1009 64 10000 2.1 120 10:49 05.08.2019
4140 Clouds 19 1009 82 10000 1 100 10:31 05.08.2019
4141 Clouds 19 1010 64 10000 1.5 120 09:57 05.08.2019
4142 Clouds 18 1009 82 10000 2.1 90 09:38 05.08.2019
4143 Clouds 18 1009 77 10000 1.5 130 09:20 05.08.2019
4144 Clouds 18 1010 77 10000 2.1 110 08:44 05.08.2019
4145 Clouds 17 1010 82 10000 2.1 110 08:25 05.08.2019
4146 Clouds 17 1010 87 10000 1.5 100 07:49 05.08.2019
4147 Clouds 17 1010 82 10000 1.5 90 07:30 05.08.2019
4148 Drizzle 16 1011 93 10000 1 110 06:57 05.08.2019
4149 Clouds 16 1010 87 10000 2.1 90 06:24 05.08.2019
4150 Clouds 16 1011 87 10000 0.5 120 05:33 05.08.2019
4151 Clouds 16 1012 93 10000 2.1 90 04:52 05.08.2019
4152 Clouds 16 1012 93 10000 1.5 100 03:52 05.08.2019
4153 Clouds 16 1012 87 10000 2.6 100 03:20 05.08.2019
4154 Clouds 16 1013 87 10000 2.1 90 02:21 05.08.2019
4155 Clouds 16 1013 82 10000 3.1 90 01:31 05.08.2019
4156 Clouds 17 1013 82 10000 3.1 90 00:41 05.08.2019
4157 Clouds 17 1013 82 10000 2.6 90 00:21 05.08.2019
4158 Clouds 17 1014 82 10000 1.5 80 23:43 04.08.2019
4159 Clouds 17 1013 88 10000 3.1 60 23:24 04.08.2019
4160 Clouds 17 1014 77 10000 1.5 90 22:57 04.08.2019
4161 Clouds 18 1013 88 10000 3.1 60 22:38 04.08.2019
4162 Clouds 18 1014 82 10000 3.1 50 22:20 04.08.2019
4163 Clouds 18 1014 72 10000 2.6 60 21:59 04.08.2019
4164 Clouds 19 1014 82 10000 2.6 40 21:41 04.08.2019
4165 Clouds 19 1014 77 10000 3.1 50 21:20 04.08.2019
4166 Clouds 20 1014 68 10000 2.6 40 20:43 04.08.2019
4167 Clouds 21 1014 68 10000 3.6 50 20:19 04.08.2019
4168 Clouds 21 1014 64 10000 3.1 10 19:56 04.08.2019
4169 Clouds 22 1014 64 10000 3.1 40 19:37 04.08.2019
4170 Clouds 22 1014 60 10000 2.6 360 19:19 04.08.2019
4171 Clouds 22 1014 53 10000 2.1 40 18:42 04.08.2019
4172 Clouds 22 1014 60 10000 3.6 10 18:20 04.08.2019
4173 Clouds 23 1015 60 10000 3.6 360 17:45 04.08.2019
4174 Clouds 23 1015 50 10000 1 0 17:25 04.08.2019
4175 Clouds 23 1015 60 10000 3.6 300 16:56 04.08.2019
4176 Clouds 23 1015 49 10000 1 0 16:38 04.08.2019
4177 Clouds 23 1015 49 10000 1.5 0 16:19 04.08.2019
4178 Clouds 23 1015 53 10000 2.6 200 15:40 04.08.2019
4179 Clouds 23 1016 53 10000 1.5 200 15:20 04.08.2019
4180 Clouds 22 1016 53 10000 3.6 270 14:44 04.08.2019
4181 Clouds 22 1016 53 10000 3.1 260 14:26 04.08.2019
4182 Clouds 22 1016 60 10000 3.6 260 13:47 04.08.2019
4183 Clouds 22 1016 60 10000 3.1 240 13:28 04.08.2019
4184 Clouds 21 1016 64 10000 3.6 290 12:59 04.08.2019
4185 Clouds 21 1016 56 10000 2.1 240 12:40 04.08.2019
4186 Clouds 21 1017 60 10000 2.1 0 12:22 04.08.2019
4187 Clouds 21 1017 64 10000 2.1 230 11:55 04.08.2019
4188 Clouds 21 1017 64 10000 2.1 230 11:36 04.08.2019
4189 Clouds 20 1017 68 10000 2.1 250 11:18 04.08.2019
4190 Clouds 19 1017 77 10000 2.1 250 10:40 04.08.2019
4191 Clouds 19 1017 82 10000 2.1 230 10:19 04.08.2019
4192 Clouds 18 1017 82 10000 2.1 240 09:42 04.08.2019
4193 Clouds 18 1017 88 10000 1.5 240 09:21 04.08.2019
4194 Clouds 17 1016 82 10000 3.6 250 08:43 04.08.2019
4195 Clouds 16 1017 93 8000 1.5 240 08:25 04.08.2019
4196 Mist 16 1016 82 10000 1.5 240 07:51 04.08.2019
4197 Fog 14 1016 82 10000 1 230 06:51 04.08.2019
4198 Clouds 14 1017 100 10000 1.5 230 06:28 04.08.2019
4199 Mist 15 1016 82 10000 1 240 03:46 04.08.2019
4200 Clouds 16 1017 82 10000 1.5 250 02:24 04.08.2019
4201 Clouds 17 1017 82 10000 1.5 240 01:33 04.08.2019
4202 Clouds 17 1017 82 10000 1.5 240 00:59 04.08.2019
4203 Clouds 17 1017 93 10000 1 260 00:40 04.08.2019
4204 Clouds 17 1018 87 10000 1.5 250 00:18 04.08.2019
4205 Clouds 17 1018 93 10000 1 320 23:39 03.08.2019
4206 Clouds 17 1017 88 10000 1 320 23:18 03.08.2019
4207 Clouds 18 1017 82 10000 2.1 280 22:44 03.08.2019
4208 Clouds 18 1017 77 10000 1 0 22:21 03.08.2019
4209 Clouds 18 1017 72 10000 2.1 300 21:56 03.08.2019
4210 Clouds 18 1017 77 10000 2.1 330 21:36 03.08.2019
4211 Clouds 18 1017 77 10000 2.1 330 21:36 03.08.2019
4212 Clouds 18 1017 77 10000 2.6 330 21:18 03.08.2019
4213 Clouds 18 1017 77 10000 2.6 330 21:18 03.08.2019
4214 Clouds 19 1017 77 10000 3.1 340 20:41 03.08.2019
4215 Clouds 19 1017 68 10000 2.6 320 20:20 03.08.2019
4216 Clouds 19 1017 68 10000 4.1 330 19:42 03.08.2019
4217 Clouds 20 1017 68 10000 3.1 320 19:23 03.08.2019
4218 Clouds 20 1017 68 10000 3.6 320 18:53 03.08.2019
4219 Clouds 20 1018 64 10000 3.6 320 18:27 03.08.2019
4220 Clouds 20 1017 68 10000 6.2 320 17:49 03.08.2019
4221 Clouds 21 1018 60 10000 4.6 320 17:22 03.08.2019
4222 Clouds 21 1017 64 10000 5.7 310 16:56 03.08.2019
4223 Clouds 21 1018 64 10000 3.6 330 16:37 03.08.2019
4224 Clouds 21 1018 68 10000 3.6 350 16:19 03.08.2019
4225 Clouds 20 1017 56 10000 5.1 330 15:43 03.08.2019
4226 Clouds 20 1018 77 10000 5.1 320 15:23 03.08.2019
4227 Clouds 20 1018 77 10000 5.7 320 14:42 03.08.2019
4228 Clouds 20 1018 64 10000 4.1 320 14:21 03.08.2019
4229 Clouds 20 1017 68 10000 5.1 340 13:52 03.08.2019
4230 Clouds 20 1017 68 10000 5.1 340 13:52 03.08.2019
4231 Clouds 20 1018 64 10000 4.6 310 13:25 03.08.2019
4232 Clouds 19 1017 68 10000 4.6 340 12:58 03.08.2019
4233 Clouds 19 1017 68 10000 3.6 360 12:40 03.08.2019
4234 Clouds 20 1017 68 10000 4.1 330 12:21 03.08.2019
4235 Clouds 20 1016 72 10000 4.1 360 11:49 03.08.2019
4236 Clouds 19 1017 72 10000 2.6 350 11:28 03.08.2019
4237 Clouds 19 1017 77 10000 2.1 350 10:42 03.08.2019
4238 Clouds 18 1017 77 10000 2.6 350 10:24 03.08.2019
4239 Clouds 18 1016 82 10000 4.1 340 09:44 03.08.2019
4240 Clouds 18 1017 77 10000 2.1 320 09:23 03.08.2019
4241 Clouds 18 1016 82 10000 3.6 330 08:55 03.08.2019
4242 Clouds 17 1016 82 10000 2.6 320 08:18 03.08.2019
4243 Clouds 17 1016 82 10000 2.1 300 07:37 03.08.2019
4244 Fog 16 1016 82 10000 3.1 350 06:40 03.08.2019
4245 Fog 16 1015 100 10000 2.1 310 05:44 03.08.2019
4246 Clouds 16 1016 93 10000 1.5 300 02:42 03.08.2019
4247 Clouds 16 1016 93 10000 1.5 330 01:54 03.08.2019
4248 Clouds 16 1015 93 10000 2.1 350 00:56 03.08.2019
4249 Clear 17 1016 82 10000 3.6 360 00:29 03.08.2019
4250 Clear 17 1016 82 10000 3.6 360 23:41 02.08.2019
4251 Clouds 17 1016 82 10000 4.1 360 23:19 02.08.2019
4252 Clouds 17 1015 88 10000 2.6 360 22:57 02.08.2019
4253 Clouds 18 1016 88 10000 3.6 10 22:39 02.08.2019
4254 Clear 18 1015 88 10000 3.1 10 22:20 02.08.2019
4255 Clouds 18 1015 88 10000 3.6 10 21:55 02.08.2019
4256 Clear 19 1015 82 10000 3.6 10 21:36 02.08.2019
4257 Rain 19 1015 82 10000 5.1 10 21:18 02.08.2019
4258 Clouds 20 1015 77 10000 4.6 20 20:41 02.08.2019
4259 Clouds 20 1015 77 10000 5.7 360 20:21 02.08.2019
4260 Clouds 21 1014 77 10000 5.7 30 19:49 02.08.2019
4261 Clouds 21 1014 73 10000 5.1 360 19:29 02.08.2019
4262 Clouds 21 1014 73 10000 4.6 20 18:45 02.08.2019
4263 Thunderstorm 21 1014 82 10000 2.1 340 18:27 02.08.2019
4264 Thunderstorm 22 1014 64 10000 4.1 10 17:48 02.08.2019
4265 Thunderstorm 22 1014 56 10000 2.6 320 17:26 02.08.2019
4266 Thunderstorm 22 1014 64 10000 3.6 20 16:59 02.08.2019
4267 Thunderstorm 23 1014 53 10000 1.5 0 16:39 02.08.2019
4268 Thunderstorm 22 1014 72 10000 2.1 360 16:20 02.08.2019
4269 Rain 22 1014 68 7000 2.6 300 15:45 02.08.2019
4270 Thunderstorm 23 1014 60 10000 1.5 90 15:20 02.08.2019
4271 Thunderstorm 22 1014 56 10000 2.6 30 14:57 02.08.2019
4272 Rain 22 1014 64 10000 2.1 150 14:39 02.08.2019
4273 Clouds 22 1014 64 10000 2.1 110 14:18 02.08.2019
4274 Clouds 22 1014 64 10000 3.1 60 13:42 02.08.2019
4275 Clouds 22 1014 64 10000 2.6 100 13:19 02.08.2019
4276 Clouds 21 1014 68 10000 2.6 120 12:41 02.08.2019
4277 Clouds 21 1014 68 10000 2.1 120 12:19 02.08.2019
4278 Clouds 21 1014 72 10000 2.1 130 11:40 02.08.2019
4279 Clouds 20 1014 72 10000 2.6 130 11:22 02.08.2019
4280 Clouds 20 1014 64 10000 2.6 190 10:44 02.08.2019
4281 Clouds 20 1014 77 10000 2.1 170 10:24 02.08.2019
4282 Clouds 19 1014 77 10000 1.5 180 09:53 02.08.2019
4283 Clouds 18 1014 88 10000 2.6 150 09:30 02.08.2019
4284 Clouds 18 1015 87 8000 1.5 150 08:56 02.08.2019
4285 Clouds 17 1014 88 7000 1.5 130 08:26 02.08.2019
4286 Mist 16 1014 93 5000 2.6 170 07:59 02.08.2019
4287 Mist 16 1014 93 5000 2.6 170 07:39 02.08.2019
4288 Mist 15 1014 93 5000 1.5 170 07:21 02.08.2019
4289 Fog 15 1014 93 7000 1.5 150 06:27 02.08.2019
4290 Clear 15 1014 93 6000 2.1 170 05:42 02.08.2019
4291 Clouds 15 1015 93 10000 2.1 150 03:33 02.08.2019
4292 Clouds 16 1015 100 9000 1.5 150 02:37 02.08.2019
4293 Rain 16 1015 93 10000 2.6 170 01:36 02.08.2019
4294 Rain 17 1015 93 10000 2.1 170 00:31 02.08.2019
4295 Clouds 17 1015 82 10000 1 140 23:44 01.08.2019
4296 Rain 17 1015 93 10000 1.5 210 23:25 01.08.2019
4297 Clouds 17 1015 82 10000 0.5 0 22:44 01.08.2019
4298 Clouds 18 1015 88 10000 2.1 250 22:25 01.08.2019
4299 Clouds 18 1015 72 10000 1 0 21:57 01.08.2019
4300 Clouds 19 1015 82 10000 2.1 220 21:38 01.08.2019
4301 Rain 19 1014 82 10000 2.1 240 21:20 01.08.2019
4302 Clouds 20 1014 68 10000 2.1 200 20:46 01.08.2019
4303 Clouds 20 1014 68 10000 2.1 200 20:46 01.08.2019
4304 Drizzle 20 1014 77 10000 2.6 270 20:23 01.08.2019
4305 Clouds 21 1015 60 10000 2.6 220 19:54 01.08.2019
4306 Clouds 21 1014 73 10000 1 0 19:36 01.08.2019
4307 Clouds 21 1014 73 10000 1 0 19:18 01.08.2019
4308 Clouds 21 1014 73 10000 2.1 220 18:42 01.08.2019
4309 Clouds 21 1015 82 10000 2.1 150 18:23 01.08.2019
4310 Clouds 21 1015 56 10000 4.1 180 17:47 01.08.2019
4311 Clouds 21 1015 82 10000 3.6 200 17:27 01.08.2019
4312 Clouds 21 1015 53 10000 4.1 190 16:45 01.08.2019
4313 Thunderstorm 22 1015 64 10000 5.1 200 16:23 01.08.2019
4314 Clouds 22 1015 53 10000 4.6 210 15:46 01.08.2019
4315 Rain 22 1015 60 10000 5.7 200 15:22 01.08.2019
4316 Rain 22 1015 60 10000 5.7 200 15:22 01.08.2019
4317 Clouds 22 1015 49 10000 4.1 220 14:59 01.08.2019
4318 Clouds 22 1015 60 10000 5.1 210 14:41 01.08.2019
4319 Clouds 22 1015 68 10000 5.1 210 14:19 01.08.2019
4320 Clouds 22 1015 53 10000 4.1 190 13:56 01.08.2019
4321 Clouds 22 1015 68 10000 5.7 210 13:38 01.08.2019
4322 Clouds 22 1015 72 10000 4.1 190 13:20 01.08.2019
4323 Rain 21 1015 82 10000 4.6 200 12:42 01.08.2019
4324 Clouds 21 1015 72 10000 5.7 210 12:23 01.08.2019
4325 Clouds 20 1015 60 10000 4.1 170 11:43 01.08.2019
4326 Clouds 20 1015 77 10000 4.6 180 11:24 01.08.2019
4327 Clouds 20 1015 56 10000 5.7 190 10:54 01.08.2019
4328 Clouds 19 1015 82 10000 4.6 190 10:36 01.08.2019
4329 Clouds 19 1015 82 10000 4.1 190 10:18 01.08.2019
4330 Clouds 18 1015 87 10000 4.1 190 09:41 01.08.2019
4331 Clouds 17 1015 82 10000 5.1 200 09:23 01.08.2019
4332 Clouds 17 1015 82 10000 5.1 200 09:23 01.08.2019
4333 Clouds 16 1016 82 10000 3.1 170 08:46 01.08.2019
4334 Clouds 16 1015 82 10000 5.1 190 08:20 01.08.2019
4335 Clouds 15 1015 93 10000 2.1 180 07:50 01.08.2019
4336 Fog 14 1015 82 10000 3.6 170 07:26 01.08.2019
4337 Fog 14 1015 100 10000 2.1 190 06:49 01.08.2019
4338 Fog 14 1015 93 10000 2.6 170 06:29 01.08.2019
4339 Clouds 14 1016 100 10000 1.5 180 04:53 01.08.2019
4340 Clouds 15 1015 93 10000 2.6 160 02:35 01.08.2019
4341 Clouds 16 1016 93 10000 1 120 00:49 01.08.2019
4342 Clouds 16 1015 93 10000 2.6 170 00:25 01.08.2019
4343 Clouds 16 1016 87 10000 1.5 180 23:44 31.07.2019
4344 Clouds 16 1015 93 10000 2.6 190 23:21 31.07.2019
4345 Clouds 16 1015 93 10000 2.6 190 23:21 31.07.2019
4346 Clouds 16 1015 87 10000 1.5 200 22:59 31.07.2019
4347 Clouds 16 1015 93 10000 2.6 200 22:41 31.07.2019
4348 Clouds 17 1015 93 10000 3.1 190 22:23 31.07.2019
4349 Clouds 17 1015 88 10000 3.1 200 21:39 31.07.2019
4350 Rain 17 1014 88 10000 3.1 200 21:21 31.07.2019
4351 Drizzle 18 1014 68 10000 4.6 230 20:48 31.07.2019
4352 Rain 18 1014 88 10000 4.6 210 20:22 31.07.2019
4353 Drizzle 19 1014 68 10000 4.6 230 19:48 31.07.2019
4354 Clouds 19 1014 82 10000 5.7 200 19:28 31.07.2019
4355 Clouds 19 1014 64 10000 4.1 240 18:55 31.07.2019
4356 Clouds 19 1014 82 10000 5.1 210 18:37 31.07.2019
4357 Clouds 19 1014 82 10000 5.1 210 18:18 31.07.2019
4358 Clouds 19 1014 64 10000 7.2 260 17:44 31.07.2019
4359 Clouds 19 1014 88 10000 4.6 210 17:20 31.07.2019
4360 Drizzle 19 1013 72 10000 2.6 160 16:48 31.07.2019
4361 Rain 19 1013 72 10000 1.5 170 16:21 31.07.2019
4362 Thunderstorm 20 1013 56 10000 8.7 250 15:55 31.07.2019
4363 Rain 20 1014 82 10000 8.2 240 15:36 31.07.2019
4364 Clouds 22 1013 44 10000 5.1 210 15:18 31.07.2019
4365 Clouds 23 1013 49 10000 8.2 200 14:42 31.07.2019
4366 Rain 23 1013 68 10000 6.7 200 14:19 31.07.2019
4367 Clouds 23 1013 46 10000 5.7 210 13:55 31.07.2019
4368 Clouds 23 1013 56 10000 5.1 190 13:36 31.07.2019
4369 Clouds 24 1013 49 10000 8.2 200 13:18 31.07.2019
4370 Clouds 23 1013 50 10000 7.2 210 12:40 31.07.2019
4371 Clouds 22 1013 53 10000 7.2 210 12:21 31.07.2019
4372 Clouds 22 1013 53 10000 6.7 190 11:39 31.07.2019
4373 Clouds 22 1013 53 10000 7.7 200 11:20 31.07.2019
4374 Clouds 22 1013 53 10000 5.7 220 10:55 31.07.2019
4375 Clouds 22 1013 56 10000 6.2 200 10:37 31.07.2019
4376 Clouds 21 1013 60 10000 5.1 190 10:18 31.07.2019
4377 Clouds 20 1013 64 10000 5.1 210 09:42 31.07.2019
4378 Clouds 20 1013 72 10000 5.7 210 09:23 31.07.2019
4379 Clouds 19 1012 72 10000 4.1 230 08:43 31.07.2019
4380 Clear 19 1012 77 10000 3.1 210 08:23 31.07.2019
4381 Clouds 18 1012 82 10000 2.6 220 07:47 31.07.2019
4382 Clear 18 1012 82 10000 4.1 210 07:27 31.07.2019
4383 Clouds 17 1011 82 10000 2.1 170 05:20 31.07.2019
4384 Clouds 18 1011 82 10000 2.1 190 03:55 31.07.2019
4385 Clouds 19 1011 87 10000 2.1 220 00:37 31.07.2019
4386 Clouds 20 1011 77 10000 0.5 40 23:49 30.07.2019
4387 Rain 21 1011 82 10000 1 220 23:27 30.07.2019
4388 Clouds 21 1011 77 10000 1 110 22:49 30.07.2019
4389 Rain 21 1010 72 10000 1.5 280 22:26 30.07.2019
4390 Clouds 22 1010 68 10000 2.6 80 21:59 30.07.2019
4391 Rain 22 1010 68 10000 2.1 300 21:37 30.07.2019
4392 Clear 23 1010 64 10000 2.1 310 21:19 30.07.2019
4393 Clouds 23 1010 56 10000 4.6 80 20:56 30.07.2019
4394 Rain 23 1010 64 10000 3.6 300 20:37 30.07.2019
4395 Rain 24 1010 64 10000 3.6 280 20:18 30.07.2019
4396 Clouds 24 1010 53 10000 6.2 80 19:47 30.07.2019
4397 Clouds 25 1009 39 10000 3.1 210 19:28 30.07.2019
4398 Clouds 25 1010 53 10000 5.7 70 18:48 30.07.2019
4399 Clouds 28 1009 32 10000 3.6 220 18:25 30.07.2019
4400 Clouds 29 1010 50 10000 5.7 70 17:58 30.07.2019
4401 Clouds 29 1009 28 10000 3.1 0 17:40 30.07.2019
4402 Clouds 29 1009 28 10000 2.6 180 17:18 30.07.2019
4403 Clouds 29 1011 44 10000 5.7 60 16:44 30.07.2019
4404 Clouds 29 1010 30 10000 3.1 260 16:19 30.07.2019
4405 Clouds 29 1010 32 10000 3.6 260 15:40 30.07.2019
4406 Clear 29 1010 28 10000 5.1 220 15:22 30.07.2019
4407 Clear 28 1010 32 10000 4.1 0 14:44 30.07.2019
4408 Clear 28 1010 36 10000 3.1 210 14:23 30.07.2019
4409 Clouds 28 1011 36 10000 4.1 170 13:56 30.07.2019
4410 Clear 28 1010 36 10000 4.6 220 13:37 30.07.2019
4411 Clear 27 1010 36 10000 4.1 180 13:19 30.07.2019
4412 Clouds 27 1011 44 10000 2.1 70 12:44 30.07.2019
4413 Clear 26 1011 41 10000 2.6 150 12:25 30.07.2019
4414 Clouds 25 1012 44 10000 2.6 140 11:47 30.07.2019
4415 Clear 25 1011 50 10000 4.1 130 11:29 30.07.2019
4416 Clouds 24 1012 44 10000 2.1 160 10:59 30.07.2019
4417 Clear 24 1011 53 10000 3.6 120 10:39 30.07.2019
4418 Clear 23 1011 56 10000 4.1 120 10:20 30.07.2019
4419 Clouds 22 1012 64 10000 1.5 150 09:48 30.07.2019
4420 Clear 21 1012 72 10000 3.1 110 09:28 30.07.2019
4421 Clouds 19 1012 82 10000 1.5 120 08:43 30.07.2019
4422 Clear 18 1012 88 10000 1.5 100 08:20 30.07.2019
4423 Fog 17 1012 87 10000 1.5 100 07:46 30.07.2019
4424 Fog 16 1011 87 10000 2.1 110 07:23 30.07.2019
4425 Fog 16 1012 93 10000 0.5 100 06:46 30.07.2019
4426 Fog 16 1012 93 10000 0.5 100 06:46 30.07.2019
4427 Fog 15 1012 100 10000 0.5 80 05:52 30.07.2019
4428 Fog 15 1011 87 10000 2.1 110 05:32 30.07.2019
4429 Clear 16 1012 93 10000 0.5 320 01:38 30.07.2019
4430 Clear 17 1012 93 10000 0.5 320 00:41 30.07.2019
4431 Clear 17 1012 87 10000 1 320 00:20 30.07.2019
4432 Clouds 18 1012 82 10000 1 340 23:44 29.07.2019
4433 Clear 18 1012 77 10000 2.1 20 23:25 29.07.2019
4434 Clouds 18 1012 82 10000 1.5 350 22:57 29.07.2019
4435 Clear 19 1012 77 10000 2.6 40 22:38 29.07.2019
4436 Clear 19 1012 77 10000 2.6 20 22:19 29.07.2019
4437 Clear 19 1012 77 10000 2.6 20 22:19 29.07.2019
4438 Clouds 19 1012 72 10000 2.1 20 21:55 29.07.2019
4439 Clear 20 1012 72 10000 2.6 10 21:37 29.07.2019
4440 Clouds 21 1011 72 10000 2.6 20 21:18 29.07.2019
4441 Clouds 21 1011 64 10000 2.6 10 20:45 29.07.2019
4442 Clouds 22 1011 64 10000 4.6 10 20:23 29.07.2019
4443 Clouds 22 1011 60 10000 3.1 20 19:56 29.07.2019
4444 Clouds 22 1011 68 10000 3.6 20 19:37 29.07.2019
4445 Clouds 23 1011 64 10000 3.6 30 19:19 29.07.2019
4446 Clouds 23 1011 64 10000 3.1 40 18:42 29.07.2019
4447 Clouds 23 1011 64 10000 3.6 20 18:22 29.07.2019
4448 Clouds 24 1011 60 10000 3.6 360 17:51 29.07.2019
4449 Clouds 24 1011 50 10000 1 0 17:33 29.07.2019
4450 Clouds 24 1011 56 10000 3.6 340 16:59 29.07.2019
4451 Clouds 24 1011 50 10000 1 0 16:40 29.07.2019
4452 Clouds 24 1011 50 10000 2.1 270 16:22 29.07.2019
4453 Clouds 24 1011 53 10000 4.1 340 15:51 29.07.2019
4454 Clouds 24 1011 53 10000 2.1 250 15:32 29.07.2019
4455 Clouds 24 1011 53 10000 3.1 270 14:56 29.07.2019
4456 Clouds 24 1011 53 10000 3.1 270 14:37 29.07.2019
4457 Clouds 24 1011 56 10000 2.1 280 14:19 29.07.2019
4458 Clouds 24 1011 53 10000 3.1 270 13:41 29.07.2019
4459 Clouds 23 1011 56 10000 2.1 260 13:23 29.07.2019
4460 Clouds 23 1011 56 10000 2.6 250 12:42 29.07.2019
4461 Clouds 23 1011 53 10000 2.6 250 12:23 29.07.2019
4462 Clouds 22 1011 64 10000 4.6 280 11:44 29.07.2019
4463 Clouds 22 1010 68 10000 5.1 260 11:22 29.07.2019
4464 Clouds 21 1010 77 10000 3.6 270 10:46 29.07.2019
4465 Clouds 21 1010 68 10000 2.1 250 10:25 29.07.2019
4466 Clouds 20 1010 77 10000 4.6 270 09:51 29.07.2019
4467 Clouds 20 1010 77 10000 3.1 260 09:30 29.07.2019
4468 Clouds 19 1009 82 10000 4.1 270 08:57 29.07.2019
4469 Clouds 19 1009 82 10000 2.1 250 08:36 29.07.2019
4470 Clouds 19 1009 82 10000 2.1 250 08:18 29.07.2019
4471 Clouds 19 1009 82 10000 2.6 280 07:41 29.07.2019
4472 Clouds 18 1009 82 10000 2.6 240 07:20 29.07.2019
4473 Clouds 19 1008 82 10000 3.1 260 05:47 29.07.2019
4474 Clouds 19 1007 88 7000 4.1 260 04:54 29.07.2019
4475 Clouds 20 1007 82 10000 4.1 250 02:27 29.07.2019
4476 Clouds 20 1006 83 10000 0.5 0 01:45 29.07.2019
4477 Clouds 20 1007 88 10000 5.7 260 01:23 29.07.2019
4478 Clouds 20 1006 83 10000 1.5 300 00:50 29.07.2019
4479 Clouds 21 1006 82 10000 5.7 260 00:22 29.07.2019
4480 Clouds 21 1006 88 9000 4.1 260 23:41 28.07.2019
4481 Clouds 21 1006 88 8000 4.1 260 23:19 28.07.2019
4482 Clouds 21 1005 83 7000 4.6 250 22:42 28.07.2019
4483 Rain 21 1005 88 8000 5.7 260 22:23 28.07.2019
4484 Clouds 22 1004 73 10000 4.1 70 21:50 28.07.2019
4485 Clouds 24 1004 73 10000 4.1 280 21:19 28.07.2019
4486 Clouds 25 1003 61 10000 4.6 50 20:49 28.07.2019
4487 Clouds 26 1003 61 10000 3.1 310 20:30 28.07.2019
4488 Clouds 26 1003 54 10000 4.6 50 19:57 28.07.2019
4489 Clouds 26 1003 47 10000 2.6 290 19:38 28.07.2019
4490 Clouds 27 1002 42 10000 2.1 20 19:20 28.07.2019
4491 Clouds 28 1002 57 10000 5.1 50 18:44 28.07.2019
4492 Clouds 29 1002 37 10000 2.6 70 18:25 28.07.2019
4493 Clouds 29 1002 47 10000 5.1 70 17:55 28.07.2019
4494 Clouds 29 1001 35 10000 2.6 60 17:37 28.07.2019
4495 Clouds 29 1001 35 10000 2.6 90 17:19 28.07.2019
4496 Clouds 29 1002 37 10000 2.1 0 16:41 28.07.2019
4497 Clouds 29 1001 37 10000 2.1 0 16:22 28.07.2019
4498 Clouds 29 1001 37 10000 4.1 50 15:44 28.07.2019
4499 Rain 29 1001 42 10000 3.1 70 15:25 28.07.2019
4500 Rain 28 1001 39 10000 4.1 80 14:39 28.07.2019
4501 Rain 28 1001 42 10000 4.1 80 14:20 28.07.2019
4502 Clouds 28 1002 54 10000 7.2 70 13:56 28.07.2019
4503 Rain 28 1001 42 10000 5.1 70 13:37 28.07.2019
4504 Rain 28 1001 45 10000 4.6 100 13:19 28.07.2019
4505 Rain 27 1001 51 10000 5.1 70 12:42 28.07.2019
4506 Clear 26 1002 54 10000 4.6 60 12:24 28.07.2019
4507 Clear 26 1003 60 7000 6.7 70 11:50 28.07.2019
4508 Clear 25 1002 60 10000 4.1 80 11:29 28.07.2019
4509 Clear 24 1003 64 7000 6.2 70 10:58 28.07.2019
4510 Clear 24 1002 64 10000 4.1 90 10:38 28.07.2019
4511 Clear 23 1002 68 10000 4.1 90 10:18 28.07.2019
4512 Clear 22 1002 68 10000 5.1 80 09:40 28.07.2019
4513 Clouds 21 1002 73 10000 5.1 80 09:20 28.07.2019
4514 Clouds 20 1002 77 10000 4.6 80 08:42 28.07.2019
4515 Clouds 20 1002 82 10000 5.1 70 08:21 28.07.2019
4516 Clouds 18 1002 88 10000 4.1 70 07:40 28.07.2019
4517 Clouds 18 1002 88 10000 3.6 70 07:22 28.07.2019
4518 Clouds 18 1002 88 10000 3.6 60 06:33 28.07.2019
4519 Clouds 18 1002 88 10000 3.1 60 05:20 28.07.2019
4520 Clear 20 1002 72 10000 5.1 80 02:37 28.07.2019
4521 Clear 20 1002 68 10000 5.1 80 01:40 28.07.2019
4522 Clouds 21 1004 68 10000 5.7 80 00:54 28.07.2019
4523 Clouds 21 1003 60 10000 6.7 70 00:30 28.07.2019
4524 Clouds 22 1004 68 10000 6.7 80 23:53 27.07.2019
4525 Clouds 23 1003 60 10000 6.7 70 23:28 27.07.2019
4526 Clouds 23 1004 60 10000 8.2 80 22:46 27.07.2019
4527 Clouds 23 1002 57 10000 6.7 60 22:28 27.07.2019
4528 Clouds 24 1004 60 10000 7.7 80 21:59 27.07.2019
4529 Clouds 24 1002 53 10000 6.7 60 21:37 27.07.2019
4530 Clear 25 1002 36 10000 6.2 70 21:18 27.07.2019
4531 Clear 27 1002 39 10000 5.7 70 20:44 27.07.2019
4532 Clear 27 1002 37 10000 6.2 70 20:19 27.07.2019
4533 Clear 28 1002 39 10000 5.7 80 19:41 27.07.2019
4534 Clear 28 1002 35 10000 7.7 70 19:22 27.07.2019
4535 Clear 29 1002 35 10000 7.7 80 18:48 27.07.2019
4536 Clear 29 1002 35 10000 7.2 80 18:30 27.07.2019
4537 Clouds 30 1004 37 10000 7.7 90 17:52 27.07.2019
4538 Clouds 30 1002 35 10000 6.7 80 17:32 27.07.2019
4539 Clouds 30 1005 35 10000 9.3 100 16:57 27.07.2019
4540 Clouds 30 1002 37 10000 8.2 80 16:38 27.07.2019
4541 Clouds 30 1002 31 10000 7.7 90 16:18 27.07.2019
4542 Clouds 30 1005 37 10000 9.3 100 15:43 27.07.2019
4543 Clear 30 1003 33 10000 7.7 90 15:19 27.07.2019
4544 Clouds 30 1006 42 10000 9.8 110 14:46 27.07.2019
4545 Clear 30 1003 37 10000 7.7 90 14:27 27.07.2019
4546 Clouds 30 1006 39 10000 9.3 100 13:51 27.07.2019
4547 Clouds 29 1004 37 10000 7.7 90 13:25 27.07.2019
4548 Clouds 29 1006 47 10000 8.2 80 12:56 27.07.2019
4549 Clouds 28 1004 37 10000 6.2 90 12:37 27.07.2019
4550 Clouds 28 1004 42 10000 6.7 90 12:19 27.07.2019
4551 Clouds 27 1004 47 10000 6.7 80 11:40 27.07.2019
4552 Clouds 26 1005 47 10000 6.2 80 11:21 27.07.2019
4553 Clouds 25 1005 53 10000 5.1 90 10:41 27.07.2019
4554 Clouds 24 1005 56 10000 5.7 90 10:22 27.07.2019
4555 Clouds 23 1005 60 10000 4.6 100 09:41 27.07.2019
4556 Clear 22 1005 64 10000 5.7 90 09:23 27.07.2019
4557 Clouds 21 1007 68 10000 5.7 110 08:50 27.07.2019
4558 Clear 20 1005 68 10000 5.7 80 08:31 27.07.2019
4559 Clouds 20 1007 72 10000 5.7 90 07:56 27.07.2019
4560 Clouds 20 1007 72 10000 5.7 90 07:56 27.07.2019
4561 Clear 19 1005 72 10000 5.7 80 07:34 27.07.2019
4562 Clouds 18 1007 82 10000 4.6 90 06:58 27.07.2019
4563 Clear 18 1005 72 10000 6.2 70 06:37 27.07.2019
4564 Clear 18 1005 68 10000 5.7 80 06:18 27.07.2019
4565 Clear 19 1006 64 10000 5.7 70 05:32 27.07.2019
4566 Clear 19 1006 64 10000 5.7 70 04:38 27.07.2019
4567 Clear 20 1007 60 10000 5.1 80 03:39 27.07.2019
4568 Clouds 22 1007 56 10000 4.6 90 02:42 27.07.2019
4569 Clouds 22 1009 60 10000 6.2 90 01:54 27.07.2019
4570 Clouds 23 1008 53 10000 5.7 80 01:31 27.07.2019
4571 Clouds 24 1008 53 10000 6.7 80 00:38 27.07.2019
4572 Clouds 24 1008 50 10000 6.2 80 00:18 27.07.2019
4573 Clouds 25 1008 50 10000 4.6 80 23:41 26.07.2019
4574 Clouds 25 1008 47 10000 4.6 80 23:23 26.07.2019
4575 Clouds 26 1008 44 10000 5.7 80 22:42 26.07.2019
4576 Clouds 26 1008 47 10000 4.6 80 22:24 26.07.2019
4577 Clouds 28 1010 47 10000 6.2 80 21:51 26.07.2019
4578 Clouds 28 1008 42 10000 5.7 80 21:20 26.07.2019
4579 Clouds 29 1010 48 10000 5.7 90 20:51 26.07.2019
4580 Clouds 30 1007 40 10000 7.2 70 20:32 26.07.2019
4581 Clouds 31 1010 37 10000 7.2 100 19:55 26.07.2019
4582 Clouds 31 1007 40 10000 7.2 80 19:36 26.07.2019
4583 Clouds 32 1007 38 10000 7.7 70 19:18 26.07.2019
4584 Clouds 32 1007 26 10000 6.7 90 18:41 26.07.2019
4585 Clouds 33 1008 26 10000 6.2 90 18:21 26.07.2019
4586 Clouds 33 1011 40 10000 8.2 100 17:56 26.07.2019
4587 Clouds 33 1008 21 10000 5.7 100 17:37 26.07.2019
4588 Clouds 33 1008 24 10000 5.7 100 17:18 26.07.2019
4589 Clouds 33 1011 42 10000 8.2 100 16:54 26.07.2019
4590 Clouds 33 1009 24 10000 6.7 100 16:36 26.07.2019
4591 Clouds 33 1009 26 10000 5.7 100 16:18 26.07.2019
4592 Clouds 33 1009 26 10000 5.7 100 16:18 26.07.2019
4593 Clouds 33 1011 42 10000 8.7 100 15:44 26.07.2019
4594 Clouds 33 1009 30 10000 6.2 100 15:22 26.07.2019
4595 Clouds 33 1010 32 10000 6.2 100 14:46 26.07.2019
4596 Clouds 32 1010 36 10000 6.2 100 14:25 26.07.2019
4597 Clouds 32 1013 39 10000 8.7 110 13:56 26.07.2019
4598 Clouds 32 1010 33 10000 5.7 100 13:37 26.07.2019
4599 Clouds 32 1010 33 10000 6.7 90 13:19 26.07.2019
4600 Clouds 31 1011 35 10000 6.2 100 12:42 26.07.2019
4601 Clouds 30 1013 39 10000 7.2 110 12:19 26.07.2019
4602 Clouds 29 1011 45 10000 4.1 100 11:39 26.07.2019
4603 Clouds 28 1011 48 10000 5.1 80 11:19 26.07.2019
4604 Clouds 28 1014 57 10000 6.2 90 10:49 26.07.2019
4605 Clouds 27 1012 54 10000 4.6 90 10:31 26.07.2019
4606 Clouds 26 1014 56 10000 4.1 110 09:54 26.07.2019
4607 Clouds 26 1012 57 10000 4.1 80 09:34 26.07.2019
4608 Rain 24 1012 60 10000 3.6 60 08:43 26.07.2019
4609 Rain 24 1012 57 10000 4.1 70 08:22 26.07.2019
4610 Clouds 24 1014 60 10000 2.6 120 07:58 26.07.2019
4611 Rain 23 1013 57 10000 4.1 80 07:28 26.07.2019
4612 Clouds 23 1014 60 10000 5.7 100 06:52 26.07.2019
4613 Rain 24 1012 53 10000 4.1 90 05:23 26.07.2019
4614 Rain 24 1012 53 10000 3.1 90 04:22 26.07.2019
4615 Clouds 25 1014 57 10000 4.6 110 02:45 26.07.2019
4616 Clouds 26 1013 54 10000 2.6 100 01:43 26.07.2019
4617 Clouds 27 1014 54 10000 5.1 110 00:45 26.07.2019
4618 Clouds 28 1014 45 10000 3.6 100 23:57 25.07.2019
4619 Clouds 28 1013 51 10000 2.6 90 23:24 25.07.2019
4620 Clouds 28 1014 45 10000 4.1 110 22:58 25.07.2019
4621 Clouds 29 1013 51 10000 3.1 80 22:39 25.07.2019
4622 Clouds 29 1013 48 10000 3.1 80 22:20 25.07.2019
4623 Clouds 30 1014 51 10000 3.6 90 21:44 25.07.2019
4624 Clouds 31 1012 41 10000 4.6 80 21:22 25.07.2019
4625 Clouds 32 1014 45 10000 4.6 80 20:48 25.07.2019
4626 Clouds 33 1012 34 10000 4.6 80 20:23 25.07.2019
4627 Clouds 34 1014 46 10000 4.1 80 19:54 25.07.2019
4628 Clouds 35 1013 39 10000 3.6 40 19:36 25.07.2019
4629 Clouds 35 1013 39 10000 3.6 40 19:18 25.07.2019
4630 Clouds 36 1013 41 10000 4.1 30 18:39 25.07.2019
4631 Clouds 36 1013 41 10000 4.1 30 18:20 25.07.2019
4632 Clouds 36 1014 36 10000 5.1 100 17:44 25.07.2019
4633 Clouds 37 1013 41 10000 3.6 40 17:24 25.07.2019
4634 Clouds 36 1015 36 10000 5.7 100 16:47 25.07.2019
4635 Clouds 36 1014 32 10000 2.6 60 16:29 25.07.2019
4636 Clouds 36 1015 39 10000 5.7 110 15:58 25.07.2019
4637 Clouds 36 1014 34 10000 2.6 70 15:38 25.07.2019
4638 Clouds 36 1014 34 10000 3.1 90 15:18 25.07.2019
4639 Clouds 35 1014 36 10000 2.6 80 14:41 25.07.2019
4640 Clouds 35 1015 34 10000 3.1 90 14:22 25.07.2019
4641 Clouds 36 1015 38 10000 3.6 100 13:44 25.07.2019
4642 Clouds 35 1015 38 10000 2.6 120 13:25 25.07.2019
4643 Clouds 34 1015 41 10000 2.6 90 12:54 25.07.2019
4644 Clouds 33 1015 49 10000 2.6 60 12:28 25.07.2019
4645 Clouds 31 1015 52 10000 1.5 140 11:43 25.07.2019
4646 Clouds 30 1015 51 10000 1.5 50 11:24 25.07.2019
4647 Clouds 30 1016 45 10000 1 0 10:55 25.07.2019
4648 Clouds 29 1015 61 10000 0.5 0 10:36 25.07.2019
4649 Clouds 28 1015 61 10000 0.5 0 10:18 25.07.2019
4650 Clouds 26 1015 65 10000 1 0 09:40 25.07.2019
4651 Clouds 25 1015 73 9000 1 0 09:18 25.07.2019
4652 Clouds 23 1015 78 6000 0.5 0 08:42 25.07.2019
4653 Mist 22 1015 60 10000 2.1 140 07:56 25.07.2019
4654 Mist 21 1015 93 2200 1 300 07:34 25.07.2019
4655 Clouds 20 1015 73 10000 1.5 120 06:42 25.07.2019
4656 Mist 19 1015 100 3200 0.5 270 05:37 25.07.2019
4657 Mist 20 1015 68 10000 1.5 110 05:18 25.07.2019
4658 Mist 20 1015 88 4800 1.5 310 04:31 25.07.2019
4659 Clouds 22 1015 83 10000 1.5 320 01:45 25.07.2019
4660 Clouds 22 1015 83 10000 2.1 300 01:18 25.07.2019
4661 Clouds 24 1015 78 10000 2.1 310 00:20 25.07.2019
4662 Clouds 25 1014 54 10000 3.6 110 23:46 24.07.2019
4663 Clouds 25 1014 64 10000 2.1 320 23:27 24.07.2019
4664 Clouds 25 1014 61 10000 3.1 310 22:55 24.07.2019
4665 Clouds 27 1014 54 10000 3.6 320 22:36 24.07.2019
4666 Clouds 27 1014 54 10000 3.6 320 22:18 24.07.2019
4667 Clouds 29 1014 48 10000 4.6 300 21:43 24.07.2019
4668 Clouds 30 1013 43 10000 1 140 21:22 24.07.2019
4669 Clouds 32 1014 35 10000 4.1 100 20:56 24.07.2019
4670 Clouds 33 1013 33 10000 1.5 140 20:37 24.07.2019
4671 Clouds 34 1013 28 10000 1.5 160 20:19 24.07.2019
4672 Clouds 34 1014 34 10000 4.6 100 19:54 24.07.2019
4673 Clouds 35 1013 26 10000 3.1 180 19:36 24.07.2019
4674 Clouds 35 1012 25 10000 3.6 180 19:18 24.07.2019
4675 Clouds 36 1013 23 10000 4.1 170 18:37 24.07.2019
4676 Clear 36 1013 23 10000 3.6 180 18:19 24.07.2019
4677 Clear 36 1013 23 10000 5.1 150 17:42 24.07.2019
4678 Clear 36 1013 25 10000 3.6 150 17:20 24.07.2019
4679 Clear 36 1013 25 10000 4.6 140 16:41 24.07.2019
4680 Clear 36 1013 26 10000 4.1 120 16:21 24.07.2019
4681 Clear 36 1013 26 10000 4.1 140 15:40 24.07.2019
4682 Clear 36 1013 28 10000 3.6 0 15:21 24.07.2019
4683 Clouds 36 1015 28 10000 4.1 140 14:57 24.07.2019
4684 Clear 35 1013 30 10000 4.6 150 14:38 24.07.2019
4685 Clear 35 1014 30 10000 4.1 140 14:18 24.07.2019
4686 Clear 34 1014 30 10000 4.1 150 13:37 24.07.2019
4687 Clear 34 1014 30 10000 4.1 170 13:18 24.07.2019
4688 Clouds 33 1015 35 10000 4.6 130 12:50 24.07.2019
4689 Clear 33 1014 41 10000 2.6 120 12:30 24.07.2019
4690 Clear 31 1015 40 10000 2.6 150 11:39 24.07.2019
4691 Clear 30 1015 45 10000 1.5 100 11:20 24.07.2019
4692 Clouds 29 1016 48 10000 3.6 130 10:44 24.07.2019
4693 Clear 27 1015 54 10000 2.6 120 10:25 24.07.2019
4694 Clouds 27 1016 54 10000 3.6 130 09:48 24.07.2019
4695 Clouds 25 1015 64 10000 2.1 130 09:25 24.07.2019
4696 Clouds 24 1016 64 10000 3.6 130 08:58 24.07.2019
4697 Clouds 22 1015 73 10000 2.6 110 08:30 24.07.2019
4698 Clouds 21 1016 77 10000 3.1 110 07:52 24.07.2019
4699 Clouds 20 1015 77 10000 3.6 100 07:24 24.07.2019
4700 Clouds 19 1015 88 10000 2.6 100 06:33 24.07.2019
4701 Clouds 19 1016 88 10000 2.1 100 05:54 24.07.2019
4702 Clear 20 1018 82 10000 3.1 90 02:52 24.07.2019
4703 Clear 20 1018 88 10000 3.6 60 01:30 24.07.2019
4704 Clear 20 1019 93 10000 0.5 50 00:57 24.07.2019
4705 Clear 20 1018 88 10000 2.6 60 00:23 24.07.2019
4706 Clear 20 1018 88 10000 2.6 60 00:23 24.07.2019
4707 Clear 21 1019 82 10000 2.1 70 23:43 23.07.2019
4708 Clear 21 1018 83 10000 3.1 40 23:25 23.07.2019
4709 Clear 22 1019 77 10000 2.1 40 22:55 23.07.2019
4710 Clear 22 1018 73 10000 3.6 40 22:36 23.07.2019
4711 Clear 22 1018 73 10000 3.6 40 22:18 23.07.2019
4712 Clear 23 1018 69 10000 3.1 30 21:42 23.07.2019
4713 Clear 25 1018 65 10000 3.6 30 21:23 23.07.2019
4714 Clouds 26 1019 65 10000 3.6 30 20:48 23.07.2019
4715 Clouds 27 1018 61 10000 4.1 10 20:27 23.07.2019
4716 Clouds 28 1019 61 10000 4.1 50 19:43 23.07.2019
4717 Clouds 29 1019 54 10000 4.6 20 19:24 23.07.2019
4718 Clouds 30 1019 54 10000 4.6 50 18:55 23.07.2019
4719 Clouds 30 1019 51 10000 4.1 360 18:37 23.07.2019
4720 Clouds 30 1019 51 10000 4.1 360 18:18 23.07.2019
4721 Clouds 30 1019 33 10000 3.1 330 17:41 23.07.2019
4722 Clouds 30 1019 33 10000 3.6 330 17:20 23.07.2019
4723 Clouds 30 1019 33 10000 3.1 300 16:42 23.07.2019
4724 Clouds 31 1020 31 10000 2.1 210 16:24 23.07.2019
4725 Clouds 31 1020 48 10000 2.6 10 15:48 23.07.2019
4726 Clouds 30 1020 33 10000 3.1 200 15:29 23.07.2019
4727 Clouds 30 1020 48 10000 1.5 10 14:54 23.07.2019
4728 Clear 30 1020 30 10000 2.1 260 14:36 23.07.2019
4729 Clear 30 1020 30 10000 2.1 260 14:18 23.07.2019
4730 Clear 29 1020 37 10000 2.6 240 13:42 23.07.2019
4731 Clear 29 1021 42 10000 2.1 0 13:23 23.07.2019
4732 Clouds 29 1021 51 10000 2.6 220 12:59 23.07.2019
4733 Clear 28 1021 48 10000 3.1 200 12:41 23.07.2019
4734 Clear 27 1021 51 10000 3.1 200 12:21 23.07.2019
4735 Clear 26 1021 54 10000 2.1 210 11:41 23.07.2019
4736 Clear 26 1021 57 10000 3.1 200 11:21 23.07.2019
4737 Clouds 25 1021 64 10000 2.6 220 10:49 23.07.2019
4738 Clear 24 1021 64 10000 3.1 200 10:22 23.07.2019
4739 Clouds 23 1021 69 10000 3.1 210 09:43 23.07.2019
4740 Clouds 22 1021 68 10000 3.1 210 09:22 23.07.2019
4741 Clouds 21 1021 82 10000 2.1 200 08:44 23.07.2019
4742 Clouds 20 1021 82 10000 2.6 220 08:21 23.07.2019
4743 Clouds 20 1021 82 10000 2.6 220 08:21 23.07.2019
4744 Clouds 19 1021 93 10000 1 0 07:59 23.07.2019
4745 Fog 18 1021 88 10000 2.1 200 07:38 23.07.2019
4746 Fog 16 1021 100 10000 2.1 220 06:57 23.07.2019
4747 Fog 16 1021 93 10000 1.5 200 06:36 23.07.2019
4748 Fog 16 1021 93 10000 2.1 210 04:27 23.07.2019
4749 Fog 17 1021 93 10000 1.5 230 01:46 23.07.2019
4750 Clouds 18 1021 93 10000 2.1 230 00:46 23.07.2019
4751 -273 0 0 0 0 0 00:20 23.07.2019
4752 Clear 19 1022 93 10000 0.5 220 23:39 22.07.2019
4753 Clear 20 1022 88 10000 1 240 23:20 22.07.2019
4754 Clouds 20 1021 82 10000 1.5 260 22:46 22.07.2019
4755 Clear 20 1021 82 10000 1.5 250 22:24 22.07.2019
4756 Clouds 21 1021 73 10000 2.1 280 21:57 22.07.2019
4757 Clear 22 1021 73 10000 3.1 260 21:39 22.07.2019
4758 Clouds 23 1021 69 10000 2.6 270 21:19 22.07.2019
4759 Clouds 23 1021 64 10000 4.6 250 20:42 22.07.2019
4760 Clouds 24 1021 64 10000 5.1 250 20:22 22.07.2019
4761 Clouds 25 1021 65 10000 5.1 240 19:43 22.07.2019
4762 Clouds 25 1021 61 10000 6.2 250 19:23 22.07.2019
4763 Clouds 25 1020 64 10000 7.2 280 18:55 22.07.2019
4764 Clouds 25 1021 61 10000 5.7 240 18:37 22.07.2019
4765 Clouds 25 1021 64 10000 5.7 250 18:19 22.07.2019
4766 Clouds 25 1021 61 10000 6.2 240 17:39 22.07.2019
4767 Clouds 25 1021 61 10000 6.2 250 17:20 22.07.2019
4768 Clouds 25 1021 61 10000 6.2 250 17:20 22.07.2019
4769 Clouds 25 1021 64 10000 6.7 260 16:41 22.07.2019
4770 Clouds 25 1021 61 10000 6.7 250 16:21 22.07.2019
4771 Clouds 25 1020 57 10000 6.7 250 15:58 22.07.2019
4772 Clouds 24 1021 61 10000 7.7 250 15:36 22.07.2019
4773 Clouds 24 1021 61 10000 7.7 250 15:18 22.07.2019
4774 Clouds 24 1021 57 10000 6.7 250 14:42 22.07.2019
4775 Clouds 23 1021 60 10000 6.7 220 14:20 22.07.2019
4776 Clouds 23 1020 53 10000 6.7 230 13:46 22.07.2019
4777 Clouds 23 1021 56 10000 6.7 220 13:28 22.07.2019
4778 Clouds 22 1021 52 10000 6.7 220 12:45 22.07.2019
4779 Drizzle 21 1021 72 10000 6.7 220 12:25 22.07.2019
4780 Rain 20 1021 60 10000 5.7 220 11:45 22.07.2019
4781 Clouds 20 1021 60 10000 5.7 220 11:24 22.07.2019
4782 Clouds 20 1021 63 10000 3.6 200 10:53 22.07.2019
4783 Clouds 19 1021 68 10000 4.6 210 10:30 22.07.2019
4784 Rain 18 1021 72 10000 2.6 190 09:45 22.07.2019
4785 Clouds 18 1021 72 10000 4.1 200 09:25 22.07.2019
4786 -273 0 0 0 0 0 08:56 22.07.2019
4787 Clouds 17 1021 72 10000 4.1 210 08:36 22.07.2019
4788 Clouds 16 1021 67 10000 3.6 200 08:18 22.07.2019
4789 Clouds 15 1021 72 10000 2.6 180 07:41 22.07.2019
4790 Clouds 15 1021 82 10000 2.1 180 07:22 22.07.2019
4791 Clouds 13 1022 87 10000 0.5 190 03:59 22.07.2019
4792 Clouds 13 1022 87 10000 1 210 02:57 22.07.2019
4793 Clouds 14 1022 82 10000 1.5 230 00:58 22.07.2019
4794 Clouds 14 1022 93 10000 0.5 220 00:38 22.07.2019
4795 Clouds 14 1022 93 10000 0.5 220 00:38 22.07.2019
4796 Clouds 14 1022 93 10000 0.5 220 00:38 22.07.2019
4797 Clouds 15 1022 82 10000 0.5 230 00:18 22.07.2019
4798 Clouds 15 1022 82 10000 0.5 230 23:42 21.07.2019
4799 Clouds 16 1022 72 10000 1 220 22:57 21.07.2019
4800 Clouds 16 1022 72 10000 1.5 230 22:38 21.07.2019
4801 Clouds 16 1022 72 10000 1.5 230 22:20 21.07.2019
4802 Clouds 17 1022 67 10000 2.1 300 21:48 21.07.2019
4803 Clear 18 1022 63 10000 1.5 260 21:25 21.07.2019
4804 Clouds 19 1022 52 10000 5.7 280 20:57 21.07.2019
4805 Clouds 19 1022 55 10000 3.6 280 20:38 21.07.2019
4806 Clouds 20 1022 52 10000 4.6 270 20:20 21.07.2019
4807 Clouds 20 1021 52 10000 6.2 280 19:47 21.07.2019
4808 Clouds 20 1021 56 10000 4.6 280 19:28 21.07.2019
4809 Clouds 21 1021 49 10000 6.7 270 18:49 21.07.2019
4810 Clouds 21 1021 56 10000 5.1 310 18:26 21.07.2019
4811 Clouds 21 1021 52 10000 7.2 290 17:55 21.07.2019
4812 Clouds 21 1021 49 10000 6.2 280 17:36 21.07.2019
4813 Clouds 21 1021 49 10000 6.2 280 17:18 21.07.2019
4814 Clouds 21 1021 52 10000 5.1 290 16:40 21.07.2019
4815 Clouds 21 1021 46 10000 5.7 260 16:22 21.07.2019
4816 Clouds 21 1021 46 10000 5.7 260 16:22 21.07.2019
4817 Clouds 21 1021 43 10000 6.7 250 15:40 21.07.2019
4818 Clouds 21 1021 49 10000 6.7 250 15:20 21.07.2019
4819 Clouds 21 1020 49 10000 6.7 270 14:42 21.07.2019
4820 Clouds 22 1020 49 10000 7.2 250 14:24 21.07.2019
4821 Clouds 21 1019 49 10000 9.3 280 13:53 21.07.2019
4822 Clouds 21 1019 52 10000 6.2 270 13:33 21.07.2019
4823 Clouds 21 1018 52 10000 9.8 270 12:57 21.07.2019
4824 Clouds 21 1019 56 10000 7.2 250 12:39 21.07.2019
4825 Clouds 21 1018 56 10000 6.7 260 12:20 21.07.2019
4826 Clouds 21 1017 60 10000 8.2 260 11:45 21.07.2019
4827 Clouds 20 1018 68 10000 6.2 260 11:25 21.07.2019
4828 Clouds 20 1017 68 10000 5.7 270 10:43 21.07.2019
4829 Clouds 20 1017 68 10000 6.2 260 10:24 21.07.2019
4830 Clouds 20 1016 68 10000 6.2 260 09:54 21.07.2019
4831 Clouds 19 1017 72 10000 3.1 250 09:34 21.07.2019
4832 Clouds 18 1015 72 10000 5.1 260 08:49 21.07.2019
4833 Clouds 18 1015 72 10000 5.1 260 08:49 21.07.2019
4834 Clear 18 1016 82 10000 4.6 250 08:28 21.07.2019
4835 Clouds 17 1014 82 10000 5.1 240 07:53 21.07.2019
4836 Clear 16 1015 82 10000 4.1 240 07:18 21.07.2019
4837 Clear 16 1014 93 10000 3.6 240 06:23 21.07.2019
4838 Clear 16 1012 93 10000 3.1 230 03:50 21.07.2019
4839 Clear 17 1011 93 10000 3.1 220 01:51 21.07.2019
4840 Clear 18 1011 88 10000 2.6 210 00:46 21.07.2019
4841 Clouds 18 1011 88 10000 4.1 210 00:20 21.07.2019
4842 Rain 18 1011 88 10000 3.1 210 23:45 20.07.2019
4843 Rain 18 1011 82 10000 3.6 210 23:25 20.07.2019
4844 Rain 18 1011 77 10000 4.1 230 22:55 20.07.2019
4845 Rain 19 1011 77 10000 4.1 230 22:37 20.07.2019
4846 Clouds 19 1010 82 10000 4.6 220 22:18 20.07.2019
4847 Clouds 20 1010 82 10000 3.1 190 21:40 20.07.2019
4848 Thunderstorm 21 1010 73 10000 4.1 200 21:22 20.07.2019
4849 Clouds 22 1009 77 10000 4.1 200 20:43 20.07.2019
4850 Clouds 22 1009 73 10000 4.6 190 20:22 20.07.2019
4851 Thunderstorm 22 1009 60 10000 2.6 240 19:49 20.07.2019
4852 Clouds 22 1009 69 10000 4.6 210 19:27 20.07.2019
4853 Clouds 22 1009 60 10000 3.6 220 18:46 20.07.2019
4854 Rain 22 1009 68 10000 4.1 190 18:26 20.07.2019
4855 Clouds 22 1009 64 10000 4.6 230 17:58 20.07.2019
4856 Rain 22 1009 73 10000 4.1 210 17:37 20.07.2019
4857 Clouds 21 1009 73 10000 4.6 220 17:19 20.07.2019
4858 Rain 20 1009 77 10000 4.1 190 16:39 20.07.2019
4859 Rain 19 1009 82 10000 3.6 170 16:21 20.07.2019
4860 Clouds 18 1010 88 10000 3.1 170 15:41 20.07.2019
4861 Rain 18 1009 93 10000 2.6 170 15:21 20.07.2019
4862 Rain 18 1010 93 10000 4.1 210 14:49 20.07.2019
4863 Rain 19 1010 93 10000 5.7 200 14:30 20.07.2019
4864 Drizzle 20 1010 82 10000 5.7 210 13:58 20.07.2019
4865 Drizzle 21 1010 82 10000 5.7 210 13:38 20.07.2019
4866 Drizzle 22 1010 72 10000 8.2 220 13:19 20.07.2019
4867 Clouds 22 1008 47 10000 7.2 190 12:49 20.07.2019
4868 Clouds 24 1009 60 10000 5.7 200 12:19 20.07.2019
4869 Clouds 24 1009 47 10000 6.2 180 11:49 20.07.2019
4870 Clouds 24 1008 57 10000 6.7 200 11:22 20.07.2019
4871 Clouds 23 1009 60 10000 6.2 210 10:45 20.07.2019
4872 Clouds 23 1008 60 10000 5.1 170 10:25 20.07.2019
4873 Clouds 22 1010 53 10000 5.1 160 09:52 20.07.2019
4874 Clouds 21 1008 60 10000 5.1 170 09:27 20.07.2019
4875 Clouds 21 1010 60 10000 3.6 150 08:55 20.07.2019
4876 Clouds 20 1009 64 10000 3.6 160 08:24 20.07.2019
4877 Clouds 19 1010 63 10000 3.6 150 07:48 20.07.2019
4878 Clouds 18 1011 63 10000 2.6 140 06:47 20.07.2019
4879 Clouds 18 1010 72 10000 2.1 130 06:21 20.07.2019
4880 Clouds 18 1011 72 10000 2.1 140 04:31 20.07.2019
4881 Clouds 18 1011 72 10000 1.5 100 02:36 20.07.2019
4882 Clouds 18 1012 77 10000 1 110 01:21 20.07.2019
4883 Clouds 18 1013 59 10000 3.6 120 00:45 20.07.2019
4884 Clouds 18 1012 77 10000 1.5 110 00:18 20.07.2019
4885 Clouds 19 1013 72 10000 3.1 110 23:43 19.07.2019
4886 Clouds 19 1013 72 10000 1 100 23:22 19.07.2019
4887 Clouds 19 1013 68 10000 2.1 120 22:44 19.07.2019
4888 Clouds 19 1013 60 10000 1.5 270 22:25 19.07.2019
4889 Clouds 19 1013 63 10000 2.6 90 21:47 19.07.2019
4890 Clouds 20 1012 56 10000 1 270 21:29 19.07.2019
4891 Clouds 21 1013 59 10000 2.6 90 20:58 19.07.2019
4892 Clouds 22 1012 53 10000 2.1 270 20:37 19.07.2019
4893 Clouds 22 1012 53 10000 2.1 270 20:18 19.07.2019
4894 Clouds 23 1012 46 10000 2.1 250 19:35 19.07.2019
4895 Clouds 23 1013 49 10000 4.1 70 18:43 19.07.2019
4896 Clouds 24 1012 41 10000 2.1 230 18:25 19.07.2019
4897 Clouds 24 1013 46 10000 3.1 10 17:55 19.07.2019
4898 Clouds 24 1013 40 10000 2.6 270 17:29 19.07.2019
4899 Clouds 24 1013 49 10000 3.6 10 16:57 19.07.2019
4900 Clouds 24 1013 36 10000 2.1 250 16:39 19.07.2019
4901 Clouds 24 1013 38 10000 3.1 250 16:18 19.07.2019
4902 Clouds 24 1013 41 10000 3.1 230 15:44 19.07.2019
4903 Clouds 24 1013 43 10000 2.1 270 15:25 19.07.2019
4904 Clouds 23 1013 49 10000 4.1 330 14:45 19.07.2019
4905 Clouds 23 1013 49 10000 4.1 330 14:45 19.07.2019
4906 Clouds 23 1013 44 10000 3.6 220 14:25 19.07.2019
4907 Clouds 23 1013 46 10000 2.6 300 13:57 19.07.2019
4908 Clouds 22 1013 56 10000 1.5 0 13:38 19.07.2019
4909 Clouds 22 1013 56 10000 1.5 0 13:20 19.07.2019
4910 Clouds 22 1013 52 10000 3.6 290 12:44 19.07.2019
4911 Clouds 22 1013 56 10000 2.1 240 12:25 19.07.2019
4912 Clouds 21 1013 52 10000 3.6 290 11:46 19.07.2019
4913 Clouds 21 1013 56 10000 1 0 11:19 19.07.2019
4914 Clouds 20 1013 63 10000 3.6 300 10:56 19.07.2019
4915 Clouds 20 1013 63 10000 1.5 0 10:37 19.07.2019
4916 Clouds 19 1013 68 10000 1 0 10:18 19.07.2019
4917 Clouds 18 1013 82 10000 1 0 09:43 19.07.2019
4918 Clouds 18 1013 88 10000 1.5 230 09:22 19.07.2019
4919 Clouds 18 1013 88 10000 1.5 230 09:22 19.07.2019
4920 Clouds 17 1012 82 10000 4.6 280 08:50 19.07.2019
4921 Clouds 16 1012 93 7000 1.5 240 08:27 19.07.2019
4922 Clouds 16 1012 93 6000 1.5 250 07:32 19.07.2019
4923 Mist 15 1012 93 1200 2.1 250 06:33 19.07.2019
4924 Mist 17 1010 100 3000 1.5 160 02:58 19.07.2019
4925 Rain 17 1010 93 2900 2.6 200 01:42 19.07.2019
4926 Rain 17 1010 93 6000 1 320 00:47 19.07.2019
4927 Rain 17 1010 93 8000 2.1 30 23:59 18.07.2019
4928 Rain 17 1010 93 5000 2.1 150 23:40 18.07.2019
4929 Rain 17 1010 93 6000 4.66 224.904 23:22 18.07.2019
4930 Clouds 17 1010 93 8000 1.5 350 22:44 18.07.2019
4931 Rain 17 1010 93 6000 2.1 310 22:20 18.07.2019
4932 Clouds 18 1010 77 10000 2.6 330 21:57 18.07.2019
4933 Clouds 18 1010 93 7000 1.5 300 21:38 18.07.2019
4934 Clouds 19 1010 93 8000 3.6 310 21:18 18.07.2019
4935 Drizzle 19 1010 72 10000 3.6 310 20:45 18.07.2019
4936 Rain 20 1010 72 10000 4.1 280 20:23 18.07.2019
4937 Clouds 21 1009 53 10000 5.1 260 19:49 18.07.2019
4938 Rain 22 1009 60 10000 4.6 260 19:27 18.07.2019
4939 Clouds 22 1009 38 10000 3.6 160 18:51 18.07.2019
4940 Rain 24 1009 50 10000 5.1 250 18:22 18.07.2019
4941 Clouds 24 1009 38 10000 3.6 180 17:57 18.07.2019
4942 Rain 24 1009 50 10000 4.1 260 17:37 18.07.2019
4943 Rain 24 1009 47 10000 5.1 260 17:19 18.07.2019
4944 Clouds 24 1009 38 10000 4.6 200 16:49 18.07.2019
4945 Rain 25 1009 44 10000 4.6 210 16:25 18.07.2019
4946 Clouds 25 1010 38 10000 3.6 180 15:57 18.07.2019
4947 Rain 25 1009 41 10000 4.1 170 15:36 18.07.2019
4948 Clouds 25 1010 36 10000 4.6 190 14:56 18.07.2019
4949 Rain 25 1009 44 10000 4.6 180 14:38 18.07.2019
4950 Rain 25 1010 44 10000 4.1 170 14:19 18.07.2019
4951 Rain 24 1010 47 10000 4.1 180 13:42 18.07.2019
4952 Rain 24 1010 46 10000 4.6 170 13:21 18.07.2019
4953 Clouds 24 1011 43 10000 4.1 170 12:46 18.07.2019
4954 Clouds 23 1010 46 10000 6.2 170 12:21 18.07.2019
4955 Clouds 23 1010 46 10000 6.2 170 12:21 18.07.2019
4956 Clouds 22 1011 49 10000 4.6 180 11:52 18.07.2019
4957 Clouds 22 1010 56 10000 4.6 170 11:33 18.07.2019
4958 Clouds 21 1011 60 10000 3.1 170 10:53 18.07.2019
4959 Clouds 20 1011 68 10000 3.6 160 10:35 18.07.2019
4960 Clouds 19 1011 72 10000 3.6 160 09:47 18.07.2019
4961 Clouds 18 1011 72 10000 3.6 180 09:24 18.07.2019
4962 Clouds 17 1011 82 10000 2.1 140 08:50 18.07.2019
4963 Clouds 16 1011 82 10000 2.6 170 08:20 18.07.2019
4964 Clouds 15 1011 82 10000 2.6 140 07:44 18.07.2019
4965 Clouds 15 1011 87 10000 2.1 140 07:26 18.07.2019
4966 Clouds 14 1011 93 10000 2.1 130 06:40 18.07.2019
4967 Fog 13 1011 93 10000 1 0 05:36 18.07.2019
4968 Fog 13 1012 93 10000 2.1 110 03:23 18.07.2019
4969 Fog 14 1013 100 500 1 100 01:52 18.07.2019
4970 Fog 14 1013 100 10000 2.1 90 01:20 18.07.2019
4971 Clouds 15 1014 93 10000 1 50 23:55 17.07.2019
4972 Clear 16 1013 87 10000 2.1 50 23:21 17.07.2019
4973 Clouds 16 1014 87 10000 2.1 90 22:58 17.07.2019
4974 Clear 16 1013 87 10000 3.1 50 22:40 17.07.2019
4975 Clear 17 1013 77 10000 2.6 40 22:20 17.07.2019
4976 Clouds 17 1014 82 10000 2.6 90 21:46 17.07.2019
4977 Clear 19 1013 68 10000 3.1 40 21:28 17.07.2019
4978 Clouds 20 1014 77 10000 3.1 50 20:59 17.07.2019
4979 Clouds 21 1013 64 10000 3.1 50 20:40 17.07.2019
4980 Clouds 21 1013 56 10000 2.6 50 20:21 17.07.2019
4981 Clouds 22 1014 72 10000 2.6 40 19:59 17.07.2019
4982 Clouds 22 1013 53 10000 2.6 80 19:39 17.07.2019
4983 Clouds 22 1013 53 10000 2.6 80 19:18 17.07.2019
4984 Clouds 22 1014 46 10000 2.1 40 18:42 17.07.2019
4985 Clouds 22 1014 46 10000 2.1 40 18:21 17.07.2019
4986 Clouds 21 1014 68 10000 3.1 360 17:55 17.07.2019
4987 Clouds 22 1014 64 10000 1.5 10 17:37 17.07.2019
4988 Clouds 22 1014 64 10000 1.5 10 17:18 17.07.2019
4989 Clouds 22 1015 60 10000 2.1 50 16:38 17.07.2019
4990 Clouds 22 1015 60 10000 2.1 50 16:19 17.07.2019
4991 Clouds 22 1015 60 10000 2.1 50 16:19 17.07.2019
4992 Clouds 22 1015 63 10000 2.1 40 15:51 17.07.2019
4993 Clouds 21 1015 60 10000 1.5 130 15:29 17.07.2019
4994 Clouds 21 1015 63 10000 1.5 30 14:56 17.07.2019
4995 Clouds 20 1015 64 10000 1 0 14:37 17.07.2019
4996 Clouds 20 1015 64 10000 1 0 14:19 17.07.2019
4997 Clouds 19 1016 72 10000 2.1 300 13:45 17.07.2019
4998 Clouds 19 1016 72 10000 1.5 330 13:25 17.07.2019
4999 Clouds 18 1016 72 10000 2.1 310 12:44 17.07.2019
5000 Clouds 18 1016 72 10000 1 0 12:23 17.07.2019
5001 Clouds 17 1016 72 10000 1 350 11:59 17.07.2019
5002 Clouds 17 1016 72 10000 1 0 11:39 17.07.2019
5003 Clouds 17 1016 72 10000 1 0 11:19 17.07.2019
5004 Clouds 17 1016 77 10000 2.1 320 10:43 17.07.2019
5005 Clouds 16 1016 82 10000 1 0 10:20 17.07.2019
5006 Clouds 16 1016 77 10000 2.1 310 09:44 17.07.2019
5007 Clouds 15 1016 82 10000 1.5 290 09:26 17.07.2019
5008 Clouds 15 1016 82 10000 2.1 310 08:44 17.07.2019
5009 Clouds 15 1016 82 10000 1 10 08:23 17.07.2019
5010 Clouds 14 1016 82 10000 1.5 320 07:55 17.07.2019
5011 Clouds 14 1016 87 10000 0.5 0 07:36 17.07.2019
5012 Clouds 14 1016 87 10000 0.5 150 07:18 17.07.2019
5013 Clouds 14 1016 87 10000 1.5 320 06:41 17.07.2019
5014 Clouds 14 1016 87 10000 1 0 06:22 17.07.2019
5015 Clouds 14 1016 87 10000 1 350 05:33 17.07.2019
5016 Clouds 14 1016 87 10000 1 360 04:56 17.07.2019
5017 Clouds 14 1016 76 10000 1.5 330 03:50 17.07.2019
5018 Clouds 14 1017 82 10000 2.1 330 02:43 17.07.2019
5019 Clouds 14 1017 93 6000 1.5 280 01:41 17.07.2019
5020 Clouds 14 1017 93 6000 1.5 280 01:21 17.07.2019
5021 Clouds 15 1017 93 10000 1.5 310 00:39 17.07.2019
5022 Clouds 15 1017 93 10000 1.5 310 00:20 17.07.2019
5023 Clouds 15 1017 77 10000 2.6 320 23:45 16.07.2019
5024 Clouds 15 1017 82 10000 2.1 300 23:24 16.07.2019
5025 Clouds 15 1017 82 10000 2.1 310 22:44 16.07.2019
5026 Clouds 15 1017 82 10000 2.1 310 22:26 16.07.2019
5027 Clouds 15 1017 82 10000 2.6 320 21:59 16.07.2019
5028 Clouds 15 1017 82 10000 2.6 320 21:59 16.07.2019
5029 Clouds 15 1017 82 10000 2.1 280 21:40 16.07.2019
5030 Clouds 16 1017 77 10000 3.1 320 21:19 16.07.2019
5031 Clouds 16 1017 82 10000 2.6 300 20:41 16.07.2019
5032 Clouds 16 1017 77 10000 3.1 320 20:41 16.07.2019
5033 Clouds 16 1017 82 10000 2.6 300 20:23 16.07.2019
5034 Clouds 16 1017 77 10000 4.1 320 19:55 16.07.2019
5035 Clouds 16 1017 82 10000 2.6 280 19:37 16.07.2019
5036 Clouds 16 1017 82 10000 2.6 280 19:19 16.07.2019
5037 Clouds 16 1017 82 10000 2.6 290 18:44 16.07.2019
5038 Clouds 16 1017 82 10000 2.6 290 18:21 16.07.2019
5039 Clouds 16 1017 72 10000 5.7 290 17:54 16.07.2019
5040 Clouds 16 1018 82 10000 3.6 290 17:36 16.07.2019
5041 Clouds 16 1018 82 10000 3.6 290 17:36 16.07.2019
5042 Clouds 16 1018 82 10000 3.6 280 16:56 16.07.2019
5043 Clouds 16 1018 82 10000 3.6 280 16:38 16.07.2019
5044 Clouds 16 1018 82 10000 3.6 280 16:18 16.07.2019
5045 Clouds 16 1018 77 10000 3.6 300 15:39 16.07.2019
5046 Clouds 16 1018 77 10000 3.6 300 15:20 16.07.2019
5047 Clouds 16 1018 82 10000 4.6 300 14:57 16.07.2019
5048 Clouds 16 1018 82 10000 4.6 290 14:38 16.07.2019
5049 Clouds 16 1018 82 10000 4.6 290 14:19 16.07.2019
5050 Clouds 16 1017 77 10000 6.2 300 13:44 16.07.2019
5051 Clouds 16 1017 82 10000 5.7 320 13:20 16.07.2019
5052 Clouds 16 1017 82 10000 5.7 320 12:44 16.07.2019
5053 Clouds 16 1017 82 10000 5.7 310 12:20 16.07.2019
5054 Clouds 16 1017 82 10000 5.7 310 11:58 16.07.2019
5055 Clouds 15 1018 87 10000 3.6 280 11:40 16.07.2019
5056 Clouds 15 1018 87 10000 3.6 280 11:21 16.07.2019
5057 Clouds 15 1017 87 10000 4.6 310 10:45 16.07.2019
5058 Drizzle 15 1017 87 7000 5.7 310 10:22 16.07.2019
5059 Drizzle 14 1016 87 7000 5.1 300 09:56 16.07.2019
5060 Drizzle 14 1018 93 7000 3.1 280 09:36 16.07.2019
5061 Drizzle 14 1018 93 7000 3.1 280 09:18 16.07.2019
5062 Drizzle 14 1016 93 4000 5.1 310 08:41 16.07.2019
5063 Drizzle 14 1018 87 10000 3.6 280 08:19 16.07.2019
5064 Drizzle 14 1016 93 6000 4.6 290 07:42 16.07.2019
5065 Drizzle 14 1016 93 4000 4.1 300 07:24 16.07.2019
5066 Drizzle 14 1016 100 4000 4.1 300 06:47 16.07.2019
5067 Drizzle 13 1018 93 10000 3.1 280 06:26 16.07.2019
5068 Drizzle 14 1018 82 10000 3.6 290 05:36 16.07.2019
5069 Drizzle 14 1018 82 10000 3.6 290 05:18 16.07.2019
5070 Drizzle 14 1017 87 10000 3.6 300 03:57 16.07.2019
5071 Clouds 14 1018 82 10000 3.6 290 03:20 16.07.2019
5072 Clouds 14 1018 82 10000 2.6 300 02:31 16.07.2019
5073 Clouds 14 1017 82 10000 4.6 300 01:44 16.07.2019
5074 Clouds 14 1017 82 10000 3.6 300 00:47 16.07.2019
5075 Clouds 14 1019 82 10000 2.1 300 00:22 16.07.2019
5076 Clouds 14 1018 82 10000 4.1 310 23:53 15.07.2019
5077 Clouds 14 1019 82 10000 2.6 310 23:34 15.07.2019
5078 Clouds 14 1018 76 10000 3.6 300 22:55 15.07.2019
5079 Clouds 14 1019 82 10000 2.6 290 22:36 15.07.2019
5080 Clouds 14 1019 82 10000 2.6 290 22:18 15.07.2019
5081 Clouds 14 1019 87 10000 3.6 310 21:42 15.07.2019
5082 Clouds 15 1018 87 10000 4.6 310 21:20 15.07.2019
5083 Clouds 15 1018 87 10000 4.6 310 20:57 15.07.2019
5084 Clouds 15 1018 87 10000 4.6 310 20:57 15.07.2019
5085 Clouds 15 1019 82 10000 6.2 310 20:38 15.07.2019
5086 Clouds 15 1018 77 10000 5.7 300 20:20 15.07.2019
5087 Clouds 15 1018 77 10000 5.7 300 19:43 15.07.2019
5088 Clouds 16 1019 67 10000 4.6 310 19:22 15.07.2019
5089 Clouds 16 1018 72 10000 4.6 300 18:57 15.07.2019
5090 Clouds 17 1019 59 10000 5.1 300 18:38 15.07.2019
5091 Clouds 17 1019 59 10000 5.1 300 18:19 15.07.2019
5092 Clouds 17 1018 63 10000 5.1 300 17:44 15.07.2019
5093 Clouds 17 1018 63 10000 5.1 300 17:26 15.07.2019
5094 Clouds 17 1018 63 10000 6.2 300 16:59 15.07.2019
5095 Clouds 17 1018 63 10000 6.2 300 16:59 15.07.2019
5096 Clouds 18 1019 63 10000 5.7 310 16:39 15.07.2019
5097 Clouds 17 1018 59 10000 6.2 300 16:20 15.07.2019
5098 Clouds 18 1018 59 10000 6.2 300 15:56 15.07.2019
5099 Clouds 17 1019 59 10000 5.1 320 15:37 15.07.2019
5100 Clouds 17 1019 59 10000 5.1 320 15:37 15.07.2019
5101 Clouds 17 1019 59 10000 5.1 320 15:19 15.07.2019
5102 Clouds 17 1018 59 10000 6.7 280 14:44 15.07.2019
5103 Clouds 17 1019 59 10000 6.2 320 14:25 15.07.2019
5104 Clouds 17 1018 63 10000 5.7 300 13:55 15.07.2019
5105 Clouds 16 1018 67 10000 5.7 310 13:36 15.07.2019
5106 Clouds 16 1018 67 10000 5.7 310 13:18 15.07.2019
5107 Clouds 16 1018 67 10000 5.1 290 12:41 15.07.2019
5108 Clouds 16 1019 67 10000 4.1 310 12:21 15.07.2019
5109 Clouds 15 1018 62 10000 5.1 290 11:43 15.07.2019
5110 Clouds 15 1019 76 10000 2.6 270 11:25 15.07.2019
5111 Clouds 14 1018 67 10000 5.7 300 10:48 15.07.2019
5112 Clouds 14 1019 67 10000 4.1 310 10:29 15.07.2019
5113 Clouds 14 1018 71 10000 4.6 310 09:54 15.07.2019
5114 Clouds 14 1019 76 10000 1.5 270 09:36 15.07.2019
5115 Clouds 14 1019 76 10000 1.5 270 09:18 15.07.2019
5116 Clouds 13 1019 82 10000 2.1 280 08:41 15.07.2019
5117 Clouds 13 1019 82 10000 2.1 280 08:23 15.07.2019
5118 Drizzle 13 1019 82 10000 2.6 300 07:41 15.07.2019
5119 Drizzle 13 1019 82 10000 2.6 300 07:19 15.07.2019
5120 Clouds 13 1019 82 10000 2.1 300 06:39 15.07.2019
5121 Drizzle 13 1018 82 10000 3.1 300 05:49 15.07.2019
5122 Clouds 13 1018 82 10000 3.1 310 05:29 15.07.2019
5123 Clouds 13 1018 82 10000 3.1 310 04:43 15.07.2019
5124 Clouds 13 1018 76 10000 3.1 320 03:48 15.07.2019
5125 Clouds 14 1019 76 10000 2.6 320 02:45 15.07.2019
5126 Clouds 14 1019 76 10000 3.6 320 01:45 15.07.2019
5127 Clouds 14 1020 82 10000 2.6 310 01:26 15.07.2019
5128 Clouds 14 1019 82 10000 3.1 320 00:51 15.07.2019
5129 Clouds 14 1020 82 10000 2.6 310 00:22 15.07.2019
5130 Clouds 14 1019 82 10000 3.1 320 23:55 14.07.2019
5131 Clouds 14 1020 82 10000 3.6 310 23:36 14.07.2019
5132 Clouds 14 1020 82 10000 3.6 310 23:18 14.07.2019
5133 Clouds 14 1019 76 10000 2.6 300 22:55 14.07.2019
5134 Clouds 14 1020 82 10000 3.1 320 22:36 14.07.2019
5135 Clouds 14 1020 82 10000 3.1 320 22:18 14.07.2019
5136 Clouds 15 1019 76 10000 3.1 320 21:42 14.07.2019
5137 Clouds 15 1020 72 10000 3.6 330 21:18 14.07.2019
5138 Clouds 15 1019 72 10000 3.6 320 20:57 14.07.2019
5139 Clouds 15 1020 77 10000 4.6 340 20:37 14.07.2019
5140 Clouds 15 1020 77 10000 4.6 340 20:19 14.07.2019
5141 Clouds 15 1019 72 10000 4.1 310 19:44 14.07.2019
5142 Clouds 16 1020 77 10000 4.6 320 19:25 14.07.2019
5143 Clouds 16 1019 77 10000 4.1 320 18:57 14.07.2019
5144 Clouds 16 1020 72 10000 3.1 310 18:38 14.07.2019
5145 Clouds 16 1020 72 10000 3.1 310 18:20 14.07.2019
5146 Clouds 16 1019 77 10000 4.1 310 17:47 14.07.2019
5147 Clouds 16 1020 67 10000 4.1 310 17:21 14.07.2019
5148 Clouds 16 1019 72 10000 4.1 310 16:47 14.07.2019
5149 Clouds 16 1020 72 10000 4.6 320 16:24 14.07.2019
5150 Clouds 16 1019 72 10000 4.6 330 15:54 14.07.2019
5151 Clouds 16 1020 77 10000 4.1 320 15:29 14.07.2019
5152 Clouds 16 1019 72 10000 3.1 320 14:50 14.07.2019
5153 Clouds 16 1020 72 10000 4.6 330 14:22 14.07.2019
5154 Clouds 16 1019 72 10000 4.1 310 13:58 14.07.2019
5155 Clouds 16 1020 77 10000 5.1 330 13:38 14.07.2019
5156 Clouds 16 1020 77 10000 5.1 330 13:20 14.07.2019
5157 Clouds 16 1019 72 10000 4.1 330 12:43 14.07.2019
5158 Clouds 15 1020 77 10000 4.1 320 12:22 14.07.2019
5159 Clouds 15 1019 82 10000 4.1 330 11:56 14.07.2019
5160 Clouds 15 1019 77 10000 4.1 340 11:37 14.07.2019
5161 Clouds 15 1019 77 10000 4.1 340 11:19 14.07.2019
5162 Clouds 15 1019 82 10000 3.6 320 10:42 14.07.2019
5163 Clouds 14 1019 82 10000 3.6 320 10:19 14.07.2019
5164 Clouds 14 1018 82 10000 2.1 310 09:44 14.07.2019
5165 Clouds 14 1019 82 9000 4.1 330 09:24 14.07.2019
5166 Clouds 14 1018 82 10000 2.1 340 08:44 14.07.2019
5167 Clouds 14 1018 76 10000 3.6 330 08:20 14.07.2019
5168 Clouds 13 1019 87 10000 3.1 330 07:39 14.07.2019
5169 Clouds 13 1018 71 10000 2.6 320 06:58 14.07.2019
5170 Clouds 13 1018 82 10000 2.1 300 05:45 14.07.2019
5171 Clouds 13 1018 93 9000 2.6 320 03:49 14.07.2019
5172 Clouds 13 1019 76 10000 4.1 320 03:30 14.07.2019
5173 Clouds 14 1018 87 10000 3.6 330 02:50 14.07.2019
5174 Clouds 13 1019 76 10000 2.6 310 02:22 14.07.2019
5175 Clouds 14 1019 76 10000 3.1 320 01:34 14.07.2019
5176 Clouds 14 1018 93 10000 2.6 300 00:58 14.07.2019
5177 Clouds 14 1019 76 10000 2.6 310 00:39 14.07.2019
5178 Clouds 14 1019 76 10000 2.6 310 00:20 14.07.2019
5179 Clouds 14 1018 93 10000 3.1 290 23:45 13.07.2019
5180 Clouds 14 1019 76 10000 4.1 340 23:25 13.07.2019
5181 Clouds 14 1018 82 10000 5.7 320 22:59 13.07.2019
5182 Clouds 14 1019 87 10000 4.1 330 22:39 13.07.2019
5183 Clouds 14 1019 87 10000 4.1 330 22:20 13.07.2019
5184 Clouds 15 1018 77 10000 4.1 330 21:43 13.07.2019
5185 Clouds 15 1019 77 10000 4.6 320 21:19 13.07.2019
5186 Clouds 15 1018 72 10000 4.6 340 20:47 13.07.2019
5187 Clouds 15 1018 72 10000 4.6 340 20:28 13.07.2019
5188 Clouds 16 1017 77 10000 4.1 320 19:48 13.07.2019
5189 Clouds 16 1018 77 10000 5.7 320 19:29 13.07.2019
5190 Drizzle 16 1017 72 10000 6.7 310 18:46 13.07.2019
5191 Drizzle 16 1018 87 6000 5.1 310 18:23 13.07.2019
5192 Clouds 17 1018 67 10000 5.7 320 17:42 13.07.2019
5193 Clouds 17 1017 72 10000 4.6 330 17:42 13.07.2019
5194 Clouds 17 1018 67 10000 5.7 320 17:22 13.07.2019
5195 Clouds 18 1017 72 10000 4.6 350 16:58 13.07.2019
5196 Clouds 18 1018 59 10000 6.2 290 16:39 13.07.2019
5197 Clouds 18 1018 59 10000 6.2 290 16:21 13.07.2019
5198 Clouds 18 1017 77 10000 4.6 330 15:45 13.07.2019
5199 Clouds 18 1018 63 10000 6.2 320 15:22 13.07.2019
5200 Clouds 18 1017 82 10000 4.1 330 14:46 13.07.2019
5201 Clouds 18 1018 68 10000 5.1 350 14:25 13.07.2019
5202 Clouds 18 1017 87 10000 4.1 340 13:56 13.07.2019
5203 Drizzle 18 1017 68 10000 4.6 320 13:37 13.07.2019
5204 Drizzle 18 1017 87 6000 4.6 330 13:18 13.07.2019
5205 Drizzle 17 1017 68 10000 5.7 360 12:40 13.07.2019
5206 Drizzle 18 1017 68 10000 5.7 360 12:22 13.07.2019
5207 Drizzle 17 1016 93 6000 3.6 340 11:52 13.07.2019
5208 Drizzle 17 1017 72 10000 4.1 340 11:20 13.07.2019
5209 Drizzle 16 1016 93 4000 4.1 350 10:45 13.07.2019
5210 Drizzle 16 1016 93 4000 4.6 340 10:25 13.07.2019
5211 Drizzle 16 1015 93 3500 4.1 350 09:59 13.07.2019
5212 Drizzle 16 1016 87 10000 3.6 320 09:41 13.07.2019
5213 Drizzle 16 1015 93 3000 5.1 340 09:18 13.07.2019
5214 Drizzle 15 1015 93 3000 5.1 340 08:45 13.07.2019
5215 Clouds 15 1015 93 10000 2.6 310 08:26 13.07.2019
5216 Drizzle 15 1015 93 10000 4.1 320 07:30 13.07.2019
5217 Drizzle 15 1014 93 4500 4.1 330 06:50 13.07.2019
5218 Drizzle 15 1014 93 7000 4.1 330 06:27 13.07.2019
5219 Clouds 15 1014 93 10000 3.1 310 05:37 13.07.2019
5220 Clouds 16 1014 82 10000 3.6 310 04:25 13.07.2019
5221 Clouds 16 1013 82 10000 3.1 320 03:59 13.07.2019
5222 Clouds 16 1014 82 10000 2.6 320 03:39 13.07.2019
5223 Clouds 16 1014 77 10000 3.6 330 02:28 13.07.2019
5224 Clouds 16 1013 82 10000 3.6 330 01:44 13.07.2019
5225 Clouds 16 1013 82 10000 3.6 330 01:20 13.07.2019
5226 Clouds 16 1013 82 10000 3.6 330 00:57 13.07.2019
5227 Clouds 16 1013 87 10000 2.6 310 00:20 13.07.2019
5228 Clouds 16 1012 82 10000 3.6 310 23:49 12.07.2019
5229 Clouds 16 1013 82 10000 2.1 340 23:30 12.07.2019
5230 Clouds 16 1012 87 10000 3.1 330 22:56 12.07.2019
5231 Clouds 16 1013 82 10000 2.6 330 22:38 12.07.2019
5232 Clouds 17 1013 82 10000 2.6 330 22:18 12.07.2019
5233 Clouds 17 1012 82 10000 2.6 340 21:41 12.07.2019
5234 Clouds 17 1012 77 10000 3.6 350 21:19 12.07.2019
5235 Clouds 17 1012 77 10000 3.6 350 21:19 12.07.2019
5236 Clouds 18 1011 82 10000 4.6 360 20:43 12.07.2019
5237 Clouds 18 1011 72 10000 4.1 350 20:22 12.07.2019
5238 Clouds 19 1011 77 10000 5.1 340 19:43 12.07.2019
5239 Clouds 19 1011 72 10000 4.1 10 19:25 12.07.2019
5240 Clouds 19 1011 77 10000 5.1 350 18:49 12.07.2019
5241 Clouds 19 1011 72 10000 2.6 10 18:23 12.07.2019
5242 Clouds 18 1010 68 10000 5.1 350 17:58 12.07.2019
5243 Thunderstorm 18 1011 77 10000 4.6 350 17:38 12.07.2019
5244 Thunderstorm 18 1011 77 10000 4.6 350 17:19 12.07.2019
5245 Thunderstorm 19 1009 68 10000 3.6 40 16:36 12.07.2019
5246 Thunderstorm 19 1009 68 10000 3.6 40 16:18 12.07.2019
5247 Clouds 22 1009 56 10000 3.1 300 15:38 12.07.2019
5248 Rain 22 1009 56 10000 3.1 300 15:19 12.07.2019
5249 Rain 22 1010 64 10000 1.5 0 14:44 12.07.2019
5250 Rain 22 1010 64 10000 1.5 0 14:21 12.07.2019
5251 Clouds 21 1010 82 10000 2.6 320 13:53 12.07.2019
5252 Clouds 21 1010 64 10000 1 0 13:32 12.07.2019
5253 Rain 20 1010 72 10000 1 0 12:44 12.07.2019
5254 Rain 20 1010 72 10000 1 0 12:24 12.07.2019
5255 Rain 20 1010 72 10000 1 0 12:24 12.07.2019
5256 Clouds 19 1010 88 10000 2.1 290 11:59 12.07.2019
5257 Drizzle 19 1010 77 10000 1 0 11:40 12.07.2019
5258 Drizzle 19 1010 77 10000 1 0 11:19 12.07.2019
5259 Drizzle 18 1010 82 10000 2.1 260 10:41 12.07.2019
5260 Drizzle 18 1010 82 10000 0.5 0 10:23 12.07.2019
5261 Drizzle 17 1010 82 10000 2.1 270 09:53 12.07.2019
5262 Drizzle 17 1010 93 5000 1 0 09:29 12.07.2019
5263 Drizzle 16 1010 93 10000 2.6 260 08:56 12.07.2019
5264 Rain 16 1010 93 2100 1.5 210 08:26 12.07.2019
5265 Rain 16 1010 93 10000 1.5 260 07:55 12.07.2019
5266 Mist 15 1010 100 2700 1.5 210 07:32 12.07.2019
5267 Mist 15 1010 93 10000 1.5 260 06:59 12.07.2019
5268 Drizzle 15 1010 100 3600 1 290 06:28 12.07.2019
5269 Mist 15 1010 93 10000 1.5 230 05:46 12.07.2019
5270 Mist 15 1010 100 2100 1.5 260 03:22 12.07.2019
5271 Mist 16 1011 93 2400 1.5 260 01:41 12.07.2019
5272 Mist 16 1010 93 5000 1.5 210 00:58 12.07.2019
5273 Clouds 16 1011 100 2900 1 200 00:20 12.07.2019
5274 Clouds 16 1011 100 2900 1 200 00:20 12.07.2019
5275 Clouds 16 1011 100 2900 1 200 00:20 12.07.2019
5276 Clouds 16 1011 100 2900 1 200 23:49 11.07.2019
5277 Clouds 16 1011 93 7000 1.5 0 23:26 11.07.2019
5278 Clouds 16 1011 93 6000 1 180 22:58 11.07.2019
5279 Clouds 16 1011 88 10000 2.82 262.345 22:39 11.07.2019
5280 Clouds 16 1011 88 10000 2.82 262.345 22:20 11.07.2019
5281 Drizzle 17 1011 82 10000 2.1 350 21:41 11.07.2019
5282 Drizzle 17 1011 82 10000 2.1 350 21:19 11.07.2019
5283 Drizzle 18 1011 77 10000 1.5 270 20:55 11.07.2019
5284 Rain 18 1011 82 9000 3.1 240 20:36 11.07.2019
5285 Clouds 18 1011 77 10000 1.5 300 20:18 11.07.2019
5286 Clouds 19 1011 77 10000 1.5 300 19:43 11.07.2019
5287 Rain 20 1011 82 10000 1.5 280 19:23 11.07.2019
5288 Rain 20 1011 77 10000 2.1 250 18:49 11.07.2019
5289 Clouds 20 1011 72 10000 1.5 290 18:31 11.07.2019
5290 Clouds 20 1011 72 10000 1.5 210 17:55 11.07.2019
5291 Rain 20 1011 77 10000 2.6 230 17:37 11.07.2019
5292 Rain 20 1011 77 10000 2.6 230 17:19 11.07.2019
5293 Drizzle 20 1011 82 10000 2.1 200 16:43 11.07.2019
5294 Drizzle 19 1011 82 10000 2.1 200 16:22 11.07.2019
5295 Clouds 19 1011 82 9000 2.6 200 15:44 11.07.2019
5296 Clouds 19 1011 82 9000 2.6 200 15:25 11.07.2019
5297 Drizzle 19 1011 77 9000 2.6 210 14:59 11.07.2019
5298 Clouds 19 1012 88 10000 2.6 220 14:40 11.07.2019
5299 Clouds 19 1012 88 10000 2.6 220 14:20 11.07.2019
5300 Rain 18 1012 77 9000 3.1 210 13:46 11.07.2019
5301 Rain 18 1012 93 5000 3.1 220 13:26 11.07.2019
5302 Rain 18 1012 72 9000 4.1 200 12:45 11.07.2019
5303 Rain 18 1012 93 4700 4.1 200 12:26 11.07.2019
5304 Rain 18 1012 82 8000 3.6 180 11:55 11.07.2019
5305 Drizzle 18 1012 88 7000 5.1 210 11:37 11.07.2019
5306 Drizzle 18 1012 88 7000 5.1 210 11:18 11.07.2019
5307 Drizzle 18 1012 82 7000 3.1 190 10:45 11.07.2019
5308 Clouds 18 1012 88 7000 4.6 200 10:19 11.07.2019
5309 Mist 16 1012 82 7000 3.1 190 09:44 11.07.2019
5310 Mist 16 1012 93 4700 2.6 180 09:26 11.07.2019
5311 Mist 15 1012 87 6000 2.1 190 08:52 11.07.2019
5312 Mist 15 1012 93 2700 2.1 170 08:26 11.07.2019
5313 Mist 14 1013 93 4000 1.5 180 07:52 11.07.2019
5314 Drizzle 14 1013 93 2300 1.5 160 07:34 11.07.2019
5315 Drizzle 13 1013 100 2500 1.5 180 06:35 11.07.2019
5316 Drizzle 13 1013 100 3500 2.1 180 05:51 11.07.2019
5317 Drizzle 13 1013 93 2900 1.5 180 05:29 11.07.2019
5318 Drizzle 13 1014 100 3200 2.1 190 04:54 11.07.2019
5319 Drizzle 13 1015 93 3700 1.5 180 02:41 11.07.2019
5320 Drizzle 13 1015 100 4900 2.1 190 01:27 11.07.2019
5321 Drizzle 13 1016 93 4500 2.1 200 00:29 11.07.2019
5322 Rain 13 1016 93 7000 2.1 210 23:37 10.07.2019
5323 Rain 13 1016 93 7000 2.1 210 23:18 10.07.2019
5324 Rain 13 1016 93 7000 2.6 210 22:46 10.07.2019
5325 Rain 13 1016 100 4100 2.1 170 22:21 10.07.2019
5326 Rain 14 1017 82 10000 2.1 240 21:48 10.07.2019
5327 Rain 14 1017 100 3200 2.6 200 21:28 10.07.2019
5328 Drizzle 14 1017 100 4500 2.1 190 20:58 10.07.2019
5329 Drizzle 14 1017 87 8000 3.1 190 20:39 10.07.2019
5330 Drizzle 14 1017 87 10000 2.6 190 20:19 10.07.2019
5331 Drizzle 15 1017 51 10000 3.6 250 19:53 10.07.2019
5332 Drizzle 15 1017 48 10000 4.6 270 19:22 10.07.2019
5333 Drizzle 15 1017 48 10000 4.6 270 18:59 10.07.2019
5334 Drizzle 15 1018 87 7000 3.1 200 18:41 10.07.2019
5335 Drizzle 16 1018 87 7000 3.1 200 18:22 10.07.2019
5336 Drizzle 16 1018 48 10000 3.6 220 17:42 10.07.2019
5337 Drizzle 16 1018 72 10000 3.1 220 17:22 10.07.2019
5338 Rain 17 1019 62 10000 4.6 240 16:38 10.07.2019
5339 Rain 17 1019 62 10000 4.6 240 16:19 10.07.2019
5340 Clouds 17 1019 51 10000 1.5 250 15:46 10.07.2019
5341 Clouds 17 1019 48 10000 4.1 220 15:22 10.07.2019
5342 Clouds 18 1019 48 10000 3.6 250 14:43 10.07.2019
5343 Clouds 18 1019 48 10000 3.6 250 14:24 10.07.2019
5344 Clouds 18 1020 51 10000 1.5 280 13:52 10.07.2019
5345 Clouds 18 1019 42 10000 2.6 210 13:19 10.07.2019
5346 Clouds 18 1020 63 10000 2.6 290 12:58 10.07.2019
5347 Clouds 18 1020 42 10000 2.6 250 12:38 10.07.2019
5348 Clouds 17 1020 42 10000 2.6 250 12:19 10.07.2019
5349 Clouds 17 1020 55 10000 3.1 280 11:47 10.07.2019
5350 Clouds 17 1020 48 10000 2.1 190 11:21 10.07.2019
5351 Clouds 16 1020 63 10000 3.1 300 10:52 10.07.2019
5352 Clouds 16 1020 67 10000 2.6 240 10:23 10.07.2019
5353 Clouds 16 1020 72 10000 2.1 280 09:45 10.07.2019
5354 Clouds 15 1020 82 10000 2.6 240 09:21 10.07.2019
5355 Clouds 14 1020 82 10000 1 0 08:57 10.07.2019
5356 Clouds 14 1020 93 10000 1.5 220 08:38 10.07.2019
5357 Clouds 13 1020 93 10000 1.5 220 08:20 10.07.2019
5358 Clouds 12 1020 93 10000 1 230 07:42 10.07.2019
5359 Clouds 11 1020 93 10000 1 210 07:22 10.07.2019
5360 Fog 10 1020 93 10000 1 200 06:31 10.07.2019
5361 Clouds 9 1020 93 10000 1 230 05:40 10.07.2019
5362 Clouds 9 1020 100 10000 1 230 04:30 10.07.2019
5363 Clouds 10 1020 81 10000 1.5 270 01:49 10.07.2019
5364 Clouds 11 1020 76 10000 2.1 310 00:43 10.07.2019
5365 Clouds 12 1020 71 10000 2.1 290 23:42 09.07.2019
5366 Clouds 12 1021 87 10000 1 300 23:23 09.07.2019
5367 Clouds 12 1020 71 10000 2.6 310 22:57 09.07.2019
5368 Clouds 13 1021 76 10000 2.1 330 22:36 09.07.2019
5369 Clouds 13 1021 76 10000 2.1 330 22:18 09.07.2019
5370 Clouds 14 1020 67 10000 3.1 330 21:43 09.07.2019
5371 Clouds 15 1021 67 10000 4.1 340 21:25 09.07.2019
5372 Clouds 16 1020 62 10000 5.1 340 20:44 09.07.2019
5373 Clouds 16 1020 59 10000 6.2 320 20:26 09.07.2019
5374 Clouds 16 1020 59 10000 5.1 320 19:44 09.07.2019
5375 Clouds 17 1020 59 10000 5.1 320 19:26 09.07.2019
5376 Clouds 17 1020 58 10000 6.7 330 18:58 09.07.2019
5377 Clouds 17 1020 55 10000 5.7 330 18:36 09.07.2019
5378 Clouds 18 1020 62 10000 6.7 340 18:18 09.07.2019
5379 Clouds 18 1020 62 10000 6.7 340 17:42 09.07.2019
5380 Clouds 18 1020 52 10000 6.2 310 17:21 09.07.2019
5381 Clouds 18 1020 59 10000 7.2 340 16:54 09.07.2019
5382 Clouds 18 1020 52 10000 4.6 320 16:36 09.07.2019
5383 Clouds 18 1020 67 10000 6.2 340 16:18 09.07.2019
5384 Rain 18 1020 52 10000 6.2 300 15:40 09.07.2019
5385 Rain 18 1020 52 10000 6.2 300 15:22 09.07.2019
5386 Rain 17 1020 67 10000 6.2 320 14:43 09.07.2019
5387 Clouds 17 1020 52 10000 4.6 330 14:22 09.07.2019
5388 Clouds 17 1019 59 10000 7.7 330 13:47 09.07.2019
5389 Clouds 17 1020 52 10000 4.6 320 13:28 09.07.2019
5390 Clouds 17 1019 62 10000 6.2 330 12:59 09.07.2019
5391 Clouds 17 1020 59 10000 5.1 320 12:38 09.07.2019
5392 Clouds 16 1019 58 10000 7.7 340 12:18 09.07.2019
5393 Clouds 16 1019 58 10000 7.7 340 11:41 09.07.2019
5394 Clouds 16 1020 59 10000 5.1 320 11:22 09.07.2019
5395 Clouds 16 1019 72 10000 5.7 340 10:58 09.07.2019
5396 Clouds 15 1020 67 10000 5.7 320 10:39 09.07.2019
5397 Clouds 15 1020 67 10000 5.7 320 10:21 09.07.2019
5398 Clouds 14 1020 71 10000 3.6 300 09:38 09.07.2019
5399 Clouds 14 1020 71 10000 3.6 300 09:20 09.07.2019
5400 Rain 13 1020 82 10000 2.6 280 08:44 09.07.2019
5401 Rain 13 1019 76 10000 2.6 280 08:18 09.07.2019
5402 Clouds 16 1016 77 10000 3.1 290 03:45 05.07.2019
5403 Clouds 16 1017 77 10000 2.1 250 03:21 05.07.2019
5404 Clouds 16 1017 72 10000 4.1 290 02:52 05.07.2019
5405 Clouds 16 1018 77 10000 2.6 250 02:26 05.07.2019
5406 Clouds 16 1018 77 10000 2.6 250 01:36 05.07.2019
5407 Clouds 16 1017 77 10000 6.7 280 00:52 05.07.2019
5408 Clouds 16 1018 77 10000 2.6 240 00:31 05.07.2019
5409 Clouds 17 1018 67 10000 6.7 270 23:47 04.07.2019
5410 Clouds 17 1018 67 10000 6.7 270 23:19 04.07.2019
5411 Clouds 17 1019 67 10000 3.1 240 22:43 04.07.2019
5412 Clouds 17 1019 67 10000 3.1 240 22:24 04.07.2019
5413 Clouds 18 1018 63 10000 6.7 260 21:45 04.07.2019
5414 Clouds 18 1020 59 10000 4.1 270 21:26 04.07.2019
5415 Clouds 18 1019 63 10000 7.2 270 20:59 04.07.2019
5416 Clouds 19 1020 55 10000 4.6 270 20:38 04.07.2019
5417 Clouds 19 1020 55 10000 4.6 270 20:20 04.07.2019
5418 Clouds 20 1020 59 10000 7.7 280 19:42 04.07.2019
5419 Clouds 20 1021 56 10000 6.2 250 19:22 04.07.2019
5420 Clouds 20 1020 56 10000 8.2 280 18:57 04.07.2019
5421 Clouds 20 1021 52 10000 5.1 270 18:38 04.07.2019
5422 Clouds 21 1021 52 10000 5.1 270 18:20 04.07.2019
5423 Clouds 22 1021 56 10000 8.2 270 17:43 04.07.2019
5424 Clouds 21 1022 49 10000 5.1 260 17:19 04.07.2019
5425 Clouds 21 1022 52 10000 7.7 280 15:57 04.07.2019
5426 Clouds 21 1022 52 10000 7.7 280 15:57 04.07.2019
5427 Clouds 21 1023 56 10000 4.1 260 15:39 04.07.2019
5428 Clouds 21 1023 56 10000 4.1 260 15:20 04.07.2019
5429 Clouds 21 1023 59 10000 7.7 280 14:44 04.07.2019
5430 Clouds 21 1023 56 10000 4.1 260 14:25 04.07.2019
5431 Clouds 20 1023 63 10000 6.7 270 13:59 04.07.2019
5432 Clouds 19 1024 59 10000 3.6 250 13:41 04.07.2019
5433 Clouds 19 1024 59 10000 3.6 250 13:22 04.07.2019
5434 Clouds 19 1023 63 10000 6.2 270 12:55 04.07.2019
5435 Clouds 19 1024 63 10000 4.1 280 12:36 04.07.2019
5436 Clouds 19 1024 67 10000 6.7 280 12:18 04.07.2019
5437 Clouds 18 1025 63 10000 3.1 300 11:39 04.07.2019
5438 Clouds 18 1025 63 10000 3.1 300 11:39 04.07.2019
5439 Clouds 17 1025 63 10000 3.1 300 11:19 04.07.2019
5440 Clouds 17 1025 63 10000 3.6 280 10:40 04.07.2019
5441 Clouds 16 1025 63 10000 3.6 280 10:21 04.07.2019
5442 Clouds 16 1024 72 10000 4.1 270 09:45 04.07.2019
5443 Clouds 16 1025 67 10000 3.1 260 09:26 04.07.2019
5444 Clouds 15 1025 76 10000 4.1 260 08:56 04.07.2019
5445 Clouds 14 1025 76 10000 2.6 260 08:25 04.07.2019
5446 Clouds 12 1024 76 10000 1.5 240 07:46 04.07.2019
5447 Clouds 11 1025 93 10000 1.5 0 07:23 04.07.2019
5448 Clouds 9 1025 81 10000 1.5 250 06:55 04.07.2019
5449 Clouds 8 1025 93 10000 2.6 220 05:55 04.07.2019
5450 Clouds 8 1025 93 10000 1 230 05:36 04.07.2019
5451 Clouds 9 1025 87 10000 1 250 02:51 04.07.2019
5452 Clouds 10 1025 87 10000 1.5 270 01:42 04.07.2019
5453 Clouds 10 1026 87 10000 1 270 01:22 04.07.2019
5454 Clouds 11 1026 81 10000 1.5 290 00:28 04.07.2019
5455 Clouds 11 1025 76 10000 1.5 270 23:47 03.07.2019
5456 Clouds 12 1026 76 10000 1.5 280 23:20 03.07.2019
5457 Clouds 12 1025 71 10000 1.5 320 22:55 03.07.2019
5458 Clouds 13 1026 62 10000 2.6 330 22:36 03.07.2019
5459 Clouds 13 1025 67 10000 3.6 330 22:18 03.07.2019
5460 Clouds 14 1025 67 10000 3.6 330 21:46 03.07.2019
5461 Clouds 14 1025 58 10000 4.6 330 21:28 03.07.2019
5462 Clouds 15 1026 51 10000 4.1 340 20:46 03.07.2019
5463 Clouds 15 1026 51 10000 4.1 340 20:27 03.07.2019
5464 Clouds 16 1025 62 10000 4.6 330 19:53 03.07.2019
5465 Clouds 16 1026 58 10000 5.1 310 19:33 03.07.2019
5466 Clouds 17 1025 59 10000 6.2 330 18:54 03.07.2019
5467 Clouds 17 1026 51 10000 6.2 320 18:36 03.07.2019
5468 Clouds 17 1025 59 10000 5.7 340 18:18 03.07.2019
5469 Clouds 18 1026 48 10000 6.7 320 17:41 03.07.2019
5470 Clouds 18 1025 55 10000 7.2 310 17:18 03.07.2019
5471 Clouds 18 1025 55 10000 7.2 310 17:18 03.07.2019
5472 Clouds 18 1025 55 10000 7.2 310 16:44 03.07.2019
5473 Clear 18 1026 48 10000 6.7 320 16:23 03.07.2019
5474 Clouds 18 1025 51 10000 6.2 320 15:52 03.07.2019
5475 Clouds 18 1025 51 10000 6.2 320 15:52 03.07.2019
5476 Clouds 18 1026 51 10000 5.1 320 15:32 03.07.2019
5477 Clouds 18 1025 51 10000 6.2 330 14:59 03.07.2019
5478 Clouds 18 1026 48 10000 5.7 320 14:41 03.07.2019
5479 Clouds 18 1025 51 10000 6.7 320 14:19 03.07.2019
5480 Clouds 18 1025 51 10000 6.7 320 13:43 03.07.2019
5481 Clouds 18 1026 48 10000 5.7 320 13:24 03.07.2019
5482 Clouds 18 1026 48 10000 5.7 320 13:24 03.07.2019
5483 Clouds 17 1025 54 10000 7.2 320 12:46 03.07.2019
5484 Clouds 17 1024 48 10000 6.7 320 12:18 03.07.2019
5485 Clouds 17 1024 48 10000 6.7 320 11:43 03.07.2019
5486 Clouds 17 1025 52 10000 7.2 330 11:23 03.07.2019
5487 Clouds 16 1024 55 10000 7.7 320 10:57 03.07.2019
5488 Clouds 16 1025 55 10000 5.1 320 10:37 03.07.2019
5489 Clouds 16 1025 55 10000 5.1 320 10:18 03.07.2019
5490 Clouds 16 1025 63 10000 4.1 330 09:40 03.07.2019
5491 Clouds 16 1025 63 10000 4.1 330 09:20 03.07.2019
5492 Clouds 15 1024 62 10000 5.1 310 08:50 03.07.2019
5493 Rain 14 1024 72 10000 3.1 320 08:28 03.07.2019
5494 Rain 13 1024 93 10000 1.5 290 07:42 03.07.2019
5495 Rain 12 1024 93 10000 1.5 290 07:21 03.07.2019
5496 Rain 11 1024 100 10000 1 220 06:25 03.07.2019
5497 Mist 11 1023 87 10000 1.5 200 05:34 03.07.2019
5498 Rain 11 1023 87 10000 2.1 330 04:42 03.07.2019
5499 Clouds 11 1023 100 10000 1 210 03:24 03.07.2019
5500 Clouds 11 1023 100 10000 1.5 230 02:23 03.07.2019
5501 Clouds 11 1023 93 10000 1 0 01:21 03.07.2019
5502 Clouds 12 1023 87 10000 1.5 290 00:46 03.07.2019
5503 Clouds 12 1023 93 10000 1.5 290 00:24 03.07.2019
5504 Clouds 13 1023 87 10000 1 290 23:38 02.07.2019
5505 Clouds 13 1023 71 10000 2.1 320 23:20 02.07.2019
5506 Clouds 13 1023 71 10000 2.1 320 22:57 02.07.2019
5507 Clouds 13 1023 82 10000 2.1 330 22:38 02.07.2019
5508 Clouds 14 1023 71 10000 3.1 330 22:20 02.07.2019
5509 Clouds 15 1023 71 10000 3.1 330 21:45 02.07.2019
5510 Clouds 15 1023 71 10000 3.1 330 21:45 02.07.2019
5511 Clouds 16 1023 67 10000 4.1 330 21:24 02.07.2019
5512 Clouds 16 1023 67 10000 4.1 330 20:58 02.07.2019
5513 Clouds 16 1023 67 10000 5.1 340 20:40 02.07.2019
5514 Clouds 17 1023 72 10000 5.7 340 20:21 02.07.2019
5515 Clouds 17 1023 63 10000 5.7 320 19:44 02.07.2019
5516 Clouds 17 1023 67 10000 4.6 320 19:24 02.07.2019
5517 Clouds 17 1023 67 10000 5.7 340 18:58 02.07.2019
5518 Clouds 18 1023 67 10000 5.7 330 18:19 02.07.2019
5519 Clouds 18 1023 59 10000 5.7 310 17:58 02.07.2019
5520 Clouds 18 1023 59 10000 4.1 340 17:37 02.07.2019
5521 Clouds 18 1022 55 10000 7.2 300 17:19 02.07.2019
5522 Clouds 18 1022 55 10000 7.2 300 16:45 02.07.2019
5523 Rain 18 1023 52 10000 5.7 290 16:26 02.07.2019
5524 Clouds 18 1023 67 10000 4.6 300 15:42 02.07.2019
5525 Rain 18 1023 55 10000 5.7 310 15:23 02.07.2019
5526 Clouds 19 1022 59 10000 7.7 300 14:49 02.07.2019
5527 Rain 19 1023 49 10000 5.7 310 14:30 02.07.2019
5528 Clouds 19 1022 59 10000 6.2 310 13:45 02.07.2019
5529 Clouds 19 1023 55 10000 5.7 320 13:21 02.07.2019
5530 Clouds 18 1023 55 10000 5.7 320 12:59 02.07.2019
5531 Clouds 18 1023 52 10000 5.1 320 12:40 02.07.2019
5532 Clouds 18 1023 52 10000 6.2 310 12:18 02.07.2019
5533 Clouds 18 1023 55 10000 5.7 310 11:42 02.07.2019
5534 Clouds 18 1022 55 10000 7.2 330 11:21 02.07.2019
5535 Clouds 17 1022 55 10000 7.2 330 10:45 02.07.2019
5536 Clouds 17 1023 59 10000 4.6 330 10:24 02.07.2019
5537 Clouds 16 1021 54 10000 8.7 320 09:45 02.07.2019
5538 Clouds 16 1022 62 10000 5.1 330 09:22 02.07.2019
5539 Clouds 15 1021 58 10000 8.2 320 08:42 02.07.2019
5540 Clouds 15 1021 58 10000 8.2 320 08:42 02.07.2019
5541 Clouds 15 1021 58 10000 8.2 320 08:21 02.07.2019
5542 Clouds 15 1020 67 10000 6.2 310 07:53 02.07.2019
5543 Clear 14 1021 71 10000 2.6 310 07:21 02.07.2019
5544 Clouds 14 1020 71 10000 5.1 300 06:50 02.07.2019
5545 Clear 13 1021 76 10000 3.1 310 06:30 02.07.2019
5546 Clouds 14 1019 82 10000 4.1 300 04:57 02.07.2019
5547 Rain 15 1019 87 10000 2.6 260 02:26 02.07.2019
5548 Clouds 17 1019 82 10000 3.1 250 23:55 01.07.2019
5549 Rain 17 1018 72 10000 3.1 260 23:24 01.07.2019
5550 Clouds 17 1017 72 10000 6.7 270 22:47 01.07.2019
5551 Clouds 17 1018 72 10000 3.6 270 22:27 01.07.2019
5552 Clouds 17 1017 72 10000 7.7 280 21:48 01.07.2019
5553 Clouds 17 1018 67 10000 4.1 270 21:28 01.07.2019
5554 Clouds 17 1017 72 10000 8.2 280 20:53 01.07.2019
5555 Clouds 17 1018 67 10000 4.6 280 20:23 01.07.2019
5556 Clouds 17 1016 63 10000 8.2 280 19:59 01.07.2019
5557 Clouds 17 1017 63 10000 6.2 270 19:41 01.07.2019
5558 Clouds 17 1016 67 10000 8.7 290 19:23 01.07.2019
5559 Clouds 18 1016 67 10000 8.7 290 18:55 01.07.2019
5560 Clouds 18 1017 59 10000 6.7 270 18:37 01.07.2019
5561 Clouds 18 1016 55 10000 11.3 270 18:18 01.07.2019
5562 Clouds 19 1016 55 10000 11.3 270 17:42 01.07.2019
5563 Clouds 20 1017 55 10000 6.7 270 17:22 01.07.2019
5564 Clouds 20 1016 49 10000 11.8 280 16:47 01.07.2019
5565 Clouds 20 1017 55 10000 8.7 250 16:26 01.07.2019
5566 Clouds 20 1017 55 10000 8.7 250 16:26 01.07.2019
5567 Clouds 20 1015 56 10000 11.3 270 15:55 01.07.2019
5568 Clouds 21 1016 52 10000 7.7 260 15:36 01.07.2019
5569 Clouds 21 1016 52 10000 7.7 260 15:18 01.07.2019
5570 Clouds 21 1016 56 10000 7.7 270 14:42 01.07.2019
5571 Clouds 21 1015 56 10000 8.2 290 14:19 01.07.2019
5572 Clouds 21 1015 53 10000 6.7 260 13:42 01.07.2019
5573 Clouds 21 1015 56 10000 6.7 270 13:22 01.07.2019
5574 Clouds 21 1014 56 10000 8.2 260 12:55 01.07.2019
5575 Clouds 21 1015 64 10000 7.2 260 12:36 01.07.2019
5576 Clouds 21 1015 64 10000 7.2 260 12:18 01.07.2019
5577 Clouds 21 1015 60 10000 5.7 260 11:43 01.07.2019
5578 Clouds 21 1015 64 10000 6.7 250 11:20 01.07.2019
5579 Clouds 20 1015 68 10000 5.7 270 10:47 01.07.2019
5580 Clouds 20 1014 68 10000 5.1 260 10:23 01.07.2019
5581 Clouds 20 1013 72 10000 5.7 250 09:46 01.07.2019
5582 Clouds 20 1014 72 10000 5.1 250 09:27 01.07.2019
5583 Clouds 20 1014 72 10000 5.1 250 09:27 01.07.2019
5584 Clouds 19 1013 77 10000 4.6 250 08:59 01.07.2019
5585 Clouds 19 1014 77 10000 5.1 260 08:37 01.07.2019
5586 Clouds 17 1014 88 10000 4.6 230 07:40 01.07.2019
5587 Clouds 17 1014 93 10000 4.6 230 07:20 01.07.2019
5588 Clouds 15 1013 93 10000 2.6 230 05:43 01.07.2019
5589 Clear 15 1014 93 10000 2.1 200 01:42 01.07.2019
5590 Clear 15 1014 87 10000 2.1 240 00:47 01.07.2019
5591 Clear 15 1015 87 10000 1 210 00:28 01.07.2019
5592 Clear 16 1015 82 10000 2.6 200 23:52 30.06.2019
5593 Clear 17 1015 77 10000 2.1 190 23:21 30.06.2019
5594 Clear 17 1015 77 10000 2.1 250 22:49 30.06.2019
5595 Clear 18 1015 72 10000 1.5 260 22:21 30.06.2019
5596 Clear 19 1015 68 10000 2.1 280 21:42 30.06.2019
5597 Clouds 20 1015 68 10000 2.6 290 21:20 30.06.2019
5598 Clouds 20 1015 72 10000 7.2 280 20:57 30.06.2019
5599 Clouds 21 1015 64 10000 5.1 300 20:39 30.06.2019
5600 Clouds 21 1015 64 10000 4.6 280 20:21 30.06.2019
5601 Clouds 22 1014 68 10000 6.7 290 19:44 30.06.2019
5602 Clouds 22 1015 64 10000 5.7 280 19:25 30.06.2019
5603 Clouds 22 1015 64 10000 6.2 280 18:39 30.06.2019
5604 Clouds 23 1015 64 10000 5.1 270 18:20 30.06.2019
5605 Clouds 23 1015 64 10000 5.1 270 18:20 30.06.2019
5606 Clouds 23 1014 56 10000 5.1 270 17:40 30.06.2019
5607 Clouds 23 1015 60 10000 5.7 260 17:19 30.06.2019
5608 Clouds 23 1014 60 10000 8.7 280 16:51 30.06.2019
5609 Clouds 24 1014 50 10000 5.7 280 16:32 30.06.2019
5610 Clouds 24 1014 50 10000 5.1 260 15:38 30.06.2019
5611 Clouds 25 1014 53 10000 6.2 270 15:19 30.06.2019
5612 -273 0 0 0 0 0 14:56 30.06.2019
5613 -273 0 0 0 0 0 14:56 30.06.2019
5614 Clouds 25 1013 64 10000 8.7 290 14:56 30.06.2019
5615 Clouds 25 1013 53 10000 4.6 290 14:38 30.06.2019
5616 Clouds 24 1012 64 10000 8.7 290 13:57 30.06.2019
5617 Clouds 25 1014 60 10000 6.7 290 13:38 30.06.2019
5618 Clear 25 1013 64 10000 5.7 270 13:19 30.06.2019
5619 Clouds 25 1011 69 10000 10.3 280 12:45 30.06.2019
5620 Clear 26 1012 64 10000 7.7 310 12:23 30.06.2019
5621 Clouds 27 1009 42 10000 8.2 240 11:47 30.06.2019
5622 Clear 27 1010 65 10000 6.7 270 11:22 30.06.2019
5623 Clouds 27 1009 39 10000 5.7 240 10:56 30.06.2019
5624 Clear 27 1010 61 10000 6.2 240 10:37 30.06.2019
5625 Clear 27 1009 54 10000 7.2 250 10:18 30.06.2019
5626 Clear 27 1009 54 10000 7.2 250 10:18 30.06.2019
5627 Clouds 27 1008 42 10000 5.1 210 09:43 30.06.2019
5628 Clear 26 1009 50 10000 5.7 210 09:23 30.06.2019
5629 Clouds 25 1009 44 10000 4.1 200 08:57 30.06.2019
5630 Clear 24 1009 50 10000 4.1 190 08:29 30.06.2019
5631 Clouds 23 1009 53 10000 3.1 190 07:56 30.06.2019
5632 Clear 21 1009 60 10000 2.6 180 07:28 30.06.2019
5633 Clear 20 1009 60 10000 2.6 180 06:41 30.06.2019
5634 Clear 19 1010 60 10000 3.6 170 05:33 30.06.2019
5635 Clouds 18 1012 68 10000 0.5 0 02:52 30.06.2019
5636 Clear 19 1012 93 10000 1 130 01:30 30.06.2019
5637 Clear 20 1013 88 10000 1.5 100 00:32 30.06.2019
5638 Clear 20 1013 88 10000 1.5 100 00:32 30.06.2019
5639 Clouds 21 1014 82 10000 1 80 23:55 29.06.2019
5640 Clear 22 1013 77 10000 1 110 23:25 29.06.2019
5641 Clouds 22 1014 73 10000 2.1 80 22:58 29.06.2019
5642 Clear 23 1013 68 10000 1 100 22:40 29.06.2019
5643 Clear 23 1014 64 10000 1.5 120 22:20 29.06.2019
5644 Clear 26 1015 61 10000 2.6 100 21:49 29.06.2019
5645 Clear 27 1014 42 10000 1 110 21:23 29.06.2019
5646 Clear 29 1014 42 10000 1.5 100 20:42 29.06.2019
5647 Clear 29 1015 35 10000 2.1 100 20:24 29.06.2019
5648 Clear 29 1016 39 10000 3.6 110 19:48 29.06.2019
5649 Clear 30 1015 33 10000 2.6 110 19:24 29.06.2019
5650 Clear 29 1016 33 10000 2.1 160 18:51 29.06.2019
5651 Clear 29 1016 33 10000 3.6 110 18:26 29.06.2019
5652 Clear 30 1017 28 10000 3.1 180 17:55 29.06.2019
5653 Clear 30 1017 33 10000 2.6 100 17:36 29.06.2019
5654 Clear 30 1017 33 10000 2.6 100 17:18 29.06.2019
5655 Clear 30 1017 33 10000 2.6 100 16:42 29.06.2019
5656 Clear 30 1019 32 10000 1.5 190 15:54 29.06.2019
5657 Clear 29 1018 42 10000 3.1 90 15:31 29.06.2019
5658 Clear 28 1019 32 10000 2.1 200 14:45 29.06.2019
5659 Clear 27 1019 44 10000 2.6 110 14:26 29.06.2019
5660 Clear 27 1020 36 10000 2.1 150 13:50 29.06.2019
5661 Clear 27 1020 50 10000 2.1 0 13:27 29.06.2019
5662 Clear 26 1021 38 10000 2.1 120 12:57 29.06.2019
5663 Clear 26 1020 50 10000 2.1 0 12:38 29.06.2019
5664 Clear 24 1020 53 10000 2.1 130 12:20 29.06.2019
5665 Clear 24 1020 53 10000 2.6 160 11:42 29.06.2019
5666 Clear 23 1021 60 10000 1 0 11:21 29.06.2019
5667 Clear 23 1021 56 10000 2.1 180 10:46 29.06.2019
5668 Clear 22 1021 68 10000 1.5 90 10:21 29.06.2019
5669 Clear 20 1022 68 10000 1.5 0 09:50 29.06.2019
5670 Clear 16 1022 82 10000 2.6 150 08:55 29.06.2019
5671 Mist 16 1022 87 8000 2.6 110 08:30 29.06.2019
5672 Mist 14 1022 93 5000 1 150 07:45 29.06.2019
5673 Mist 12 1022 93 4000 1.5 100 06:49 29.06.2019
5674 Fog 11 1022 100 4600 1.5 100 06:25 29.06.2019
5675 Clear 11 1022 100 6000 2.1 100 05:18 29.06.2019
5676 Clear 12 1024 100 9000 2.6 50 01:42 29.06.2019
5677 Clear 12 1024 93 10000 0.5 40 00:49 29.06.2019
5678 Clear 14 1024 93 10000 2.6 30 23:48 28.06.2019
5679 Clear 14 1024 87 10000 2.6 20 23:21 28.06.2019
5680 Clear 15 1025 87 10000 1.5 40 22:47 28.06.2019
5681 Clear 15 1024 82 10000 2.6 30 22:21 28.06.2019
5682 Clear 16 1025 82 10000 2.6 20 21:45 28.06.2019
5683 Clear 18 1024 72 10000 3.6 30 21:19 28.06.2019
5684 Clear 18 1024 72 10000 3.6 40 20:42 28.06.2019
5685 Clear 19 1024 68 10000 4.1 50 20:19 28.06.2019
5686 Clear 19 1024 68 10000 3.6 40 19:42 28.06.2019
5687 Clear 20 1025 63 10000 4.1 30 19:23 28.06.2019
5688 Clear 20 1025 64 10000 4.1 30 18:42 28.06.2019
5689 Clear 21 1025 60 10000 4.6 20 18:22 28.06.2019
5690 Clouds 21 1026 63 10000 4.1 360 17:54 28.06.2019
5691 Clear 21 1025 60 10000 3.6 40 17:28 28.06.2019
5692 Clouds 21 1026 63 10000 4.1 20 16:47 28.06.2019
5693 Clear 21 1026 56 10000 3.6 20 16:20 28.06.2019
5694 Clouds 21 1026 63 10000 3.6 360 15:47 28.06.2019
5695 Clouds 21 1026 60 10000 4.1 40 15:18 28.06.2019
5696 Clouds 20 1026 60 10000 3.1 40 14:42 28.06.2019
5697 Clouds 20 1026 63 10000 2.6 60 14:21 28.06.2019
5698 Clouds 19 1027 67 10000 3.1 350 13:49 28.06.2019
5699 Clouds 19 1026 68 10000 2.6 50 13:29 28.06.2019
5700 Clouds 18 1026 63 10000 2.1 350 12:53 28.06.2019
5701 Clouds 18 1027 63 10000 2.1 350 12:35 28.06.2019
5702 Clouds 17 1027 72 10000 2.1 50 11:47 28.06.2019
5703 Clouds 16 1027 72 10000 2.6 360 11:19 28.06.2019
5704 Clouds 16 1027 72 10000 3.6 60 10:43 28.06.2019
5705 Clouds 16 1027 77 10000 3.1 30 10:21 28.06.2019
5706 Clouds 15 1027 76 10000 2.6 330 09:47 28.06.2019
5707 Clouds 15 1027 77 10000 2.1 40 09:29 28.06.2019
5708 Clouds 15 1027 76 10000 2.6 10 08:44 28.06.2019
5709 Clouds 14 1027 76 10000 3.1 30 08:24 28.06.2019
5710 Clouds 14 1027 76 10000 3.6 10 07:45 28.06.2019
5711 Clouds 14 1027 82 10000 2.1 340 06:57 28.06.2019
5712 Clouds 14 1027 76 10000 3.1 10 05:42 28.06.2019
5713 Clouds 14 1028 76 10000 3.6 20 01:22 28.06.2019
5714 Clouds 14 1028 76 10000 3.6 10 00:26 28.06.2019
5715 Clouds 14 1028 76 10000 3.1 350 23:48 27.06.2019
5716 Clouds 14 1028 72 10000 3.6 350 23:25 27.06.2019
5717 Clouds 14 1028 76 10000 4.6 340 22:55 27.06.2019
5718 Clouds 15 1028 77 10000 3.6 340 22:36 27.06.2019
5719 Clouds 15 1028 77 10000 3.6 340 22:18 27.06.2019
5720 Clouds 15 1027 76 10000 4.1 330 21:47 27.06.2019
5721 Clouds 15 1028 77 10000 4.1 330 21:29 27.06.2019
5722 Clouds 15 1028 72 10000 5.1 340 20:55 27.06.2019
5723 Clouds 15 1028 72 10000 5.1 340 20:36 27.06.2019
5724 Clouds 15 1028 72 10000 5.1 340 20:18 27.06.2019
5725 Clouds 16 1028 72 10000 4.1 330 19:41 27.06.2019
5726 Clouds 16 1028 72 10000 4.6 340 19:23 27.06.2019
5727 Clouds 16 1028 72 10000 4.6 340 18:42 27.06.2019
5728 Clouds 16 1028 72 10000 5.1 330 18:19 27.06.2019
5729 Clouds 17 1029 72 10000 5.1 330 17:43 27.06.2019
5730 Clouds 17 1029 67 10000 5.7 350 17:22 27.06.2019
5731 Clouds 17 1029 67 10000 5.7 350 16:40 27.06.2019
5732 Clouds 17 1029 67 10000 6.2 320 16:19 27.06.2019
5733 Clouds 17 1029 67 10000 6.2 320 16:19 27.06.2019
5734 Clouds 17 1028 67 10000 5.7 330 15:55 27.06.2019
5735 Clouds 17 1029 72 10000 3.6 340 15:35 27.06.2019
5736 Clouds 17 1028 72 10000 5.7 320 14:58 27.06.2019
5737 Clouds 17 1029 67 10000 5.1 340 14:39 27.06.2019
5738 Clouds 16 1029 72 10000 5.7 340 14:19 27.06.2019
5739 Clouds 17 1029 77 10000 5.1 350 13:43 27.06.2019
5740 Clouds 16 1029 77 10000 4.6 330 13:25 27.06.2019
5741 Clouds 16 1029 77 10000 6.2 330 12:49 27.06.2019
5742 Clouds 16 1029 77 10000 5.7 330 12:31 27.06.2019
5743 Clouds 16 1029 77 10000 6.2 320 11:48 27.06.2019
5744 Clouds 15 1029 82 10000 4.6 330 11:24 27.06.2019
5745 Clouds 16 1029 77 10000 4.1 330 10:58 27.06.2019
5746 Clouds 15 1029 77 10000 4.1 330 10:40 27.06.2019
5747 Clouds 15 1029 77 10000 3.6 330 10:19 27.06.2019
5748 Clouds 15 1029 72 10000 4.6 350 09:41 27.06.2019
5749 Clouds 15 1029 72 10000 4.1 330 09:21 27.06.2019
5750 Clouds 15 1028 76 10000 4.6 330 08:50 27.06.2019
5751 Clouds 15 1029 76 10000 4.1 360 08:29 27.06.2019
5752 Clouds 14 1028 71 10000 5.1 340 07:48 27.06.2019
5753 Clouds 14 1029 71 10000 5.1 340 07:24 27.06.2019
5754 Clouds 14 1028 71 10000 4.1 350 06:37 27.06.2019
5755 Clouds 13 1028 76 10000 4.6 320 03:53 27.06.2019
5756 Clouds 14 1028 76 10000 5.1 330 02:43 27.06.2019
5757 Clouds 14 1028 76 10000 4.6 340 01:46 27.06.2019
5758 Clouds 14 1028 76 10000 4.1 330 00:54 27.06.2019
5759 Clouds 14 1028 82 10000 4.6 360 00:36 27.06.2019
5760 Clouds 15 1028 82 10000 4.6 360 00:18 27.06.2019
5761 Clouds 15 1028 82 10000 4.1 350 23:24 26.06.2019
5762 Clouds 15 1027 82 10000 5.7 330 22:59 26.06.2019
5763 Clouds 15 1028 82 10000 5.1 350 22:41 26.06.2019
5764 Clouds 15 1028 77 10000 4.6 360 22:23 26.06.2019
5765 Clouds 16 1027 82 10000 5.7 340 21:55 26.06.2019
5766 Clouds 16 1027 77 10000 5.7 360 21:37 26.06.2019
5767 Clouds 16 1027 82 10000 5.7 350 21:19 26.06.2019
5768 Clouds 16 1027 82 10000 5.7 10 20:43 26.06.2019
5769 Clouds 16 1027 77 10000 4.1 350 20:25 26.06.2019
5770 Clouds 17 1026 82 10000 5.1 340 19:48 26.06.2019
5771 Clouds 17 1027 77 10000 5.7 350 19:30 26.06.2019
5772 Clouds 18 1026 82 10000 5.7 340 18:55 26.06.2019
5773 Clouds 18 1026 72 10000 6.7 350 18:37 26.06.2019
5774 Clouds 19 1026 72 10000 6.7 350 18:18 26.06.2019
5775 Clouds 20 1027 72 10000 5.7 340 17:41 26.06.2019
5776 Clouds 19 1026 68 10000 6.2 330 17:23 26.06.2019
5777 Clouds 20 1026 77 10000 6.2 340 16:50 26.06.2019
5778 Clouds 20 1026 72 10000 4.6 340 16:28 26.06.2019
5779 Clouds 20 1025 82 10000 6.7 330 15:51 26.06.2019
5780 Clouds 20 1026 77 10000 5.1 350 15:28 26.06.2019
5781 Clouds 20 1026 82 10000 5.1 360 14:42 26.06.2019
5782 Clouds 20 1026 77 10000 6.2 350 14:21 26.06.2019
5783 Clouds 20 1025 82 10000 5.7 340 13:45 26.06.2019
5784 Clouds 19 1026 82 10000 5.7 330 13:21 26.06.2019
5785 Clouds 19 1025 77 10000 5.7 320 12:54 26.06.2019
5786 Clouds 19 1025 88 10000 5.7 320 12:36 26.06.2019
5787 Clouds 19 1025 88 10000 5.7 320 12:18 26.06.2019
5788 Clouds 20 1024 93 6000 5.1 320 11:25 26.06.2019
5789 Mist 20 1023 73 10000 4.1 320 10:51 26.06.2019
5790 Mist 20 1023 73 10000 4.1 320 10:51 26.06.2019
5791 Clouds 20 1023 88 10000 5.7 320 10:31 26.06.2019
5792 Clouds 21 1022 73 10000 5.7 330 09:59 26.06.2019
5793 Clouds 21 1022 77 10000 4.1 340 09:30 26.06.2019
5794 Clouds 21 1021 77 10000 4.6 330 08:55 26.06.2019
5795 Clouds 20 1021 82 10000 4.1 320 08:22 26.06.2019
5796 Clouds 20 1021 82 10000 4.6 330 07:59 26.06.2019
5797 Clouds 19 1021 88 10000 4.1 330 07:40 26.06.2019
5798 Clouds 19 1020 93 6000 3.6 310 06:33 26.06.2019
5799 Clouds 23 1019 88 10000 1 250 02:18 26.06.2019
5800 Clouds 24 1018 78 10000 2.6 280 00:36 26.06.2019
5801 Clouds 25 1017 61 10000 1.5 120 23:58 25.06.2019
5802 Clouds 26 1018 83 10000 2.1 300 23:39 25.06.2019
5803 Clouds 26 1017 78 10000 0.5 320 23:20 25.06.2019
5804 Clouds 26 1017 74 10000 1.5 310 22:42 25.06.2019
5805 Clouds 27 1017 74 10000 2.6 320 22:23 25.06.2019
5806 Clouds 28 1017 58 10000 2.1 90 21:46 25.06.2019
5807 Clouds 30 1017 58 10000 4.6 300 21:27 25.06.2019
5808 Clouds 31 1017 43 10000 2.1 130 20:59 25.06.2019
5809 Clouds 32 1016 49 10000 3.1 250 20:36 25.06.2019
5810 Clouds 33 1016 49 10000 3.1 250 20:18 25.06.2019
5811 Clouds 33 1017 36 10000 2.6 150 19:44 25.06.2019
5812 Clouds 34 1016 43 10000 1.5 190 19:22 25.06.2019
5813 Clouds 34 1016 43 10000 2.1 190 18:42 25.06.2019
5814 Clouds 34 1016 41 10000 2.6 180 18:24 25.06.2019
5815 -273 0 0 0 0 0 17:46 25.06.2019
5816 -273 0 0 0 0 0 17:27 25.06.2019
5817 -273 0 0 0 0 0 17:27 25.06.2019
5818 Clouds 34 1016 41 10000 4.6 180 17:27 25.06.2019
5819 Clouds 34 1017 28 10000 5.7 180 16:55 25.06.2019
5820 Clouds 34 1016 41 10000 4.1 160 16:37 25.06.2019
5821 Clouds 34 1016 38 10000 5.1 180 16:18 25.06.2019
5822 Clouds 34 1016 38 10000 5.1 160 15:39 25.06.2019
5823 Clouds 33 1016 38 10000 5.1 160 15:20 25.06.2019
5824 Clouds 33 1016 38 10000 5.1 160 15:20 25.06.2019
5825 Clouds 33 1017 38 10000 5.1 150 14:50 25.06.2019
5826 Clouds 33 1016 40 10000 5.1 140 14:31 25.06.2019
5827 Clouds 32 1016 40 10000 5.7 130 13:43 25.06.2019
5828 Clouds 32 1017 43 10000 5.1 120 13:24 25.06.2019
5829 Clouds 31 1017 48 10000 3.6 120 12:43 25.06.2019
5830 Clouds 30 1017 48 10000 4.1 110 12:24 25.06.2019
5831 Clouds 29 1018 45 10000 3.1 140 11:46 25.06.2019
5832 Clouds 28 1017 54 10000 3.1 100 11:25 25.06.2019
5833 Clouds 28 1019 47 10000 3.1 130 10:59 25.06.2019
5834 Clouds 27 1017 54 10000 3.1 110 10:38 25.06.2019
5835 Clouds 27 1017 54 10000 3.1 110 10:19 25.06.2019
5836 Clouds 25 1017 64 10000 2.6 110 09:40 25.06.2019
5837 Clouds 24 1017 64 10000 2.6 110 09:22 25.06.2019
5838 Clouds 24 1017 64 10000 2.6 110 09:22 25.06.2019
5839 Clouds 23 1019 53 10000 3.1 120 08:59 25.06.2019
5840 Clouds 22 1017 68 10000 2.6 100 08:31 25.06.2019
5841 Clouds 21 1019 52 10000 3.1 120 07:52 25.06.2019
5842 Clouds 21 1017 68 10000 2.1 110 07:31 25.06.2019
5843 Clouds 20 1019 60 10000 3.6 110 06:51 25.06.2019
5844 Rain 20 1017 68 10000 3.1 100 06:24 25.06.2019
5845 Clouds 21 1019 72 10000 3.1 100 02:44 25.06.2019
5846 Rain 22 1019 60 10000 3.1 100 01:26 25.06.2019
5847 Clouds 23 1019 60 10000 2.6 100 00:28 25.06.2019
5848 Clouds 23 1019 57 10000 2.6 110 23:53 24.06.2019
5849 Clouds 23 1018 57 10000 2.6 100 23:33 24.06.2019
5850 Clouds 24 1020 53 10000 2.6 90 22:59 24.06.2019
5851 Clouds 25 1018 53 10000 2.6 110 22:38 24.06.2019
5852 Clouds 25 1018 47 10000 3.1 110 22:18 24.06.2019
5853 Clouds 26 1018 50 10000 3.1 100 21:38 24.06.2019
5854 Rain 27 1018 47 10000 3.6 100 21:18 24.06.2019
5855 Clouds 28 1019 42 10000 4.1 110 20:55 24.06.2019
5856 Clouds 28 1018 42 10000 3.6 110 20:37 24.06.2019
5857 Clouds 29 1018 42 10000 3.6 110 20:18 24.06.2019
5858 Clouds 29 1018 42 10000 4.1 110 19:41 24.06.2019
5859 Clouds 29 1018 39 10000 4.6 100 19:21 24.06.2019
5860 Clouds 30 1018 39 10000 5.1 110 18:43 24.06.2019
5861 Clouds 30 1018 40 10000 4.6 110 18:24 24.06.2019
5862 Clouds 30 1020 30 10000 6.2 120 17:46 24.06.2019
5863 Clouds 30 1018 42 10000 4.6 110 17:25 24.06.2019
5864 Clouds 30 1020 37 10000 7.2 110 16:46 24.06.2019
5865 Clouds 30 1018 45 10000 6.2 110 16:20 24.06.2019
5866 Clouds 30 1021 32 10000 7.7 110 15:48 24.06.2019
5867 Clouds 30 1019 45 10000 6.2 110 15:29 24.06.2019
5868 Clouds 30 1021 35 10000 7.2 130 14:55 24.06.2019
5869 Clouds 29 1019 45 10000 5.7 120 14:31 24.06.2019
5870 Clouds 29 1021 37 10000 7.7 130 13:49 24.06.2019
5871 Clouds 29 1019 51 10000 6.2 110 13:24 24.06.2019
5872 Clouds 28 1019 54 10000 5.1 110 12:44 24.06.2019
5873 Clouds 27 1020 57 10000 5.1 110 12:21 24.06.2019
5874 Clouds 27 1022 47 10000 6.7 120 11:46 24.06.2019
5875 Clouds 26 1020 57 10000 4.6 120 11:28 24.06.2019
5876 Clouds 25 1022 53 10000 6.2 120 10:58 24.06.2019
5877 Clouds 25 1020 60 10000 4.6 120 10:39 24.06.2019
5878 Clouds 24 1020 60 10000 5.1 110 10:20 24.06.2019
5879 Clouds 23 1022 56 10000 7.2 120 09:44 24.06.2019
5880 Clouds 22 1020 68 10000 4.1 110 09:19 24.06.2019
5881 Clouds 21 1022 56 10000 6.7 120 08:51 24.06.2019
5882 Clouds 20 1020 64 10000 4.6 100 08:20 24.06.2019
5883 Clouds 20 1020 68 10000 4.6 100 07:42 24.06.2019
5884 Clouds 19 1020 68 10000 4.1 100 07:23 24.06.2019
5885 Clouds 18 1020 63 10000 4.1 100 06:25 24.06.2019
5886 Clouds 18 1022 77 10000 4.1 100 05:56 24.06.2019
5887 Clouds 18 1022 77 10000 4.1 100 04:59 24.06.2019
5888 Clouds 18 1022 77 10000 4.1 110 03:57 24.06.2019
5889 Clouds 19 1022 72 10000 4.6 100 02:53 24.06.2019
5890 Clouds 19 1022 77 10000 4.1 100 01:58 24.06.2019
5891 Clouds 19 1020 72 10000 2.1 80 01:40 24.06.2019
5892 Clouds 19 1020 68 10000 1.5 90 01:21 24.06.2019
5893 Clouds 20 1020 60 10000 1.5 100 00:38 24.06.2019
5894 Clouds 20 1020 56 10000 2.1 100 00:18 24.06.2019
5895 Clouds 21 1020 56 10000 2.1 100 23:42 23.06.2019
5896 Clouds 21 1019 49 10000 2.6 100 23:21 23.06.2019
5897 Clouds 22 1019 46 10000 3.1 100 22:42 23.06.2019
5898 Clouds 22 1019 49 10000 3.1 100 22:20 23.06.2019
5899 Clouds 23 1020 50 10000 3.6 100 21:44 23.06.2019
5900 Clouds 24 1018 47 10000 4.1 100 21:25 23.06.2019
5901 Clouds 25 1020 47 10000 3.6 90 20:58 23.06.2019
5902 Clouds 26 1018 47 10000 4.1 100 20:38 23.06.2019
5903 Rain 26 1018 47 10000 3.6 100 20:20 23.06.2019
5904 Rain 27 1019 42 10000 4.6 100 19:43 23.06.2019
5905 Rain 27 1018 42 10000 5.7 100 19:20 23.06.2019
5906 Rain 27 1020 39 10000 5.1 110 18:52 23.06.2019
5907 Clear 28 1019 44 10000 5.7 100 18:22 23.06.2019
5908 Clear 28 1020 39 10000 4.6 130 17:50 23.06.2019
5909 Clear 28 1019 44 10000 4.6 100 17:25 23.06.2019
5910 Clear 28 1020 39 10000 4.1 140 16:55 23.06.2019
5911 Clear 27 1019 51 10000 5.7 90 16:36 23.06.2019
5912 Clear 27 1019 51 10000 5.7 90 16:18 23.06.2019
5913 Clear 27 1019 51 10000 4.6 90 15:40 23.06.2019
5914 Clouds 27 1019 54 10000 3.6 90 15:19 23.06.2019
5915 Clouds 26 1020 61 10000 4.1 80 14:40 23.06.2019
5916 Clouds 26 1020 57 10000 4.6 100 14:22 23.06.2019
5917 Clouds 25 1021 50 10000 6.2 100 13:57 23.06.2019
5918 Clouds 25 1020 60 10000 4.1 110 13:38 23.06.2019
5919 Clouds 25 1020 60 10000 4.1 110 13:18 23.06.2019
5920 Clouds 24 1020 60 10000 4.1 120 12:42 23.06.2019
5921 Clouds 23 1020 64 10000 3.6 90 12:21 23.06.2019
5922 Clouds 23 1022 56 10000 6.7 110 11:52 23.06.2019
5923 Clouds 22 1021 68 10000 4.1 80 11:29 23.06.2019
5924 Clouds 21 1022 60 10000 5.1 120 10:54 23.06.2019
5925 Clouds 20 1021 72 10000 4.1 110 10:22 23.06.2019
5926 Clouds 20 1022 63 10000 5.1 110 10:00 23.06.2019
5927 Clouds 19 1021 72 10000 4.1 90 09:39 23.06.2019
5928 Clouds 18 1020 72 10000 5.1 90 09:19 23.06.2019
5929 Clouds 17 1021 77 10000 4.6 90 08:42 23.06.2019
5930 Clouds 16 1020 77 10000 5.1 90 08:24 23.06.2019
5931 Clouds 15 1022 72 10000 4.1 90 07:52 23.06.2019
5932 Clouds 15 1021 76 10000 5.1 80 07:20 23.06.2019
5933 Clouds 14 1022 82 10000 4.1 90 06:54 23.06.2019
5934 Clouds 13 1022 76 10000 4.6 80 05:54 23.06.2019
5935 Clouds 14 1021 82 10000 3.6 80 03:41 23.06.2019
5936 Clouds 14 1022 77 10000 4.1 90 01:52 23.06.2019
5937 Clouds 14 1021 87 10000 2.1 50 01:33 23.06.2019
5938 Clouds 15 1022 82 10000 2.6 30 00:34 23.06.2019
5939 Clouds 15 1022 87 10000 3.6 60 23:53 22.06.2019
5940 Clouds 15 1021 77 10000 2.6 30 23:27 22.06.2019
5941 Clouds 15 1022 82 10000 3.1 50 22:49 22.06.2019
5942 Clouds 16 1021 72 10000 3.6 30 22:31 22.06.2019
5943 Clouds 16 1022 77 10000 3.6 30 21:59 22.06.2019
5944 Clouds 17 1021 67 10000 4.6 40 21:37 22.06.2019
5945 Clouds 18 1021 63 10000 5.1 40 21:19 22.06.2019
5946 Clouds 18 1022 67 10000 5.1 50 20:50 22.06.2019
5947 Clouds 19 1021 68 10000 5.7 30 20:25 22.06.2019
5948 Clouds 19 1022 63 10000 5.7 40 19:47 22.06.2019
5949 Clouds 20 1021 68 10000 6.7 30 19:23 22.06.2019
5950 Clouds 20 1023 55 10000 6.2 40 18:50 22.06.2019
5951 Clouds 20 1022 63 10000 6.7 30 18:32 22.06.2019
5952 Clouds 21 1023 55 10000 6.2 40 17:57 22.06.2019
5953 Clouds 21 1022 60 10000 5.7 30 17:35 22.06.2019
5954 Clouds 21 1023 59 10000 6.2 50 16:52 22.06.2019
5955 Clouds 21 1022 56 10000 3.6 50 16:25 22.06.2019
5956 Clouds 21 1023 59 10000 5.1 50 15:58 22.06.2019
5957 Clouds 21 1022 52 10000 4.1 0 15:39 22.06.2019
5958 Clouds 21 1022 52 10000 4.1 0 15:21 22.06.2019
5959 Clouds 20 1023 56 10000 4.1 50 14:37 22.06.2019
5960 Clouds 20 1023 55 10000 3.6 40 14:18 22.06.2019
5961 Clouds 20 1023 52 10000 3.1 50 13:42 22.06.2019
5962 Clouds 20 1023 55 10000 3.6 60 13:22 22.06.2019
5963 Clear 20 1024 55 10000 3.1 60 12:53 22.06.2019
5964 Clouds 19 1024 59 10000 3.1 60 12:34 22.06.2019
5965 Clear 19 1024 59 10000 3.6 60 11:58 22.06.2019
5966 Clouds 18 1024 63 10000 3.1 80 11:34 22.06.2019
5967 Clear 18 1024 63 10000 3.1 90 10:54 22.06.2019
5968 Clouds 17 1024 67 10000 3.6 50 10:21 22.06.2019
5969 Clear 16 1024 63 10000 2.6 30 09:55 22.06.2019
5970 Clear 16 1024 72 10000 2.6 40 09:23 22.06.2019
5971 Clear 15 1024 72 10000 2.6 60 08:44 22.06.2019
5972 Clear 15 1024 77 10000 1.5 50 08:25 22.06.2019
5973 Clear 13 1023 100 10000 0.5 330 07:36 22.06.2019
5974 Clear 10 1024 93 10000 1.2 87.616 06:56 22.06.2019
5975 Clear 9 1023 93 10000 0.5 0 06:31 22.06.2019
5976 Clear 10 1023 93 10000 1 360 02:38 22.06.2019
5977 Clear 10 1023 93 10000 0.5 360 01:35 22.06.2019
5978 Clear 11 1022 87 10000 0.5 310 00:47 22.06.2019
5979 Clear 12 1022 93 10000 2.66 349.768 00:23 22.06.2019
5980 Clear 12 1022 87 10000 1 330 23:49 21.06.2019
5981 Clear 13 1022 76 10000 0.5 360 23:22 21.06.2019
5982 Clear 14 1021 82 10000 1.5 320 22:54 21.06.2019
5983 Clear 14 1021 67 10000 2.6 360 22:27 21.06.2019
5984 Clear 15 1021 67 1200 2.6 330 21:56 21.06.2019
5985 Clear 15 1021 67 10000 2.6 350 21:37 21.06.2019
5986 Clear 16 1021 63 10000 3.6 350 21:19 21.06.2019
5987 Clear 17 1020 67 10000 3.6 330 20:47 21.06.2019
5988 Clouds 17 1020 63 10000 4.6 340 20:22 21.06.2019
5989 Clouds 18 1020 67 10000 5.1 340 19:38 21.06.2019
5990 Clouds 18 1019 55 10000 4.1 330 18:56 21.06.2019
5991 Clouds 18 1019 72 10000 3.1 10 18:35 21.06.2019
5992 Clouds 18 1019 59 10000 4.6 310 17:56 21.06.2019
5993 Clouds 19 1019 68 10000 4.1 350 17:30 21.06.2019
5994 Clouds 19 1018 55 10000 4.6 290 16:43 21.06.2019
5995 Clouds 19 1018 55 10000 4.6 290 16:43 21.06.2019
5996 Clouds 19 1018 72 10000 3.1 270 16:23 21.06.2019
5997 Clouds 19 1018 59 10000 3.1 250 15:58 21.06.2019
5998 Clear 19 1018 72 10000 2.1 260 15:36 21.06.2019
5999 Clouds 18 1018 67 10000 3.6 290 14:54 21.06.2019
6000 Rain 18 1018 77 10000 1 0 14:32 21.06.2019
6001 Clouds 18 1018 59 10000 5.7 300 13:59 21.06.2019
6002 Rain 18 1018 77 10000 2.1 290 13:37 21.06.2019
6003 Rain 18 1018 82 10000 3.6 320 13:19 21.06.2019
6004 Clouds 19 1017 68 10000 3.1 240 12:42 21.06.2019
6005 Clouds 18 1017 63 10000 5.1 220 12:22 21.06.2019
6006 Clouds 19 1017 59 10000 3.6 260 11:48 21.06.2019
6007 Clouds 19 1017 68 10000 4.1 240 11:28 21.06.2019
6008 Clouds 19 1017 68 10000 4.6 250 10:58 21.06.2019
6009 Clouds 18 1017 68 10000 3.6 230 10:39 21.06.2019
6010 Clouds 18 1017 77 10000 4.1 230 10:20 21.06.2019
6011 Clouds 18 1016 77 10000 4.6 230 09:42 21.06.2019
6012 Clouds 17 1016 82 10000 3.6 230 09:21 21.06.2019
6013 Clouds 16 1016 82 10000 3.6 240 08:45 21.06.2019
6014 Clouds 15 1016 87 9000 2.6 210 08:27 21.06.2019
6015 Clouds 15 1015 87 9000 3.1 200 07:57 21.06.2019
6016 Fog 14 1016 93 8000 2.6 210 07:38 21.06.2019
6017 Fog 13 1015 93 6000 2.1 200 06:59 21.06.2019
6018 Fog 12 1015 93 6000 2.6 200 06:24 21.06.2019
6019 Fog 12 1015 100 5000 2.1 200 05:33 21.06.2019
6020 Mist 12 1015 100 4200 1.5 180 04:36 21.06.2019
6021 Mist 12 1015 100 3500 1.5 180 03:35 21.06.2019
6022 Mist 13 1015 93 50 1.5 210 02:59 21.06.2019
6023 Clouds 13 1015 100 6000 1 160 02:21 21.06.2019
6024 Clouds 13 1015 93 10000 1 350 01:27 21.06.2019
6025 Clouds 14 1014 100 10000 0.5 350 00:29 21.06.2019
6026 Clouds 14 1014 93 10000 1.5 240 23:55 20.06.2019
6027 Clouds 14 1014 93 10000 0.5 0 23:37 20.06.2019
6028 Clouds 14 1014 93 10000 0.5 0 23:37 20.06.2019
6029 Clouds 15 1014 93 10000 0.5 0 23:18 20.06.2019
6030 Clouds 15 1014 87 10000 1 310 22:41 20.06.2019
6031 Clouds 15 1014 82 10000 1 0 22:23 20.06.2019
6032 Clouds 15 1013 82 10000 1.5 310 21:56 20.06.2019
6033 Clouds 16 1013 77 10000 2.6 330 21:37 20.06.2019
6034 Clouds 17 1013 77 10000 2.6 330 21:19 20.06.2019
6035 Clouds 17 1012 77 10000 2.1 320 20:41 20.06.2019
6036 Clouds 17 1012 82 10000 3.6 340 20:23 20.06.2019
6037 Clouds 18 1012 82 10000 4.6 330 19:45 20.06.2019
6038 Clouds 18 1012 77 10000 4.1 330 19:19 20.06.2019
6039 Clouds 18 1011 87 10000 2.6 330 18:58 20.06.2019
6040 Clouds 18 1012 77 10000 3.6 320 18:40 20.06.2019
6041 Clouds 18 1012 77 10000 4.1 320 18:21 20.06.2019
6042 Rain 18 1011 82 10000 3.6 350 17:47 20.06.2019
6043 Clouds 18 1011 87 9000 4.6 340 17:29 20.06.2019
6044 Rain 17 1011 93 7000 4.1 350 16:44 20.06.2019
6045 Clouds 18 1011 88 10000 4.1 340 16:20 20.06.2019
6046 Rain 19 1010 93 10000 2.6 320 15:57 20.06.2019
6047 Rain 18 1010 82 10000 4.1 280 15:38 20.06.2019
6048 Rain 19 1010 93 9000 2.6 310 15:19 20.06.2019
6049 Rain 19 1010 72 10000 1.5 250 14:44 20.06.2019
6050 Clouds 19 1010 82 10000 4.1 240 14:22 20.06.2019
6051 Rain 19 1010 93 8000 3.1 240 13:40 20.06.2019
6052 Rain 18 1010 88 5000 4.1 260 13:19 20.06.2019
6053 Clouds 18 1010 82 10000 4.1 220 12:46 20.06.2019
6054 Clouds 19 1010 77 10000 4.1 220 12:23 20.06.2019
6055 Clouds 18 1009 82 9000 4.6 270 11:46 20.06.2019
6056 Clouds 18 1009 82 10000 4.1 220 11:27 20.06.2019
6057 Drizzle 18 1009 93 8000 3.1 250 10:57 20.06.2019
6058 Clouds 17 1009 82 10000 4.1 250 10:39 20.06.2019
6059 Clouds 17 1009 82 10000 4.1 240 10:20 20.06.2019
6060 Drizzle 17 1009 88 10000 3.6 240 09:40 20.06.2019
6061 Drizzle 16 1009 93 9000 4.1 230 09:21 20.06.2019
6062 Drizzle 16 1008 93 5000 3.6 250 08:46 20.06.2019
6063 Clouds 16 1008 93 6000 3.1 240 08:27 20.06.2019
6064 Mist 16 1008 88 8000 3.6 250 07:53 20.06.2019
6065 Mist 16 1008 93 3400 3.1 240 07:28 20.06.2019
6066 Mist 16 1007 100 2700 3.1 240 06:28 20.06.2019
6067 Mist 16 1006 93 9000 2.1 230 04:54 20.06.2019
6068 Mist 16 1007 93 9000 1.5 240 02:55 20.06.2019
6069 Rain 17 1006 100 10000 1.5 180 00:34 20.06.2019
6070 Rain 17 1007 88 10000 3.1 270 23:58 19.06.2019
6071 Clouds 17 1006 93 10000 2.6 230 23:39 19.06.2019
6072 Clouds 17 1006 93 10000 2.6 230 23:21 19.06.2019
6073 Rain 18 1007 73 10000 1 140 22:47 19.06.2019
6074 Rain 18 1007 73 10000 1 140 22:47 19.06.2019
6075 Thunderstorm 18 1007 82 6000 6.2 250 22:20 19.06.2019
6076 Thunderstorm 20 1006 73 10000 1.5 360 21:46 19.06.2019
6077 Rain 22 1006 64 10000 3.1 310 21:25 19.06.2019
6078 Rain 22 1006 69 10000 2.6 340 20:56 19.06.2019
6079 Rain 23 1006 64 10000 3.1 280 20:37 19.06.2019
6080 Rain 24 1006 64 10000 3.1 280 20:19 19.06.2019
6081 Rain 24 1006 57 10000 2.6 280 19:41 19.06.2019
6082 Rain 25 1005 57 10000 2.1 260 19:21 19.06.2019
6083 Clouds 25 1006 53 10000 2.1 300 18:49 19.06.2019
6084 Rain 24 1005 60 10000 3.1 260 18:21 19.06.2019
6085 Rain 25 1005 64 10000 4.1 260 17:38 19.06.2019
6086 Rain 25 1006 53 10000 4.6 250 17:18 19.06.2019
6087 Rain 25 1006 57 10000 5.1 240 16:40 19.06.2019
6088 Rain 26 1006 54 10000 7.2 240 16:21 19.06.2019
6089 Clouds 26 1006 47 10000 3.6 210 15:54 19.06.2019
6090 -273 0 0 0 0 0 15:28 19.06.2019
6091 Clouds 26 1006 64 10000 1 70 14:57 19.06.2019
6092 Thunderstorm 26 1006 53 10000 2.6 200 14:39 19.06.2019
6093 Thunderstorm 24 1006 60 10000 1 0 14:21 19.06.2019
6094 Clouds 25 1006 64 10000 2.6 120 13:43 19.06.2019
6095 Clouds 25 1007 64 10000 3.1 210 13:24 19.06.2019
6096 Clouds 25 1006 48 10000 4.6 190 12:44 19.06.2019
6097 Clear 25 1008 69 10000 5.7 240 12:22 19.06.2019
6098 Clouds 25 1006 61 10000 3.1 130 11:56 19.06.2019
6099 Clouds 25 1007 65 10000 6.2 250 11:38 19.06.2019
6100 Clear 26 1007 73 10000 2.1 230 11:19 19.06.2019
6101 Clouds 25 1007 65 10000 1.5 160 10:45 19.06.2019
6102 Clear 23 1007 73 10000 1 0 10:26 19.06.2019
6103 Clear 23 1007 73 10000 1.5 150 09:43 19.06.2019
6104 Clouds 22 1007 77 10000 1.5 120 09:22 19.06.2019
6105 Clouds 21 1008 77 10000 3.1 130 08:51 19.06.2019
6106 Clouds 20 1007 88 10000 3.1 100 08:29 19.06.2019
6107 Clouds 18 1008 88 8000 2.1 100 07:52 19.06.2019
6108 Clouds 17 1008 82 10000 2.1 90 07:34 19.06.2019
6109 Clouds 17 1008 93 8000 1.5 70 06:55 19.06.2019
6110 Clouds 16 1008 87 10000 2.1 90 06:30 19.06.2019
6111 Clouds 16 1009 87 10000 1.5 50 05:50 19.06.2019
6112 Clouds 16 1009 87 10000 2.1 50 04:47 19.06.2019
6113 Clouds 16 1010 87 10000 2.6 50 03:48 19.06.2019
6114 Clouds 16 1011 87 10000 2.6 50 02:35 19.06.2019
6115 Clouds 16 1011 82 10000 3.1 50 01:36 19.06.2019
6116 Clouds 17 1012 82 10000 1.5 40 00:53 19.06.2019
6117 Clouds 17 1012 77 10000 2.6 50 00:35 19.06.2019
6118 Clear 17 1013 82 10000 2.1 50 23:58 18.06.2019
6119 Clear 17 1013 77 10000 2.6 50 23:30 18.06.2019
6120 Clear 17 1013 82 10000 2.6 30 22:56 18.06.2019
6121 Clear 18 1013 72 10000 2.6 40 22:37 18.06.2019
6122 Clear 18 1013 68 10000 3.1 30 22:19 18.06.2019
6123 Clear 19 1012 72 10000 3.1 40 21:44 18.06.2019
6124 Clouds 20 1013 68 10000 3.6 30 21:21 18.06.2019
6125 Clouds 21 1013 64 10000 4.1 10 20:58 18.06.2019
6126 Clouds 21 1013 68 10000 4.1 360 20:38 18.06.2019
6127 Clouds 22 1013 64 10000 4.6 360 20:18 18.06.2019
6128 Clouds 23 1013 64 10000 4.1 340 19:39 18.06.2019
6129 Clouds 23 1013 64 10000 5.1 340 19:21 18.06.2019
6130 Clouds 23 1013 64 10000 5.1 360 18:48 18.06.2019
6131 Clouds 24 1013 60 10000 5.1 340 18:25 18.06.2019
6132 Clouds 25 1013 60 10000 5.1 360 17:46 18.06.2019
6133 Clouds 26 1013 60 10000 4.6 360 17:22 18.06.2019
6134 Clouds 26 1014 44 10000 4.6 350 16:57 18.06.2019
6135 Clouds 26 1013 61 10000 5.1 350 16:39 18.06.2019
6136 Clouds 26 1013 44 10000 2.6 340 16:20 18.06.2019
6137 Clouds 27 1013 47 10000 2.1 330 15:39 18.06.2019
6138 Rain 26 1014 47 10000 2.6 280 15:20 18.06.2019
6139 Clouds 26 1014 57 10000 4.1 10 14:56 18.06.2019
6140 Rain 27 1014 42 10000 1 0 14:37 18.06.2019
6141 Rain 27 1014 42 10000 1 0 14:18 18.06.2019
6142 Clouds 26 1014 47 10000 1.5 290 13:46 18.06.2019
6143 Rain 27 1014 47 10000 1.5 260 13:28 18.06.2019
6144 -273 0 0 0 0 0 12:46 18.06.2019
6145 Clouds 26 1014 47 10000 1 220 12:46 18.06.2019
6146 Clouds 26 1014 47 10000 1 0 12:27 18.06.2019
6147 Clouds 25 1015 50 10000 1.5 260 11:50 18.06.2019
6148 Clouds 25 1015 64 10000 1 0 11:23 18.06.2019
6149 Clouds 25 1015 57 10000 1.5 210 10:58 18.06.2019
6150 Clouds 24 1015 61 10000 0.5 0 10:39 18.06.2019
6151 Clouds 23 1015 64 10000 0.5 0 10:20 18.06.2019
6152 Clouds 22 1015 64 10000 2.1 210 09:51 18.06.2019
6153 Clouds 21 1015 82 7000 1 0 09:24 18.06.2019
6154 Mist 20 1015 72 10000 1 0 08:49 18.06.2019
6155 Mist 19 1015 88 4900 1.5 30 08:23 18.06.2019
6156 Mist 18 1015 77 10000 1.71 186.929 07:55 18.06.2019
6157 Mist 17 1015 100 4000 0.5 330 07:25 18.06.2019
6158 Mist 16 1015 82 10000 0.5 150 06:55 18.06.2019
6159 Clouds 15 1016 82 10000 1 170 05:25 18.06.2019
6160 Rain 15 1016 93 6000 0.5 110 04:21 18.06.2019
6161 Clouds 16 1016 72 10000 1.5 160 02:48 18.06.2019
6162 Rain 16 1017 93 10000 1 320 01:27 18.06.2019
6163 Rain 17 1017 68 10000 2.6 140 00:58 18.06.2019
6164 Rain 17 1017 87 10000 1.5 320 00:36 18.06.2019
6165 Rain 17 1017 87 10000 1.5 320 00:18 18.06.2019
6166 Rain 18 1017 82 10000 2.1 320 23:38 17.06.2019
6167 Rain 18 1017 88 10000 2.6 310 23:18 17.06.2019
6168 Rain 19 1017 82 10000 2.6 310 22:41 17.06.2019
6169 Rain 20 1017 77 10000 3.1 320 22:21 17.06.2019
6170 Rain 21 1017 68 10000 1.5 70 21:45 17.06.2019
6171 Rain 21 1017 68 10000 1.5 70 21:45 17.06.2019
6172 Rain 22 1017 64 10000 1.5 220 21:24 17.06.2019
6173 Rain 22 1017 64 10000 1.5 220 21:24 17.06.2019
6174 Rain 23 1017 57 10000 1 0 20:44 17.06.2019
6175 Rain 25 1017 47 10000 2.6 200 20:26 17.06.2019
6176 Clouds 25 1018 44 10000 1.5 0 19:58 17.06.2019
6177 Rain 25 1017 47 10000 3.1 190 19:40 17.06.2019
6178 Rain 25 1017 47 10000 3.6 210 19:21 17.06.2019
6179 Clouds 25 1018 44 10000 1.5 230 18:55 17.06.2019
6180 Rain 26 1018 47 10000 3.6 180 18:36 17.06.2019
6181 Rain 26 1018 47 10000 3.6 180 18:18 17.06.2019
6182 Rain 26 1018 47 10000 3.6 190 17:41 17.06.2019
6183 Rain 25 1018 47 10000 3.6 190 17:23 17.06.2019
6184 Clouds 26 1019 44 10000 3.1 230 16:45 17.06.2019
6185 Rain 25 1019 47 10000 2.6 200 16:27 17.06.2019
6186 Clouds 25 1019 47 10000 2.1 160 15:56 17.06.2019
6187 Clouds 25 1019 47 10000 2.6 0 15:37 17.06.2019
6188 Clouds 25 1020 47 10000 2.6 190 15:18 17.06.2019
6189 Clouds 25 1020 47 10000 2.6 190 15:18 17.06.2019
6190 Clouds 25 1020 47 10000 2.6 190 14:47 17.06.2019
6191 Clouds 25 1019 50 10000 3.6 210 14:26 17.06.2019
6192 Clouds 24 1020 53 10000 3.1 210 13:50 17.06.2019
6193 Clouds 24 1020 53 10000 3.6 210 13:23 17.06.2019
6194 Clouds 24 1021 53 10000 3.6 220 12:51 17.06.2019
6195 Clear 23 1020 56 10000 3.6 220 12:31 17.06.2019
6196 Clouds 23 1021 53 10000 4.6 200 11:49 17.06.2019
6197 Clear 22 1021 60 10000 4.6 210 11:26 17.06.2019
6198 Clear 22 1021 60 10000 3.1 210 10:59 17.06.2019
6199 Clear 22 1021 64 10000 3.1 170 10:40 17.06.2019
6200 Clear 21 1021 64 10000 3.1 170 10:22 17.06.2019
6201 Clear 20 1021 68 10000 2.6 200 09:53 17.06.2019
6202 Clear 20 1021 72 10000 2.1 160 09:30 17.06.2019
6203 Clear 18 1021 77 10000 3.1 190 08:42 17.06.2019
6204 Clear 17 1021 77 10000 1.5 170 08:23 17.06.2019
6205 Clear 16 1021 93 8000 2.1 200 07:46 17.06.2019
6206 Fog 15 1020 87 10000 1.5 180 07:28 17.06.2019
6207 Fog 14 1021 93 5000 2.6 190 06:46 17.06.2019
6208 Fog 13 1021 93 3700 3.1 180 05:50 17.06.2019
6209 Clear 13 1021 93 350 1.5 170 04:52 17.06.2019
6210 Clear 13 1021 93 350 1.5 190 03:50 17.06.2019
6211 Clear 14 1020 93 10000 2.6 180 03:25 17.06.2019
6212 Clear 14 1021 93 350 1 180 02:42 17.06.2019
6213 Clear 14 1021 93 350 2.6 150 02:19 17.06.2019
6214 Clear 14 1020 87 10000 2.6 170 01:35 17.06.2019
6215 Clear 14 1021 93 350 2.6 150 00:48 17.06.2019
6216 Clear 14 1020 77 10000 2.1 150 00:27 17.06.2019
6217 Clear 15 1021 93 350 2.1 140 23:58 16.06.2019
6218 Clouds 15 1020 77 10000 1.5 130 23:37 16.06.2019
6219 Clear 15 1021 93 300 1.5 140 23:19 16.06.2019
6220 Clear 16 1021 93 300 1.5 140 22:44 16.06.2019
6221 Clear 16 1020 72 10000 1 180 22:20 16.06.2019
6222 Clear 16 1020 93 300 1.5 110 21:57 16.06.2019
6223 Clear 17 1020 63 10000 1.5 230 21:39 16.06.2019
6224 Rain 18 1020 63 10000 1.5 230 21:20 16.06.2019
6225 Rain 18 1020 63 10000 1.5 230 21:20 16.06.2019
6226 Rain 19 1020 59 10000 4.1 250 20:39 16.06.2019
6227 Clouds 19 1020 60 10000 3.6 250 20:19 16.06.2019
6228 Clouds 19 1020 60 10000 3.6 250 20:19 16.06.2019
6229 Clouds 19 1020 60 10000 3.6 250 19:58 16.06.2019
6230 Clouds 19 1020 60 10000 3.6 250 19:58 16.06.2019
6231 Rain 19 1020 56 10000 4.6 250 19:39 16.06.2019
6232 Rain 19 1020 82 350 2.6 20 19:21 16.06.2019
6233 Rain 19 1020 82 350 2.6 20 18:42 16.06.2019
6234 Rain 19 1020 82 350 2.6 20 18:42 16.06.2019
6235 Clouds 19 1019 68 10000 3.6 260 18:21 16.06.2019
6236 Rain 19 1020 82 350 3.1 60 17:57 16.06.2019
6237 Clouds 19 1019 72 10000 5.7 230 17:38 16.06.2019
6238 Rain 19 1019 77 300 5.7 340 17:20 16.06.2019
6239 Rain 19 1019 77 300 5.7 340 16:55 16.06.2019
6240 Clouds 20 1019 60 10000 4.6 240 16:36 16.06.2019
6241 Rain 20 1019 68 350 3.1 300 16:18 16.06.2019
6242 Clouds 21 1019 60 10000 5.7 250 15:39 16.06.2019
6243 Clouds 21 1019 60 10000 5.7 250 15:20 16.06.2019
6244 Clouds 21 1019 64 10000 6.2 240 14:40 16.06.2019
6245 Clouds 21 1019 64 10000 6.2 240 14:21 16.06.2019
6246 Rain 21 1018 53 350 5.1 230 13:50 16.06.2019
6247 Clouds 21 1018 64 10000 5.7 240 13:25 16.06.2019
6248 Rain 21 1018 52 350 5.1 210 12:55 16.06.2019
6249 Clouds 21 1018 64 10000 5.7 240 12:37 16.06.2019
6250 Rain 21 1018 60 350 4.1 220 12:18 16.06.2019
6251 Clouds 20 1018 68 10000 5.7 240 11:38 16.06.2019
6252 Rain 20 1018 68 400 4.6 210 11:19 16.06.2019
6253 Rain 20 1018 68 400 4.6 210 10:45 16.06.2019
6254 Clouds 20 1017 68 10000 4.6 210 10:20 16.06.2019
6255 Rain 19 1018 77 400 3.1 190 09:47 16.06.2019
6256 Clear 18 1017 77 10000 4.6 190 09:25 16.06.2019
6257 Clear 16 1018 87 350 2.6 180 08:50 16.06.2019
6258 Clear 15 1017 87 10000 3.1 180 08:23 16.06.2019
6259 Clear 14 1017 93 350 1.5 180 07:54 16.06.2019
6260 Clear 14 1017 87 10000 2.1 170 07:36 16.06.2019
6261 Clear 12 1017 100 350 1.5 190 06:57 16.06.2019
6262 Clear 12 1017 93 10000 2.6 160 06:27 16.06.2019
6263 Fog 11 1017 100 800 1 180 05:40 16.06.2019
6264 Clear 11 1017 100 9000 1 170 04:36 16.06.2019
6265 Fog 11 1017 93 200 2.6 210 03:53 16.06.2019
6266 Clear 12 1017 100 6000 1.5 150 03:31 16.06.2019
6267 Clouds 12 1017 93 150 2.6 212.143 02:18 16.06.2019
6268 Clouds 12 1016 100 10000 1 230 01:41 16.06.2019
6269 Clouds 12 1016 100 10000 1 230 01:23 16.06.2019
6270 Clear 13 1015 93 10000 2.1 220 00:40 16.06.2019
6271 Clear 13 1016 87 5000 1.5 240 00:19 16.06.2019
6272 Clear 14 1016 93 10000 1 0 23:42 15.06.2019
6273 Clear 14 1016 93 10000 1 0 23:23 15.06.2019
6274 Clear 14 1016 87 6000 1.5 300 22:49 15.06.2019
6275 Clear 15 1015 82 10000 1.5 250 22:27 15.06.2019
6276 Clear 16 1015 82 6000 3.6 290 21:49 15.06.2019
6277 Clouds 16 1015 72 10000 2.1 250 21:29 15.06.2019
6278 Clouds 17 1015 82 6000 7.7 280 20:59 15.06.2019
6279 Clouds 17 1015 72 10000 4.1 280 20:40 15.06.2019
6280 Clouds 17 1014 82 6000 4.6 290 20:19 15.06.2019
6281 Clouds 18 1014 82 6000 4.6 290 19:42 15.06.2019
6282 Clouds 18 1014 68 10000 4.1 270 19:23 15.06.2019
6283 Clouds 18 1014 72 10000 5.7 280 18:39 15.06.2019
6284 Clouds 18 1012 88 6000 7.2 280 18:20 15.06.2019
6285 Clouds 19 1013 77 10000 4.6 310 17:43 15.06.2019
6286 Clouds 18 1013 77 10000 4.6 310 17:23 15.06.2019
6287 Clouds 18 1011 82 5000 4.1 240 16:48 15.06.2019
6288 Clouds 18 1010 77 6000 3.6 260 16:20 15.06.2019
6289 Clouds 18 1010 77 6000 3.6 260 15:44 15.06.2019
6290 Clouds 18 1012 87 10000 8.7 310 15:23 15.06.2019
6291 Rain 18 1010 88 5000 3.1 290 14:43 15.06.2019
6292 Rain 18 1010 88 4100 5.1 290 14:19 15.06.2019
6293 Rain 18 1010 88 4100 5.1 290 13:58 15.06.2019
6294 Clouds 18 1010 88 10000 1.5 230 13:40 15.06.2019
6295 Clouds 18 1010 88 10000 1.5 230 13:40 15.06.2019
6296 Rain 18 1009 88 6000 5.1 290 13:19 15.06.2019
6297 Rain 18 1009 88 6000 5.1 290 12:50 15.06.2019
6298 Clouds 18 1010 93 7000 1.5 280 12:26 15.06.2019
6299 Mist 17 1010 93 5000 1.5 280 11:52 15.06.2019
6300 Rain 17 1010 93 2900 2.1 280 11:32 15.06.2019
6301 Rain 17 1010 88 5000 5.1 270 10:54 15.06.2019
6302 Drizzle 17 1010 100 2500 2.6 270 10:36 15.06.2019
6303 Mist 17 1008 93 4800 4.6 60 10:18 15.06.2019
6304 Rain 17 1008 93 4800 4.6 60 09:42 15.06.2019
6305 Rain 17 1009 100 3200 4.1 280 09:21 15.06.2019
6306 Drizzle 17 1008 100 3200 3.6 360 08:46 15.06.2019
6307 Drizzle 17 1009 100 3800 1.5 30 08:28 15.06.2019
6308 Rain 17 1009 88 5000 2.1 340 07:43 15.06.2019
6309 Rain 16 1010 93 5000 2.6 40 07:21 15.06.2019
6310 Rain 16 1010 93 5000 2.6 40 07:21 15.06.2019
6311 Clouds 17 1009 88 10000 2.1 50 06:39 15.06.2019
6312 Clouds 17 1009 88 10000 2.1 50 06:39 15.06.2019
6313 Clouds 17 1010 88 5000 2.6 70 05:56 15.06.2019
6314 Clouds 17 1010 88 10000 2.6 80 05:23 15.06.2019
6315 Clouds 17 1011 82 10000 1.5 60 04:37 15.06.2019
6316 Clouds 17 1012 87 10000 2.1 40 03:38 15.06.2019
6317 Clouds 17 1012 82 4400 3.6 50 02:49 15.06.2019
6318 Clouds 17 1012 87 10000 2.1 40 02:20 15.06.2019
6319 Clouds 17 1013 77 5000 3.1 70 01:42 15.06.2019
6320 Clouds 17 1014 82 5000 3.1 60 00:47 15.06.2019
6321 Clouds 17 1013 77 10000 2.1 50 00:29 15.06.2019
6322 Clouds 17 1014 82 4700 1.5 70 23:54 14.06.2019
6323 Clouds 17 1014 87 10000 2.1 340 23:25 14.06.2019
6324 Clouds 18 1013 77 10000 1.5 50 22:43 14.06.2019
6325 Clouds 19 1013 77 10000 1.5 50 22:23 14.06.2019
6326 Clouds 19 1014 64 8000 4.1 90 21:59 14.06.2019
6327 Clouds 21 1013 53 10000 0.5 0 21:40 14.06.2019
6328 Clouds 22 1014 60 9000 4.1 70 21:21 14.06.2019
6329 Clouds 23 1014 60 9000 4.1 70 20:42 14.06.2019
6330 Clouds 24 1014 41 10000 2.6 220 20:18 14.06.2019
6331 Clouds 24 1014 41 10000 2.6 220 19:54 14.06.2019
6332 Clouds 24 1013 49 10000 3.6 220 19:23 14.06.2019
6333 Clouds 24 1014 41 10000 3.1 200 18:59 14.06.2019
6334 Clouds 24 1013 47 10000 5.7 210 18:41 14.06.2019
6335 Clouds 24 1013 47 10000 5.7 210 18:41 14.06.2019
6336 Clouds 24 1013 47 10000 5.7 210 18:22 14.06.2019
6337 Clouds 24 1014 36 10000 4.6 230 17:55 14.06.2019
6338 Clouds 24 1014 49 10000 5.7 200 17:36 14.06.2019
6339 Clouds 24 1015 43 10000 4.6 120 17:18 14.06.2019
6340 Clouds 23 1015 43 10000 4.6 120 16:44 14.06.2019
6341 Clouds 23 1014 49 10000 5.7 170 16:19 14.06.2019
6342 Clouds 23 1014 49 10000 5.7 170 16:19 14.06.2019
6343 Clouds 23 1014 49 10000 5.7 170 16:19 14.06.2019
6344 Clouds 23 1014 49 10000 5.7 170 16:19 14.06.2019
6345 Clouds 23 1015 56 10000 2.1 110 15:42 14.06.2019
6346 Rain 22 1014 56 10000 3.1 150 15:24 14.06.2019
6347 Rain 21 1016 68 10000 3.1 310 14:59 14.06.2019
6348 Rain 21 1016 68 10000 3.1 310 14:59 14.06.2019
6349 Rain 21 1016 68 10000 3.1 310 14:59 14.06.2019
6350 Rain 21 1016 68 10000 3.1 310 14:59 14.06.2019
6351 Rain 21 1014 64 10000 2.6 120 14:40 14.06.2019
6352 Rain 20 1014 64 10000 2.6 120 14:20 14.06.2019
6353 Rain 20 1015 63 10000 2.1 220 13:42 14.06.2019
6354 Rain 20 1015 63 10000 2.1 220 13:24 14.06.2019
6355 Clouds 21 1015 49 10000 2.6 150 12:44 14.06.2019
6356 Clouds 21 1015 60 10000 4.6 210 12:25 14.06.2019
6357 Clouds 21 1015 60 10000 4.6 210 12:25 14.06.2019
6358 Clouds 21 1015 52 10000 2.6 140 11:58 14.06.2019
6359 Clouds 20 1014 63 10000 2.6 170 11:39 14.06.2019
6360 Clouds 20 1014 56 10000 3.1 170 11:20 14.06.2019
6361 Clouds 20 1014 56 10000 3.1 170 10:44 14.06.2019
6362 Clouds 19 1014 72 10000 3.1 180 10:20 14.06.2019
6363 Clouds 18 1015 63 10000 4.1 170 09:48 14.06.2019
6364 Clouds 17 1014 82 10000 3.1 150 09:25 14.06.2019
6365 Clouds 17 1014 82 10000 3.1 150 09:25 14.06.2019
6366 Clouds 17 1015 77 10000 3.6 160 08:47 14.06.2019
6367 Clouds 16 1014 82 10000 2.6 160 08:20 14.06.2019
6368 Clouds 15 1015 82 10000 3.1 170 07:52 14.06.2019
6369 Clouds 15 1015 82 10000 3.1 170 07:52 14.06.2019
6370 Clouds 14 1014 87 10000 3.1 150 07:22 14.06.2019
6371 Clouds 13 1014 87 10000 3.1 160 06:48 14.06.2019
6372 Clouds 12 1014 87 10000 1 0 06:18 14.06.2019
6373 -273 0 0 0 0 0 05:33 14.06.2019
6374 Clouds 12 1013 87 7000 3.1 150 04:51 14.06.2019
6375 Clouds 12 1013 87 7000 2.6 150 04:18 14.06.2019
6376 Clouds 12 1013 87 10000 3.1 160 03:26 14.06.2019
6377 Clouds 12 1014 87 8000 3.1 180 02:58 14.06.2019
6378 Clouds 12 1013 87 10000 3.6 170 02:35 14.06.2019
6379 Clouds 12 1012 87 10000 3.1 160 01:35 14.06.2019
6380 Clouds 13 1012 93 10000 3.6 180 00:37 14.06.2019
6381 Rain 13 1013 82 7000 3.1 150 00:18 14.06.2019
6382 Clear 14 1013 82 7000 3.1 150 23:49 13.06.2019
6383 Clouds 14 1012 72 10000 5.1 200 23:25 13.06.2019
6384 Clear 14 1011 77 10000 4.6 180 22:40 13.06.2019
6385 Clear 14 1011 77 10000 4.6 180 22:22 13.06.2019
6386 Clear 15 1012 63 8000 3.1 190 21:59 13.06.2019
6387 Clear 15 1011 82 10000 2.1 160 21:37 13.06.2019
6388 Rain 16 1012 59 7000 7.2 210 21:18 13.06.2019
6389 Rain 16 1012 59 7000 7.2 210 21:18 13.06.2019
6390 Rain 16 1012 59 7000 7.2 210 20:44 13.06.2019
6391 Rain 16 1011 87 10000 2.1 150 20:20 13.06.2019
6392 Clouds 16 1011 82 3600 11.8 200 19:43 13.06.2019
6393 Clouds 17 1011 82 3600 11.8 200 19:25 13.06.2019
6394 Clouds 17 1011 45 10000 4.6 190 18:59 13.06.2019
6395 Rain 18 1010 49 10000 5.7 210 18:41 13.06.2019
6396 Rain 20 1010 49 10000 5.7 210 18:22 13.06.2019
6397 Clouds 20 1010 49 10000 7.7 200 17:45 13.06.2019
6398 Clouds 20 1010 49 10000 7.7 200 17:22 13.06.2019
6399 Clouds 20 1011 37 10000 8.7 210 16:59 13.06.2019
6400 Clouds 20 1010 52 10000 6.2 190 16:41 13.06.2019
6401 Clouds 20 1010 52 10000 6.2 190 16:20 13.06.2019
6402 Clouds 20 1011 42 10000 8.7 200 15:43 13.06.2019
6403 Clear 20 1010 52 10000 7.7 210 15:24 13.06.2019
6404 Clouds 20 1011 42 10000 7.7 210 14:54 13.06.2019
6405 Clouds 20 1010 52 10000 7.2 210 14:31 13.06.2019
6406 Clouds 20 1011 45 10000 9.3 210 13:59 13.06.2019
6407 Clouds 20 1010 52 10000 8.2 210 13:40 13.06.2019
6408 Clouds 20 1010 52 10000 8.2 210 13:21 13.06.2019
6409 Clouds 19 1010 59 10000 8.2 200 12:42 13.06.2019
6410 Clouds 18 1010 59 10000 8.2 200 12:22 13.06.2019
6411 Clouds 18 1010 59 10000 6.7 210 11:56 13.06.2019
6412 Clouds 18 1010 67 10000 7.2 200 11:37 13.06.2019
6413 Clouds 18 1010 59 10000 7.7 190 11:18 13.06.2019
6414 Clouds 17 1010 59 10000 7.7 190 10:43 13.06.2019
6415 Clouds 17 1009 67 10000 7.2 200 10:23 13.06.2019
6416 Clouds 16 1009 77 10000 6.2 200 09:43 13.06.2019
6417 Clouds 16 1009 77 10000 6.2 200 09:23 13.06.2019
6418 Clouds 16 1010 72 10000 4.1 190 08:44 13.06.2019
6419 Clear 15 1009 77 10000 5.1 190 08:25 13.06.2019
6420 Clouds 14 1010 82 10000 3.6 160 07:53 13.06.2019
6421 Clear 13 1009 82 10000 3.6 170 07:25 13.06.2019
6422 Clouds 12 1010 87 10000 2.6 180 06:51 13.06.2019
6423 Clear 12 1009 87 10000 3.1 150 06:24 13.06.2019
6424 Clouds 11 1009 87 10000 2.6 160 05:55 13.06.2019
6425 Clouds 11 1009 87 10000 2.1 150 05:37 13.06.2019
6426 Clear 11 1009 87 7000 3.1 180 04:58 13.06.2019
6427 Clear 12 1009 93 10000 2.6 150 02:33 13.06.2019
6428 Clear 13 1009 82 7000 3.6 210 00:55 13.06.2019
6429 Clouds 13 1009 93 10000 1.5 170 00:27 13.06.2019
6430 Clouds 14 1009 93 10000 2.1 210 23:24 12.06.2019
6431 -273 0 0 0 0 0 22:45 12.06.2019
6432 Clouds 15 1008 77 10000 6.2 210 22:27 12.06.2019
6433 Clouds 15 1008 87 7000 4.1 210 21:57 12.06.2019
6434 Clouds 16 1007 77 10000 6.7 210 21:39 12.06.2019
6435 Rain 16 1007 82 8000 5.7 220 21:19 12.06.2019
6436 Clouds 17 1007 72 10000 7.7 220 20:40 12.06.2019
6437 Clouds 17 1007 72 10000 7.7 220 20:21 12.06.2019
6438 Clouds 17 1007 88 10000 5.7 210 19:56 12.06.2019
6439 Rain 17 1006 82 10000 7.2 200 19:37 12.06.2019
6440 Rain 17 1007 93 4500 3.1 110 19:18 12.06.2019
6441 Rain 17 1006 93 6000 3.1 130 18:40 12.06.2019
6442 Rain 17 1006 93 6000 3.1 130 18:22 12.06.2019
6443 Rain 17 1007 93 4500 2.1 70 17:45 12.06.2019
6444 Rain 17 1006 93 4700 3.1 80 17:21 12.06.2019
6445 Rain 17 1008 93 2500 1.5 160 16:43 12.06.2019
6446 Rain 17 1008 93 3500 1 100 16:24 12.06.2019
6447 -273 0 0 0 0 0 15:57 12.06.2019
6448 Rain 17 1007 93 6000 3.6 20 15:32 12.06.2019
6449 Rain 17 1008 88 6000 2.1 10 14:55 12.06.2019
6450 Drizzle 17 1008 87 10000 3.6 40 14:31 12.06.2019
6451 Clouds 17 1008 88 7000 4.6 30 13:56 12.06.2019
6452 Clouds 17 1008 88 7000 4.6 30 13:37 12.06.2019
6453 Clouds 17 1008 88 7000 4.6 30 13:18 12.06.2019
6454 Clouds 17 1009 77 10000 4.6 20 12:40 12.06.2019
6455 Clouds 18 1009 77 10000 4.6 20 12:20 12.06.2019
6456 Clouds 18 1010 77 10000 4.1 40 11:48 12.06.2019
6457 -273 0 0 0 0 0 11:29 12.06.2019
6458 Clouds 18 1010 77 10000 5.1 30 10:57 12.06.2019
6459 Rain 18 1009 72 10000 3.1 20 10:39 12.06.2019
6460 Clouds 18 1010 72 10000 4.6 20 09:59 12.06.2019
6461 Rain 17 1009 72 10000 3.1 30 09:41 12.06.2019
6462 Rain 17 1009 72 10000 3.1 30 09:19 12.06.2019
6463 Rain 15 1009 82 10000 2.1 330 08:28 12.06.2019
6464 Clouds 15 1010 93 10000 2.1 30 07:56 12.06.2019
6465 Clouds 13 1010 100 8000 1 10 07:18 12.06.2019
6466 Fog 12 1010 93 10000 1.5 100 06:39 12.06.2019
6467 Fog 12 1011 93 6000 2.6 350 05:25 12.06.2019
6468 Clouds 12 1011 100 6000 0.5 0 02:22 12.06.2019
6469 Clouds 12 1012 93 6000 1.5 350 00:47 12.06.2019
6470 Clouds 13 1012 87 6000 2.6 340 00:19 12.06.2019
6471 Clouds 14 1012 87 6000 2.6 340 23:42 11.06.2019
6472 Clouds 14 1012 93 10000 1.5 340 23:23 11.06.2019
6473 Clear 14 1012 82 10000 2.1 310 22:42 11.06.2019
6474 Clear 15 1012 72 8000 2.1 310 22:18 11.06.2019
6475 Clear 16 1012 72 8000 2.1 310 21:56 11.06.2019
6476 Clear 16 1012 77 10000 2.6 290 21:37 11.06.2019
6477 Clouds 17 1012 68 8000 4.1 290 21:19 11.06.2019
6478 Clouds 18 1012 68 8000 4.1 290 20:46 11.06.2019
6479 Clouds 18 1012 67 10000 3.1 260 20:22 11.06.2019
6480 Clouds 19 1012 68 10000 4.1 260 19:52 11.06.2019
6481 Clouds 19 1011 68 10000 3.6 260 19:29 11.06.2019
6482 Clouds 19 1011 68 10000 4.6 250 18:54 11.06.2019
6483 Clouds 19 1011 68 10000 4.6 220 18:21 11.06.2019
6484 Clouds 19 1011 68 10000 4.6 220 18:20 11.06.2019
6485 Clouds 19 1011 72 10000 4.6 250 17:41 11.06.2019
6486 Clouds 19 1011 72 10000 4.6 250 17:41 11.06.2019
6487 Clouds 19 1011 68 10000 4.6 250 17:20 11.06.2019
6488 Clouds 18 1011 77 10000 5.1 240 16:44 11.06.2019
6489 Clouds 18 1011 77 10000 5.1 240 16:24 11.06.2019
6490 Clouds 18 1011 77 10000 6.2 230 15:59 11.06.2019
6491 Clouds 18 1011 82 10000 6.2 240 15:41 11.06.2019
6492 Clouds 18 1010 77 10000 5.7 220 15:19 11.06.2019
6493 Clouds 17 1011 87 10000 6.7 230 14:41 11.06.2019
6494 Clouds 17 1011 87 10000 6.7 230 14:20 11.06.2019
6495 Clouds 17 1010 82 10000 4.6 230 13:50 11.06.2019
6496 Clouds 16 1010 88 8000 5.1 220 13:23 11.06.2019
6497 Clouds 16 1010 93 10000 4.6 240 12:43 11.06.2019
6498 Clouds 16 1010 93 10000 4.6 240 12:43 11.06.2019
6499 Clouds 16 1010 93 10000 4.6 240 12:22 11.06.2019
6500 Clouds 16 1010 93 7000 2.6 180 11:58 11.06.2019
6501 Mist 16 1010 93 6000 7.2 240 11:36 11.06.2019
6502 Mist 16 1010 93 5000 2.1 150 11:18 11.06.2019
6503 Mist 16 1010 93 5000 2.1 150 10:43 11.06.2019
6504 Rain 16 1009 100 5000 2.6 190 10:24 11.06.2019
6505 Rain 16 1009 100 3700 2.6 80 09:46 11.06.2019
6506 Drizzle 16 1009 100 1500 1 0 09:23 11.06.2019
6507 Drizzle 16 1009 100 1400 1 0 08:42 11.06.2019
6508 Drizzle 16 1009 100 1400 1 0 08:23 11.06.2019
6509 Drizzle 16 1009 100 2800 1.5 40 07:37 11.06.2019
6510 Drizzle 16 1009 93 2000 3.6 70 06:55 11.06.2019
6511 Mist 16 1009 93 2000 3.6 90 06:25 11.06.2019
6512 Rain 16 1009 100 4800 1.5 20 04:52 11.06.2019
6513 Rain 16 1010 100 5000 1.5 20 02:49 11.06.2019
6514 Rain 16 1009 93 8000 4.1 80 01:25 11.06.2019
6515 Drizzle 16 1010 93 5000 2.6 100 00:46 11.06.2019
6516 Rain 16 1010 93 5000 4.6 70 23:47 10.06.2019
6517 Rain 16 1010 93 7000 4.6 80 23:22 10.06.2019
6518 Rain 17 1011 82 5000 6.7 80 22:55 10.06.2019
6519 Thunderstorm 17 1010 88 10000 1.5 60 22:37 10.06.2019
6520 Thunderstorm 17 1011 77 7000 6.7 60 22:19 10.06.2019
6521 Rain 18 1010 77 10000 3.6 40 21:40 10.06.2019
6522 Rain 18 1010 77 10000 3.6 40 21:22 10.06.2019
6523 Rain 18 1011 82 6000 5.7 60 20:46 10.06.2019
6524 Rain 19 1010 72 10000 5.1 40 20:24 10.06.2019
6525 Rain 19 1011 77 7000 7.2 60 19:55 10.06.2019
6526 Rain 20 1010 72 10000 4.6 40 19:36 10.06.2019
6527 Rain 20 1012 68 8000 8.2 70 19:18 10.06.2019
6528 Rain 20 1012 68 8000 8.2 70 18:54 10.06.2019
6529 Rain 20 1011 64 10000 6.7 60 18:36 10.06.2019
6530 Rain 21 1012 68 7000 8.7 80 18:18 10.06.2019
6531 Clouds 21 1011 68 10000 7.2 70 17:39 10.06.2019
6532 Rain 21 1013 68 7000 6.7 50 17:19 10.06.2019
6533 Clouds 21 1012 64 10000 7.7 60 16:42 10.06.2019
6534 Clouds 21 1012 64 10000 7.7 60 16:24 10.06.2019
6535 Rain 21 1013 68 7000 7.2 60 15:42 10.06.2019
6536 Clouds 21 1012 60 10000 7.2 50 15:24 10.06.2019
6537 Clouds 21 1014 72 7000 7.2 80 14:58 10.06.2019
6538 Clouds 21 1012 60 10000 6.7 50 14:38 10.06.2019
6539 Clouds 21 1012 60 10000 6.7 50 14:20 10.06.2019
6540 Clouds 21 1014 68 7000 7.2 70 13:43 10.06.2019
6541 Clouds 21 1013 64 10000 6.7 40 13:21 10.06.2019
6542 Clouds 21 1014 68 6000 7.2 50 12:44 10.06.2019
6543 Clouds 20 1014 68 10000 6.7 20 12:25 10.06.2019
6544 Clouds 19 1015 63 7000 6.7 70 11:44 10.06.2019
6545 Clouds 19 1014 68 10000 6.2 20 11:26 10.06.2019
6546 Clouds 19 1015 68 6000 5.7 70 10:43 10.06.2019
6547 Clouds 18 1014 72 10000 6.2 10 10:21 10.06.2019
6548 Clouds 18 1015 72 6000 6.2 70 09:58 10.06.2019
6549 Clouds 17 1015 72 10000 6.7 20 09:39 10.06.2019
6550 Rain 17 1015 72 10000 6.7 20 09:19 10.06.2019
6551 Rain 16 1015 82 7000 3.6 20 08:45 10.06.2019
6552 Rain 15 1016 82 10000 4.6 10 08:25 10.06.2019
6553 Rain 15 1016 82 10000 4.6 20 07:26 10.06.2019
6554 Rain 14 1017 76 10000 4.1 50 04:41 10.06.2019
6555 Clouds 14 1020 82 6000 3.1 30 01:59 10.06.2019
6556 Clouds 14 1019 71 10000 3.1 40 01:27 10.06.2019
6557 Clouds 14 1020 76 7000 2.6 20 00:58 10.06.2019
6558 Clouds 14 1020 76 10000 3.1 40 00:24 10.06.2019
6559 Clouds 14 1021 71 8000 2.6 30 23:44 09.06.2019
6560 Clouds 14 1020 76 10000 3.6 40 23:21 09.06.2019
6561 Clouds 14 1020 76 10000 3.6 40 23:21 09.06.2019
6562 Clouds 14 1021 67 8000 3.1 50 22:45 09.06.2019
6563 Clouds 15 1021 76 10000 3.6 40 22:25 09.06.2019
6564 Clouds 15 1021 67 8000 3.1 30 21:46 09.06.2019
6565 Clouds 15 1021 72 10000 4.1 30 21:28 09.06.2019
6566 Clouds 16 1021 67 8000 3.6 10 20:58 09.06.2019
6567 Clouds 16 1021 67 10000 4.1 10 20:40 09.06.2019
6568 Clouds 16 1021 59 8000 4.6 20 20:21 09.06.2019
6569 Clouds 18 1021 67 10000 5.1 30 19:42 09.06.2019
6570 Clouds 18 1022 59 9000 5.1 360 19:18 09.06.2019
6571 Clouds 19 1022 59 9000 5.1 360 18:43 09.06.2019
6572 Rain 20 1021 45 10000 2.1 280 18:24 09.06.2019
6573 Rain 20 1022 59 8000 5.7 30 17:53 09.06.2019
6574 Rain 20 1021 48 10000 2.1 270 17:30 09.06.2019
6575 Rain 21 1022 37 9000 3.6 240 16:58 09.06.2019
6576 Rain 21 1022 45 10000 1.5 0 16:39 09.06.2019
6577 Rain 21 1022 45 10000 1.5 0 16:20 09.06.2019
6578 Rain 21 1022 40 8000 4.1 280 15:50 09.06.2019
6579 Rain 20 1022 45 10000 4.1 230 15:29 09.06.2019
6580 Clouds 20 1022 45 8000 4.1 240 14:54 09.06.2019
6581 Clouds 20 1022 52 10000 4.6 250 14:34 09.06.2019
6582 Clouds 20 1022 45 7000 5.1 230 13:57 09.06.2019
6583 Clouds 19 1023 55 10000 4.1 220 13:39 09.06.2019
6584 Rain 19 1023 48 7000 5.7 230 12:55 09.06.2019
6585 Clouds 18 1023 63 10000 5.1 220 12:34 09.06.2019
6586 Clouds 18 1023 63 10000 5.1 220 12:34 09.06.2019
6587 Clouds 18 1023 59 7000 5.1 210 11:51 09.06.2019
6588 Clouds 17 1023 72 10000 4.6 210 11:30 09.06.2019
6589 -273 0 0 0 0 0 10:59 09.06.2019
6590 -273 0 0 0 0 0 10:59 09.06.2019
6591 Clouds 16 1023 77 10000 4.6 200 10:40 09.06.2019
6592 Clouds 16 1023 71 7000 4.6 210 10:20 09.06.2019
6593 Clouds 15 1022 82 10000 4.6 200 09:38 09.06.2019
6594 Clouds 15 1022 82 10000 4.6 200 09:20 09.06.2019
6595 Clouds 14 1022 76 7000 5.7 220 08:45 09.06.2019
6596 Clouds 13 1022 76 6000 4.6 220 07:57 09.06.2019
6597 Clouds 11 1021 81 7000 4.1 210 06:48 09.06.2019
6598 Clouds 11 1021 87 10000 4.1 200 06:29 09.06.2019
6599 Clouds 12 1020 87 10000 4.1 210 03:25 09.06.2019
6600 Clouds 13 1019 71 10000 6.2 210 01:38 09.06.2019
6601 Clouds 13 1018 62 8000 6.2 220 01:19 09.06.2019
6602 Clouds 13 1018 62 8000 6.2 220 00:42 09.06.2019
6603 Clouds 14 1018 62 8000 6.2 220 23:42 08.06.2019
6604 Clouds 14 1018 58 10000 9.8 220 23:23 08.06.2019
6605 Clouds 14 1017 58 8000 5.1 220 22:56 08.06.2019
6606 Clouds 14 1017 58 10000 7.7 220 22:38 08.06.2019
6607 Clouds 14 1016 67 8000 5.7 210 22:19 08.06.2019
6608 Clouds 15 1016 67 8000 5.7 210 21:49 08.06.2019
6609 Clouds 15 1016 62 10000 8.7 230 21:25 08.06.2019
6610 Rain 15 1016 63 9000 7.2 220 20:46 08.06.2019
6611 Clouds 16 1015 59 10000 9.3 230 20:25 08.06.2019
6612 Rain 16 1015 67 8000 7.7 220 19:58 08.06.2019
6613 Clouds 16 1015 63 10000 8.2 210 19:39 08.06.2019
6614 Rain 16 1014 63 8000 10.8 210 19:19 08.06.2019
6615 Rain 15 1014 63 8000 10.8 210 18:51 08.06.2019
6616 Clouds 15 1014 72 10000 8.2 210 18:33 08.06.2019
6617 Rain 16 1014 59 8000 10.3 210 17:48 08.06.2019
6618 Clouds 15 1013 72 10000 10.8 200 17:23 08.06.2019
6619 Clouds 16 1013 77 10000 11.3 200 16:57 08.06.2019
6620 Clouds 15 1013 82 10000 10.8 220 16:38 08.06.2019
6621 Rain 15 1013 59 7000 9.8 220 15:56 08.06.2019
6622 Rain 15 1013 87 10000 9.8 230 15:36 08.06.2019
6623 Rain 15 1012 62 6000 9.8 200 14:50 08.06.2019
6624 Clouds 15 1011 67 10000 10.3 200 14:31 08.06.2019
6625 Rain 15 1012 62 6000 10.3 200 13:54 08.06.2019
6626 Clouds 14 1011 76 10000 9.8 190 13:24 08.06.2019
6627 Rain 14 1012 71 9000 8.7 200 12:45 08.06.2019
6628 Rain 14 1011 58 7000 9.3 200 12:19 08.06.2019
6629 Clouds 14 1010 76 10000 10.3 200 11:40 08.06.2019
6630 Clouds 14 1010 76 10000 10.3 200 11:21 08.06.2019
6631 Rain 14 1010 58 5000 9.8 200 10:44 08.06.2019
6632 Clouds 15 1009 67 10000 9.8 190 10:22 08.06.2019
6633 Clouds 15 1008 67 10000 10.3 190 09:43 08.06.2019
6634 Clouds 15 1009 55 4100 9.8 200 08:59 08.06.2019
6635 Clouds 15 1007 67 10000 10.3 180 08:28 08.06.2019
6636 Clouds 15 1008 62 10000 6.7 200 07:47 08.06.2019
6637 Clouds 15 1008 62 10000 5.7 180 06:48 08.06.2019
6638 Clear 14 1008 67 10000 6.2 170 05:42 08.06.2019
6639 Clouds 14 1008 72 10000 4.6 170 02:57 08.06.2019
6640 Clouds 15 1008 77 10000 5.1 180 00:59 08.06.2019
6641 Rain 15 1007 82 10000 4.6 150 00:25 08.06.2019
6642 Rain 15 1007 87 10000 3.1 150 23:41 07.06.2019
6643 Rain 15 1007 87 10000 3.1 150 23:20 07.06.2019
6644 Rain 15 1007 87 10000 3.1 180 22:39 07.06.2019
6645 Clouds 16 1007 87 10000 5.7 210 22:19 07.06.2019
6646 Rain 17 1007 64 10000 8.7 180 21:49 07.06.2019
6647 Rain 17 1005 93 6000 10.8 230 21:28 07.06.2019
6648 Thunderstorm 18 1006 49 10000 5.7 110 20:55 07.06.2019
6649 Thunderstorm 19 1005 88 1300 2.6 0 20:35 07.06.2019
6650 Clouds 21 1007 40 10000 7.2 120 19:48 07.06.2019
6651 Rain 22 1005 49 10000 3.6 110 19:21 07.06.2019
6652 Clouds 22 1008 40 10000 6.2 120 18:57 07.06.2019
6653 Rain 23 1006 49 10000 5.1 110 18:29 07.06.2019
6654 Clouds 23 1008 43 10000 7.7 110 17:48 07.06.2019
6655 Clouds 23 1007 43 10000 7.2 110 17:27 07.06.2019
6656 Clouds 23 1009 40 10000 8.2 110 16:57 07.06.2019
6657 Clouds 23 1008 46 10000 6.7 110 16:36 07.06.2019
6658 Clouds 23 1010 40 10000 8.2 120 15:50 07.06.2019
6659 Clouds 22 1008 49 10000 6.2 120 15:23 07.06.2019
6660 Clouds 22 1011 43 10000 7.7 100 14:47 07.06.2019
6661 Clouds 22 1009 46 10000 7.7 110 14:26 07.06.2019
6662 Clouds 21 1012 43 10000 7.7 110 13:47 07.06.2019
6663 Clouds 21 1010 52 10000 6.7 110 13:25 07.06.2019
6664 Clouds 20 1013 49 10000 6.7 110 12:50 07.06.2019
6665 Clouds 20 1011 55 10000 5.7 120 12:23 07.06.2019
6666 Clouds 19 1014 48 10000 6.2 100 11:49 07.06.2019
6667 Clouds 19 1012 63 10000 5.1 110 11:30 07.06.2019
6668 Clouds 18 1014 59 10000 5.7 120 10:50 07.06.2019
6669 Clouds 18 1013 63 10000 4.1 100 10:29 07.06.2019
6670 Clouds 18 1015 63 10000 5.1 110 09:57 07.06.2019
6671 Clouds 17 1013 82 10000 2.6 100 09:37 07.06.2019
6672 Clouds 16 1015 72 10000 3.1 130 09:18 07.06.2019
6673 Clouds 15 1015 72 10000 3.1 130